<?xml version="1.0" encoding="UTF-8" standalone="no" ?>
<gpx xmlns="http://www.topografix.com/GPX/1/1" xmlns:xsi="http://www.w3.org/2001/XMLSchema-instance" xsi:schemaLocation="http://www.topografix.com/GPX/1/1 http://www.topografix.com/GPX/1/1/gpx.xsd" version="1.1" creator="VisuGPX - https://www.visugpx.com">
  <metadata>
    <name>Liaison SP1 - 590m D+</name>
    <desc><![CDATA[

]]></desc>
  </metadata>
  <trk>
    <name><![CDATA[Liaison SP1 - 590m D+]]></name>
    <trkseg>
      <trkpt lat="43.55615" lon="2.91594">
        <ele>175</ele>
        <time>2019-03-03T09:14:09Z</time>
      </trkpt>
      <trkpt lat="43.55615" lon="2.91594">
        <ele>175</ele>
        <time>2019-03-03T09:14:09Z</time>
      </trkpt>
      <trkpt lat="43.55615" lon="2.91594">
        <ele>175</ele>
        <time>2019-03-03T09:14:09Z</time>
      </trkpt>
      <trkpt lat="43.55615" lon="2.91594">
        <ele>175</ele>
        <time>2019-03-03T09:14:10Z</time>
      </trkpt>
      <trkpt lat="43.55611" lon="2.91595">
        <ele>175</ele>
        <time>2019-03-03T09:14:16Z</time>
      </trkpt>
      <trkpt lat="43.55608" lon="2.91596">
        <ele>175</ele>
        <time>2019-03-03T09:14:17Z</time>
      </trkpt>
      <trkpt lat="43.55606" lon="2.91597">
        <ele>175</ele>
        <time>2019-03-03T09:14:18Z</time>
      </trkpt>
      <trkpt lat="43.55603" lon="2.91597">
        <ele>175</ele>
        <time>2019-03-03T09:14:19Z</time>
      </trkpt>
      <trkpt lat="43.556" lon="2.91596">
        <ele>175</ele>
        <time>2019-03-03T09:14:20Z</time>
      </trkpt>
      <trkpt lat="43.55598" lon="2.91594">
        <ele>175</ele>
        <time>2019-03-03T09:14:21Z</time>
      </trkpt>
      <trkpt lat="43.55596" lon="2.91591">
        <ele>175</ele>
        <time>2019-03-03T09:14:22Z</time>
      </trkpt>
      <trkpt lat="43.55595" lon="2.91588">
        <ele>175</ele>
        <time>2019-03-03T09:14:23Z</time>
      </trkpt>
      <trkpt lat="43.55595" lon="2.91584">
        <ele>175</ele>
        <time>2019-03-03T09:14:24Z</time>
      </trkpt>
      <trkpt lat="43.55594" lon="2.9158">
        <ele>175</ele>
        <time>2019-03-03T09:14:25Z</time>
      </trkpt>
      <trkpt lat="43.55593" lon="2.91576">
        <ele>175</ele>
        <time>2019-03-03T09:14:26Z</time>
      </trkpt>
      <trkpt lat="43.55592" lon="2.91572">
        <ele>175</ele>
        <time>2019-03-03T09:14:27Z</time>
      </trkpt>
      <trkpt lat="43.55591" lon="2.91568">
        <ele>175</ele>
        <time>2019-03-03T09:14:28Z</time>
      </trkpt>
      <trkpt lat="43.5559" lon="2.91564">
        <ele>175</ele>
        <time>2019-03-03T09:14:29Z</time>
      </trkpt>
      <trkpt lat="43.55589" lon="2.9156">
        <ele>175</ele>
        <time>2019-03-03T09:14:30Z</time>
      </trkpt>
      <trkpt lat="43.55589" lon="2.91556">
        <ele>175</ele>
        <time>2019-03-03T09:14:31Z</time>
      </trkpt>
      <trkpt lat="43.55588" lon="2.91552">
        <ele>175</ele>
        <time>2019-03-03T09:14:32Z</time>
      </trkpt>
      <trkpt lat="43.55587" lon="2.91548">
        <ele>175</ele>
        <time>2019-03-03T09:14:33Z</time>
      </trkpt>
      <trkpt lat="43.55586" lon="2.91544">
        <ele>175</ele>
        <time>2019-03-03T09:14:34Z</time>
      </trkpt>
      <trkpt lat="43.55585" lon="2.9154">
        <ele>175</ele>
        <time>2019-03-03T09:14:35Z</time>
      </trkpt>
      <trkpt lat="43.55584" lon="2.91536">
        <ele>175</ele>
        <time>2019-03-03T09:14:36Z</time>
      </trkpt>
      <trkpt lat="43.55583" lon="2.91532">
        <ele>176</ele>
        <time>2019-03-03T09:14:37Z</time>
      </trkpt>
      <trkpt lat="43.55582" lon="2.91528">
        <ele>176</ele>
        <time>2019-03-03T09:14:38Z</time>
      </trkpt>
      <trkpt lat="43.55581" lon="2.91524">
        <ele>176</ele>
        <time>2019-03-03T09:14:39Z</time>
      </trkpt>
      <trkpt lat="43.5558" lon="2.9152">
        <ele>176</ele>
        <time>2019-03-03T09:14:40Z</time>
      </trkpt>
      <trkpt lat="43.55579" lon="2.91515">
        <ele>176</ele>
        <time>2019-03-03T09:14:41Z</time>
      </trkpt>
      <trkpt lat="43.55578" lon="2.91511">
        <ele>177</ele>
        <time>2019-03-03T09:14:42Z</time>
      </trkpt>
      <trkpt lat="43.55577" lon="2.91507">
        <ele>177</ele>
        <time>2019-03-03T09:14:43Z</time>
      </trkpt>
      <trkpt lat="43.55576" lon="2.91503">
        <ele>177</ele>
        <time>2019-03-03T09:14:44Z</time>
      </trkpt>
      <trkpt lat="43.55575" lon="2.91499">
        <ele>177</ele>
        <time>2019-03-03T09:14:45Z</time>
      </trkpt>
      <trkpt lat="43.55574" lon="2.91495">
        <ele>178</ele>
        <time>2019-03-03T09:14:46Z</time>
      </trkpt>
      <trkpt lat="43.55573" lon="2.91491">
        <ele>178</ele>
        <time>2019-03-03T09:14:47Z</time>
      </trkpt>
      <trkpt lat="43.55572" lon="2.91487">
        <ele>179</ele>
        <time>2019-03-03T09:14:48Z</time>
      </trkpt>
      <trkpt lat="43.55571" lon="2.91483">
        <ele>179</ele>
        <time>2019-03-03T09:14:49Z</time>
      </trkpt>
      <trkpt lat="43.5557" lon="2.91479">
        <ele>179</ele>
        <time>2019-03-03T09:14:50Z</time>
      </trkpt>
      <trkpt lat="43.55569" lon="2.91475">
        <ele>179</ele>
        <time>2019-03-03T09:14:51Z</time>
      </trkpt>
      <trkpt lat="43.55568" lon="2.91472">
        <ele>180</ele>
        <time>2019-03-03T09:14:52Z</time>
      </trkpt>
      <trkpt lat="43.55567" lon="2.91468">
        <ele>180</ele>
        <time>2019-03-03T09:14:53Z</time>
      </trkpt>
      <trkpt lat="43.55566" lon="2.91464">
        <ele>180</ele>
        <time>2019-03-03T09:14:54Z</time>
      </trkpt>
      <trkpt lat="43.55565" lon="2.91461">
        <ele>180</ele>
        <time>2019-03-03T09:14:55Z</time>
      </trkpt>
      <trkpt lat="43.55564" lon="2.91457">
        <ele>180</ele>
        <time>2019-03-03T09:14:56Z</time>
      </trkpt>
      <trkpt lat="43.55563" lon="2.91453">
        <ele>180</ele>
        <time>2019-03-03T09:14:57Z</time>
      </trkpt>
      <trkpt lat="43.55563" lon="2.91449">
        <ele>181</ele>
        <time>2019-03-03T09:14:58Z</time>
      </trkpt>
      <trkpt lat="43.55562" lon="2.91446">
        <ele>181</ele>
        <time>2019-03-03T09:14:59Z</time>
      </trkpt>
      <trkpt lat="43.55561" lon="2.91443">
        <ele>181</ele>
        <time>2019-03-03T09:15:00Z</time>
      </trkpt>
      <trkpt lat="43.55561" lon="2.91439">
        <ele>181</ele>
        <time>2019-03-03T09:15:01Z</time>
      </trkpt>
      <trkpt lat="43.5556" lon="2.91436">
        <ele>182</ele>
        <time>2019-03-03T09:15:02Z</time>
      </trkpt>
      <trkpt lat="43.55559" lon="2.91432">
        <ele>182</ele>
        <time>2019-03-03T09:15:03Z</time>
      </trkpt>
      <trkpt lat="43.55559" lon="2.91429">
        <ele>182</ele>
        <time>2019-03-03T09:15:04Z</time>
      </trkpt>
      <trkpt lat="43.55558" lon="2.91426">
        <ele>182</ele>
        <time>2019-03-03T09:15:05Z</time>
      </trkpt>
      <trkpt lat="43.55558" lon="2.91422">
        <ele>183</ele>
        <time>2019-03-03T09:15:06Z</time>
      </trkpt>
      <trkpt lat="43.55557" lon="2.91419">
        <ele>183</ele>
        <time>2019-03-03T09:15:07Z</time>
      </trkpt>
      <trkpt lat="43.55556" lon="2.91415">
        <ele>183</ele>
        <time>2019-03-03T09:15:08Z</time>
      </trkpt>
      <trkpt lat="43.55556" lon="2.91412">
        <ele>183</ele>
        <time>2019-03-03T09:15:09Z</time>
      </trkpt>
      <trkpt lat="43.55555" lon="2.91408">
        <ele>183</ele>
        <time>2019-03-03T09:15:10Z</time>
      </trkpt>
      <trkpt lat="43.55555" lon="2.91405">
        <ele>184</ele>
        <time>2019-03-03T09:15:11Z</time>
      </trkpt>
      <trkpt lat="43.55554" lon="2.91402">
        <ele>184</ele>
        <time>2019-03-03T09:15:12Z</time>
      </trkpt>
      <trkpt lat="43.55554" lon="2.91398">
        <ele>185</ele>
        <time>2019-03-03T09:15:13Z</time>
      </trkpt>
      <trkpt lat="43.55554" lon="2.91395">
        <ele>185</ele>
        <time>2019-03-03T09:15:14Z</time>
      </trkpt>
      <trkpt lat="43.55554" lon="2.91391">
        <ele>185</ele>
        <time>2019-03-03T09:15:15Z</time>
      </trkpt>
      <trkpt lat="43.55553" lon="2.91387">
        <ele>185</ele>
        <time>2019-03-03T09:15:16Z</time>
      </trkpt>
      <trkpt lat="43.55552" lon="2.91383">
        <ele>186</ele>
        <time>2019-03-03T09:15:17Z</time>
      </trkpt>
      <trkpt lat="43.55552" lon="2.91379">
        <ele>186</ele>
        <time>2019-03-03T09:15:18Z</time>
      </trkpt>
      <trkpt lat="43.55551" lon="2.91375">
        <ele>186</ele>
        <time>2019-03-03T09:15:19Z</time>
      </trkpt>
      <trkpt lat="43.5555" lon="2.91371">
        <ele>186</ele>
        <time>2019-03-03T09:15:20Z</time>
      </trkpt>
      <trkpt lat="43.55549" lon="2.91367">
        <ele>186</ele>
        <time>2019-03-03T09:15:21Z</time>
      </trkpt>
      <trkpt lat="43.55549" lon="2.91364">
        <ele>187</ele>
        <time>2019-03-03T09:15:22Z</time>
      </trkpt>
      <trkpt lat="43.55548" lon="2.9136">
        <ele>187</ele>
        <time>2019-03-03T09:15:23Z</time>
      </trkpt>
      <trkpt lat="43.55547" lon="2.91356">
        <ele>187</ele>
        <time>2019-03-03T09:15:24Z</time>
      </trkpt>
      <trkpt lat="43.55547" lon="2.91353">
        <ele>187</ele>
        <time>2019-03-03T09:15:25Z</time>
      </trkpt>
      <trkpt lat="43.55547" lon="2.91349">
        <ele>187</ele>
        <time>2019-03-03T09:15:26Z</time>
      </trkpt>
      <trkpt lat="43.55546" lon="2.91345">
        <ele>187</ele>
        <time>2019-03-03T09:15:27Z</time>
      </trkpt>
      <trkpt lat="43.55545" lon="2.9134">
        <ele>187</ele>
        <time>2019-03-03T09:15:28Z</time>
      </trkpt>
      <trkpt lat="43.55545" lon="2.91336">
        <ele>187</ele>
        <time>2019-03-03T09:15:29Z</time>
      </trkpt>
      <trkpt lat="43.55544" lon="2.91332">
        <ele>187</ele>
        <time>2019-03-03T09:15:30Z</time>
      </trkpt>
      <trkpt lat="43.55543" lon="2.91328">
        <ele>188</ele>
        <time>2019-03-03T09:15:31Z</time>
      </trkpt>
      <trkpt lat="43.55542" lon="2.91323">
        <ele>188</ele>
        <time>2019-03-03T09:15:32Z</time>
      </trkpt>
      <trkpt lat="43.55541" lon="2.91319">
        <ele>188</ele>
        <time>2019-03-03T09:15:33Z</time>
      </trkpt>
      <trkpt lat="43.5554" lon="2.91315">
        <ele>188</ele>
        <time>2019-03-03T09:15:34Z</time>
      </trkpt>
      <trkpt lat="43.55539" lon="2.91311">
        <ele>188</ele>
        <time>2019-03-03T09:15:35Z</time>
      </trkpt>
      <trkpt lat="43.55538" lon="2.91307">
        <ele>188</ele>
        <time>2019-03-03T09:15:36Z</time>
      </trkpt>
      <trkpt lat="43.55537" lon="2.91303">
        <ele>188</ele>
        <time>2019-03-03T09:15:37Z</time>
      </trkpt>
      <trkpt lat="43.55536" lon="2.91298">
        <ele>188</ele>
        <time>2019-03-03T09:15:38Z</time>
      </trkpt>
      <trkpt lat="43.55534" lon="2.91294">
        <ele>188</ele>
        <time>2019-03-03T09:15:39Z</time>
      </trkpt>
      <trkpt lat="43.55533" lon="2.9129">
        <ele>188</ele>
        <time>2019-03-03T09:15:40Z</time>
      </trkpt>
      <trkpt lat="43.55531" lon="2.91286">
        <ele>188</ele>
        <time>2019-03-03T09:15:41Z</time>
      </trkpt>
      <trkpt lat="43.5553" lon="2.91282">
        <ele>188</ele>
        <time>2019-03-03T09:15:42Z</time>
      </trkpt>
      <trkpt lat="43.55528" lon="2.91278">
        <ele>188</ele>
        <time>2019-03-03T09:15:43Z</time>
      </trkpt>
      <trkpt lat="43.55526" lon="2.91274">
        <ele>188</ele>
        <time>2019-03-03T09:15:44Z</time>
      </trkpt>
      <trkpt lat="43.55523" lon="2.9127">
        <ele>189</ele>
        <time>2019-03-03T09:15:45Z</time>
      </trkpt>
      <trkpt lat="43.55521" lon="2.91267">
        <ele>189</ele>
        <time>2019-03-03T09:15:46Z</time>
      </trkpt>
      <trkpt lat="43.55519" lon="2.91263">
        <ele>189</ele>
        <time>2019-03-03T09:15:47Z</time>
      </trkpt>
      <trkpt lat="43.55516" lon="2.91259">
        <ele>189</ele>
        <time>2019-03-03T09:15:48Z</time>
      </trkpt>
      <trkpt lat="43.55514" lon="2.91255">
        <ele>189</ele>
        <time>2019-03-03T09:15:49Z</time>
      </trkpt>
      <trkpt lat="43.55511" lon="2.91251">
        <ele>189</ele>
        <time>2019-03-03T09:15:50Z</time>
      </trkpt>
      <trkpt lat="43.55509" lon="2.91248">
        <ele>189</ele>
        <time>2019-03-03T09:15:51Z</time>
      </trkpt>
      <trkpt lat="43.55506" lon="2.91244">
        <ele>189</ele>
        <time>2019-03-03T09:15:52Z</time>
      </trkpt>
      <trkpt lat="43.55504" lon="2.9124">
        <ele>189</ele>
        <time>2019-03-03T09:15:53Z</time>
      </trkpt>
      <trkpt lat="43.55502" lon="2.91237">
        <ele>189</ele>
        <time>2019-03-03T09:15:54Z</time>
      </trkpt>
      <trkpt lat="43.55499" lon="2.91233">
        <ele>189</ele>
        <time>2019-03-03T09:15:55Z</time>
      </trkpt>
      <trkpt lat="43.55497" lon="2.91228">
        <ele>189</ele>
        <time>2019-03-03T09:15:56Z</time>
      </trkpt>
      <trkpt lat="43.55494" lon="2.91224">
        <ele>189</ele>
        <time>2019-03-03T09:15:57Z</time>
      </trkpt>
      <trkpt lat="43.55491" lon="2.9122">
        <ele>189</ele>
        <time>2019-03-03T09:15:58Z</time>
      </trkpt>
      <trkpt lat="43.55488" lon="2.91215">
        <ele>189</ele>
        <time>2019-03-03T09:15:59Z</time>
      </trkpt>
      <trkpt lat="43.55485" lon="2.9121">
        <ele>189</ele>
        <time>2019-03-03T09:16:00Z</time>
      </trkpt>
      <trkpt lat="43.55482" lon="2.91204">
        <ele>189</ele>
        <time>2019-03-03T09:16:01Z</time>
      </trkpt>
      <trkpt lat="43.55478" lon="2.91199">
        <ele>189</ele>
        <time>2019-03-03T09:16:02Z</time>
      </trkpt>
      <trkpt lat="43.55474" lon="2.91193">
        <ele>189</ele>
        <time>2019-03-03T09:16:03Z</time>
      </trkpt>
      <trkpt lat="43.5547" lon="2.91188">
        <ele>189</ele>
        <time>2019-03-03T09:16:04Z</time>
      </trkpt>
      <trkpt lat="43.55466" lon="2.91183">
        <ele>189</ele>
        <time>2019-03-03T09:16:05Z</time>
      </trkpt>
      <trkpt lat="43.55461" lon="2.91178">
        <ele>188</ele>
        <time>2019-03-03T09:16:06Z</time>
      </trkpt>
      <trkpt lat="43.55456" lon="2.91172">
        <ele>188</ele>
        <time>2019-03-03T09:16:07Z</time>
      </trkpt>
      <trkpt lat="43.55451" lon="2.91167">
        <ele>188</ele>
        <time>2019-03-03T09:16:08Z</time>
      </trkpt>
      <trkpt lat="43.55446" lon="2.91162">
        <ele>187</ele>
        <time>2019-03-03T09:16:09Z</time>
      </trkpt>
      <trkpt lat="43.55441" lon="2.91157">
        <ele>186</ele>
        <time>2019-03-03T09:16:10Z</time>
      </trkpt>
      <trkpt lat="43.55435" lon="2.91151">
        <ele>186</ele>
        <time>2019-03-03T09:16:11Z</time>
      </trkpt>
      <trkpt lat="43.55429" lon="2.91146">
        <ele>185</ele>
        <time>2019-03-03T09:16:12Z</time>
      </trkpt>
      <trkpt lat="43.55423" lon="2.91141">
        <ele>185</ele>
        <time>2019-03-03T09:16:13Z</time>
      </trkpt>
      <trkpt lat="43.55417" lon="2.91137">
        <ele>184</ele>
        <time>2019-03-03T09:16:14Z</time>
      </trkpt>
      <trkpt lat="43.55411" lon="2.91133">
        <ele>184</ele>
        <time>2019-03-03T09:16:15Z</time>
      </trkpt>
      <trkpt lat="43.55405" lon="2.9113">
        <ele>183</ele>
        <time>2019-03-03T09:16:16Z</time>
      </trkpt>
      <trkpt lat="43.55398" lon="2.91128">
        <ele>182</ele>
        <time>2019-03-03T09:16:17Z</time>
      </trkpt>
      <trkpt lat="43.55391" lon="2.91126">
        <ele>182</ele>
        <time>2019-03-03T09:16:18Z</time>
      </trkpt>
      <trkpt lat="43.55385" lon="2.91124">
        <ele>181</ele>
        <time>2019-03-03T09:16:19Z</time>
      </trkpt>
      <trkpt lat="43.55379" lon="2.91122">
        <ele>181</ele>
        <time>2019-03-03T09:16:20Z</time>
      </trkpt>
      <trkpt lat="43.55373" lon="2.9112">
        <ele>180</ele>
        <time>2019-03-03T09:16:21Z</time>
      </trkpt>
      <trkpt lat="43.55367" lon="2.91117">
        <ele>180</ele>
        <time>2019-03-03T09:16:22Z</time>
      </trkpt>
      <trkpt lat="43.55361" lon="2.91114">
        <ele>179</ele>
        <time>2019-03-03T09:16:23Z</time>
      </trkpt>
      <trkpt lat="43.55356" lon="2.91111">
        <ele>179</ele>
        <time>2019-03-03T09:16:24Z</time>
      </trkpt>
      <trkpt lat="43.55351" lon="2.91109">
        <ele>179</ele>
        <time>2019-03-03T09:16:25Z</time>
      </trkpt>
      <trkpt lat="43.55346" lon="2.91106">
        <ele>179</ele>
        <time>2019-03-03T09:16:26Z</time>
      </trkpt>
      <trkpt lat="43.55342" lon="2.91103">
        <ele>178</ele>
        <time>2019-03-03T09:16:27Z</time>
      </trkpt>
      <trkpt lat="43.55337" lon="2.911">
        <ele>178</ele>
        <time>2019-03-03T09:16:28Z</time>
      </trkpt>
      <trkpt lat="43.55333" lon="2.91097">
        <ele>178</ele>
        <time>2019-03-03T09:16:29Z</time>
      </trkpt>
      <trkpt lat="43.55329" lon="2.91094">
        <ele>178</ele>
        <time>2019-03-03T09:16:30Z</time>
      </trkpt>
      <trkpt lat="43.55325" lon="2.91091">
        <ele>178</ele>
        <time>2019-03-03T09:16:31Z</time>
      </trkpt>
      <trkpt lat="43.55321" lon="2.91088">
        <ele>178</ele>
        <time>2019-03-03T09:16:32Z</time>
      </trkpt>
      <trkpt lat="43.55317" lon="2.91086">
        <ele>178</ele>
        <time>2019-03-03T09:16:33Z</time>
      </trkpt>
      <trkpt lat="43.55313" lon="2.91083">
        <ele>178</ele>
        <time>2019-03-03T09:16:34Z</time>
      </trkpt>
      <trkpt lat="43.55309" lon="2.91081">
        <ele>178</ele>
        <time>2019-03-03T09:16:35Z</time>
      </trkpt>
      <trkpt lat="43.55305" lon="2.91079">
        <ele>179</ele>
        <time>2019-03-03T09:16:36Z</time>
      </trkpt>
      <trkpt lat="43.553" lon="2.91077">
        <ele>179</ele>
        <time>2019-03-03T09:16:37Z</time>
      </trkpt>
      <trkpt lat="43.55296" lon="2.91075">
        <ele>179</ele>
        <time>2019-03-03T09:16:38Z</time>
      </trkpt>
      <trkpt lat="43.55292" lon="2.91072">
        <ele>179</ele>
        <time>2019-03-03T09:16:39Z</time>
      </trkpt>
      <trkpt lat="43.55288" lon="2.9107">
        <ele>179</ele>
        <time>2019-03-03T09:16:40Z</time>
      </trkpt>
      <trkpt lat="43.55285" lon="2.91068">
        <ele>179</ele>
        <time>2019-03-03T09:16:41Z</time>
      </trkpt>
      <trkpt lat="43.55281" lon="2.91066">
        <ele>179</ele>
        <time>2019-03-03T09:16:42Z</time>
      </trkpt>
      <trkpt lat="43.55277" lon="2.91065">
        <ele>180</ele>
        <time>2019-03-03T09:16:43Z</time>
      </trkpt>
      <trkpt lat="43.55274" lon="2.91063">
        <ele>180</ele>
        <time>2019-03-03T09:16:44Z</time>
      </trkpt>
      <trkpt lat="43.55271" lon="2.91061">
        <ele>180</ele>
        <time>2019-03-03T09:16:45Z</time>
      </trkpt>
      <trkpt lat="43.55267" lon="2.91059">
        <ele>180</ele>
        <time>2019-03-03T09:16:46Z</time>
      </trkpt>
      <trkpt lat="43.55264" lon="2.91057">
        <ele>181</ele>
        <time>2019-03-03T09:16:47Z</time>
      </trkpt>
      <trkpt lat="43.5526" lon="2.91055">
        <ele>181</ele>
        <time>2019-03-03T09:16:48Z</time>
      </trkpt>
      <trkpt lat="43.55257" lon="2.91053">
        <ele>181</ele>
        <time>2019-03-03T09:16:49Z</time>
      </trkpt>
      <trkpt lat="43.55254" lon="2.9105">
        <ele>181</ele>
        <time>2019-03-03T09:16:50Z</time>
      </trkpt>
      <trkpt lat="43.55251" lon="2.91048">
        <ele>182</ele>
        <time>2019-03-03T09:16:51Z</time>
      </trkpt>
      <trkpt lat="43.55249" lon="2.91045">
        <ele>182</ele>
        <time>2019-03-03T09:16:52Z</time>
      </trkpt>
      <trkpt lat="43.55246" lon="2.91042">
        <ele>182</ele>
        <time>2019-03-03T09:16:53Z</time>
      </trkpt>
      <trkpt lat="43.55243" lon="2.91039">
        <ele>183</ele>
        <time>2019-03-03T09:16:54Z</time>
      </trkpt>
      <trkpt lat="43.55241" lon="2.91036">
        <ele>183</ele>
        <time>2019-03-03T09:16:55Z</time>
      </trkpt>
      <trkpt lat="43.55238" lon="2.91033">
        <ele>183</ele>
        <time>2019-03-03T09:16:56Z</time>
      </trkpt>
      <trkpt lat="43.55236" lon="2.91029">
        <ele>184</ele>
        <time>2019-03-03T09:16:57Z</time>
      </trkpt>
      <trkpt lat="43.55233" lon="2.91026">
        <ele>184</ele>
        <time>2019-03-03T09:16:58Z</time>
      </trkpt>
      <trkpt lat="43.55231" lon="2.91022">
        <ele>184</ele>
        <time>2019-03-03T09:16:59Z</time>
      </trkpt>
      <trkpt lat="43.55229" lon="2.91019">
        <ele>184</ele>
        <time>2019-03-03T09:17:00Z</time>
      </trkpt>
      <trkpt lat="43.55226" lon="2.91016">
        <ele>185</ele>
        <time>2019-03-03T09:17:01Z</time>
      </trkpt>
      <trkpt lat="43.55224" lon="2.91013">
        <ele>185</ele>
        <time>2019-03-03T09:17:02Z</time>
      </trkpt>
      <trkpt lat="43.55221" lon="2.9101">
        <ele>185</ele>
        <time>2019-03-03T09:17:03Z</time>
      </trkpt>
      <trkpt lat="43.55219" lon="2.91007">
        <ele>186</ele>
        <time>2019-03-03T09:17:04Z</time>
      </trkpt>
      <trkpt lat="43.55216" lon="2.91004">
        <ele>186</ele>
        <time>2019-03-03T09:17:05Z</time>
      </trkpt>
      <trkpt lat="43.55213" lon="2.91002">
        <ele>186</ele>
        <time>2019-03-03T09:17:06Z</time>
      </trkpt>
      <trkpt lat="43.5521" lon="2.91">
        <ele>186</ele>
        <time>2019-03-03T09:17:07Z</time>
      </trkpt>
      <trkpt lat="43.55208" lon="2.90998">
        <ele>186</ele>
        <time>2019-03-03T09:17:08Z</time>
      </trkpt>
      <trkpt lat="43.55205" lon="2.90996">
        <ele>187</ele>
        <time>2019-03-03T09:17:09Z</time>
      </trkpt>
      <trkpt lat="43.55202" lon="2.90994">
        <ele>187</ele>
        <time>2019-03-03T09:17:10Z</time>
      </trkpt>
      <trkpt lat="43.552" lon="2.90992">
        <ele>187</ele>
        <time>2019-03-03T09:17:11Z</time>
      </trkpt>
      <trkpt lat="43.55197" lon="2.9099">
        <ele>187</ele>
        <time>2019-03-03T09:17:12Z</time>
      </trkpt>
      <trkpt lat="43.55195" lon="2.90988">
        <ele>188</ele>
        <time>2019-03-03T09:17:13Z</time>
      </trkpt>
      <trkpt lat="43.55192" lon="2.90986">
        <ele>188</ele>
        <time>2019-03-03T09:17:14Z</time>
      </trkpt>
      <trkpt lat="43.55189" lon="2.90984">
        <ele>188</ele>
        <time>2019-03-03T09:17:15Z</time>
      </trkpt>
      <trkpt lat="43.55187" lon="2.90983">
        <ele>188</ele>
        <time>2019-03-03T09:17:16Z</time>
      </trkpt>
      <trkpt lat="43.55184" lon="2.90981">
        <ele>188</ele>
        <time>2019-03-03T09:17:17Z</time>
      </trkpt>
      <trkpt lat="43.55181" lon="2.90979">
        <ele>188</ele>
        <time>2019-03-03T09:17:18Z</time>
      </trkpt>
      <trkpt lat="43.55179" lon="2.90978">
        <ele>188</ele>
        <time>2019-03-03T09:17:19Z</time>
      </trkpt>
      <trkpt lat="43.55177" lon="2.90976">
        <ele>189</ele>
        <time>2019-03-03T09:17:20Z</time>
      </trkpt>
      <trkpt lat="43.55175" lon="2.90974">
        <ele>189</ele>
        <time>2019-03-03T09:17:21Z</time>
      </trkpt>
      <trkpt lat="43.55173" lon="2.90972">
        <ele>189</ele>
        <time>2019-03-03T09:17:22Z</time>
      </trkpt>
      <trkpt lat="43.55171" lon="2.9097">
        <ele>189</ele>
        <time>2019-03-03T09:17:23Z</time>
      </trkpt>
      <trkpt lat="43.5517" lon="2.90968">
        <ele>189</ele>
        <time>2019-03-03T09:17:24Z</time>
      </trkpt>
      <trkpt lat="43.55168" lon="2.90966">
        <ele>190</ele>
        <time>2019-03-03T09:17:25Z</time>
      </trkpt>
      <trkpt lat="43.55166" lon="2.90964">
        <ele>190</ele>
        <time>2019-03-03T09:17:26Z</time>
      </trkpt>
      <trkpt lat="43.55165" lon="2.90961">
        <ele>190</ele>
        <time>2019-03-03T09:17:27Z</time>
      </trkpt>
      <trkpt lat="43.55163" lon="2.90959">
        <ele>191</ele>
        <time>2019-03-03T09:17:28Z</time>
      </trkpt>
      <trkpt lat="43.55162" lon="2.90956">
        <ele>191</ele>
        <time>2019-03-03T09:17:29Z</time>
      </trkpt>
      <trkpt lat="43.55161" lon="2.90953">
        <ele>191</ele>
        <time>2019-03-03T09:17:30Z</time>
      </trkpt>
      <trkpt lat="43.55159" lon="2.9095">
        <ele>192</ele>
        <time>2019-03-03T09:17:31Z</time>
      </trkpt>
      <trkpt lat="43.55157" lon="2.90947">
        <ele>192</ele>
        <time>2019-03-03T09:17:32Z</time>
      </trkpt>
      <trkpt lat="43.55156" lon="2.90943">
        <ele>192</ele>
        <time>2019-03-03T09:17:33Z</time>
      </trkpt>
      <trkpt lat="43.55155" lon="2.9094">
        <ele>193</ele>
        <time>2019-03-03T09:17:34Z</time>
      </trkpt>
      <trkpt lat="43.55154" lon="2.90936">
        <ele>193</ele>
        <time>2019-03-03T09:17:35Z</time>
      </trkpt>
      <trkpt lat="43.55153" lon="2.90933">
        <ele>193</ele>
        <time>2019-03-03T09:17:36Z</time>
      </trkpt>
      <trkpt lat="43.55152" lon="2.90929">
        <ele>193</ele>
        <time>2019-03-03T09:17:37Z</time>
      </trkpt>
      <trkpt lat="43.55151" lon="2.90925">
        <ele>193</ele>
        <time>2019-03-03T09:17:38Z</time>
      </trkpt>
      <trkpt lat="43.55149" lon="2.90921">
        <ele>194</ele>
        <time>2019-03-03T09:17:39Z</time>
      </trkpt>
      <trkpt lat="43.55148" lon="2.90917">
        <ele>194</ele>
        <time>2019-03-03T09:17:40Z</time>
      </trkpt>
      <trkpt lat="43.55147" lon="2.90913">
        <ele>194</ele>
        <time>2019-03-03T09:17:41Z</time>
      </trkpt>
      <trkpt lat="43.55146" lon="2.90909">
        <ele>194</ele>
        <time>2019-03-03T09:17:42Z</time>
      </trkpt>
      <trkpt lat="43.55144" lon="2.90905">
        <ele>194</ele>
        <time>2019-03-03T09:17:43Z</time>
      </trkpt>
      <trkpt lat="43.55143" lon="2.90902">
        <ele>195</ele>
        <time>2019-03-03T09:17:44Z</time>
      </trkpt>
      <trkpt lat="43.55141" lon="2.90898">
        <ele>195</ele>
        <time>2019-03-03T09:17:45Z</time>
      </trkpt>
      <trkpt lat="43.5514" lon="2.90894">
        <ele>195</ele>
        <time>2019-03-03T09:17:46Z</time>
      </trkpt>
      <trkpt lat="43.55138" lon="2.90891">
        <ele>195</ele>
        <time>2019-03-03T09:17:47Z</time>
      </trkpt>
      <trkpt lat="43.55137" lon="2.90887">
        <ele>195</ele>
        <time>2019-03-03T09:17:48Z</time>
      </trkpt>
      <trkpt lat="43.55135" lon="2.90884">
        <ele>196</ele>
        <time>2019-03-03T09:17:49Z</time>
      </trkpt>
      <trkpt lat="43.55134" lon="2.90881">
        <ele>196</ele>
        <time>2019-03-03T09:17:50Z</time>
      </trkpt>
      <trkpt lat="43.55132" lon="2.90877">
        <ele>196</ele>
        <time>2019-03-03T09:17:51Z</time>
      </trkpt>
      <trkpt lat="43.5513" lon="2.90874">
        <ele>196</ele>
        <time>2019-03-03T09:17:52Z</time>
      </trkpt>
      <trkpt lat="43.55128" lon="2.90871">
        <ele>196</ele>
        <time>2019-03-03T09:17:53Z</time>
      </trkpt>
      <trkpt lat="43.55125" lon="2.90868">
        <ele>196</ele>
        <time>2019-03-03T09:17:54Z</time>
      </trkpt>
      <trkpt lat="43.55123" lon="2.90865">
        <ele>196</ele>
        <time>2019-03-03T09:17:55Z</time>
      </trkpt>
      <trkpt lat="43.5512" lon="2.90862">
        <ele>197</ele>
        <time>2019-03-03T09:17:56Z</time>
      </trkpt>
      <trkpt lat="43.55118" lon="2.90859">
        <ele>197</ele>
        <time>2019-03-03T09:17:57Z</time>
      </trkpt>
      <trkpt lat="43.55116" lon="2.90856">
        <ele>197</ele>
        <time>2019-03-03T09:17:58Z</time>
      </trkpt>
      <trkpt lat="43.55113" lon="2.90852">
        <ele>197</ele>
        <time>2019-03-03T09:17:59Z</time>
      </trkpt>
      <trkpt lat="43.55111" lon="2.90849">
        <ele>197</ele>
        <time>2019-03-03T09:18:00Z</time>
      </trkpt>
      <trkpt lat="43.55109" lon="2.90846">
        <ele>198</ele>
        <time>2019-03-03T09:18:01Z</time>
      </trkpt>
      <trkpt lat="43.55107" lon="2.90843">
        <ele>198</ele>
        <time>2019-03-03T09:18:02Z</time>
      </trkpt>
      <trkpt lat="43.55105" lon="2.90839">
        <ele>198</ele>
        <time>2019-03-03T09:18:03Z</time>
      </trkpt>
      <trkpt lat="43.55103" lon="2.90835">
        <ele>198</ele>
        <time>2019-03-03T09:18:04Z</time>
      </trkpt>
      <trkpt lat="43.55102" lon="2.90832">
        <ele>198</ele>
        <time>2019-03-03T09:18:05Z</time>
      </trkpt>
      <trkpt lat="43.551" lon="2.90828">
        <ele>198</ele>
        <time>2019-03-03T09:18:06Z</time>
      </trkpt>
      <trkpt lat="43.55099" lon="2.90824">
        <ele>198</ele>
        <time>2019-03-03T09:18:07Z</time>
      </trkpt>
      <trkpt lat="43.55097" lon="2.9082">
        <ele>199</ele>
        <time>2019-03-03T09:18:08Z</time>
      </trkpt>
      <trkpt lat="43.55096" lon="2.90815">
        <ele>199</ele>
        <time>2019-03-03T09:18:09Z</time>
      </trkpt>
      <trkpt lat="43.55095" lon="2.90811">
        <ele>199</ele>
        <time>2019-03-03T09:18:10Z</time>
      </trkpt>
      <trkpt lat="43.55094" lon="2.90807">
        <ele>199</ele>
        <time>2019-03-03T09:18:11Z</time>
      </trkpt>
      <trkpt lat="43.55093" lon="2.90802">
        <ele>199</ele>
        <time>2019-03-03T09:18:12Z</time>
      </trkpt>
      <trkpt lat="43.55093" lon="2.90797">
        <ele>199</ele>
        <time>2019-03-03T09:18:13Z</time>
      </trkpt>
      <trkpt lat="43.55092" lon="2.90793">
        <ele>199</ele>
        <time>2019-03-03T09:18:14Z</time>
      </trkpt>
      <trkpt lat="43.55091" lon="2.90789">
        <ele>199</ele>
        <time>2019-03-03T09:18:15Z</time>
      </trkpt>
      <trkpt lat="43.55091" lon="2.90784">
        <ele>200</ele>
        <time>2019-03-03T09:18:16Z</time>
      </trkpt>
      <trkpt lat="43.5509" lon="2.9078">
        <ele>200</ele>
        <time>2019-03-03T09:18:17Z</time>
      </trkpt>
      <trkpt lat="43.55089" lon="2.90776">
        <ele>200</ele>
        <time>2019-03-03T09:18:18Z</time>
      </trkpt>
      <trkpt lat="43.55088" lon="2.90772">
        <ele>200</ele>
        <time>2019-03-03T09:18:19Z</time>
      </trkpt>
      <trkpt lat="43.55088" lon="2.90767">
        <ele>200</ele>
        <time>2019-03-03T09:18:20Z</time>
      </trkpt>
      <trkpt lat="43.55088" lon="2.90764">
        <ele>200</ele>
        <time>2019-03-03T09:18:21Z</time>
      </trkpt>
      <trkpt lat="43.55087" lon="2.9076">
        <ele>200</ele>
        <time>2019-03-03T09:18:22Z</time>
      </trkpt>
      <trkpt lat="43.55086" lon="2.90757">
        <ele>201</ele>
        <time>2019-03-03T09:18:23Z</time>
      </trkpt>
      <trkpt lat="43.55086" lon="2.90753">
        <ele>201</ele>
        <time>2019-03-03T09:18:24Z</time>
      </trkpt>
      <trkpt lat="43.55085" lon="2.9075">
        <ele>201</ele>
        <time>2019-03-03T09:18:25Z</time>
      </trkpt>
      <trkpt lat="43.55085" lon="2.90747">
        <ele>201</ele>
        <time>2019-03-03T09:18:26Z</time>
      </trkpt>
      <trkpt lat="43.55085" lon="2.90743">
        <ele>201</ele>
        <time>2019-03-03T09:18:27Z</time>
      </trkpt>
      <trkpt lat="43.55083" lon="2.9074">
        <ele>202</ele>
        <time>2019-03-03T09:18:28Z</time>
      </trkpt>
      <trkpt lat="43.55082" lon="2.90736">
        <ele>202</ele>
        <time>2019-03-03T09:18:29Z</time>
      </trkpt>
      <trkpt lat="43.5508" lon="2.90733">
        <ele>202</ele>
        <time>2019-03-03T09:18:30Z</time>
      </trkpt>
      <trkpt lat="43.55079" lon="2.90729">
        <ele>202</ele>
        <time>2019-03-03T09:18:31Z</time>
      </trkpt>
      <trkpt lat="43.55078" lon="2.90726">
        <ele>202</ele>
        <time>2019-03-03T09:18:32Z</time>
      </trkpt>
      <trkpt lat="43.55077" lon="2.90723">
        <ele>202</ele>
        <time>2019-03-03T09:18:33Z</time>
      </trkpt>
      <trkpt lat="43.55075" lon="2.9072">
        <ele>203</ele>
        <time>2019-03-03T09:18:34Z</time>
      </trkpt>
      <trkpt lat="43.55074" lon="2.90716">
        <ele>203</ele>
        <time>2019-03-03T09:18:35Z</time>
      </trkpt>
      <trkpt lat="43.55073" lon="2.90713">
        <ele>203</ele>
        <time>2019-03-03T09:18:36Z</time>
      </trkpt>
      <trkpt lat="43.55072" lon="2.9071">
        <ele>203</ele>
        <time>2019-03-03T09:18:37Z</time>
      </trkpt>
      <trkpt lat="43.5507" lon="2.90707">
        <ele>203</ele>
        <time>2019-03-03T09:18:38Z</time>
      </trkpt>
      <trkpt lat="43.55069" lon="2.90703">
        <ele>204</ele>
        <time>2019-03-03T09:18:39Z</time>
      </trkpt>
      <trkpt lat="43.55068" lon="2.907">
        <ele>204</ele>
        <time>2019-03-03T09:18:40Z</time>
      </trkpt>
      <trkpt lat="43.55067" lon="2.90697">
        <ele>204</ele>
        <time>2019-03-03T09:18:41Z</time>
      </trkpt>
      <trkpt lat="43.55065" lon="2.90694">
        <ele>204</ele>
        <time>2019-03-03T09:18:42Z</time>
      </trkpt>
      <trkpt lat="43.55063" lon="2.90691">
        <ele>204</ele>
        <time>2019-03-03T09:18:43Z</time>
      </trkpt>
      <trkpt lat="43.55061" lon="2.90688">
        <ele>205</ele>
        <time>2019-03-03T09:18:44Z</time>
      </trkpt>
      <trkpt lat="43.55059" lon="2.90684">
        <ele>205</ele>
        <time>2019-03-03T09:18:45Z</time>
      </trkpt>
      <trkpt lat="43.55057" lon="2.90681">
        <ele>205</ele>
        <time>2019-03-03T09:18:46Z</time>
      </trkpt>
      <trkpt lat="43.55054" lon="2.90678">
        <ele>205</ele>
        <time>2019-03-03T09:18:47Z</time>
      </trkpt>
      <trkpt lat="43.55052" lon="2.90674">
        <ele>205</ele>
        <time>2019-03-03T09:18:48Z</time>
      </trkpt>
      <trkpt lat="43.5505" lon="2.90671">
        <ele>206</ele>
        <time>2019-03-03T09:18:49Z</time>
      </trkpt>
      <trkpt lat="43.55048" lon="2.90668">
        <ele>206</ele>
        <time>2019-03-03T09:18:50Z</time>
      </trkpt>
      <trkpt lat="43.55046" lon="2.90665">
        <ele>206</ele>
        <time>2019-03-03T09:18:51Z</time>
      </trkpt>
      <trkpt lat="43.55043" lon="2.90662">
        <ele>206</ele>
        <time>2019-03-03T09:18:52Z</time>
      </trkpt>
      <trkpt lat="43.55042" lon="2.9066">
        <ele>206</ele>
        <time>2019-03-03T09:18:53Z</time>
      </trkpt>
      <trkpt lat="43.5504" lon="2.90656">
        <ele>207</ele>
        <time>2019-03-03T09:18:54Z</time>
      </trkpt>
      <trkpt lat="43.55039" lon="2.90653">
        <ele>207</ele>
        <time>2019-03-03T09:18:55Z</time>
      </trkpt>
      <trkpt lat="43.55037" lon="2.9065">
        <ele>207</ele>
        <time>2019-03-03T09:18:56Z</time>
      </trkpt>
      <trkpt lat="43.55035" lon="2.90647">
        <ele>207</ele>
        <time>2019-03-03T09:18:57Z</time>
      </trkpt>
      <trkpt lat="43.55033" lon="2.90644">
        <ele>207</ele>
        <time>2019-03-03T09:18:58Z</time>
      </trkpt>
      <trkpt lat="43.55032" lon="2.90641">
        <ele>208</ele>
        <time>2019-03-03T09:18:59Z</time>
      </trkpt>
      <trkpt lat="43.55031" lon="2.90638">
        <ele>208</ele>
        <time>2019-03-03T09:19:00Z</time>
      </trkpt>
      <trkpt lat="43.55029" lon="2.90635">
        <ele>208</ele>
        <time>2019-03-03T09:19:01Z</time>
      </trkpt>
      <trkpt lat="43.55027" lon="2.90632">
        <ele>209</ele>
        <time>2019-03-03T09:19:02Z</time>
      </trkpt>
      <trkpt lat="43.55025" lon="2.90629">
        <ele>209</ele>
        <time>2019-03-03T09:19:03Z</time>
      </trkpt>
      <trkpt lat="43.55024" lon="2.90625">
        <ele>209</ele>
        <time>2019-03-03T09:19:04Z</time>
      </trkpt>
      <trkpt lat="43.55023" lon="2.90622">
        <ele>209</ele>
        <time>2019-03-03T09:19:05Z</time>
      </trkpt>
      <trkpt lat="43.55021" lon="2.90618">
        <ele>209</ele>
        <time>2019-03-03T09:19:06Z</time>
      </trkpt>
      <trkpt lat="43.55021" lon="2.90614">
        <ele>210</ele>
        <time>2019-03-03T09:19:07Z</time>
      </trkpt>
      <trkpt lat="43.5502" lon="2.90611">
        <ele>210</ele>
        <time>2019-03-03T09:19:08Z</time>
      </trkpt>
      <trkpt lat="43.5502" lon="2.90608">
        <ele>210</ele>
        <time>2019-03-03T09:19:09Z</time>
      </trkpt>
      <trkpt lat="43.55019" lon="2.90605">
        <ele>210</ele>
        <time>2019-03-03T09:19:10Z</time>
      </trkpt>
      <trkpt lat="43.55019" lon="2.90601">
        <ele>210</ele>
        <time>2019-03-03T09:19:11Z</time>
      </trkpt>
      <trkpt lat="43.55018" lon="2.90597">
        <ele>211</ele>
        <time>2019-03-03T09:19:12Z</time>
      </trkpt>
      <trkpt lat="43.55017" lon="2.90593">
        <ele>211</ele>
        <time>2019-03-03T09:19:13Z</time>
      </trkpt>
      <trkpt lat="43.55017" lon="2.90589">
        <ele>211</ele>
        <time>2019-03-03T09:19:14Z</time>
      </trkpt>
      <trkpt lat="43.55016" lon="2.90585">
        <ele>212</ele>
        <time>2019-03-03T09:19:15Z</time>
      </trkpt>
      <trkpt lat="43.55015" lon="2.90581">
        <ele>212</ele>
        <time>2019-03-03T09:19:16Z</time>
      </trkpt>
      <trkpt lat="43.55015" lon="2.90577">
        <ele>212</ele>
        <time>2019-03-03T09:19:17Z</time>
      </trkpt>
      <trkpt lat="43.55014" lon="2.90573">
        <ele>212</ele>
        <time>2019-03-03T09:19:18Z</time>
      </trkpt>
      <trkpt lat="43.55013" lon="2.90569">
        <ele>212</ele>
        <time>2019-03-03T09:19:19Z</time>
      </trkpt>
      <trkpt lat="43.55013" lon="2.90565">
        <ele>212</ele>
        <time>2019-03-03T09:19:20Z</time>
      </trkpt>
      <trkpt lat="43.55013" lon="2.90561">
        <ele>212</ele>
        <time>2019-03-03T09:19:21Z</time>
      </trkpt>
      <trkpt lat="43.55012" lon="2.90557">
        <ele>213</ele>
        <time>2019-03-03T09:19:22Z</time>
      </trkpt>
      <trkpt lat="43.55011" lon="2.90552">
        <ele>213</ele>
        <time>2019-03-03T09:19:23Z</time>
      </trkpt>
      <trkpt lat="43.55011" lon="2.90548">
        <ele>213</ele>
        <time>2019-03-03T09:19:24Z</time>
      </trkpt>
      <trkpt lat="43.55011" lon="2.90544">
        <ele>213</ele>
        <time>2019-03-03T09:19:25Z</time>
      </trkpt>
      <trkpt lat="43.5501" lon="2.9054">
        <ele>213</ele>
        <time>2019-03-03T09:19:26Z</time>
      </trkpt>
      <trkpt lat="43.5501" lon="2.90536">
        <ele>214</ele>
        <time>2019-03-03T09:19:27Z</time>
      </trkpt>
      <trkpt lat="43.5501" lon="2.90531">
        <ele>214</ele>
        <time>2019-03-03T09:19:28Z</time>
      </trkpt>
      <trkpt lat="43.55009" lon="2.90527">
        <ele>214</ele>
        <time>2019-03-03T09:19:29Z</time>
      </trkpt>
      <trkpt lat="43.5501" lon="2.90523">
        <ele>214</ele>
        <time>2019-03-03T09:19:30Z</time>
      </trkpt>
      <trkpt lat="43.5501" lon="2.90518">
        <ele>215</ele>
        <time>2019-03-03T09:19:31Z</time>
      </trkpt>
      <trkpt lat="43.55009" lon="2.90514">
        <ele>215</ele>
        <time>2019-03-03T09:19:32Z</time>
      </trkpt>
      <trkpt lat="43.55009" lon="2.9051">
        <ele>215</ele>
        <time>2019-03-03T09:19:33Z</time>
      </trkpt>
      <trkpt lat="43.55009" lon="2.90506">
        <ele>215</ele>
        <time>2019-03-03T09:19:34Z</time>
      </trkpt>
      <trkpt lat="43.55009" lon="2.90502">
        <ele>215</ele>
        <time>2019-03-03T09:19:35Z</time>
      </trkpt>
      <trkpt lat="43.55009" lon="2.90498">
        <ele>216</ele>
        <time>2019-03-03T09:19:36Z</time>
      </trkpt>
      <trkpt lat="43.55008" lon="2.90494">
        <ele>216</ele>
        <time>2019-03-03T09:19:37Z</time>
      </trkpt>
      <trkpt lat="43.55008" lon="2.9049">
        <ele>216</ele>
        <time>2019-03-03T09:19:38Z</time>
      </trkpt>
      <trkpt lat="43.55007" lon="2.90486">
        <ele>216</ele>
        <time>2019-03-03T09:19:39Z</time>
      </trkpt>
      <trkpt lat="43.55006" lon="2.90482">
        <ele>216</ele>
        <time>2019-03-03T09:19:40Z</time>
      </trkpt>
      <trkpt lat="43.55005" lon="2.90478">
        <ele>217</ele>
        <time>2019-03-03T09:19:41Z</time>
      </trkpt>
      <trkpt lat="43.55004" lon="2.90474">
        <ele>217</ele>
        <time>2019-03-03T09:19:42Z</time>
      </trkpt>
      <trkpt lat="43.55002" lon="2.9047">
        <ele>217</ele>
        <time>2019-03-03T09:19:43Z</time>
      </trkpt>
      <trkpt lat="43.55" lon="2.90467">
        <ele>217</ele>
        <time>2019-03-03T09:19:44Z</time>
      </trkpt>
      <trkpt lat="43.54999" lon="2.90463">
        <ele>217</ele>
        <time>2019-03-03T09:19:45Z</time>
      </trkpt>
      <trkpt lat="43.54997" lon="2.90459">
        <ele>217</ele>
        <time>2019-03-03T09:19:46Z</time>
      </trkpt>
      <trkpt lat="43.54995" lon="2.90456">
        <ele>218</ele>
        <time>2019-03-03T09:19:47Z</time>
      </trkpt>
      <trkpt lat="43.54993" lon="2.90452">
        <ele>218</ele>
        <time>2019-03-03T09:19:48Z</time>
      </trkpt>
      <trkpt lat="43.54991" lon="2.90448">
        <ele>218</ele>
        <time>2019-03-03T09:19:49Z</time>
      </trkpt>
      <trkpt lat="43.54989" lon="2.90445">
        <ele>218</ele>
        <time>2019-03-03T09:19:50Z</time>
      </trkpt>
      <trkpt lat="43.54987" lon="2.90442">
        <ele>218</ele>
        <time>2019-03-03T09:19:51Z</time>
      </trkpt>
      <trkpt lat="43.54985" lon="2.90438">
        <ele>218</ele>
        <time>2019-03-03T09:19:52Z</time>
      </trkpt>
      <trkpt lat="43.54983" lon="2.90435">
        <ele>219</ele>
        <time>2019-03-03T09:19:53Z</time>
      </trkpt>
      <trkpt lat="43.54981" lon="2.90432">
        <ele>219</ele>
        <time>2019-03-03T09:19:54Z</time>
      </trkpt>
      <trkpt lat="43.54979" lon="2.90429">
        <ele>219</ele>
        <time>2019-03-03T09:19:55Z</time>
      </trkpt>
      <trkpt lat="43.54977" lon="2.90426">
        <ele>219</ele>
        <time>2019-03-03T09:19:56Z</time>
      </trkpt>
      <trkpt lat="43.54975" lon="2.90423">
        <ele>219</ele>
        <time>2019-03-03T09:19:57Z</time>
      </trkpt>
      <trkpt lat="43.54973" lon="2.9042">
        <ele>220</ele>
        <time>2019-03-03T09:19:58Z</time>
      </trkpt>
      <trkpt lat="43.54971" lon="2.90418">
        <ele>220</ele>
        <time>2019-03-03T09:19:59Z</time>
      </trkpt>
      <trkpt lat="43.54969" lon="2.90415">
        <ele>220</ele>
        <time>2019-03-03T09:20:00Z</time>
      </trkpt>
      <trkpt lat="43.54967" lon="2.90412">
        <ele>220</ele>
        <time>2019-03-03T09:20:01Z</time>
      </trkpt>
      <trkpt lat="43.54965" lon="2.9041">
        <ele>220</ele>
        <time>2019-03-03T09:20:02Z</time>
      </trkpt>
      <trkpt lat="43.54963" lon="2.90407">
        <ele>221</ele>
        <time>2019-03-03T09:20:03Z</time>
      </trkpt>
      <trkpt lat="43.54961" lon="2.90404">
        <ele>221</ele>
        <time>2019-03-03T09:20:04Z</time>
      </trkpt>
      <trkpt lat="43.54959" lon="2.90402">
        <ele>221</ele>
        <time>2019-03-03T09:20:05Z</time>
      </trkpt>
      <trkpt lat="43.54957" lon="2.90398">
        <ele>221</ele>
        <time>2019-03-03T09:20:06Z</time>
      </trkpt>
      <trkpt lat="43.54955" lon="2.90395">
        <ele>221</ele>
        <time>2019-03-03T09:20:07Z</time>
      </trkpt>
      <trkpt lat="43.54953" lon="2.90392">
        <ele>221</ele>
        <time>2019-03-03T09:20:08Z</time>
      </trkpt>
      <trkpt lat="43.54951" lon="2.90389">
        <ele>222</ele>
        <time>2019-03-03T09:20:09Z</time>
      </trkpt>
      <trkpt lat="43.54949" lon="2.90386">
        <ele>222</ele>
        <time>2019-03-03T09:20:10Z</time>
      </trkpt>
      <trkpt lat="43.54947" lon="2.90384">
        <ele>222</ele>
        <time>2019-03-03T09:20:11Z</time>
      </trkpt>
      <trkpt lat="43.54944" lon="2.90381">
        <ele>222</ele>
        <time>2019-03-03T09:20:12Z</time>
      </trkpt>
      <trkpt lat="43.54942" lon="2.90378">
        <ele>222</ele>
        <time>2019-03-03T09:20:13Z</time>
      </trkpt>
      <trkpt lat="43.5494" lon="2.90376">
        <ele>223</ele>
        <time>2019-03-03T09:20:14Z</time>
      </trkpt>
      <trkpt lat="43.54938" lon="2.90373">
        <ele>223</ele>
        <time>2019-03-03T09:20:15Z</time>
      </trkpt>
      <trkpt lat="43.54935" lon="2.9037">
        <ele>223</ele>
        <time>2019-03-03T09:20:16Z</time>
      </trkpt>
      <trkpt lat="43.54933" lon="2.90368">
        <ele>223</ele>
        <time>2019-03-03T09:20:17Z</time>
      </trkpt>
      <trkpt lat="43.54931" lon="2.90365">
        <ele>223</ele>
        <time>2019-03-03T09:20:18Z</time>
      </trkpt>
      <trkpt lat="43.54928" lon="2.90363">
        <ele>223</ele>
        <time>2019-03-03T09:20:19Z</time>
      </trkpt>
      <trkpt lat="43.54926" lon="2.9036">
        <ele>223</ele>
        <time>2019-03-03T09:20:20Z</time>
      </trkpt>
      <trkpt lat="43.54923" lon="2.90358">
        <ele>224</ele>
        <time>2019-03-03T09:20:21Z</time>
      </trkpt>
      <trkpt lat="43.54921" lon="2.90356">
        <ele>224</ele>
        <time>2019-03-03T09:20:22Z</time>
      </trkpt>
      <trkpt lat="43.54919" lon="2.90353">
        <ele>224</ele>
        <time>2019-03-03T09:20:23Z</time>
      </trkpt>
      <trkpt lat="43.54916" lon="2.90351">
        <ele>225</ele>
        <time>2019-03-03T09:20:24Z</time>
      </trkpt>
      <trkpt lat="43.54914" lon="2.90349">
        <ele>225</ele>
        <time>2019-03-03T09:20:25Z</time>
      </trkpt>
      <trkpt lat="43.54912" lon="2.90347">
        <ele>225</ele>
        <time>2019-03-03T09:20:26Z</time>
      </trkpt>
      <trkpt lat="43.54909" lon="2.90345">
        <ele>226</ele>
        <time>2019-03-03T09:20:27Z</time>
      </trkpt>
      <trkpt lat="43.54907" lon="2.90343">
        <ele>226</ele>
        <time>2019-03-03T09:20:28Z</time>
      </trkpt>
      <trkpt lat="43.54905" lon="2.9034">
        <ele>226</ele>
        <time>2019-03-03T09:20:29Z</time>
      </trkpt>
      <trkpt lat="43.54902" lon="2.90338">
        <ele>226</ele>
        <time>2019-03-03T09:20:30Z</time>
      </trkpt>
      <trkpt lat="43.549" lon="2.90336">
        <ele>227</ele>
        <time>2019-03-03T09:20:31Z</time>
      </trkpt>
      <trkpt lat="43.54898" lon="2.90333">
        <ele>227</ele>
        <time>2019-03-03T09:20:32Z</time>
      </trkpt>
      <trkpt lat="43.54895" lon="2.90331">
        <ele>227</ele>
        <time>2019-03-03T09:20:33Z</time>
      </trkpt>
      <trkpt lat="43.54893" lon="2.90329">
        <ele>228</ele>
        <time>2019-03-03T09:20:34Z</time>
      </trkpt>
      <trkpt lat="43.54891" lon="2.90326">
        <ele>228</ele>
        <time>2019-03-03T09:20:35Z</time>
      </trkpt>
      <trkpt lat="43.54889" lon="2.90323">
        <ele>228</ele>
        <time>2019-03-03T09:20:36Z</time>
      </trkpt>
      <trkpt lat="43.54887" lon="2.90321">
        <ele>228</ele>
        <time>2019-03-03T09:20:37Z</time>
      </trkpt>
      <trkpt lat="43.54885" lon="2.90319">
        <ele>229</ele>
        <time>2019-03-03T09:20:38Z</time>
      </trkpt>
      <trkpt lat="43.54883" lon="2.90317">
        <ele>229</ele>
        <time>2019-03-03T09:20:39Z</time>
      </trkpt>
      <trkpt lat="43.54881" lon="2.90314">
        <ele>229</ele>
        <time>2019-03-03T09:20:40Z</time>
      </trkpt>
      <trkpt lat="43.54879" lon="2.90312">
        <ele>230</ele>
        <time>2019-03-03T09:20:41Z</time>
      </trkpt>
      <trkpt lat="43.54877" lon="2.90309">
        <ele>230</ele>
        <time>2019-03-03T09:20:42Z</time>
      </trkpt>
      <trkpt lat="43.54875" lon="2.90307">
        <ele>230</ele>
        <time>2019-03-03T09:20:43Z</time>
      </trkpt>
      <trkpt lat="43.54873" lon="2.90304">
        <ele>230</ele>
        <time>2019-03-03T09:20:44Z</time>
      </trkpt>
      <trkpt lat="43.54871" lon="2.90301">
        <ele>231</ele>
        <time>2019-03-03T09:20:45Z</time>
      </trkpt>
      <trkpt lat="43.54869" lon="2.90299">
        <ele>231</ele>
        <time>2019-03-03T09:20:46Z</time>
      </trkpt>
      <trkpt lat="43.54867" lon="2.90296">
        <ele>231</ele>
        <time>2019-03-03T09:20:47Z</time>
      </trkpt>
      <trkpt lat="43.54866" lon="2.90294">
        <ele>231</ele>
        <time>2019-03-03T09:20:48Z</time>
      </trkpt>
      <trkpt lat="43.54863" lon="2.90291">
        <ele>231</ele>
        <time>2019-03-03T09:20:49Z</time>
      </trkpt>
      <trkpt lat="43.54861" lon="2.90288">
        <ele>232</ele>
        <time>2019-03-03T09:20:50Z</time>
      </trkpt>
      <trkpt lat="43.54859" lon="2.90285">
        <ele>232</ele>
        <time>2019-03-03T09:20:51Z</time>
      </trkpt>
      <trkpt lat="43.54857" lon="2.90283">
        <ele>232</ele>
        <time>2019-03-03T09:20:52Z</time>
      </trkpt>
      <trkpt lat="43.54855" lon="2.9028">
        <ele>232</ele>
        <time>2019-03-03T09:20:53Z</time>
      </trkpt>
      <trkpt lat="43.54853" lon="2.90278">
        <ele>233</ele>
        <time>2019-03-03T09:20:54Z</time>
      </trkpt>
      <trkpt lat="43.54851" lon="2.90275">
        <ele>233</ele>
        <time>2019-03-03T09:20:55Z</time>
      </trkpt>
      <trkpt lat="43.54849" lon="2.90272">
        <ele>233</ele>
        <time>2019-03-03T09:20:56Z</time>
      </trkpt>
      <trkpt lat="43.54847" lon="2.9027">
        <ele>233</ele>
        <time>2019-03-03T09:20:57Z</time>
      </trkpt>
      <trkpt lat="43.54845" lon="2.90267">
        <ele>234</ele>
        <time>2019-03-03T09:20:58Z</time>
      </trkpt>
      <trkpt lat="43.54843" lon="2.90265">
        <ele>234</ele>
        <time>2019-03-03T09:20:59Z</time>
      </trkpt>
      <trkpt lat="43.54842" lon="2.90262">
        <ele>234</ele>
        <time>2019-03-03T09:21:00Z</time>
      </trkpt>
      <trkpt lat="43.5484" lon="2.9026">
        <ele>234</ele>
        <time>2019-03-03T09:21:01Z</time>
      </trkpt>
      <trkpt lat="43.54838" lon="2.90258">
        <ele>234</ele>
        <time>2019-03-03T09:21:02Z</time>
      </trkpt>
      <trkpt lat="43.54836" lon="2.90255">
        <ele>235</ele>
        <time>2019-03-03T09:21:03Z</time>
      </trkpt>
      <trkpt lat="43.54835" lon="2.90253">
        <ele>235</ele>
        <time>2019-03-03T09:21:04Z</time>
      </trkpt>
      <trkpt lat="43.54833" lon="2.9025">
        <ele>235</ele>
        <time>2019-03-03T09:21:05Z</time>
      </trkpt>
      <trkpt lat="43.54831" lon="2.90247">
        <ele>235</ele>
        <time>2019-03-03T09:21:06Z</time>
      </trkpt>
      <trkpt lat="43.54829" lon="2.90245">
        <ele>235</ele>
        <time>2019-03-03T09:21:07Z</time>
      </trkpt>
      <trkpt lat="43.54828" lon="2.90242">
        <ele>236</ele>
        <time>2019-03-03T09:21:08Z</time>
      </trkpt>
      <trkpt lat="43.54826" lon="2.9024">
        <ele>236</ele>
        <time>2019-03-03T09:21:09Z</time>
      </trkpt>
      <trkpt lat="43.54824" lon="2.90238">
        <ele>236</ele>
        <time>2019-03-03T09:21:10Z</time>
      </trkpt>
      <trkpt lat="43.54822" lon="2.90235">
        <ele>236</ele>
        <time>2019-03-03T09:21:11Z</time>
      </trkpt>
      <trkpt lat="43.54821" lon="2.90233">
        <ele>236</ele>
        <time>2019-03-03T09:21:12Z</time>
      </trkpt>
      <trkpt lat="43.54819" lon="2.9023">
        <ele>237</ele>
        <time>2019-03-03T09:21:13Z</time>
      </trkpt>
      <trkpt lat="43.54817" lon="2.90227">
        <ele>237</ele>
        <time>2019-03-03T09:21:14Z</time>
      </trkpt>
      <trkpt lat="43.54815" lon="2.90224">
        <ele>237</ele>
        <time>2019-03-03T09:21:15Z</time>
      </trkpt>
      <trkpt lat="43.54813" lon="2.90221">
        <ele>237</ele>
        <time>2019-03-03T09:21:16Z</time>
      </trkpt>
      <trkpt lat="43.54811" lon="2.90218">
        <ele>238</ele>
        <time>2019-03-03T09:21:17Z</time>
      </trkpt>
      <trkpt lat="43.54809" lon="2.90216">
        <ele>238</ele>
        <time>2019-03-03T09:21:18Z</time>
      </trkpt>
      <trkpt lat="43.54807" lon="2.90213">
        <ele>238</ele>
        <time>2019-03-03T09:21:19Z</time>
      </trkpt>
      <trkpt lat="43.54805" lon="2.9021">
        <ele>238</ele>
        <time>2019-03-03T09:21:20Z</time>
      </trkpt>
      <trkpt lat="43.54804" lon="2.90207">
        <ele>238</ele>
        <time>2019-03-03T09:21:21Z</time>
      </trkpt>
      <trkpt lat="43.54802" lon="2.90204">
        <ele>238</ele>
        <time>2019-03-03T09:21:22Z</time>
      </trkpt>
      <trkpt lat="43.54799" lon="2.90202">
        <ele>239</ele>
        <time>2019-03-03T09:21:23Z</time>
      </trkpt>
      <trkpt lat="43.54797" lon="2.902">
        <ele>239</ele>
        <time>2019-03-03T09:21:24Z</time>
      </trkpt>
      <trkpt lat="43.54794" lon="2.902">
        <ele>239</ele>
        <time>2019-03-03T09:21:25Z</time>
      </trkpt>
      <trkpt lat="43.54792" lon="2.90201">
        <ele>239</ele>
        <time>2019-03-03T09:21:26Z</time>
      </trkpt>
      <trkpt lat="43.5479" lon="2.90203">
        <ele>240</ele>
        <time>2019-03-03T09:21:27Z</time>
      </trkpt>
      <trkpt lat="43.5479" lon="2.90206">
        <ele>240</ele>
        <time>2019-03-03T09:21:28Z</time>
      </trkpt>
      <trkpt lat="43.5479" lon="2.9021">
        <ele>240</ele>
        <time>2019-03-03T09:21:29Z</time>
      </trkpt>
      <trkpt lat="43.54791" lon="2.90212">
        <ele>240</ele>
        <time>2019-03-03T09:21:30Z</time>
      </trkpt>
      <trkpt lat="43.54792" lon="2.90215">
        <ele>241</ele>
        <time>2019-03-03T09:21:31Z</time>
      </trkpt>
      <trkpt lat="43.54793" lon="2.90218">
        <ele>241</ele>
        <time>2019-03-03T09:21:32Z</time>
      </trkpt>
      <trkpt lat="43.54795" lon="2.90221">
        <ele>241</ele>
        <time>2019-03-03T09:21:33Z</time>
      </trkpt>
      <trkpt lat="43.54797" lon="2.90223">
        <ele>241</ele>
        <time>2019-03-03T09:21:34Z</time>
      </trkpt>
      <trkpt lat="43.54798" lon="2.90226">
        <ele>241</ele>
        <time>2019-03-03T09:21:35Z</time>
      </trkpt>
      <trkpt lat="43.548" lon="2.90228">
        <ele>242</ele>
        <time>2019-03-03T09:21:36Z</time>
      </trkpt>
      <trkpt lat="43.54802" lon="2.90231">
        <ele>242</ele>
        <time>2019-03-03T09:21:37Z</time>
      </trkpt>
      <trkpt lat="43.54804" lon="2.90234">
        <ele>242</ele>
        <time>2019-03-03T09:21:38Z</time>
      </trkpt>
      <trkpt lat="43.54805" lon="2.90237">
        <ele>242</ele>
        <time>2019-03-03T09:21:39Z</time>
      </trkpt>
      <trkpt lat="43.54807" lon="2.9024">
        <ele>243</ele>
        <time>2019-03-03T09:21:40Z</time>
      </trkpt>
      <trkpt lat="43.54809" lon="2.90243">
        <ele>243</ele>
        <time>2019-03-03T09:21:41Z</time>
      </trkpt>
      <trkpt lat="43.54811" lon="2.90246">
        <ele>243</ele>
        <time>2019-03-03T09:21:42Z</time>
      </trkpt>
      <trkpt lat="43.54812" lon="2.90249">
        <ele>243</ele>
        <time>2019-03-03T09:21:43Z</time>
      </trkpt>
      <trkpt lat="43.54814" lon="2.90253">
        <ele>244</ele>
        <time>2019-03-03T09:21:44Z</time>
      </trkpt>
      <trkpt lat="43.54816" lon="2.90256">
        <ele>244</ele>
        <time>2019-03-03T09:21:45Z</time>
      </trkpt>
      <trkpt lat="43.54817" lon="2.90259">
        <ele>244</ele>
        <time>2019-03-03T09:21:46Z</time>
      </trkpt>
      <trkpt lat="43.54819" lon="2.90262">
        <ele>244</ele>
        <time>2019-03-03T09:21:47Z</time>
      </trkpt>
      <trkpt lat="43.54821" lon="2.90265">
        <ele>244</ele>
        <time>2019-03-03T09:21:48Z</time>
      </trkpt>
      <trkpt lat="43.54822" lon="2.90269">
        <ele>245</ele>
        <time>2019-03-03T09:21:49Z</time>
      </trkpt>
      <trkpt lat="43.54824" lon="2.90272">
        <ele>245</ele>
        <time>2019-03-03T09:21:50Z</time>
      </trkpt>
      <trkpt lat="43.54826" lon="2.90275">
        <ele>245</ele>
        <time>2019-03-03T09:21:51Z</time>
      </trkpt>
      <trkpt lat="43.54827" lon="2.90278">
        <ele>245</ele>
        <time>2019-03-03T09:21:52Z</time>
      </trkpt>
      <trkpt lat="43.54829" lon="2.90282">
        <ele>245</ele>
        <time>2019-03-03T09:21:53Z</time>
      </trkpt>
      <trkpt lat="43.5483" lon="2.90285">
        <ele>245</ele>
        <time>2019-03-03T09:21:54Z</time>
      </trkpt>
      <trkpt lat="43.54831" lon="2.90288">
        <ele>246</ele>
        <time>2019-03-03T09:21:55Z</time>
      </trkpt>
      <trkpt lat="43.54833" lon="2.90292">
        <ele>246</ele>
        <time>2019-03-03T09:21:56Z</time>
      </trkpt>
      <trkpt lat="43.54834" lon="2.90295">
        <ele>246</ele>
        <time>2019-03-03T09:21:57Z</time>
      </trkpt>
      <trkpt lat="43.54835" lon="2.90298">
        <ele>246</ele>
        <time>2019-03-03T09:21:58Z</time>
      </trkpt>
      <trkpt lat="43.54837" lon="2.90301">
        <ele>246</ele>
        <time>2019-03-03T09:21:59Z</time>
      </trkpt>
      <trkpt lat="43.54838" lon="2.90305">
        <ele>247</ele>
        <time>2019-03-03T09:22:00Z</time>
      </trkpt>
      <trkpt lat="43.54839" lon="2.90308">
        <ele>247</ele>
        <time>2019-03-03T09:22:01Z</time>
      </trkpt>
      <trkpt lat="43.5484" lon="2.90312">
        <ele>247</ele>
        <time>2019-03-03T09:22:02Z</time>
      </trkpt>
      <trkpt lat="43.54842" lon="2.90315">
        <ele>247</ele>
        <time>2019-03-03T09:22:03Z</time>
      </trkpt>
      <trkpt lat="43.54843" lon="2.90318">
        <ele>247</ele>
        <time>2019-03-03T09:22:04Z</time>
      </trkpt>
      <trkpt lat="43.54845" lon="2.90321">
        <ele>248</ele>
        <time>2019-03-03T09:22:05Z</time>
      </trkpt>
      <trkpt lat="43.54846" lon="2.90325">
        <ele>248</ele>
        <time>2019-03-03T09:22:06Z</time>
      </trkpt>
      <trkpt lat="43.54847" lon="2.90328">
        <ele>248</ele>
        <time>2019-03-03T09:22:07Z</time>
      </trkpt>
      <trkpt lat="43.54848" lon="2.90331">
        <ele>248</ele>
        <time>2019-03-03T09:22:08Z</time>
      </trkpt>
      <trkpt lat="43.5485" lon="2.90335">
        <ele>249</ele>
        <time>2019-03-03T09:22:09Z</time>
      </trkpt>
      <trkpt lat="43.54851" lon="2.90338">
        <ele>249</ele>
        <time>2019-03-03T09:22:10Z</time>
      </trkpt>
      <trkpt lat="43.54852" lon="2.90341">
        <ele>249</ele>
        <time>2019-03-03T09:22:11Z</time>
      </trkpt>
      <trkpt lat="43.54854" lon="2.90345">
        <ele>249</ele>
        <time>2019-03-03T09:22:12Z</time>
      </trkpt>
      <trkpt lat="43.54855" lon="2.90348">
        <ele>249</ele>
        <time>2019-03-03T09:22:13Z</time>
      </trkpt>
      <trkpt lat="43.54856" lon="2.90351">
        <ele>250</ele>
        <time>2019-03-03T09:22:14Z</time>
      </trkpt>
      <trkpt lat="43.54857" lon="2.90354">
        <ele>250</ele>
        <time>2019-03-03T09:22:15Z</time>
      </trkpt>
      <trkpt lat="43.54859" lon="2.90358">
        <ele>250</ele>
        <time>2019-03-03T09:22:16Z</time>
      </trkpt>
      <trkpt lat="43.5486" lon="2.90361">
        <ele>250</ele>
        <time>2019-03-03T09:22:17Z</time>
      </trkpt>
      <trkpt lat="43.54861" lon="2.90364">
        <ele>250</ele>
        <time>2019-03-03T09:22:18Z</time>
      </trkpt>
      <trkpt lat="43.54862" lon="2.90368">
        <ele>250</ele>
        <time>2019-03-03T09:22:19Z</time>
      </trkpt>
      <trkpt lat="43.54864" lon="2.90371">
        <ele>251</ele>
        <time>2019-03-03T09:22:20Z</time>
      </trkpt>
      <trkpt lat="43.54865" lon="2.90374">
        <ele>251</ele>
        <time>2019-03-03T09:22:21Z</time>
      </trkpt>
      <trkpt lat="43.54866" lon="2.90378">
        <ele>251</ele>
        <time>2019-03-03T09:22:22Z</time>
      </trkpt>
      <trkpt lat="43.54868" lon="2.90381">
        <ele>251</ele>
        <time>2019-03-03T09:22:23Z</time>
      </trkpt>
      <trkpt lat="43.54869" lon="2.90384">
        <ele>252</ele>
        <time>2019-03-03T09:22:24Z</time>
      </trkpt>
      <trkpt lat="43.5487" lon="2.90387">
        <ele>252</ele>
        <time>2019-03-03T09:22:25Z</time>
      </trkpt>
      <trkpt lat="43.54872" lon="2.90391">
        <ele>252</ele>
        <time>2019-03-03T09:22:26Z</time>
      </trkpt>
      <trkpt lat="43.54873" lon="2.90394">
        <ele>252</ele>
        <time>2019-03-03T09:22:27Z</time>
      </trkpt>
      <trkpt lat="43.54874" lon="2.90397">
        <ele>252</ele>
        <time>2019-03-03T09:22:28Z</time>
      </trkpt>
      <trkpt lat="43.54876" lon="2.904">
        <ele>253</ele>
        <time>2019-03-03T09:22:29Z</time>
      </trkpt>
      <trkpt lat="43.54877" lon="2.90403">
        <ele>253</ele>
        <time>2019-03-03T09:22:30Z</time>
      </trkpt>
      <trkpt lat="43.54878" lon="2.90407">
        <ele>253</ele>
        <time>2019-03-03T09:22:31Z</time>
      </trkpt>
      <trkpt lat="43.5488" lon="2.9041">
        <ele>253</ele>
        <time>2019-03-03T09:22:32Z</time>
      </trkpt>
      <trkpt lat="43.54881" lon="2.90413">
        <ele>253</ele>
        <time>2019-03-03T09:22:33Z</time>
      </trkpt>
      <trkpt lat="43.54882" lon="2.90416">
        <ele>254</ele>
        <time>2019-03-03T09:22:34Z</time>
      </trkpt>
      <trkpt lat="43.54883" lon="2.9042">
        <ele>254</ele>
        <time>2019-03-03T09:22:35Z</time>
      </trkpt>
      <trkpt lat="43.54885" lon="2.90423">
        <ele>254</ele>
        <time>2019-03-03T09:22:36Z</time>
      </trkpt>
      <trkpt lat="43.54886" lon="2.90427">
        <ele>254</ele>
        <time>2019-03-03T09:22:37Z</time>
      </trkpt>
      <trkpt lat="43.54887" lon="2.9043">
        <ele>254</ele>
        <time>2019-03-03T09:22:38Z</time>
      </trkpt>
      <trkpt lat="43.54888" lon="2.90433">
        <ele>255</ele>
        <time>2019-03-03T09:22:39Z</time>
      </trkpt>
      <trkpt lat="43.54889" lon="2.90437">
        <ele>255</ele>
        <time>2019-03-03T09:22:40Z</time>
      </trkpt>
      <trkpt lat="43.5489" lon="2.90441">
        <ele>255</ele>
        <time>2019-03-03T09:22:41Z</time>
      </trkpt>
      <trkpt lat="43.54891" lon="2.90444">
        <ele>255</ele>
        <time>2019-03-03T09:22:42Z</time>
      </trkpt>
      <trkpt lat="43.54892" lon="2.90448">
        <ele>255</ele>
        <time>2019-03-03T09:22:43Z</time>
      </trkpt>
      <trkpt lat="43.54893" lon="2.90451">
        <ele>255</ele>
        <time>2019-03-03T09:22:44Z</time>
      </trkpt>
      <trkpt lat="43.54894" lon="2.90454">
        <ele>256</ele>
        <time>2019-03-03T09:22:45Z</time>
      </trkpt>
      <trkpt lat="43.54895" lon="2.90457">
        <ele>256</ele>
        <time>2019-03-03T09:22:46Z</time>
      </trkpt>
      <trkpt lat="43.54895" lon="2.9046">
        <ele>256</ele>
        <time>2019-03-03T09:22:47Z</time>
      </trkpt>
      <trkpt lat="43.54896" lon="2.90463">
        <ele>256</ele>
        <time>2019-03-03T09:22:48Z</time>
      </trkpt>
      <trkpt lat="43.54897" lon="2.90467">
        <ele>257</ele>
        <time>2019-03-03T09:22:49Z</time>
      </trkpt>
      <trkpt lat="43.54897" lon="2.9047">
        <ele>257</ele>
        <time>2019-03-03T09:22:50Z</time>
      </trkpt>
      <trkpt lat="43.54898" lon="2.90473">
        <ele>257</ele>
        <time>2019-03-03T09:22:51Z</time>
      </trkpt>
      <trkpt lat="43.54899" lon="2.90477">
        <ele>258</ele>
        <time>2019-03-03T09:22:52Z</time>
      </trkpt>
      <trkpt lat="43.54899" lon="2.9048">
        <ele>258</ele>
        <time>2019-03-03T09:22:53Z</time>
      </trkpt>
      <trkpt lat="43.549" lon="2.90483">
        <ele>258</ele>
        <time>2019-03-03T09:22:54Z</time>
      </trkpt>
      <trkpt lat="43.549" lon="2.90486">
        <ele>258</ele>
        <time>2019-03-03T09:22:55Z</time>
      </trkpt>
      <trkpt lat="43.549" lon="2.9049">
        <ele>258</ele>
        <time>2019-03-03T09:22:56Z</time>
      </trkpt>
      <trkpt lat="43.549" lon="2.90493">
        <ele>259</ele>
        <time>2019-03-03T09:22:57Z</time>
      </trkpt>
      <trkpt lat="43.54899" lon="2.90497">
        <ele>259</ele>
        <time>2019-03-03T09:22:58Z</time>
      </trkpt>
      <trkpt lat="43.54899" lon="2.90501">
        <ele>259</ele>
        <time>2019-03-03T09:22:59Z</time>
      </trkpt>
      <trkpt lat="43.54898" lon="2.90504">
        <ele>259</ele>
        <time>2019-03-03T09:23:00Z</time>
      </trkpt>
      <trkpt lat="43.54898" lon="2.90508">
        <ele>259</ele>
        <time>2019-03-03T09:23:01Z</time>
      </trkpt>
      <trkpt lat="43.54898" lon="2.90512">
        <ele>260</ele>
        <time>2019-03-03T09:23:02Z</time>
      </trkpt>
      <trkpt lat="43.54898" lon="2.90516">
        <ele>260</ele>
        <time>2019-03-03T09:23:03Z</time>
      </trkpt>
      <trkpt lat="43.54897" lon="2.9052">
        <ele>260</ele>
        <time>2019-03-03T09:23:04Z</time>
      </trkpt>
      <trkpt lat="43.54896" lon="2.90523">
        <ele>260</ele>
        <time>2019-03-03T09:23:05Z</time>
      </trkpt>
      <trkpt lat="43.54896" lon="2.90527">
        <ele>261</ele>
        <time>2019-03-03T09:23:06Z</time>
      </trkpt>
      <trkpt lat="43.54895" lon="2.9053">
        <ele>261</ele>
        <time>2019-03-03T09:23:07Z</time>
      </trkpt>
      <trkpt lat="43.54895" lon="2.90534">
        <ele>261</ele>
        <time>2019-03-03T09:23:08Z</time>
      </trkpt>
      <trkpt lat="43.54894" lon="2.90538">
        <ele>261</ele>
        <time>2019-03-03T09:23:09Z</time>
      </trkpt>
      <trkpt lat="43.54893" lon="2.90541">
        <ele>262</ele>
        <time>2019-03-03T09:23:10Z</time>
      </trkpt>
      <trkpt lat="43.54892" lon="2.90545">
        <ele>262</ele>
        <time>2019-03-03T09:23:11Z</time>
      </trkpt>
      <trkpt lat="43.54892" lon="2.90548">
        <ele>262</ele>
        <time>2019-03-03T09:23:12Z</time>
      </trkpt>
      <trkpt lat="43.54891" lon="2.90552">
        <ele>262</ele>
        <time>2019-03-03T09:23:13Z</time>
      </trkpt>
      <trkpt lat="43.5489" lon="2.90556">
        <ele>262</ele>
        <time>2019-03-03T09:23:14Z</time>
      </trkpt>
      <trkpt lat="43.54889" lon="2.90559">
        <ele>263</ele>
        <time>2019-03-03T09:23:15Z</time>
      </trkpt>
      <trkpt lat="43.54889" lon="2.90563">
        <ele>263</ele>
        <time>2019-03-03T09:23:16Z</time>
      </trkpt>
      <trkpt lat="43.54888" lon="2.90567">
        <ele>263</ele>
        <time>2019-03-03T09:23:17Z</time>
      </trkpt>
      <trkpt lat="43.54888" lon="2.9057">
        <ele>263</ele>
        <time>2019-03-03T09:23:18Z</time>
      </trkpt>
      <trkpt lat="43.54887" lon="2.90574">
        <ele>264</ele>
        <time>2019-03-03T09:23:19Z</time>
      </trkpt>
      <trkpt lat="43.54886" lon="2.90578">
        <ele>264</ele>
        <time>2019-03-03T09:23:20Z</time>
      </trkpt>
      <trkpt lat="43.54885" lon="2.90581">
        <ele>264</ele>
        <time>2019-03-03T09:23:21Z</time>
      </trkpt>
      <trkpt lat="43.54884" lon="2.90585">
        <ele>264</ele>
        <time>2019-03-03T09:23:22Z</time>
      </trkpt>
      <trkpt lat="43.54883" lon="2.90589">
        <ele>265</ele>
        <time>2019-03-03T09:23:23Z</time>
      </trkpt>
      <trkpt lat="43.54882" lon="2.90592">
        <ele>265</ele>
        <time>2019-03-03T09:23:24Z</time>
      </trkpt>
      <trkpt lat="43.54881" lon="2.90596">
        <ele>265</ele>
        <time>2019-03-03T09:23:25Z</time>
      </trkpt>
      <trkpt lat="43.54881" lon="2.906">
        <ele>265</ele>
        <time>2019-03-03T09:23:26Z</time>
      </trkpt>
      <trkpt lat="43.5488" lon="2.90604">
        <ele>266</ele>
        <time>2019-03-03T09:23:27Z</time>
      </trkpt>
      <trkpt lat="43.54879" lon="2.90607">
        <ele>266</ele>
        <time>2019-03-03T09:23:28Z</time>
      </trkpt>
      <trkpt lat="43.54879" lon="2.90611">
        <ele>266</ele>
        <time>2019-03-03T09:23:29Z</time>
      </trkpt>
      <trkpt lat="43.54878" lon="2.90615">
        <ele>267</ele>
        <time>2019-03-03T09:23:30Z</time>
      </trkpt>
      <trkpt lat="43.54877" lon="2.90619">
        <ele>267</ele>
        <time>2019-03-03T09:23:31Z</time>
      </trkpt>
      <trkpt lat="43.54876" lon="2.90622">
        <ele>267</ele>
        <time>2019-03-03T09:23:32Z</time>
      </trkpt>
      <trkpt lat="43.54875" lon="2.90626">
        <ele>267</ele>
        <time>2019-03-03T09:23:33Z</time>
      </trkpt>
      <trkpt lat="43.54875" lon="2.9063">
        <ele>267</ele>
        <time>2019-03-03T09:23:34Z</time>
      </trkpt>
      <trkpt lat="43.54874" lon="2.90634">
        <ele>268</ele>
        <time>2019-03-03T09:23:35Z</time>
      </trkpt>
      <trkpt lat="43.54873" lon="2.90637">
        <ele>268</ele>
        <time>2019-03-03T09:23:36Z</time>
      </trkpt>
      <trkpt lat="43.54873" lon="2.90641">
        <ele>268</ele>
        <time>2019-03-03T09:23:37Z</time>
      </trkpt>
      <trkpt lat="43.54872" lon="2.90645">
        <ele>268</ele>
        <time>2019-03-03T09:23:38Z</time>
      </trkpt>
      <trkpt lat="43.54871" lon="2.90649">
        <ele>268</ele>
        <time>2019-03-03T09:23:39Z</time>
      </trkpt>
      <trkpt lat="43.5487" lon="2.90652">
        <ele>269</ele>
        <time>2019-03-03T09:23:40Z</time>
      </trkpt>
      <trkpt lat="43.54869" lon="2.90656">
        <ele>269</ele>
        <time>2019-03-03T09:23:41Z</time>
      </trkpt>
      <trkpt lat="43.54868" lon="2.90659">
        <ele>269</ele>
        <time>2019-03-03T09:23:42Z</time>
      </trkpt>
      <trkpt lat="43.54867" lon="2.90663">
        <ele>269</ele>
        <time>2019-03-03T09:23:43Z</time>
      </trkpt>
      <trkpt lat="43.54866" lon="2.90666">
        <ele>270</ele>
        <time>2019-03-03T09:23:44Z</time>
      </trkpt>
      <trkpt lat="43.54864" lon="2.90669">
        <ele>270</ele>
        <time>2019-03-03T09:23:45Z</time>
      </trkpt>
      <trkpt lat="43.54863" lon="2.90672">
        <ele>270</ele>
        <time>2019-03-03T09:23:46Z</time>
      </trkpt>
      <trkpt lat="43.54862" lon="2.90676">
        <ele>270</ele>
        <time>2019-03-03T09:23:47Z</time>
      </trkpt>
      <trkpt lat="43.5486" lon="2.90679">
        <ele>271</ele>
        <time>2019-03-03T09:23:48Z</time>
      </trkpt>
      <trkpt lat="43.54858" lon="2.90681">
        <ele>271</ele>
        <time>2019-03-03T09:23:49Z</time>
      </trkpt>
      <trkpt lat="43.54857" lon="2.90684">
        <ele>271</ele>
        <time>2019-03-03T09:23:50Z</time>
      </trkpt>
      <trkpt lat="43.54855" lon="2.90686">
        <ele>271</ele>
        <time>2019-03-03T09:23:51Z</time>
      </trkpt>
      <trkpt lat="43.54853" lon="2.90689">
        <ele>271</ele>
        <time>2019-03-03T09:23:52Z</time>
      </trkpt>
      <trkpt lat="43.54851" lon="2.90692">
        <ele>271</ele>
        <time>2019-03-03T09:23:53Z</time>
      </trkpt>
      <trkpt lat="43.5485" lon="2.90696">
        <ele>272</ele>
        <time>2019-03-03T09:23:54Z</time>
      </trkpt>
      <trkpt lat="43.54849" lon="2.907">
        <ele>272</ele>
        <time>2019-03-03T09:23:55Z</time>
      </trkpt>
      <trkpt lat="43.54848" lon="2.90704">
        <ele>272</ele>
        <time>2019-03-03T09:23:56Z</time>
      </trkpt>
      <trkpt lat="43.54847" lon="2.90708">
        <ele>272</ele>
        <time>2019-03-03T09:23:57Z</time>
      </trkpt>
      <trkpt lat="43.54846" lon="2.90712">
        <ele>272</ele>
        <time>2019-03-03T09:23:58Z</time>
      </trkpt>
      <trkpt lat="43.54845" lon="2.90716">
        <ele>272</ele>
        <time>2019-03-03T09:23:59Z</time>
      </trkpt>
      <trkpt lat="43.54845" lon="2.9072">
        <ele>272</ele>
        <time>2019-03-03T09:24:00Z</time>
      </trkpt>
      <trkpt lat="43.54845" lon="2.90724">
        <ele>273</ele>
        <time>2019-03-03T09:24:01Z</time>
      </trkpt>
      <trkpt lat="43.54844" lon="2.90728">
        <ele>273</ele>
        <time>2019-03-03T09:24:02Z</time>
      </trkpt>
      <trkpt lat="43.54845" lon="2.90732">
        <ele>273</ele>
        <time>2019-03-03T09:24:03Z</time>
      </trkpt>
      <trkpt lat="43.54845" lon="2.90736">
        <ele>273</ele>
        <time>2019-03-03T09:24:04Z</time>
      </trkpt>
      <trkpt lat="43.54845" lon="2.9074">
        <ele>273</ele>
        <time>2019-03-03T09:24:05Z</time>
      </trkpt>
      <trkpt lat="43.54845" lon="2.90745">
        <ele>274</ele>
        <time>2019-03-03T09:24:06Z</time>
      </trkpt>
      <trkpt lat="43.54845" lon="2.90749">
        <ele>274</ele>
        <time>2019-03-03T09:24:07Z</time>
      </trkpt>
      <trkpt lat="43.54845" lon="2.90753">
        <ele>274</ele>
        <time>2019-03-03T09:24:08Z</time>
      </trkpt>
      <trkpt lat="43.54845" lon="2.90757">
        <ele>274</ele>
        <time>2019-03-03T09:24:09Z</time>
      </trkpt>
      <trkpt lat="43.54844" lon="2.90761">
        <ele>275</ele>
        <time>2019-03-03T09:24:10Z</time>
      </trkpt>
      <trkpt lat="43.54843" lon="2.90765">
        <ele>275</ele>
        <time>2019-03-03T09:24:11Z</time>
      </trkpt>
      <trkpt lat="43.54842" lon="2.90769">
        <ele>275</ele>
        <time>2019-03-03T09:24:12Z</time>
      </trkpt>
      <trkpt lat="43.5484" lon="2.90772">
        <ele>276</ele>
        <time>2019-03-03T09:24:13Z</time>
      </trkpt>
      <trkpt lat="43.54838" lon="2.90775">
        <ele>276</ele>
        <time>2019-03-03T09:24:14Z</time>
      </trkpt>
      <trkpt lat="43.54837" lon="2.90778">
        <ele>276</ele>
        <time>2019-03-03T09:24:15Z</time>
      </trkpt>
      <trkpt lat="43.54834" lon="2.9078">
        <ele>276</ele>
        <time>2019-03-03T09:24:16Z</time>
      </trkpt>
      <trkpt lat="43.54832" lon="2.90784">
        <ele>276</ele>
        <time>2019-03-03T09:24:17Z</time>
      </trkpt>
      <trkpt lat="43.54831" lon="2.90787">
        <ele>276</ele>
        <time>2019-03-03T09:24:18Z</time>
      </trkpt>
      <trkpt lat="43.54829" lon="2.9079">
        <ele>277</ele>
        <time>2019-03-03T09:24:19Z</time>
      </trkpt>
      <trkpt lat="43.54827" lon="2.90793">
        <ele>277</ele>
        <time>2019-03-03T09:24:20Z</time>
      </trkpt>
      <trkpt lat="43.54825" lon="2.90796">
        <ele>277</ele>
        <time>2019-03-03T09:24:21Z</time>
      </trkpt>
      <trkpt lat="43.54823" lon="2.90799">
        <ele>277</ele>
        <time>2019-03-03T09:24:22Z</time>
      </trkpt>
      <trkpt lat="43.54821" lon="2.90801">
        <ele>277</ele>
        <time>2019-03-03T09:24:23Z</time>
      </trkpt>
      <trkpt lat="43.54819" lon="2.90803">
        <ele>278</ele>
        <time>2019-03-03T09:24:24Z</time>
      </trkpt>
      <trkpt lat="43.54816" lon="2.90804">
        <ele>278</ele>
        <time>2019-03-03T09:24:25Z</time>
      </trkpt>
      <trkpt lat="43.54814" lon="2.90805">
        <ele>278</ele>
        <time>2019-03-03T09:24:26Z</time>
      </trkpt>
      <trkpt lat="43.54811" lon="2.90806">
        <ele>278</ele>
        <time>2019-03-03T09:24:27Z</time>
      </trkpt>
      <trkpt lat="43.54808" lon="2.90807">
        <ele>278</ele>
        <time>2019-03-03T09:24:28Z</time>
      </trkpt>
      <trkpt lat="43.54806" lon="2.90808">
        <ele>278</ele>
        <time>2019-03-03T09:24:29Z</time>
      </trkpt>
      <trkpt lat="43.54803" lon="2.9081">
        <ele>278</ele>
        <time>2019-03-03T09:24:30Z</time>
      </trkpt>
      <trkpt lat="43.54802" lon="2.90813">
        <ele>279</ele>
        <time>2019-03-03T09:24:31Z</time>
      </trkpt>
      <trkpt lat="43.54801" lon="2.90817">
        <ele>279</ele>
        <time>2019-03-03T09:24:32Z</time>
      </trkpt>
      <trkpt lat="43.54801" lon="2.9082">
        <ele>279</ele>
        <time>2019-03-03T09:24:33Z</time>
      </trkpt>
      <trkpt lat="43.54802" lon="2.90824">
        <ele>279</ele>
        <time>2019-03-03T09:24:34Z</time>
      </trkpt>
      <trkpt lat="43.54803" lon="2.90828">
        <ele>279</ele>
        <time>2019-03-03T09:24:35Z</time>
      </trkpt>
      <trkpt lat="43.54805" lon="2.90831">
        <ele>280</ele>
        <time>2019-03-03T09:24:36Z</time>
      </trkpt>
      <trkpt lat="43.54806" lon="2.90834">
        <ele>280</ele>
        <time>2019-03-03T09:24:37Z</time>
      </trkpt>
      <trkpt lat="43.54808" lon="2.90838">
        <ele>280</ele>
        <time>2019-03-03T09:24:38Z</time>
      </trkpt>
      <trkpt lat="43.5481" lon="2.90841">
        <ele>280</ele>
        <time>2019-03-03T09:24:39Z</time>
      </trkpt>
      <trkpt lat="43.54811" lon="2.90845">
        <ele>280</ele>
        <time>2019-03-03T09:24:40Z</time>
      </trkpt>
      <trkpt lat="43.54812" lon="2.90849">
        <ele>281</ele>
        <time>2019-03-03T09:24:41Z</time>
      </trkpt>
      <trkpt lat="43.54813" lon="2.90852">
        <ele>281</ele>
        <time>2019-03-03T09:24:42Z</time>
      </trkpt>
      <trkpt lat="43.54814" lon="2.90856">
        <ele>281</ele>
        <time>2019-03-03T09:24:43Z</time>
      </trkpt>
      <trkpt lat="43.54815" lon="2.9086">
        <ele>281</ele>
        <time>2019-03-03T09:24:44Z</time>
      </trkpt>
      <trkpt lat="43.54815" lon="2.90864">
        <ele>282</ele>
        <time>2019-03-03T09:24:45Z</time>
      </trkpt>
      <trkpt lat="43.54816" lon="2.90868">
        <ele>282</ele>
        <time>2019-03-03T09:24:46Z</time>
      </trkpt>
      <trkpt lat="43.54816" lon="2.90872">
        <ele>282</ele>
        <time>2019-03-03T09:24:47Z</time>
      </trkpt>
      <trkpt lat="43.54817" lon="2.90875">
        <ele>282</ele>
        <time>2019-03-03T09:24:48Z</time>
      </trkpt>
      <trkpt lat="43.54817" lon="2.90879">
        <ele>283</ele>
        <time>2019-03-03T09:24:49Z</time>
      </trkpt>
      <trkpt lat="43.54817" lon="2.90883">
        <ele>283</ele>
        <time>2019-03-03T09:24:50Z</time>
      </trkpt>
      <trkpt lat="43.54817" lon="2.90888">
        <ele>283</ele>
        <time>2019-03-03T09:24:51Z</time>
      </trkpt>
      <trkpt lat="43.54818" lon="2.90892">
        <ele>283</ele>
        <time>2019-03-03T09:24:52Z</time>
      </trkpt>
      <trkpt lat="43.54818" lon="2.90896">
        <ele>283</ele>
        <time>2019-03-03T09:24:53Z</time>
      </trkpt>
      <trkpt lat="43.54818" lon="2.90899">
        <ele>283</ele>
        <time>2019-03-03T09:24:54Z</time>
      </trkpt>
      <trkpt lat="43.54818" lon="2.90903">
        <ele>284</ele>
        <time>2019-03-03T09:24:55Z</time>
      </trkpt>
      <trkpt lat="43.54818" lon="2.90907">
        <ele>284</ele>
        <time>2019-03-03T09:24:56Z</time>
      </trkpt>
      <trkpt lat="43.54818" lon="2.9091">
        <ele>284</ele>
        <time>2019-03-03T09:24:57Z</time>
      </trkpt>
      <trkpt lat="43.54818" lon="2.90914">
        <ele>284</ele>
        <time>2019-03-03T09:24:58Z</time>
      </trkpt>
      <trkpt lat="43.54819" lon="2.90918">
        <ele>284</ele>
        <time>2019-03-03T09:24:59Z</time>
      </trkpt>
      <trkpt lat="43.54818" lon="2.90922">
        <ele>284</ele>
        <time>2019-03-03T09:25:00Z</time>
      </trkpt>
      <trkpt lat="43.54818" lon="2.90926">
        <ele>284</ele>
        <time>2019-03-03T09:25:01Z</time>
      </trkpt>
      <trkpt lat="43.54818" lon="2.9093">
        <ele>285</ele>
        <time>2019-03-03T09:25:02Z</time>
      </trkpt>
      <trkpt lat="43.54819" lon="2.90934">
        <ele>285</ele>
        <time>2019-03-03T09:25:03Z</time>
      </trkpt>
      <trkpt lat="43.54819" lon="2.90938">
        <ele>285</ele>
        <time>2019-03-03T09:25:04Z</time>
      </trkpt>
      <trkpt lat="43.54819" lon="2.90942">
        <ele>285</ele>
        <time>2019-03-03T09:25:05Z</time>
      </trkpt>
      <trkpt lat="43.54819" lon="2.90946">
        <ele>285</ele>
        <time>2019-03-03T09:25:06Z</time>
      </trkpt>
      <trkpt lat="43.5482" lon="2.9095">
        <ele>285</ele>
        <time>2019-03-03T09:25:07Z</time>
      </trkpt>
      <trkpt lat="43.5482" lon="2.90954">
        <ele>286</ele>
        <time>2019-03-03T09:25:08Z</time>
      </trkpt>
      <trkpt lat="43.54819" lon="2.90958">
        <ele>286</ele>
        <time>2019-03-03T09:25:09Z</time>
      </trkpt>
      <trkpt lat="43.54818" lon="2.90961">
        <ele>286</ele>
        <time>2019-03-03T09:25:10Z</time>
      </trkpt>
      <trkpt lat="43.54818" lon="2.90964">
        <ele>286</ele>
        <time>2019-03-03T09:25:11Z</time>
      </trkpt>
      <trkpt lat="43.54817" lon="2.90967">
        <ele>286</ele>
        <time>2019-03-03T09:25:12Z</time>
      </trkpt>
      <trkpt lat="43.54818" lon="2.90971">
        <ele>287</ele>
        <time>2019-03-03T09:25:13Z</time>
      </trkpt>
      <trkpt lat="43.54818" lon="2.90974">
        <ele>287</ele>
        <time>2019-03-03T09:25:14Z</time>
      </trkpt>
      <trkpt lat="43.54818" lon="2.90978">
        <ele>287</ele>
        <time>2019-03-03T09:25:15Z</time>
      </trkpt>
      <trkpt lat="43.54817" lon="2.90982">
        <ele>287</ele>
        <time>2019-03-03T09:25:16Z</time>
      </trkpt>
      <trkpt lat="43.54818" lon="2.90987">
        <ele>288</ele>
        <time>2019-03-03T09:25:17Z</time>
      </trkpt>
      <trkpt lat="43.54818" lon="2.90991">
        <ele>288</ele>
        <time>2019-03-03T09:25:18Z</time>
      </trkpt>
      <trkpt lat="43.54818" lon="2.90996">
        <ele>288</ele>
        <time>2019-03-03T09:25:19Z</time>
      </trkpt>
      <trkpt lat="43.54817" lon="2.91">
        <ele>288</ele>
        <time>2019-03-03T09:25:20Z</time>
      </trkpt>
      <trkpt lat="43.54817" lon="2.91005">
        <ele>288</ele>
        <time>2019-03-03T09:25:21Z</time>
      </trkpt>
      <trkpt lat="43.54816" lon="2.91009">
        <ele>289</ele>
        <time>2019-03-03T09:25:22Z</time>
      </trkpt>
      <trkpt lat="43.54815" lon="2.91013">
        <ele>289</ele>
        <time>2019-03-03T09:25:23Z</time>
      </trkpt>
      <trkpt lat="43.54814" lon="2.91017">
        <ele>289</ele>
        <time>2019-03-03T09:25:24Z</time>
      </trkpt>
      <trkpt lat="43.54814" lon="2.91022">
        <ele>289</ele>
        <time>2019-03-03T09:25:25Z</time>
      </trkpt>
      <trkpt lat="43.54814" lon="2.91027">
        <ele>289</ele>
        <time>2019-03-03T09:25:26Z</time>
      </trkpt>
      <trkpt lat="43.54813" lon="2.91031">
        <ele>290</ele>
        <time>2019-03-03T09:25:27Z</time>
      </trkpt>
      <trkpt lat="43.54813" lon="2.91035">
        <ele>290</ele>
        <time>2019-03-03T09:25:28Z</time>
      </trkpt>
      <trkpt lat="43.54813" lon="2.91039">
        <ele>290</ele>
        <time>2019-03-03T09:25:29Z</time>
      </trkpt>
      <trkpt lat="43.54814" lon="2.91043">
        <ele>290</ele>
        <time>2019-03-03T09:25:30Z</time>
      </trkpt>
      <trkpt lat="43.54815" lon="2.91048">
        <ele>290</ele>
        <time>2019-03-03T09:25:31Z</time>
      </trkpt>
      <trkpt lat="43.54817" lon="2.91052">
        <ele>290</ele>
        <time>2019-03-03T09:25:32Z</time>
      </trkpt>
      <trkpt lat="43.5482" lon="2.91055">
        <ele>290</ele>
        <time>2019-03-03T09:25:33Z</time>
      </trkpt>
      <trkpt lat="43.54822" lon="2.91057">
        <ele>291</ele>
        <time>2019-03-03T09:25:34Z</time>
      </trkpt>
      <trkpt lat="43.54825" lon="2.9106">
        <ele>291</ele>
        <time>2019-03-03T09:25:35Z</time>
      </trkpt>
      <trkpt lat="43.54828" lon="2.91063">
        <ele>291</ele>
        <time>2019-03-03T09:25:36Z</time>
      </trkpt>
      <trkpt lat="43.5483" lon="2.91066">
        <ele>291</ele>
        <time>2019-03-03T09:25:37Z</time>
      </trkpt>
      <trkpt lat="43.54833" lon="2.91069">
        <ele>291</ele>
        <time>2019-03-03T09:25:38Z</time>
      </trkpt>
      <trkpt lat="43.54834" lon="2.91073">
        <ele>291</ele>
        <time>2019-03-03T09:25:39Z</time>
      </trkpt>
      <trkpt lat="43.54836" lon="2.91076">
        <ele>291</ele>
        <time>2019-03-03T09:25:40Z</time>
      </trkpt>
      <trkpt lat="43.54837" lon="2.9108">
        <ele>292</ele>
        <time>2019-03-03T09:25:41Z</time>
      </trkpt>
      <trkpt lat="43.54838" lon="2.91084">
        <ele>292</ele>
        <time>2019-03-03T09:25:42Z</time>
      </trkpt>
      <trkpt lat="43.5484" lon="2.91088">
        <ele>292</ele>
        <time>2019-03-03T09:25:43Z</time>
      </trkpt>
      <trkpt lat="43.54842" lon="2.91091">
        <ele>293</ele>
        <time>2019-03-03T09:25:44Z</time>
      </trkpt>
      <trkpt lat="43.54843" lon="2.91094">
        <ele>293</ele>
        <time>2019-03-03T09:25:45Z</time>
      </trkpt>
      <trkpt lat="43.54845" lon="2.91098">
        <ele>293</ele>
        <time>2019-03-03T09:25:46Z</time>
      </trkpt>
      <trkpt lat="43.54846" lon="2.91101">
        <ele>293</ele>
        <time>2019-03-03T09:25:47Z</time>
      </trkpt>
      <trkpt lat="43.54848" lon="2.91105">
        <ele>293</ele>
        <time>2019-03-03T09:25:48Z</time>
      </trkpt>
      <trkpt lat="43.54849" lon="2.91109">
        <ele>293</ele>
        <time>2019-03-03T09:25:49Z</time>
      </trkpt>
      <trkpt lat="43.54851" lon="2.91112">
        <ele>293</ele>
        <time>2019-03-03T09:25:50Z</time>
      </trkpt>
      <trkpt lat="43.54852" lon="2.91116">
        <ele>294</ele>
        <time>2019-03-03T09:25:51Z</time>
      </trkpt>
      <trkpt lat="43.54854" lon="2.91119">
        <ele>294</ele>
        <time>2019-03-03T09:25:52Z</time>
      </trkpt>
      <trkpt lat="43.54856" lon="2.91123">
        <ele>294</ele>
        <time>2019-03-03T09:25:53Z</time>
      </trkpt>
      <trkpt lat="43.54858" lon="2.91127">
        <ele>294</ele>
        <time>2019-03-03T09:25:54Z</time>
      </trkpt>
      <trkpt lat="43.54859" lon="2.91131">
        <ele>295</ele>
        <time>2019-03-03T09:25:55Z</time>
      </trkpt>
      <trkpt lat="43.54861" lon="2.91135">
        <ele>295</ele>
        <time>2019-03-03T09:25:56Z</time>
      </trkpt>
      <trkpt lat="43.54863" lon="2.91139">
        <ele>295</ele>
        <time>2019-03-03T09:25:57Z</time>
      </trkpt>
      <trkpt lat="43.54865" lon="2.91143">
        <ele>295</ele>
        <time>2019-03-03T09:25:58Z</time>
      </trkpt>
      <trkpt lat="43.54867" lon="2.91146">
        <ele>295</ele>
        <time>2019-03-03T09:25:59Z</time>
      </trkpt>
      <trkpt lat="43.54868" lon="2.9115">
        <ele>296</ele>
        <time>2019-03-03T09:26:00Z</time>
      </trkpt>
      <trkpt lat="43.5487" lon="2.91154">
        <ele>296</ele>
        <time>2019-03-03T09:26:01Z</time>
      </trkpt>
      <trkpt lat="43.54872" lon="2.91158">
        <ele>296</ele>
        <time>2019-03-03T09:26:02Z</time>
      </trkpt>
      <trkpt lat="43.54873" lon="2.91162">
        <ele>296</ele>
        <time>2019-03-03T09:26:03Z</time>
      </trkpt>
      <trkpt lat="43.54875" lon="2.91166">
        <ele>296</ele>
        <time>2019-03-03T09:26:04Z</time>
      </trkpt>
      <trkpt lat="43.54876" lon="2.91169">
        <ele>296</ele>
        <time>2019-03-03T09:26:05Z</time>
      </trkpt>
      <trkpt lat="43.54878" lon="2.91173">
        <ele>296</ele>
        <time>2019-03-03T09:26:06Z</time>
      </trkpt>
      <trkpt lat="43.54879" lon="2.91177">
        <ele>297</ele>
        <time>2019-03-03T09:26:07Z</time>
      </trkpt>
      <trkpt lat="43.54881" lon="2.9118">
        <ele>297</ele>
        <time>2019-03-03T09:26:08Z</time>
      </trkpt>
      <trkpt lat="43.54882" lon="2.91184">
        <ele>297</ele>
        <time>2019-03-03T09:26:09Z</time>
      </trkpt>
      <trkpt lat="43.54884" lon="2.91188">
        <ele>297</ele>
        <time>2019-03-03T09:26:10Z</time>
      </trkpt>
      <trkpt lat="43.54885" lon="2.91191">
        <ele>297</ele>
        <time>2019-03-03T09:26:11Z</time>
      </trkpt>
      <trkpt lat="43.54886" lon="2.91195">
        <ele>298</ele>
        <time>2019-03-03T09:26:12Z</time>
      </trkpt>
      <trkpt lat="43.54887" lon="2.91199">
        <ele>298</ele>
        <time>2019-03-03T09:26:13Z</time>
      </trkpt>
      <trkpt lat="43.54889" lon="2.91203">
        <ele>298</ele>
        <time>2019-03-03T09:26:14Z</time>
      </trkpt>
      <trkpt lat="43.5489" lon="2.91207">
        <ele>299</ele>
        <time>2019-03-03T09:26:15Z</time>
      </trkpt>
      <trkpt lat="43.54891" lon="2.91211">
        <ele>299</ele>
        <time>2019-03-03T09:26:16Z</time>
      </trkpt>
      <trkpt lat="43.54892" lon="2.91215">
        <ele>299</ele>
        <time>2019-03-03T09:26:17Z</time>
      </trkpt>
      <trkpt lat="43.54893" lon="2.91219">
        <ele>299</ele>
        <time>2019-03-03T09:26:18Z</time>
      </trkpt>
      <trkpt lat="43.54893" lon="2.91223">
        <ele>299</ele>
        <time>2019-03-03T09:26:19Z</time>
      </trkpt>
      <trkpt lat="43.54893" lon="2.91227">
        <ele>299</ele>
        <time>2019-03-03T09:26:20Z</time>
      </trkpt>
      <trkpt lat="43.54893" lon="2.91232">
        <ele>300</ele>
        <time>2019-03-03T09:26:21Z</time>
      </trkpt>
      <trkpt lat="43.54893" lon="2.91236">
        <ele>300</ele>
        <time>2019-03-03T09:26:22Z</time>
      </trkpt>
      <trkpt lat="43.54892" lon="2.9124">
        <ele>300</ele>
        <time>2019-03-03T09:26:23Z</time>
      </trkpt>
      <trkpt lat="43.54892" lon="2.91244">
        <ele>300</ele>
        <time>2019-03-03T09:26:24Z</time>
      </trkpt>
      <trkpt lat="43.54891" lon="2.91249">
        <ele>300</ele>
        <time>2019-03-03T09:26:25Z</time>
      </trkpt>
      <trkpt lat="43.5489" lon="2.91253">
        <ele>300</ele>
        <time>2019-03-03T09:26:26Z</time>
      </trkpt>
      <trkpt lat="43.54889" lon="2.91257">
        <ele>301</ele>
        <time>2019-03-03T09:26:27Z</time>
      </trkpt>
      <trkpt lat="43.54888" lon="2.91261">
        <ele>301</ele>
        <time>2019-03-03T09:26:28Z</time>
      </trkpt>
      <trkpt lat="43.54886" lon="2.91264">
        <ele>301</ele>
        <time>2019-03-03T09:26:29Z</time>
      </trkpt>
      <trkpt lat="43.54885" lon="2.91268">
        <ele>301</ele>
        <time>2019-03-03T09:26:30Z</time>
      </trkpt>
      <trkpt lat="43.54884" lon="2.91272">
        <ele>301</ele>
        <time>2019-03-03T09:26:31Z</time>
      </trkpt>
      <trkpt lat="43.54882" lon="2.91276">
        <ele>301</ele>
        <time>2019-03-03T09:26:32Z</time>
      </trkpt>
      <trkpt lat="43.54881" lon="2.91279">
        <ele>301</ele>
        <time>2019-03-03T09:26:33Z</time>
      </trkpt>
      <trkpt lat="43.54879" lon="2.91283">
        <ele>302</ele>
        <time>2019-03-03T09:26:34Z</time>
      </trkpt>
      <trkpt lat="43.54877" lon="2.91286">
        <ele>302</ele>
        <time>2019-03-03T09:26:35Z</time>
      </trkpt>
      <trkpt lat="43.54876" lon="2.9129">
        <ele>302</ele>
        <time>2019-03-03T09:26:36Z</time>
      </trkpt>
      <trkpt lat="43.54873" lon="2.91293">
        <ele>302</ele>
        <time>2019-03-03T09:26:37Z</time>
      </trkpt>
      <trkpt lat="43.54871" lon="2.91296">
        <ele>302</ele>
        <time>2019-03-03T09:26:38Z</time>
      </trkpt>
      <trkpt lat="43.54869" lon="2.91298">
        <ele>303</ele>
        <time>2019-03-03T09:26:39Z</time>
      </trkpt>
      <trkpt lat="43.54866" lon="2.91301">
        <ele>303</ele>
        <time>2019-03-03T09:26:40Z</time>
      </trkpt>
      <trkpt lat="43.54864" lon="2.91303">
        <ele>303</ele>
        <time>2019-03-03T09:26:41Z</time>
      </trkpt>
      <trkpt lat="43.54861" lon="2.91304">
        <ele>303</ele>
        <time>2019-03-03T09:26:42Z</time>
      </trkpt>
      <trkpt lat="43.54858" lon="2.91306">
        <ele>303</ele>
        <time>2019-03-03T09:26:43Z</time>
      </trkpt>
      <trkpt lat="43.54856" lon="2.91307">
        <ele>303</ele>
        <time>2019-03-03T09:26:44Z</time>
      </trkpt>
      <trkpt lat="43.54853" lon="2.91308">
        <ele>303</ele>
        <time>2019-03-03T09:26:45Z</time>
      </trkpt>
      <trkpt lat="43.5485" lon="2.91309">
        <ele>303</ele>
        <time>2019-03-03T09:26:46Z</time>
      </trkpt>
      <trkpt lat="43.54847" lon="2.9131">
        <ele>303</ele>
        <time>2019-03-03T09:26:47Z</time>
      </trkpt>
      <trkpt lat="43.54844" lon="2.91312">
        <ele>304</ele>
        <time>2019-03-03T09:26:48Z</time>
      </trkpt>
      <trkpt lat="43.54842" lon="2.91313">
        <ele>304</ele>
        <time>2019-03-03T09:26:49Z</time>
      </trkpt>
      <trkpt lat="43.54839" lon="2.91315">
        <ele>304</ele>
        <time>2019-03-03T09:26:50Z</time>
      </trkpt>
      <trkpt lat="43.54836" lon="2.91317">
        <ele>304</ele>
        <time>2019-03-03T09:26:51Z</time>
      </trkpt>
      <trkpt lat="43.54833" lon="2.91319">
        <ele>304</ele>
        <time>2019-03-03T09:26:52Z</time>
      </trkpt>
      <trkpt lat="43.54831" lon="2.91321">
        <ele>304</ele>
        <time>2019-03-03T09:26:53Z</time>
      </trkpt>
      <trkpt lat="43.54828" lon="2.91323">
        <ele>304</ele>
        <time>2019-03-03T09:26:54Z</time>
      </trkpt>
      <trkpt lat="43.54825" lon="2.91325">
        <ele>304</ele>
        <time>2019-03-03T09:26:55Z</time>
      </trkpt>
      <trkpt lat="43.54822" lon="2.91327">
        <ele>305</ele>
        <time>2019-03-03T09:26:56Z</time>
      </trkpt>
      <trkpt lat="43.5482" lon="2.91329">
        <ele>305</ele>
        <time>2019-03-03T09:26:57Z</time>
      </trkpt>
      <trkpt lat="43.54818" lon="2.91331">
        <ele>305</ele>
        <time>2019-03-03T09:26:58Z</time>
      </trkpt>
      <trkpt lat="43.54815" lon="2.91334">
        <ele>305</ele>
        <time>2019-03-03T09:26:59Z</time>
      </trkpt>
      <trkpt lat="43.54813" lon="2.91336">
        <ele>305</ele>
        <time>2019-03-03T09:27:00Z</time>
      </trkpt>
      <trkpt lat="43.5481" lon="2.91339">
        <ele>305</ele>
        <time>2019-03-03T09:27:01Z</time>
      </trkpt>
      <trkpt lat="43.54807" lon="2.9134">
        <ele>306</ele>
        <time>2019-03-03T09:27:02Z</time>
      </trkpt>
      <trkpt lat="43.54805" lon="2.91343">
        <ele>306</ele>
        <time>2019-03-03T09:27:03Z</time>
      </trkpt>
      <trkpt lat="43.54803" lon="2.91346">
        <ele>306</ele>
        <time>2019-03-03T09:27:04Z</time>
      </trkpt>
      <trkpt lat="43.54801" lon="2.91349">
        <ele>306</ele>
        <time>2019-03-03T09:27:05Z</time>
      </trkpt>
      <trkpt lat="43.54798" lon="2.91351">
        <ele>306</ele>
        <time>2019-03-03T09:27:06Z</time>
      </trkpt>
      <trkpt lat="43.54796" lon="2.91353">
        <ele>307</ele>
        <time>2019-03-03T09:27:07Z</time>
      </trkpt>
      <trkpt lat="43.54794" lon="2.91355">
        <ele>307</ele>
        <time>2019-03-03T09:27:08Z</time>
      </trkpt>
      <trkpt lat="43.54791" lon="2.91358">
        <ele>307</ele>
        <time>2019-03-03T09:27:09Z</time>
      </trkpt>
      <trkpt lat="43.54789" lon="2.91361">
        <ele>307</ele>
        <time>2019-03-03T09:27:10Z</time>
      </trkpt>
      <trkpt lat="43.54787" lon="2.91364">
        <ele>307</ele>
        <time>2019-03-03T09:27:11Z</time>
      </trkpt>
      <trkpt lat="43.54785" lon="2.91367">
        <ele>308</ele>
        <time>2019-03-03T09:27:12Z</time>
      </trkpt>
      <trkpt lat="43.54782" lon="2.91369">
        <ele>308</ele>
        <time>2019-03-03T09:27:13Z</time>
      </trkpt>
      <trkpt lat="43.5478" lon="2.91372">
        <ele>308</ele>
        <time>2019-03-03T09:27:14Z</time>
      </trkpt>
      <trkpt lat="43.54778" lon="2.91376">
        <ele>308</ele>
        <time>2019-03-03T09:27:15Z</time>
      </trkpt>
      <trkpt lat="43.54776" lon="2.91378">
        <ele>308</ele>
        <time>2019-03-03T09:27:16Z</time>
      </trkpt>
      <trkpt lat="43.54774" lon="2.91381">
        <ele>308</ele>
        <time>2019-03-03T09:27:17Z</time>
      </trkpt>
      <trkpt lat="43.54773" lon="2.91384">
        <ele>309</ele>
        <time>2019-03-03T09:27:18Z</time>
      </trkpt>
      <trkpt lat="43.54771" lon="2.91387">
        <ele>309</ele>
        <time>2019-03-03T09:27:19Z</time>
      </trkpt>
      <trkpt lat="43.54768" lon="2.91391">
        <ele>309</ele>
        <time>2019-03-03T09:27:20Z</time>
      </trkpt>
      <trkpt lat="43.54766" lon="2.91394">
        <ele>309</ele>
        <time>2019-03-03T09:27:21Z</time>
      </trkpt>
      <trkpt lat="43.54764" lon="2.91397">
        <ele>309</ele>
        <time>2019-03-03T09:27:22Z</time>
      </trkpt>
      <trkpt lat="43.54762" lon="2.914">
        <ele>309</ele>
        <time>2019-03-03T09:27:23Z</time>
      </trkpt>
      <trkpt lat="43.5476" lon="2.91403">
        <ele>309</ele>
        <time>2019-03-03T09:27:24Z</time>
      </trkpt>
      <trkpt lat="43.54757" lon="2.91406">
        <ele>309</ele>
        <time>2019-03-03T09:27:25Z</time>
      </trkpt>
      <trkpt lat="43.54755" lon="2.91409">
        <ele>310</ele>
        <time>2019-03-03T09:27:26Z</time>
      </trkpt>
      <trkpt lat="43.54753" lon="2.91412">
        <ele>310</ele>
        <time>2019-03-03T09:27:27Z</time>
      </trkpt>
      <trkpt lat="43.54751" lon="2.91415">
        <ele>310</ele>
        <time>2019-03-03T09:27:28Z</time>
      </trkpt>
      <trkpt lat="43.54749" lon="2.91418">
        <ele>310</ele>
        <time>2019-03-03T09:27:29Z</time>
      </trkpt>
      <trkpt lat="43.54747" lon="2.91421">
        <ele>310</ele>
        <time>2019-03-03T09:27:30Z</time>
      </trkpt>
      <trkpt lat="43.54746" lon="2.91425">
        <ele>311</ele>
        <time>2019-03-03T09:27:31Z</time>
      </trkpt>
      <trkpt lat="43.54744" lon="2.91428">
        <ele>311</ele>
        <time>2019-03-03T09:27:32Z</time>
      </trkpt>
      <trkpt lat="43.54742" lon="2.91432">
        <ele>311</ele>
        <time>2019-03-03T09:27:33Z</time>
      </trkpt>
      <trkpt lat="43.5474" lon="2.91436">
        <ele>311</ele>
        <time>2019-03-03T09:27:34Z</time>
      </trkpt>
      <trkpt lat="43.54738" lon="2.9144">
        <ele>311</ele>
        <time>2019-03-03T09:27:35Z</time>
      </trkpt>
      <trkpt lat="43.54737" lon="2.91444">
        <ele>311</ele>
        <time>2019-03-03T09:27:36Z</time>
      </trkpt>
      <trkpt lat="43.54735" lon="2.91448">
        <ele>311</ele>
        <time>2019-03-03T09:27:37Z</time>
      </trkpt>
      <trkpt lat="43.54734" lon="2.91452">
        <ele>311</ele>
        <time>2019-03-03T09:27:38Z</time>
      </trkpt>
      <trkpt lat="43.54735" lon="2.91456">
        <ele>311</ele>
        <time>2019-03-03T09:27:39Z</time>
      </trkpt>
      <trkpt lat="43.54736" lon="2.91461">
        <ele>311</ele>
        <time>2019-03-03T09:27:40Z</time>
      </trkpt>
      <trkpt lat="43.54737" lon="2.91465">
        <ele>312</ele>
        <time>2019-03-03T09:27:41Z</time>
      </trkpt>
      <trkpt lat="43.5474" lon="2.91468">
        <ele>312</ele>
        <time>2019-03-03T09:27:42Z</time>
      </trkpt>
      <trkpt lat="43.54742" lon="2.9147">
        <ele>312</ele>
        <time>2019-03-03T09:27:43Z</time>
      </trkpt>
      <trkpt lat="43.54745" lon="2.91472">
        <ele>312</ele>
        <time>2019-03-03T09:27:44Z</time>
      </trkpt>
      <trkpt lat="43.54748" lon="2.91474">
        <ele>312</ele>
        <time>2019-03-03T09:27:45Z</time>
      </trkpt>
      <trkpt lat="43.54751" lon="2.91475">
        <ele>312</ele>
        <time>2019-03-03T09:27:46Z</time>
      </trkpt>
      <trkpt lat="43.54754" lon="2.91477">
        <ele>313</ele>
        <time>2019-03-03T09:27:47Z</time>
      </trkpt>
      <trkpt lat="43.54756" lon="2.91479">
        <ele>313</ele>
        <time>2019-03-03T09:27:48Z</time>
      </trkpt>
      <trkpt lat="43.54759" lon="2.9148">
        <ele>313</ele>
        <time>2019-03-03T09:27:49Z</time>
      </trkpt>
      <trkpt lat="43.54762" lon="2.91482">
        <ele>313</ele>
        <time>2019-03-03T09:27:50Z</time>
      </trkpt>
      <trkpt lat="43.54765" lon="2.91483">
        <ele>313</ele>
        <time>2019-03-03T09:27:51Z</time>
      </trkpt>
      <trkpt lat="43.54768" lon="2.91485">
        <ele>314</ele>
        <time>2019-03-03T09:27:52Z</time>
      </trkpt>
      <trkpt lat="43.54771" lon="2.91486">
        <ele>314</ele>
        <time>2019-03-03T09:27:53Z</time>
      </trkpt>
      <trkpt lat="43.54773" lon="2.91488">
        <ele>314</ele>
        <time>2019-03-03T09:27:54Z</time>
      </trkpt>
      <trkpt lat="43.54776" lon="2.91489">
        <ele>315</ele>
        <time>2019-03-03T09:27:55Z</time>
      </trkpt>
      <trkpt lat="43.54779" lon="2.91491">
        <ele>315</ele>
        <time>2019-03-03T09:27:56Z</time>
      </trkpt>
      <trkpt lat="43.54781" lon="2.91492">
        <ele>315</ele>
        <time>2019-03-03T09:27:57Z</time>
      </trkpt>
      <trkpt lat="43.54784" lon="2.91494">
        <ele>315</ele>
        <time>2019-03-03T09:27:58Z</time>
      </trkpt>
      <trkpt lat="43.54786" lon="2.91495">
        <ele>315</ele>
        <time>2019-03-03T09:27:59Z</time>
      </trkpt>
      <trkpt lat="43.54789" lon="2.91496">
        <ele>316</ele>
        <time>2019-03-03T09:28:00Z</time>
      </trkpt>
      <trkpt lat="43.54791" lon="2.91498">
        <ele>316</ele>
        <time>2019-03-03T09:28:01Z</time>
      </trkpt>
      <trkpt lat="43.54794" lon="2.91499">
        <ele>316</ele>
        <time>2019-03-03T09:28:02Z</time>
      </trkpt>
      <trkpt lat="43.54797" lon="2.91501">
        <ele>316</ele>
        <time>2019-03-03T09:28:03Z</time>
      </trkpt>
      <trkpt lat="43.548" lon="2.91503">
        <ele>317</ele>
        <time>2019-03-03T09:28:04Z</time>
      </trkpt>
      <trkpt lat="43.54802" lon="2.91504">
        <ele>317</ele>
        <time>2019-03-03T09:28:05Z</time>
      </trkpt>
      <trkpt lat="43.54805" lon="2.91506">
        <ele>317</ele>
        <time>2019-03-03T09:28:06Z</time>
      </trkpt>
      <trkpt lat="43.54807" lon="2.91508">
        <ele>317</ele>
        <time>2019-03-03T09:28:07Z</time>
      </trkpt>
      <trkpt lat="43.54809" lon="2.9151">
        <ele>318</ele>
        <time>2019-03-03T09:28:08Z</time>
      </trkpt>
      <trkpt lat="43.54812" lon="2.91512">
        <ele>318</ele>
        <time>2019-03-03T09:28:09Z</time>
      </trkpt>
      <trkpt lat="43.54815" lon="2.91513">
        <ele>319</ele>
        <time>2019-03-03T09:28:10Z</time>
      </trkpt>
      <trkpt lat="43.54817" lon="2.91515">
        <ele>319</ele>
        <time>2019-03-03T09:28:11Z</time>
      </trkpt>
      <trkpt lat="43.5482" lon="2.91517">
        <ele>319</ele>
        <time>2019-03-03T09:28:12Z</time>
      </trkpt>
      <trkpt lat="43.54823" lon="2.91519">
        <ele>319</ele>
        <time>2019-03-03T09:28:13Z</time>
      </trkpt>
      <trkpt lat="43.54826" lon="2.91521">
        <ele>320</ele>
        <time>2019-03-03T09:28:14Z</time>
      </trkpt>
      <trkpt lat="43.54828" lon="2.91522">
        <ele>320</ele>
        <time>2019-03-03T09:28:15Z</time>
      </trkpt>
      <trkpt lat="43.54831" lon="2.91524">
        <ele>320</ele>
        <time>2019-03-03T09:28:16Z</time>
      </trkpt>
      <trkpt lat="43.54834" lon="2.91526">
        <ele>320</ele>
        <time>2019-03-03T09:28:17Z</time>
      </trkpt>
      <trkpt lat="43.54836" lon="2.91528">
        <ele>321</ele>
        <time>2019-03-03T09:28:18Z</time>
      </trkpt>
      <trkpt lat="43.54839" lon="2.9153">
        <ele>321</ele>
        <time>2019-03-03T09:28:19Z</time>
      </trkpt>
      <trkpt lat="43.54841" lon="2.91531">
        <ele>321</ele>
        <time>2019-03-03T09:28:20Z</time>
      </trkpt>
      <trkpt lat="43.54844" lon="2.91533">
        <ele>321</ele>
        <time>2019-03-03T09:28:21Z</time>
      </trkpt>
      <trkpt lat="43.54846" lon="2.91535">
        <ele>322</ele>
        <time>2019-03-03T09:28:22Z</time>
      </trkpt>
      <trkpt lat="43.54849" lon="2.91536">
        <ele>322</ele>
        <time>2019-03-03T09:28:23Z</time>
      </trkpt>
      <trkpt lat="43.54851" lon="2.91538">
        <ele>322</ele>
        <time>2019-03-03T09:28:24Z</time>
      </trkpt>
      <trkpt lat="43.54854" lon="2.9154">
        <ele>322</ele>
        <time>2019-03-03T09:28:25Z</time>
      </trkpt>
      <trkpt lat="43.54856" lon="2.91542">
        <ele>323</ele>
        <time>2019-03-03T09:28:26Z</time>
      </trkpt>
      <trkpt lat="43.54859" lon="2.91544">
        <ele>323</ele>
        <time>2019-03-03T09:28:27Z</time>
      </trkpt>
      <trkpt lat="43.54861" lon="2.91546">
        <ele>323</ele>
        <time>2019-03-03T09:28:28Z</time>
      </trkpt>
      <trkpt lat="43.54864" lon="2.91548">
        <ele>324</ele>
        <time>2019-03-03T09:28:29Z</time>
      </trkpt>
      <trkpt lat="43.54865" lon="2.91551">
        <ele>324</ele>
        <time>2019-03-03T09:28:30Z</time>
      </trkpt>
      <trkpt lat="43.54868" lon="2.91554">
        <ele>324</ele>
        <time>2019-03-03T09:28:31Z</time>
      </trkpt>
      <trkpt lat="43.5487" lon="2.91557">
        <ele>324</ele>
        <time>2019-03-03T09:28:32Z</time>
      </trkpt>
      <trkpt lat="43.54871" lon="2.91561">
        <ele>325</ele>
        <time>2019-03-03T09:28:33Z</time>
      </trkpt>
      <trkpt lat="43.54873" lon="2.91564">
        <ele>325</ele>
        <time>2019-03-03T09:28:34Z</time>
      </trkpt>
      <trkpt lat="43.54874" lon="2.91568">
        <ele>325</ele>
        <time>2019-03-03T09:28:35Z</time>
      </trkpt>
      <trkpt lat="43.54875" lon="2.91573">
        <ele>325</ele>
        <time>2019-03-03T09:28:36Z</time>
      </trkpt>
      <trkpt lat="43.54876" lon="2.91577">
        <ele>326</ele>
        <time>2019-03-03T09:28:37Z</time>
      </trkpt>
      <trkpt lat="43.54876" lon="2.91581">
        <ele>326</ele>
        <time>2019-03-03T09:28:38Z</time>
      </trkpt>
      <trkpt lat="43.54877" lon="2.91585">
        <ele>326</ele>
        <time>2019-03-03T09:28:39Z</time>
      </trkpt>
      <trkpt lat="43.54878" lon="2.91589">
        <ele>326</ele>
        <time>2019-03-03T09:28:40Z</time>
      </trkpt>
      <trkpt lat="43.54879" lon="2.91593">
        <ele>327</ele>
        <time>2019-03-03T09:28:41Z</time>
      </trkpt>
      <trkpt lat="43.5488" lon="2.91598">
        <ele>327</ele>
        <time>2019-03-03T09:28:42Z</time>
      </trkpt>
      <trkpt lat="43.5488" lon="2.91602">
        <ele>327</ele>
        <time>2019-03-03T09:28:43Z</time>
      </trkpt>
      <trkpt lat="43.54881" lon="2.91606">
        <ele>327</ele>
        <time>2019-03-03T09:28:44Z</time>
      </trkpt>
      <trkpt lat="43.54882" lon="2.91609">
        <ele>328</ele>
        <time>2019-03-03T09:28:45Z</time>
      </trkpt>
      <trkpt lat="43.54882" lon="2.91613">
        <ele>328</ele>
        <time>2019-03-03T09:28:46Z</time>
      </trkpt>
      <trkpt lat="43.54883" lon="2.91617">
        <ele>328</ele>
        <time>2019-03-03T09:28:47Z</time>
      </trkpt>
      <trkpt lat="43.54884" lon="2.91621">
        <ele>328</ele>
        <time>2019-03-03T09:28:48Z</time>
      </trkpt>
      <trkpt lat="43.54885" lon="2.91625">
        <ele>328</ele>
        <time>2019-03-03T09:28:49Z</time>
      </trkpt>
      <trkpt lat="43.54885" lon="2.91629">
        <ele>328</ele>
        <time>2019-03-03T09:28:50Z</time>
      </trkpt>
      <trkpt lat="43.54886" lon="2.91633">
        <ele>329</ele>
        <time>2019-03-03T09:28:51Z</time>
      </trkpt>
      <trkpt lat="43.54887" lon="2.91637">
        <ele>329</ele>
        <time>2019-03-03T09:28:52Z</time>
      </trkpt>
      <trkpt lat="43.54888" lon="2.91641">
        <ele>329</ele>
        <time>2019-03-03T09:28:53Z</time>
      </trkpt>
      <trkpt lat="43.54888" lon="2.91645">
        <ele>329</ele>
        <time>2019-03-03T09:28:54Z</time>
      </trkpt>
      <trkpt lat="43.54889" lon="2.91649">
        <ele>329</ele>
        <time>2019-03-03T09:28:55Z</time>
      </trkpt>
      <trkpt lat="43.54889" lon="2.91653">
        <ele>330</ele>
        <time>2019-03-03T09:28:56Z</time>
      </trkpt>
      <trkpt lat="43.5489" lon="2.91657">
        <ele>330</ele>
        <time>2019-03-03T09:28:57Z</time>
      </trkpt>
      <trkpt lat="43.5489" lon="2.91661">
        <ele>330</ele>
        <time>2019-03-03T09:28:58Z</time>
      </trkpt>
      <trkpt lat="43.54891" lon="2.91665">
        <ele>330</ele>
        <time>2019-03-03T09:28:59Z</time>
      </trkpt>
      <trkpt lat="43.54891" lon="2.9167">
        <ele>331</ele>
        <time>2019-03-03T09:29:00Z</time>
      </trkpt>
      <trkpt lat="43.54892" lon="2.91674">
        <ele>331</ele>
        <time>2019-03-03T09:29:01Z</time>
      </trkpt>
      <trkpt lat="43.54892" lon="2.91678">
        <ele>331</ele>
        <time>2019-03-03T09:29:02Z</time>
      </trkpt>
      <trkpt lat="43.54893" lon="2.91682">
        <ele>331</ele>
        <time>2019-03-03T09:29:03Z</time>
      </trkpt>
      <trkpt lat="43.54893" lon="2.91687">
        <ele>331</ele>
        <time>2019-03-03T09:29:04Z</time>
      </trkpt>
      <trkpt lat="43.54894" lon="2.91691">
        <ele>332</ele>
        <time>2019-03-03T09:29:05Z</time>
      </trkpt>
      <trkpt lat="43.54894" lon="2.91695">
        <ele>332</ele>
        <time>2019-03-03T09:29:06Z</time>
      </trkpt>
      <trkpt lat="43.54895" lon="2.91699">
        <ele>332</ele>
        <time>2019-03-03T09:29:07Z</time>
      </trkpt>
      <trkpt lat="43.54896" lon="2.91703">
        <ele>332</ele>
        <time>2019-03-03T09:29:08Z</time>
      </trkpt>
      <trkpt lat="43.54896" lon="2.91707">
        <ele>333</ele>
        <time>2019-03-03T09:29:09Z</time>
      </trkpt>
      <trkpt lat="43.54897" lon="2.91712">
        <ele>333</ele>
        <time>2019-03-03T09:29:10Z</time>
      </trkpt>
      <trkpt lat="43.54898" lon="2.91716">
        <ele>333</ele>
        <time>2019-03-03T09:29:11Z</time>
      </trkpt>
      <trkpt lat="43.54898" lon="2.9172">
        <ele>333</ele>
        <time>2019-03-03T09:29:12Z</time>
      </trkpt>
      <trkpt lat="43.54899" lon="2.91724">
        <ele>334</ele>
        <time>2019-03-03T09:29:13Z</time>
      </trkpt>
      <trkpt lat="43.549" lon="2.91728">
        <ele>334</ele>
        <time>2019-03-03T09:29:14Z</time>
      </trkpt>
      <trkpt lat="43.54901" lon="2.91732">
        <ele>334</ele>
        <time>2019-03-03T09:29:15Z</time>
      </trkpt>
      <trkpt lat="43.54901" lon="2.91736">
        <ele>334</ele>
        <time>2019-03-03T09:29:16Z</time>
      </trkpt>
      <trkpt lat="43.54902" lon="2.9174">
        <ele>335</ele>
        <time>2019-03-03T09:29:17Z</time>
      </trkpt>
      <trkpt lat="43.54903" lon="2.91744">
        <ele>335</ele>
        <time>2019-03-03T09:29:18Z</time>
      </trkpt>
      <trkpt lat="43.54903" lon="2.91748">
        <ele>335</ele>
        <time>2019-03-03T09:29:19Z</time>
      </trkpt>
      <trkpt lat="43.54904" lon="2.91752">
        <ele>335</ele>
        <time>2019-03-03T09:29:20Z</time>
      </trkpt>
      <trkpt lat="43.54904" lon="2.91756">
        <ele>335</ele>
        <time>2019-03-03T09:29:21Z</time>
      </trkpt>
      <trkpt lat="43.54905" lon="2.9176">
        <ele>336</ele>
        <time>2019-03-03T09:29:22Z</time>
      </trkpt>
      <trkpt lat="43.54905" lon="2.91764">
        <ele>336</ele>
        <time>2019-03-03T09:29:23Z</time>
      </trkpt>
      <trkpt lat="43.54905" lon="2.91768">
        <ele>336</ele>
        <time>2019-03-03T09:29:24Z</time>
      </trkpt>
      <trkpt lat="43.54906" lon="2.91772">
        <ele>336</ele>
        <time>2019-03-03T09:29:25Z</time>
      </trkpt>
      <trkpt lat="43.54906" lon="2.91776">
        <ele>336</ele>
        <time>2019-03-03T09:29:26Z</time>
      </trkpt>
      <trkpt lat="43.54906" lon="2.9178">
        <ele>337</ele>
        <time>2019-03-03T09:29:27Z</time>
      </trkpt>
      <trkpt lat="43.54906" lon="2.91784">
        <ele>337</ele>
        <time>2019-03-03T09:29:28Z</time>
      </trkpt>
      <trkpt lat="43.54906" lon="2.91788">
        <ele>337</ele>
        <time>2019-03-03T09:29:29Z</time>
      </trkpt>
      <trkpt lat="43.54906" lon="2.91792">
        <ele>337</ele>
        <time>2019-03-03T09:29:30Z</time>
      </trkpt>
      <trkpt lat="43.54906" lon="2.91796">
        <ele>337</ele>
        <time>2019-03-03T09:29:31Z</time>
      </trkpt>
      <trkpt lat="43.54906" lon="2.918">
        <ele>338</ele>
        <time>2019-03-03T09:29:32Z</time>
      </trkpt>
      <trkpt lat="43.54906" lon="2.91804">
        <ele>338</ele>
        <time>2019-03-03T09:29:33Z</time>
      </trkpt>
      <trkpt lat="43.54905" lon="2.91808">
        <ele>338</ele>
        <time>2019-03-03T09:29:34Z</time>
      </trkpt>
      <trkpt lat="43.54905" lon="2.91812">
        <ele>338</ele>
        <time>2019-03-03T09:29:35Z</time>
      </trkpt>
      <trkpt lat="43.54904" lon="2.91816">
        <ele>339</ele>
        <time>2019-03-03T09:29:36Z</time>
      </trkpt>
      <trkpt lat="43.54903" lon="2.91819">
        <ele>339</ele>
        <time>2019-03-03T09:29:37Z</time>
      </trkpt>
      <trkpt lat="43.54903" lon="2.91823">
        <ele>339</ele>
        <time>2019-03-03T09:29:38Z</time>
      </trkpt>
      <trkpt lat="43.54902" lon="2.91827">
        <ele>340</ele>
        <time>2019-03-03T09:29:39Z</time>
      </trkpt>
      <trkpt lat="43.54901" lon="2.9183">
        <ele>340</ele>
        <time>2019-03-03T09:29:40Z</time>
      </trkpt>
      <trkpt lat="43.54899" lon="2.91833">
        <ele>340</ele>
        <time>2019-03-03T09:29:41Z</time>
      </trkpt>
      <trkpt lat="43.54897" lon="2.91836">
        <ele>340</ele>
        <time>2019-03-03T09:29:42Z</time>
      </trkpt>
      <trkpt lat="43.54896" lon="2.91839">
        <ele>340</ele>
        <time>2019-03-03T09:29:43Z</time>
      </trkpt>
      <trkpt lat="43.54894" lon="2.91842">
        <ele>341</ele>
        <time>2019-03-03T09:29:44Z</time>
      </trkpt>
      <trkpt lat="43.54892" lon="2.91844">
        <ele>341</ele>
        <time>2019-03-03T09:29:45Z</time>
      </trkpt>
      <trkpt lat="43.5489" lon="2.91847">
        <ele>341</ele>
        <time>2019-03-03T09:29:46Z</time>
      </trkpt>
      <trkpt lat="43.54888" lon="2.91849">
        <ele>342</ele>
        <time>2019-03-03T09:29:47Z</time>
      </trkpt>
      <trkpt lat="43.54886" lon="2.9185">
        <ele>342</ele>
        <time>2019-03-03T09:29:48Z</time>
      </trkpt>
      <trkpt lat="43.54884" lon="2.91852">
        <ele>342</ele>
        <time>2019-03-03T09:29:49Z</time>
      </trkpt>
      <trkpt lat="43.54883" lon="2.91854">
        <ele>342</ele>
        <time>2019-03-03T09:29:50Z</time>
      </trkpt>
      <trkpt lat="43.54881" lon="2.91856">
        <ele>343</ele>
        <time>2019-03-03T09:29:51Z</time>
      </trkpt>
      <trkpt lat="43.54879" lon="2.91858">
        <ele>343</ele>
        <time>2019-03-03T09:29:52Z</time>
      </trkpt>
      <trkpt lat="43.54876" lon="2.9186">
        <ele>343</ele>
        <time>2019-03-03T09:29:53Z</time>
      </trkpt>
      <trkpt lat="43.54874" lon="2.91862">
        <ele>343</ele>
        <time>2019-03-03T09:29:54Z</time>
      </trkpt>
      <trkpt lat="43.54872" lon="2.91864">
        <ele>344</ele>
        <time>2019-03-03T09:29:55Z</time>
      </trkpt>
      <trkpt lat="43.5487" lon="2.91866">
        <ele>344</ele>
        <time>2019-03-03T09:29:56Z</time>
      </trkpt>
      <trkpt lat="43.54868" lon="2.91868">
        <ele>344</ele>
        <time>2019-03-03T09:29:57Z</time>
      </trkpt>
      <trkpt lat="43.54866" lon="2.91869">
        <ele>345</ele>
        <time>2019-03-03T09:29:58Z</time>
      </trkpt>
      <trkpt lat="43.54864" lon="2.91871">
        <ele>345</ele>
        <time>2019-03-03T09:29:59Z</time>
      </trkpt>
      <trkpt lat="43.54862" lon="2.91872">
        <ele>345</ele>
        <time>2019-03-03T09:30:00Z</time>
      </trkpt>
      <trkpt lat="43.54859" lon="2.91874">
        <ele>345</ele>
        <time>2019-03-03T09:30:01Z</time>
      </trkpt>
      <trkpt lat="43.54857" lon="2.91875">
        <ele>345</ele>
        <time>2019-03-03T09:30:02Z</time>
      </trkpt>
      <trkpt lat="43.54855" lon="2.91877">
        <ele>346</ele>
        <time>2019-03-03T09:30:03Z</time>
      </trkpt>
      <trkpt lat="43.54853" lon="2.91879">
        <ele>346</ele>
        <time>2019-03-03T09:30:04Z</time>
      </trkpt>
      <trkpt lat="43.54851" lon="2.91881">
        <ele>346</ele>
        <time>2019-03-03T09:30:05Z</time>
      </trkpt>
      <trkpt lat="43.54849" lon="2.91883">
        <ele>346</ele>
        <time>2019-03-03T09:30:06Z</time>
      </trkpt>
      <trkpt lat="43.54847" lon="2.91885">
        <ele>347</ele>
        <time>2019-03-03T09:30:07Z</time>
      </trkpt>
      <trkpt lat="43.54845" lon="2.91886">
        <ele>347</ele>
        <time>2019-03-03T09:30:08Z</time>
      </trkpt>
      <trkpt lat="43.54843" lon="2.91888">
        <ele>347</ele>
        <time>2019-03-03T09:30:09Z</time>
      </trkpt>
      <trkpt lat="43.54841" lon="2.91891">
        <ele>347</ele>
        <time>2019-03-03T09:30:10Z</time>
      </trkpt>
      <trkpt lat="43.54839" lon="2.91894">
        <ele>348</ele>
        <time>2019-03-03T09:30:11Z</time>
      </trkpt>
      <trkpt lat="43.54838" lon="2.91896">
        <ele>348</ele>
        <time>2019-03-03T09:30:12Z</time>
      </trkpt>
      <trkpt lat="43.54836" lon="2.919">
        <ele>348</ele>
        <time>2019-03-03T09:30:13Z</time>
      </trkpt>
      <trkpt lat="43.54835" lon="2.91903">
        <ele>348</ele>
        <time>2019-03-03T09:30:14Z</time>
      </trkpt>
      <trkpt lat="43.54833" lon="2.91906">
        <ele>349</ele>
        <time>2019-03-03T09:30:15Z</time>
      </trkpt>
      <trkpt lat="43.54832" lon="2.9191">
        <ele>349</ele>
        <time>2019-03-03T09:30:16Z</time>
      </trkpt>
      <trkpt lat="43.54831" lon="2.91913">
        <ele>349</ele>
        <time>2019-03-03T09:30:17Z</time>
      </trkpt>
      <trkpt lat="43.5483" lon="2.91916">
        <ele>349</ele>
        <time>2019-03-03T09:30:18Z</time>
      </trkpt>
      <trkpt lat="43.54829" lon="2.9192">
        <ele>349</ele>
        <time>2019-03-03T09:30:19Z</time>
      </trkpt>
      <trkpt lat="43.54828" lon="2.91923">
        <ele>350</ele>
        <time>2019-03-03T09:30:20Z</time>
      </trkpt>
      <trkpt lat="43.54828" lon="2.91926">
        <ele>350</ele>
        <time>2019-03-03T09:30:21Z</time>
      </trkpt>
      <trkpt lat="43.54827" lon="2.9193">
        <ele>350</ele>
        <time>2019-03-03T09:30:22Z</time>
      </trkpt>
      <trkpt lat="43.54825" lon="2.91934">
        <ele>350</ele>
        <time>2019-03-03T09:30:23Z</time>
      </trkpt>
      <trkpt lat="43.54825" lon="2.91937">
        <ele>350</ele>
        <time>2019-03-03T09:30:24Z</time>
      </trkpt>
      <trkpt lat="43.54823" lon="2.91941">
        <ele>350</ele>
        <time>2019-03-03T09:30:25Z</time>
      </trkpt>
      <trkpt lat="43.54822" lon="2.91944">
        <ele>351</ele>
        <time>2019-03-03T09:30:26Z</time>
      </trkpt>
      <trkpt lat="43.54821" lon="2.91948">
        <ele>351</ele>
        <time>2019-03-03T09:30:27Z</time>
      </trkpt>
      <trkpt lat="43.5482" lon="2.91951">
        <ele>351</ele>
        <time>2019-03-03T09:30:28Z</time>
      </trkpt>
      <trkpt lat="43.54818" lon="2.91954">
        <ele>351</ele>
        <time>2019-03-03T09:30:29Z</time>
      </trkpt>
      <trkpt lat="43.54817" lon="2.91958">
        <ele>352</ele>
        <time>2019-03-03T09:30:30Z</time>
      </trkpt>
      <trkpt lat="43.54815" lon="2.91961">
        <ele>352</ele>
        <time>2019-03-03T09:30:31Z</time>
      </trkpt>
      <trkpt lat="43.54813" lon="2.91964">
        <ele>352</ele>
        <time>2019-03-03T09:30:32Z</time>
      </trkpt>
      <trkpt lat="43.54812" lon="2.91967">
        <ele>353</ele>
        <time>2019-03-03T09:30:33Z</time>
      </trkpt>
      <trkpt lat="43.5481" lon="2.9197">
        <ele>353</ele>
        <time>2019-03-03T09:30:34Z</time>
      </trkpt>
      <trkpt lat="43.54809" lon="2.91974">
        <ele>353</ele>
        <time>2019-03-03T09:30:35Z</time>
      </trkpt>
      <trkpt lat="43.54808" lon="2.91977">
        <ele>354</ele>
        <time>2019-03-03T09:30:36Z</time>
      </trkpt>
      <trkpt lat="43.54806" lon="2.9198">
        <ele>354</ele>
        <time>2019-03-03T09:30:37Z</time>
      </trkpt>
      <trkpt lat="43.54805" lon="2.91984">
        <ele>354</ele>
        <time>2019-03-03T09:30:38Z</time>
      </trkpt>
      <trkpt lat="43.54803" lon="2.91987">
        <ele>355</ele>
        <time>2019-03-03T09:30:39Z</time>
      </trkpt>
      <trkpt lat="43.54802" lon="2.91991">
        <ele>355</ele>
        <time>2019-03-03T09:30:40Z</time>
      </trkpt>
      <trkpt lat="43.54801" lon="2.91994">
        <ele>355</ele>
        <time>2019-03-03T09:30:41Z</time>
      </trkpt>
      <trkpt lat="43.548" lon="2.91998">
        <ele>355</ele>
        <time>2019-03-03T09:30:42Z</time>
      </trkpt>
      <trkpt lat="43.54799" lon="2.92001">
        <ele>355</ele>
        <time>2019-03-03T09:30:43Z</time>
      </trkpt>
      <trkpt lat="43.54798" lon="2.92005">
        <ele>356</ele>
        <time>2019-03-03T09:30:44Z</time>
      </trkpt>
      <trkpt lat="43.54798" lon="2.92008">
        <ele>356</ele>
        <time>2019-03-03T09:30:45Z</time>
      </trkpt>
      <trkpt lat="43.54797" lon="2.92012">
        <ele>356</ele>
        <time>2019-03-03T09:30:46Z</time>
      </trkpt>
      <trkpt lat="43.54797" lon="2.92015">
        <ele>356</ele>
        <time>2019-03-03T09:30:47Z</time>
      </trkpt>
      <trkpt lat="43.54796" lon="2.92019">
        <ele>356</ele>
        <time>2019-03-03T09:30:48Z</time>
      </trkpt>
      <trkpt lat="43.54796" lon="2.92022">
        <ele>356</ele>
        <time>2019-03-03T09:30:49Z</time>
      </trkpt>
      <trkpt lat="43.54796" lon="2.92026">
        <ele>356</ele>
        <time>2019-03-03T09:30:50Z</time>
      </trkpt>
      <trkpt lat="43.54796" lon="2.9203">
        <ele>357</ele>
        <time>2019-03-03T09:30:51Z</time>
      </trkpt>
      <trkpt lat="43.54796" lon="2.92034">
        <ele>357</ele>
        <time>2019-03-03T09:30:52Z</time>
      </trkpt>
      <trkpt lat="43.54796" lon="2.92037">
        <ele>357</ele>
        <time>2019-03-03T09:30:53Z</time>
      </trkpt>
      <trkpt lat="43.54796" lon="2.92041">
        <ele>357</ele>
        <time>2019-03-03T09:30:54Z</time>
      </trkpt>
      <trkpt lat="43.54797" lon="2.92044">
        <ele>358</ele>
        <time>2019-03-03T09:30:55Z</time>
      </trkpt>
      <trkpt lat="43.54797" lon="2.92048">
        <ele>358</ele>
        <time>2019-03-03T09:30:56Z</time>
      </trkpt>
      <trkpt lat="43.54798" lon="2.92052">
        <ele>358</ele>
        <time>2019-03-03T09:30:57Z</time>
      </trkpt>
      <trkpt lat="43.548" lon="2.92055">
        <ele>358</ele>
        <time>2019-03-03T09:30:58Z</time>
      </trkpt>
      <trkpt lat="43.54802" lon="2.92057">
        <ele>359</ele>
        <time>2019-03-03T09:30:59Z</time>
      </trkpt>
      <trkpt lat="43.54803" lon="2.9206">
        <ele>359</ele>
        <time>2019-03-03T09:31:00Z</time>
      </trkpt>
      <trkpt lat="43.54805" lon="2.92062">
        <ele>359</ele>
        <time>2019-03-03T09:31:01Z</time>
      </trkpt>
      <trkpt lat="43.54807" lon="2.92065">
        <ele>359</ele>
        <time>2019-03-03T09:31:02Z</time>
      </trkpt>
      <trkpt lat="43.54809" lon="2.92067">
        <ele>360</ele>
        <time>2019-03-03T09:31:03Z</time>
      </trkpt>
      <trkpt lat="43.54811" lon="2.9207">
        <ele>360</ele>
        <time>2019-03-03T09:31:04Z</time>
      </trkpt>
      <trkpt lat="43.54813" lon="2.92072">
        <ele>360</ele>
        <time>2019-03-03T09:31:05Z</time>
      </trkpt>
      <trkpt lat="43.54814" lon="2.92074">
        <ele>360</ele>
        <time>2019-03-03T09:31:06Z</time>
      </trkpt>
      <trkpt lat="43.54816" lon="2.92077">
        <ele>361</ele>
        <time>2019-03-03T09:31:07Z</time>
      </trkpt>
      <trkpt lat="43.54818" lon="2.92079">
        <ele>361</ele>
        <time>2019-03-03T09:31:08Z</time>
      </trkpt>
      <trkpt lat="43.5482" lon="2.92082">
        <ele>361</ele>
        <time>2019-03-03T09:31:09Z</time>
      </trkpt>
      <trkpt lat="43.54822" lon="2.92084">
        <ele>362</ele>
        <time>2019-03-03T09:31:10Z</time>
      </trkpt>
      <trkpt lat="43.54823" lon="2.92087">
        <ele>362</ele>
        <time>2019-03-03T09:31:11Z</time>
      </trkpt>
      <trkpt lat="43.54825" lon="2.92089">
        <ele>362</ele>
        <time>2019-03-03T09:31:12Z</time>
      </trkpt>
      <trkpt lat="43.54827" lon="2.92092">
        <ele>363</ele>
        <time>2019-03-03T09:31:13Z</time>
      </trkpt>
      <trkpt lat="43.54829" lon="2.92094">
        <ele>363</ele>
        <time>2019-03-03T09:31:14Z</time>
      </trkpt>
      <trkpt lat="43.54831" lon="2.92097">
        <ele>363</ele>
        <time>2019-03-03T09:31:15Z</time>
      </trkpt>
      <trkpt lat="43.54833" lon="2.92099">
        <ele>363</ele>
        <time>2019-03-03T09:31:16Z</time>
      </trkpt>
      <trkpt lat="43.54835" lon="2.92102">
        <ele>364</ele>
        <time>2019-03-03T09:31:17Z</time>
      </trkpt>
      <trkpt lat="43.54837" lon="2.92104">
        <ele>364</ele>
        <time>2019-03-03T09:31:18Z</time>
      </trkpt>
      <trkpt lat="43.54838" lon="2.92107">
        <ele>364</ele>
        <time>2019-03-03T09:31:19Z</time>
      </trkpt>
      <trkpt lat="43.5484" lon="2.9211">
        <ele>364</ele>
        <time>2019-03-03T09:31:20Z</time>
      </trkpt>
      <trkpt lat="43.54842" lon="2.92112">
        <ele>365</ele>
        <time>2019-03-03T09:31:21Z</time>
      </trkpt>
      <trkpt lat="43.54843" lon="2.92115">
        <ele>365</ele>
        <time>2019-03-03T09:31:22Z</time>
      </trkpt>
      <trkpt lat="43.54845" lon="2.92117">
        <ele>365</ele>
        <time>2019-03-03T09:31:23Z</time>
      </trkpt>
      <trkpt lat="43.54847" lon="2.9212">
        <ele>365</ele>
        <time>2019-03-03T09:31:24Z</time>
      </trkpt>
      <trkpt lat="43.54849" lon="2.92122">
        <ele>366</ele>
        <time>2019-03-03T09:31:25Z</time>
      </trkpt>
      <trkpt lat="43.54851" lon="2.92124">
        <ele>366</ele>
        <time>2019-03-03T09:31:26Z</time>
      </trkpt>
      <trkpt lat="43.54852" lon="2.92127">
        <ele>366</ele>
        <time>2019-03-03T09:31:27Z</time>
      </trkpt>
      <trkpt lat="43.54854" lon="2.92129">
        <ele>366</ele>
        <time>2019-03-03T09:31:28Z</time>
      </trkpt>
      <trkpt lat="43.54856" lon="2.92132">
        <ele>366</ele>
        <time>2019-03-03T09:31:29Z</time>
      </trkpt>
      <trkpt lat="43.54858" lon="2.92134">
        <ele>367</ele>
        <time>2019-03-03T09:31:30Z</time>
      </trkpt>
      <trkpt lat="43.5486" lon="2.92137">
        <ele>367</ele>
        <time>2019-03-03T09:31:31Z</time>
      </trkpt>
      <trkpt lat="43.54861" lon="2.9214">
        <ele>367</ele>
        <time>2019-03-03T09:31:32Z</time>
      </trkpt>
      <trkpt lat="43.54863" lon="2.92142">
        <ele>367</ele>
        <time>2019-03-03T09:31:33Z</time>
      </trkpt>
      <trkpt lat="43.54865" lon="2.92145">
        <ele>367</ele>
        <time>2019-03-03T09:31:34Z</time>
      </trkpt>
      <trkpt lat="43.54867" lon="2.92147">
        <ele>368</ele>
        <time>2019-03-03T09:31:35Z</time>
      </trkpt>
      <trkpt lat="43.54868" lon="2.9215">
        <ele>368</ele>
        <time>2019-03-03T09:31:36Z</time>
      </trkpt>
      <trkpt lat="43.5487" lon="2.92152">
        <ele>368</ele>
        <time>2019-03-03T09:31:37Z</time>
      </trkpt>
      <trkpt lat="43.54872" lon="2.92154">
        <ele>368</ele>
        <time>2019-03-03T09:31:38Z</time>
      </trkpt>
      <trkpt lat="43.54874" lon="2.92157">
        <ele>369</ele>
        <time>2019-03-03T09:31:39Z</time>
      </trkpt>
      <trkpt lat="43.54876" lon="2.9216">
        <ele>369</ele>
        <time>2019-03-03T09:31:40Z</time>
      </trkpt>
      <trkpt lat="43.54877" lon="2.92163">
        <ele>369</ele>
        <time>2019-03-03T09:31:41Z</time>
      </trkpt>
      <trkpt lat="43.54879" lon="2.92165">
        <ele>369</ele>
        <time>2019-03-03T09:31:42Z</time>
      </trkpt>
      <trkpt lat="43.54881" lon="2.92168">
        <ele>370</ele>
        <time>2019-03-03T09:31:43Z</time>
      </trkpt>
      <trkpt lat="43.54882" lon="2.92171">
        <ele>370</ele>
        <time>2019-03-03T09:31:44Z</time>
      </trkpt>
      <trkpt lat="43.54884" lon="2.92174">
        <ele>370</ele>
        <time>2019-03-03T09:31:45Z</time>
      </trkpt>
      <trkpt lat="43.54885" lon="2.92177">
        <ele>370</ele>
        <time>2019-03-03T09:31:46Z</time>
      </trkpt>
      <trkpt lat="43.54886" lon="2.92181">
        <ele>371</ele>
        <time>2019-03-03T09:31:47Z</time>
      </trkpt>
      <trkpt lat="43.54887" lon="2.92184">
        <ele>371</ele>
        <time>2019-03-03T09:31:48Z</time>
      </trkpt>
      <trkpt lat="43.54887" lon="2.92187">
        <ele>371</ele>
        <time>2019-03-03T09:31:49Z</time>
      </trkpt>
      <trkpt lat="43.54888" lon="2.9219">
        <ele>371</ele>
        <time>2019-03-03T09:31:50Z</time>
      </trkpt>
      <trkpt lat="43.54889" lon="2.92194">
        <ele>372</ele>
        <time>2019-03-03T09:31:51Z</time>
      </trkpt>
      <trkpt lat="43.54889" lon="2.92197">
        <ele>372</ele>
        <time>2019-03-03T09:31:52Z</time>
      </trkpt>
      <trkpt lat="43.54889" lon="2.922">
        <ele>372</ele>
        <time>2019-03-03T09:31:53Z</time>
      </trkpt>
      <trkpt lat="43.54889" lon="2.92205">
        <ele>372</ele>
        <time>2019-03-03T09:31:54Z</time>
      </trkpt>
      <trkpt lat="43.54889" lon="2.92209">
        <ele>373</ele>
        <time>2019-03-03T09:31:55Z</time>
      </trkpt>
      <trkpt lat="43.54888" lon="2.92212">
        <ele>373</ele>
        <time>2019-03-03T09:31:56Z</time>
      </trkpt>
      <trkpt lat="43.54888" lon="2.92216">
        <ele>373</ele>
        <time>2019-03-03T09:31:57Z</time>
      </trkpt>
      <trkpt lat="43.54887" lon="2.9222">
        <ele>373</ele>
        <time>2019-03-03T09:31:58Z</time>
      </trkpt>
      <trkpt lat="43.54886" lon="2.92224">
        <ele>373</ele>
        <time>2019-03-03T09:31:59Z</time>
      </trkpt>
      <trkpt lat="43.54885" lon="2.92228">
        <ele>374</ele>
        <time>2019-03-03T09:32:00Z</time>
      </trkpt>
      <trkpt lat="43.54884" lon="2.92231">
        <ele>374</ele>
        <time>2019-03-03T09:32:01Z</time>
      </trkpt>
      <trkpt lat="43.54882" lon="2.92234">
        <ele>374</ele>
        <time>2019-03-03T09:32:02Z</time>
      </trkpt>
      <trkpt lat="43.5488" lon="2.92237">
        <ele>375</ele>
        <time>2019-03-03T09:32:03Z</time>
      </trkpt>
      <trkpt lat="43.54878" lon="2.9224">
        <ele>375</ele>
        <time>2019-03-03T09:32:04Z</time>
      </trkpt>
      <trkpt lat="43.54876" lon="2.92242">
        <ele>375</ele>
        <time>2019-03-03T09:32:05Z</time>
      </trkpt>
      <trkpt lat="43.54874" lon="2.92245">
        <ele>375</ele>
        <time>2019-03-03T09:32:06Z</time>
      </trkpt>
      <trkpt lat="43.54872" lon="2.92247">
        <ele>376</ele>
        <time>2019-03-03T09:32:07Z</time>
      </trkpt>
      <trkpt lat="43.5487" lon="2.92249">
        <ele>376</ele>
        <time>2019-03-03T09:32:08Z</time>
      </trkpt>
      <trkpt lat="43.54868" lon="2.92251">
        <ele>376</ele>
        <time>2019-03-03T09:32:09Z</time>
      </trkpt>
      <trkpt lat="43.54865" lon="2.92252">
        <ele>376</ele>
        <time>2019-03-03T09:32:10Z</time>
      </trkpt>
      <trkpt lat="43.54863" lon="2.92253">
        <ele>377</ele>
        <time>2019-03-03T09:32:11Z</time>
      </trkpt>
      <trkpt lat="43.54861" lon="2.92254">
        <ele>377</ele>
        <time>2019-03-03T09:32:12Z</time>
      </trkpt>
      <trkpt lat="43.54858" lon="2.92254">
        <ele>377</ele>
        <time>2019-03-03T09:32:13Z</time>
      </trkpt>
      <trkpt lat="43.54855" lon="2.92255">
        <ele>378</ele>
        <time>2019-03-03T09:32:14Z</time>
      </trkpt>
      <trkpt lat="43.54853" lon="2.92256">
        <ele>378</ele>
        <time>2019-03-03T09:32:15Z</time>
      </trkpt>
      <trkpt lat="43.5485" lon="2.92257">
        <ele>378</ele>
        <time>2019-03-03T09:32:16Z</time>
      </trkpt>
      <trkpt lat="43.54847" lon="2.92257">
        <ele>378</ele>
        <time>2019-03-03T09:32:17Z</time>
      </trkpt>
      <trkpt lat="43.54845" lon="2.92257">
        <ele>379</ele>
        <time>2019-03-03T09:32:18Z</time>
      </trkpt>
      <trkpt lat="43.54842" lon="2.92258">
        <ele>379</ele>
        <time>2019-03-03T09:32:19Z</time>
      </trkpt>
      <trkpt lat="43.5484" lon="2.92258">
        <ele>379</ele>
        <time>2019-03-03T09:32:20Z</time>
      </trkpt>
      <trkpt lat="43.54837" lon="2.92258">
        <ele>379</ele>
        <time>2019-03-03T09:32:21Z</time>
      </trkpt>
      <trkpt lat="43.54835" lon="2.92259">
        <ele>380</ele>
        <time>2019-03-03T09:32:22Z</time>
      </trkpt>
      <trkpt lat="43.54832" lon="2.92259">
        <ele>380</ele>
        <time>2019-03-03T09:32:23Z</time>
      </trkpt>
      <trkpt lat="43.54829" lon="2.92259">
        <ele>380</ele>
        <time>2019-03-03T09:32:24Z</time>
      </trkpt>
      <trkpt lat="43.54827" lon="2.92259">
        <ele>380</ele>
        <time>2019-03-03T09:32:25Z</time>
      </trkpt>
      <trkpt lat="43.54824" lon="2.92259">
        <ele>380</ele>
        <time>2019-03-03T09:32:26Z</time>
      </trkpt>
      <trkpt lat="43.54822" lon="2.92259">
        <ele>381</ele>
        <time>2019-03-03T09:32:27Z</time>
      </trkpt>
      <trkpt lat="43.54819" lon="2.9226">
        <ele>381</ele>
        <time>2019-03-03T09:32:28Z</time>
      </trkpt>
      <trkpt lat="43.54817" lon="2.9226">
        <ele>381</ele>
        <time>2019-03-03T09:32:29Z</time>
      </trkpt>
      <trkpt lat="43.54814" lon="2.92261">
        <ele>381</ele>
        <time>2019-03-03T09:32:30Z</time>
      </trkpt>
      <trkpt lat="43.54811" lon="2.92261">
        <ele>381</ele>
        <time>2019-03-03T09:32:31Z</time>
      </trkpt>
      <trkpt lat="43.54809" lon="2.92261">
        <ele>382</ele>
        <time>2019-03-03T09:32:32Z</time>
      </trkpt>
      <trkpt lat="43.54806" lon="2.92262">
        <ele>382</ele>
        <time>2019-03-03T09:32:33Z</time>
      </trkpt>
      <trkpt lat="43.54804" lon="2.92262">
        <ele>382</ele>
        <time>2019-03-03T09:32:34Z</time>
      </trkpt>
      <trkpt lat="43.54802" lon="2.92262">
        <ele>382</ele>
        <time>2019-03-03T09:32:35Z</time>
      </trkpt>
      <trkpt lat="43.548" lon="2.92262">
        <ele>382</ele>
        <time>2019-03-03T09:32:36Z</time>
      </trkpt>
      <trkpt lat="43.54797" lon="2.92262">
        <ele>383</ele>
        <time>2019-03-03T09:32:37Z</time>
      </trkpt>
      <trkpt lat="43.54795" lon="2.92262">
        <ele>383</ele>
        <time>2019-03-03T09:32:38Z</time>
      </trkpt>
      <trkpt lat="43.54793" lon="2.92262">
        <ele>383</ele>
        <time>2019-03-03T09:32:39Z</time>
      </trkpt>
      <trkpt lat="43.54791" lon="2.92263">
        <ele>383</ele>
        <time>2019-03-03T09:32:40Z</time>
      </trkpt>
      <trkpt lat="43.54788" lon="2.92263">
        <ele>383</ele>
        <time>2019-03-03T09:32:41Z</time>
      </trkpt>
      <trkpt lat="43.54786" lon="2.92263">
        <ele>384</ele>
        <time>2019-03-03T09:32:42Z</time>
      </trkpt>
      <trkpt lat="43.54783" lon="2.92263">
        <ele>384</ele>
        <time>2019-03-03T09:32:43Z</time>
      </trkpt>
      <trkpt lat="43.54781" lon="2.92263">
        <ele>384</ele>
        <time>2019-03-03T09:32:44Z</time>
      </trkpt>
      <trkpt lat="43.54779" lon="2.92264">
        <ele>384</ele>
        <time>2019-03-03T09:32:45Z</time>
      </trkpt>
      <trkpt lat="43.54777" lon="2.92264">
        <ele>385</ele>
        <time>2019-03-03T09:32:46Z</time>
      </trkpt>
      <trkpt lat="43.54775" lon="2.92264">
        <ele>385</ele>
        <time>2019-03-03T09:32:47Z</time>
      </trkpt>
      <trkpt lat="43.54773" lon="2.92265">
        <ele>385</ele>
        <time>2019-03-03T09:32:48Z</time>
      </trkpt>
      <trkpt lat="43.54771" lon="2.92265">
        <ele>385</ele>
        <time>2019-03-03T09:32:49Z</time>
      </trkpt>
      <trkpt lat="43.54769" lon="2.92265">
        <ele>386</ele>
        <time>2019-03-03T09:32:50Z</time>
      </trkpt>
      <trkpt lat="43.54766" lon="2.92265">
        <ele>386</ele>
        <time>2019-03-03T09:32:51Z</time>
      </trkpt>
      <trkpt lat="43.54764" lon="2.92266">
        <ele>386</ele>
        <time>2019-03-03T09:32:52Z</time>
      </trkpt>
      <trkpt lat="43.54762" lon="2.92266">
        <ele>386</ele>
        <time>2019-03-03T09:32:53Z</time>
      </trkpt>
      <trkpt lat="43.54759" lon="2.92266">
        <ele>386</ele>
        <time>2019-03-03T09:32:54Z</time>
      </trkpt>
      <trkpt lat="43.54757" lon="2.92267">
        <ele>387</ele>
        <time>2019-03-03T09:32:55Z</time>
      </trkpt>
      <trkpt lat="43.54754" lon="2.92267">
        <ele>387</ele>
        <time>2019-03-03T09:32:56Z</time>
      </trkpt>
      <trkpt lat="43.54752" lon="2.92267">
        <ele>387</ele>
        <time>2019-03-03T09:32:57Z</time>
      </trkpt>
      <trkpt lat="43.54749" lon="2.92268">
        <ele>387</ele>
        <time>2019-03-03T09:32:58Z</time>
      </trkpt>
      <trkpt lat="43.54746" lon="2.92268">
        <ele>387</ele>
        <time>2019-03-03T09:32:59Z</time>
      </trkpt>
      <trkpt lat="43.54744" lon="2.92269">
        <ele>388</ele>
        <time>2019-03-03T09:33:00Z</time>
      </trkpt>
      <trkpt lat="43.54741" lon="2.92269">
        <ele>388</ele>
        <time>2019-03-03T09:33:01Z</time>
      </trkpt>
      <trkpt lat="43.54738" lon="2.9227">
        <ele>388</ele>
        <time>2019-03-03T09:33:02Z</time>
      </trkpt>
      <trkpt lat="43.54736" lon="2.9227">
        <ele>389</ele>
        <time>2019-03-03T09:33:03Z</time>
      </trkpt>
      <trkpt lat="43.54733" lon="2.9227">
        <ele>389</ele>
        <time>2019-03-03T09:33:04Z</time>
      </trkpt>
      <trkpt lat="43.54731" lon="2.9227">
        <ele>389</ele>
        <time>2019-03-03T09:33:05Z</time>
      </trkpt>
      <trkpt lat="43.54728" lon="2.9227">
        <ele>389</ele>
        <time>2019-03-03T09:33:06Z</time>
      </trkpt>
      <trkpt lat="43.54726" lon="2.92271">
        <ele>389</ele>
        <time>2019-03-03T09:33:07Z</time>
      </trkpt>
      <trkpt lat="43.54723" lon="2.92271">
        <ele>390</ele>
        <time>2019-03-03T09:33:08Z</time>
      </trkpt>
      <trkpt lat="43.54721" lon="2.92271">
        <ele>390</ele>
        <time>2019-03-03T09:33:09Z</time>
      </trkpt>
      <trkpt lat="43.54718" lon="2.92271">
        <ele>390</ele>
        <time>2019-03-03T09:33:10Z</time>
      </trkpt>
      <trkpt lat="43.54716" lon="2.92271">
        <ele>390</ele>
        <time>2019-03-03T09:33:11Z</time>
      </trkpt>
      <trkpt lat="43.54713" lon="2.92271">
        <ele>390</ele>
        <time>2019-03-03T09:33:12Z</time>
      </trkpt>
      <trkpt lat="43.54711" lon="2.92271">
        <ele>390</ele>
        <time>2019-03-03T09:33:13Z</time>
      </trkpt>
      <trkpt lat="43.54708" lon="2.92271">
        <ele>391</ele>
        <time>2019-03-03T09:33:14Z</time>
      </trkpt>
      <trkpt lat="43.54706" lon="2.9227">
        <ele>391</ele>
        <time>2019-03-03T09:33:15Z</time>
      </trkpt>
      <trkpt lat="43.54703" lon="2.9227">
        <ele>391</ele>
        <time>2019-03-03T09:33:16Z</time>
      </trkpt>
      <trkpt lat="43.54701" lon="2.92269">
        <ele>391</ele>
        <time>2019-03-03T09:33:17Z</time>
      </trkpt>
      <trkpt lat="43.54698" lon="2.92269">
        <ele>392</ele>
        <time>2019-03-03T09:33:18Z</time>
      </trkpt>
      <trkpt lat="43.54696" lon="2.92268">
        <ele>392</ele>
        <time>2019-03-03T09:33:19Z</time>
      </trkpt>
      <trkpt lat="43.54693" lon="2.92268">
        <ele>392</ele>
        <time>2019-03-03T09:33:20Z</time>
      </trkpt>
      <trkpt lat="43.54691" lon="2.92267">
        <ele>392</ele>
        <time>2019-03-03T09:33:21Z</time>
      </trkpt>
      <trkpt lat="43.54688" lon="2.92267">
        <ele>393</ele>
        <time>2019-03-03T09:33:22Z</time>
      </trkpt>
      <trkpt lat="43.54686" lon="2.92266">
        <ele>393</ele>
        <time>2019-03-03T09:33:23Z</time>
      </trkpt>
      <trkpt lat="43.54683" lon="2.92266">
        <ele>393</ele>
        <time>2019-03-03T09:33:24Z</time>
      </trkpt>
      <trkpt lat="43.54681" lon="2.92266">
        <ele>393</ele>
        <time>2019-03-03T09:33:25Z</time>
      </trkpt>
      <trkpt lat="43.54678" lon="2.92266">
        <ele>393</ele>
        <time>2019-03-03T09:33:26Z</time>
      </trkpt>
      <trkpt lat="43.54676" lon="2.92266">
        <ele>394</ele>
        <time>2019-03-03T09:33:27Z</time>
      </trkpt>
      <trkpt lat="43.54673" lon="2.92266">
        <ele>394</ele>
        <time>2019-03-03T09:33:28Z</time>
      </trkpt>
      <trkpt lat="43.54671" lon="2.92266">
        <ele>394</ele>
        <time>2019-03-03T09:33:29Z</time>
      </trkpt>
      <trkpt lat="43.54668" lon="2.92265">
        <ele>394</ele>
        <time>2019-03-03T09:33:30Z</time>
      </trkpt>
      <trkpt lat="43.54666" lon="2.92265">
        <ele>395</ele>
        <time>2019-03-03T09:33:31Z</time>
      </trkpt>
      <trkpt lat="43.54663" lon="2.92265">
        <ele>395</ele>
        <time>2019-03-03T09:33:32Z</time>
      </trkpt>
      <trkpt lat="43.54661" lon="2.92265">
        <ele>395</ele>
        <time>2019-03-03T09:33:33Z</time>
      </trkpt>
      <trkpt lat="43.54658" lon="2.92265">
        <ele>395</ele>
        <time>2019-03-03T09:33:34Z</time>
      </trkpt>
      <trkpt lat="43.54656" lon="2.92264">
        <ele>395</ele>
        <time>2019-03-03T09:33:35Z</time>
      </trkpt>
      <trkpt lat="43.54653" lon="2.92264">
        <ele>396</ele>
        <time>2019-03-03T09:33:36Z</time>
      </trkpt>
      <trkpt lat="43.54651" lon="2.92264">
        <ele>396</ele>
        <time>2019-03-03T09:33:37Z</time>
      </trkpt>
      <trkpt lat="43.54648" lon="2.92264">
        <ele>396</ele>
        <time>2019-03-03T09:33:38Z</time>
      </trkpt>
      <trkpt lat="43.54646" lon="2.92264">
        <ele>397</ele>
        <time>2019-03-03T09:33:39Z</time>
      </trkpt>
      <trkpt lat="43.54644" lon="2.92264">
        <ele>397</ele>
        <time>2019-03-03T09:33:40Z</time>
      </trkpt>
      <trkpt lat="43.54641" lon="2.92263">
        <ele>397</ele>
        <time>2019-03-03T09:33:41Z</time>
      </trkpt>
      <trkpt lat="43.54639" lon="2.92263">
        <ele>397</ele>
        <time>2019-03-03T09:33:42Z</time>
      </trkpt>
      <trkpt lat="43.54637" lon="2.92263">
        <ele>397</ele>
        <time>2019-03-03T09:33:43Z</time>
      </trkpt>
      <trkpt lat="43.54634" lon="2.92263">
        <ele>398</ele>
        <time>2019-03-03T09:33:44Z</time>
      </trkpt>
      <trkpt lat="43.54632" lon="2.92262">
        <ele>398</ele>
        <time>2019-03-03T09:33:45Z</time>
      </trkpt>
      <trkpt lat="43.5463" lon="2.92262">
        <ele>398</ele>
        <time>2019-03-03T09:33:46Z</time>
      </trkpt>
      <trkpt lat="43.54627" lon="2.92261">
        <ele>399</ele>
        <time>2019-03-03T09:33:47Z</time>
      </trkpt>
      <trkpt lat="43.54625" lon="2.92261">
        <ele>399</ele>
        <time>2019-03-03T09:33:48Z</time>
      </trkpt>
      <trkpt lat="43.54622" lon="2.9226">
        <ele>399</ele>
        <time>2019-03-03T09:33:49Z</time>
      </trkpt>
      <trkpt lat="43.5462" lon="2.9226">
        <ele>399</ele>
        <time>2019-03-03T09:33:50Z</time>
      </trkpt>
      <trkpt lat="43.54617" lon="2.9226">
        <ele>400</ele>
        <time>2019-03-03T09:33:51Z</time>
      </trkpt>
      <trkpt lat="43.54615" lon="2.9226">
        <ele>400</ele>
        <time>2019-03-03T09:33:52Z</time>
      </trkpt>
      <trkpt lat="43.54612" lon="2.9226">
        <ele>400</ele>
        <time>2019-03-03T09:33:53Z</time>
      </trkpt>
      <trkpt lat="43.5461" lon="2.92261">
        <ele>400</ele>
        <time>2019-03-03T09:33:54Z</time>
      </trkpt>
      <trkpt lat="43.54608" lon="2.92262">
        <ele>401</ele>
        <time>2019-03-03T09:33:55Z</time>
      </trkpt>
      <trkpt lat="43.54605" lon="2.92263">
        <ele>401</ele>
        <time>2019-03-03T09:33:56Z</time>
      </trkpt>
      <trkpt lat="43.54603" lon="2.92265">
        <ele>401</ele>
        <time>2019-03-03T09:33:57Z</time>
      </trkpt>
      <trkpt lat="43.54601" lon="2.92267">
        <ele>401</ele>
        <time>2019-03-03T09:33:58Z</time>
      </trkpt>
      <trkpt lat="43.54599" lon="2.92269">
        <ele>402</ele>
        <time>2019-03-03T09:33:59Z</time>
      </trkpt>
      <trkpt lat="43.54598" lon="2.92271">
        <ele>402</ele>
        <time>2019-03-03T09:34:00Z</time>
      </trkpt>
      <trkpt lat="43.54596" lon="2.92274">
        <ele>402</ele>
        <time>2019-03-03T09:34:01Z</time>
      </trkpt>
      <trkpt lat="43.54594" lon="2.92276">
        <ele>402</ele>
        <time>2019-03-03T09:34:02Z</time>
      </trkpt>
      <trkpt lat="43.54593" lon="2.92279">
        <ele>402</ele>
        <time>2019-03-03T09:34:03Z</time>
      </trkpt>
      <trkpt lat="43.54591" lon="2.92283">
        <ele>402</ele>
        <time>2019-03-03T09:34:04Z</time>
      </trkpt>
      <trkpt lat="43.5459" lon="2.92286">
        <ele>403</ele>
        <time>2019-03-03T09:34:05Z</time>
      </trkpt>
      <trkpt lat="43.54589" lon="2.92289">
        <ele>403</ele>
        <time>2019-03-03T09:34:06Z</time>
      </trkpt>
      <trkpt lat="43.54587" lon="2.92292">
        <ele>403</ele>
        <time>2019-03-03T09:34:07Z</time>
      </trkpt>
      <trkpt lat="43.54586" lon="2.92295">
        <ele>403</ele>
        <time>2019-03-03T09:34:08Z</time>
      </trkpt>
      <trkpt lat="43.54584" lon="2.92297">
        <ele>403</ele>
        <time>2019-03-03T09:34:09Z</time>
      </trkpt>
      <trkpt lat="43.54583" lon="2.923">
        <ele>403</ele>
        <time>2019-03-03T09:34:10Z</time>
      </trkpt>
      <trkpt lat="43.54581" lon="2.92304">
        <ele>404</ele>
        <time>2019-03-03T09:34:11Z</time>
      </trkpt>
      <trkpt lat="43.5458" lon="2.92307">
        <ele>404</ele>
        <time>2019-03-03T09:34:12Z</time>
      </trkpt>
      <trkpt lat="43.54579" lon="2.9231">
        <ele>404</ele>
        <time>2019-03-03T09:34:13Z</time>
      </trkpt>
      <trkpt lat="43.54577" lon="2.92314">
        <ele>404</ele>
        <time>2019-03-03T09:34:14Z</time>
      </trkpt>
      <trkpt lat="43.54576" lon="2.92317">
        <ele>404</ele>
        <time>2019-03-03T09:34:15Z</time>
      </trkpt>
      <trkpt lat="43.54575" lon="2.9232">
        <ele>404</ele>
        <time>2019-03-03T09:34:16Z</time>
      </trkpt>
      <trkpt lat="43.54574" lon="2.92323">
        <ele>405</ele>
        <time>2019-03-03T09:34:17Z</time>
      </trkpt>
      <trkpt lat="43.54573" lon="2.92326">
        <ele>405</ele>
        <time>2019-03-03T09:34:18Z</time>
      </trkpt>
      <trkpt lat="43.54572" lon="2.9233">
        <ele>405</ele>
        <time>2019-03-03T09:34:19Z</time>
      </trkpt>
      <trkpt lat="43.54571" lon="2.92333">
        <ele>405</ele>
        <time>2019-03-03T09:34:20Z</time>
      </trkpt>
      <trkpt lat="43.54571" lon="2.92336">
        <ele>406</ele>
        <time>2019-03-03T09:34:21Z</time>
      </trkpt>
      <trkpt lat="43.5457" lon="2.9234">
        <ele>406</ele>
        <time>2019-03-03T09:34:22Z</time>
      </trkpt>
      <trkpt lat="43.54569" lon="2.92343">
        <ele>406</ele>
        <time>2019-03-03T09:34:23Z</time>
      </trkpt>
      <trkpt lat="43.54569" lon="2.92347">
        <ele>406</ele>
        <time>2019-03-03T09:34:24Z</time>
      </trkpt>
      <trkpt lat="43.54568" lon="2.9235">
        <ele>406</ele>
        <time>2019-03-03T09:34:25Z</time>
      </trkpt>
      <trkpt lat="43.54568" lon="2.92354">
        <ele>406</ele>
        <time>2019-03-03T09:34:26Z</time>
      </trkpt>
      <trkpt lat="43.54568" lon="2.92357">
        <ele>407</ele>
        <time>2019-03-03T09:34:27Z</time>
      </trkpt>
      <trkpt lat="43.54567" lon="2.9236">
        <ele>407</ele>
        <time>2019-03-03T09:34:28Z</time>
      </trkpt>
      <trkpt lat="43.54567" lon="2.92364">
        <ele>408</ele>
        <time>2019-03-03T09:34:29Z</time>
      </trkpt>
      <trkpt lat="43.54567" lon="2.92367">
        <ele>408</ele>
        <time>2019-03-03T09:34:30Z</time>
      </trkpt>
      <trkpt lat="43.54567" lon="2.92371">
        <ele>408</ele>
        <time>2019-03-03T09:34:31Z</time>
      </trkpt>
      <trkpt lat="43.54567" lon="2.92375">
        <ele>408</ele>
        <time>2019-03-03T09:34:32Z</time>
      </trkpt>
      <trkpt lat="43.54566" lon="2.92378">
        <ele>408</ele>
        <time>2019-03-03T09:34:33Z</time>
      </trkpt>
      <trkpt lat="43.54566" lon="2.92382">
        <ele>409</ele>
        <time>2019-03-03T09:34:34Z</time>
      </trkpt>
      <trkpt lat="43.54566" lon="2.92385">
        <ele>409</ele>
        <time>2019-03-03T09:34:35Z</time>
      </trkpt>
      <trkpt lat="43.54566" lon="2.92388">
        <ele>409</ele>
        <time>2019-03-03T09:34:36Z</time>
      </trkpt>
      <trkpt lat="43.54565" lon="2.92392">
        <ele>409</ele>
        <time>2019-03-03T09:34:37Z</time>
      </trkpt>
      <trkpt lat="43.54565" lon="2.92395">
        <ele>409</ele>
        <time>2019-03-03T09:34:38Z</time>
      </trkpt>
      <trkpt lat="43.54565" lon="2.92399">
        <ele>410</ele>
        <time>2019-03-03T09:34:39Z</time>
      </trkpt>
      <trkpt lat="43.54565" lon="2.92402">
        <ele>410</ele>
        <time>2019-03-03T09:34:40Z</time>
      </trkpt>
      <trkpt lat="43.54565" lon="2.92406">
        <ele>410</ele>
        <time>2019-03-03T09:34:41Z</time>
      </trkpt>
      <trkpt lat="43.54565" lon="2.92409">
        <ele>410</ele>
        <time>2019-03-03T09:34:42Z</time>
      </trkpt>
      <trkpt lat="43.54565" lon="2.92413">
        <ele>410</ele>
        <time>2019-03-03T09:34:43Z</time>
      </trkpt>
      <trkpt lat="43.54565" lon="2.92417">
        <ele>410</ele>
        <time>2019-03-03T09:34:44Z</time>
      </trkpt>
      <trkpt lat="43.54565" lon="2.92421">
        <ele>411</ele>
        <time>2019-03-03T09:34:45Z</time>
      </trkpt>
      <trkpt lat="43.54565" lon="2.92424">
        <ele>411</ele>
        <time>2019-03-03T09:34:46Z</time>
      </trkpt>
      <trkpt lat="43.54565" lon="2.92428">
        <ele>411</ele>
        <time>2019-03-03T09:34:47Z</time>
      </trkpt>
      <trkpt lat="43.54565" lon="2.92432">
        <ele>411</ele>
        <time>2019-03-03T09:34:48Z</time>
      </trkpt>
      <trkpt lat="43.54565" lon="2.92435">
        <ele>411</ele>
        <time>2019-03-03T09:34:49Z</time>
      </trkpt>
      <trkpt lat="43.54565" lon="2.92439">
        <ele>411</ele>
        <time>2019-03-03T09:34:50Z</time>
      </trkpt>
      <trkpt lat="43.54565" lon="2.92443">
        <ele>411</ele>
        <time>2019-03-03T09:34:51Z</time>
      </trkpt>
      <trkpt lat="43.54565" lon="2.92446">
        <ele>412</ele>
        <time>2019-03-03T09:34:52Z</time>
      </trkpt>
      <trkpt lat="43.54565" lon="2.9245">
        <ele>412</ele>
        <time>2019-03-03T09:34:53Z</time>
      </trkpt>
      <trkpt lat="43.54565" lon="2.92453">
        <ele>412</ele>
        <time>2019-03-03T09:34:54Z</time>
      </trkpt>
      <trkpt lat="43.54565" lon="2.92457">
        <ele>412</ele>
        <time>2019-03-03T09:34:55Z</time>
      </trkpt>
      <trkpt lat="43.54565" lon="2.9246">
        <ele>413</ele>
        <time>2019-03-03T09:34:56Z</time>
      </trkpt>
      <trkpt lat="43.54564" lon="2.92464">
        <ele>413</ele>
        <time>2019-03-03T09:34:57Z</time>
      </trkpt>
      <trkpt lat="43.54564" lon="2.92467">
        <ele>413</ele>
        <time>2019-03-03T09:34:58Z</time>
      </trkpt>
      <trkpt lat="43.54564" lon="2.92471">
        <ele>413</ele>
        <time>2019-03-03T09:34:59Z</time>
      </trkpt>
      <trkpt lat="43.54564" lon="2.92474">
        <ele>413</ele>
        <time>2019-03-03T09:35:00Z</time>
      </trkpt>
      <trkpt lat="43.54564" lon="2.92478">
        <ele>413</ele>
        <time>2019-03-03T09:35:01Z</time>
      </trkpt>
      <trkpt lat="43.54563" lon="2.92481">
        <ele>414</ele>
        <time>2019-03-03T09:35:02Z</time>
      </trkpt>
      <trkpt lat="43.54563" lon="2.92485">
        <ele>414</ele>
        <time>2019-03-03T09:35:03Z</time>
      </trkpt>
      <trkpt lat="43.54563" lon="2.92488">
        <ele>414</ele>
        <time>2019-03-03T09:35:04Z</time>
      </trkpt>
      <trkpt lat="43.54562" lon="2.92491">
        <ele>415</ele>
        <time>2019-03-03T09:35:05Z</time>
      </trkpt>
      <trkpt lat="43.54562" lon="2.92495">
        <ele>415</ele>
        <time>2019-03-03T09:35:06Z</time>
      </trkpt>
      <trkpt lat="43.54562" lon="2.92498">
        <ele>415</ele>
        <time>2019-03-03T09:35:07Z</time>
      </trkpt>
      <trkpt lat="43.54562" lon="2.92501">
        <ele>415</ele>
        <time>2019-03-03T09:35:08Z</time>
      </trkpt>
      <trkpt lat="43.54561" lon="2.92505">
        <ele>416</ele>
        <time>2019-03-03T09:35:09Z</time>
      </trkpt>
      <trkpt lat="43.54561" lon="2.92508">
        <ele>416</ele>
        <time>2019-03-03T09:35:10Z</time>
      </trkpt>
      <trkpt lat="43.54561" lon="2.92511">
        <ele>416</ele>
        <time>2019-03-03T09:35:11Z</time>
      </trkpt>
      <trkpt lat="43.5456" lon="2.92514">
        <ele>416</ele>
        <time>2019-03-03T09:35:12Z</time>
      </trkpt>
      <trkpt lat="43.54559" lon="2.92518">
        <ele>416</ele>
        <time>2019-03-03T09:35:13Z</time>
      </trkpt>
      <trkpt lat="43.54559" lon="2.92521">
        <ele>417</ele>
        <time>2019-03-03T09:35:14Z</time>
      </trkpt>
      <trkpt lat="43.54558" lon="2.92524">
        <ele>417</ele>
        <time>2019-03-03T09:35:15Z</time>
      </trkpt>
      <trkpt lat="43.54557" lon="2.92527">
        <ele>417</ele>
        <time>2019-03-03T09:35:16Z</time>
      </trkpt>
      <trkpt lat="43.54556" lon="2.92531">
        <ele>417</ele>
        <time>2019-03-03T09:35:17Z</time>
      </trkpt>
      <trkpt lat="43.54555" lon="2.92534">
        <ele>418</ele>
        <time>2019-03-03T09:35:18Z</time>
      </trkpt>
      <trkpt lat="43.54553" lon="2.92536">
        <ele>418</ele>
        <time>2019-03-03T09:35:19Z</time>
      </trkpt>
      <trkpt lat="43.54552" lon="2.92539">
        <ele>418</ele>
        <time>2019-03-03T09:35:20Z</time>
      </trkpt>
      <trkpt lat="43.54551" lon="2.92542">
        <ele>418</ele>
        <time>2019-03-03T09:35:21Z</time>
      </trkpt>
      <trkpt lat="43.54549" lon="2.92545">
        <ele>419</ele>
        <time>2019-03-03T09:35:22Z</time>
      </trkpt>
      <trkpt lat="43.54548" lon="2.92547">
        <ele>419</ele>
        <time>2019-03-03T09:35:23Z</time>
      </trkpt>
      <trkpt lat="43.54546" lon="2.9255">
        <ele>419</ele>
        <time>2019-03-03T09:35:24Z</time>
      </trkpt>
      <trkpt lat="43.54544" lon="2.92553">
        <ele>420</ele>
        <time>2019-03-03T09:35:25Z</time>
      </trkpt>
      <trkpt lat="43.54543" lon="2.92555">
        <ele>420</ele>
        <time>2019-03-03T09:35:26Z</time>
      </trkpt>
      <trkpt lat="43.54541" lon="2.92558">
        <ele>420</ele>
        <time>2019-03-03T09:35:27Z</time>
      </trkpt>
      <trkpt lat="43.54539" lon="2.92561">
        <ele>420</ele>
        <time>2019-03-03T09:35:28Z</time>
      </trkpt>
      <trkpt lat="43.54537" lon="2.92563">
        <ele>420</ele>
        <time>2019-03-03T09:35:29Z</time>
      </trkpt>
      <trkpt lat="43.54535" lon="2.92566">
        <ele>421</ele>
        <time>2019-03-03T09:35:30Z</time>
      </trkpt>
      <trkpt lat="43.54534" lon="2.92568">
        <ele>421</ele>
        <time>2019-03-03T09:35:31Z</time>
      </trkpt>
      <trkpt lat="43.54532" lon="2.9257">
        <ele>421</ele>
        <time>2019-03-03T09:35:32Z</time>
      </trkpt>
      <trkpt lat="43.5453" lon="2.92573">
        <ele>421</ele>
        <time>2019-03-03T09:35:33Z</time>
      </trkpt>
      <trkpt lat="43.54528" lon="2.92575">
        <ele>421</ele>
        <time>2019-03-03T09:35:34Z</time>
      </trkpt>
      <trkpt lat="43.54526" lon="2.92577">
        <ele>421</ele>
        <time>2019-03-03T09:35:35Z</time>
      </trkpt>
      <trkpt lat="43.54524" lon="2.92579">
        <ele>422</ele>
        <time>2019-03-03T09:35:36Z</time>
      </trkpt>
      <trkpt lat="43.54522" lon="2.92581">
        <ele>422</ele>
        <time>2019-03-03T09:35:37Z</time>
      </trkpt>
      <trkpt lat="43.54521" lon="2.92584">
        <ele>422</ele>
        <time>2019-03-03T09:35:38Z</time>
      </trkpt>
      <trkpt lat="43.54519" lon="2.92586">
        <ele>422</ele>
        <time>2019-03-03T09:35:39Z</time>
      </trkpt>
      <trkpt lat="43.54517" lon="2.92588">
        <ele>422</ele>
        <time>2019-03-03T09:35:40Z</time>
      </trkpt>
      <trkpt lat="43.54515" lon="2.92591">
        <ele>423</ele>
        <time>2019-03-03T09:35:41Z</time>
      </trkpt>
      <trkpt lat="43.54513" lon="2.92594">
        <ele>423</ele>
        <time>2019-03-03T09:35:42Z</time>
      </trkpt>
      <trkpt lat="43.54512" lon="2.92596">
        <ele>423</ele>
        <time>2019-03-03T09:35:43Z</time>
      </trkpt>
      <trkpt lat="43.5451" lon="2.92599">
        <ele>423</ele>
        <time>2019-03-03T09:35:44Z</time>
      </trkpt>
      <trkpt lat="43.54508" lon="2.92601">
        <ele>423</ele>
        <time>2019-03-03T09:35:45Z</time>
      </trkpt>
      <trkpt lat="43.54506" lon="2.92604">
        <ele>424</ele>
        <time>2019-03-03T09:35:46Z</time>
      </trkpt>
      <trkpt lat="43.54505" lon="2.92606">
        <ele>424</ele>
        <time>2019-03-03T09:35:47Z</time>
      </trkpt>
      <trkpt lat="43.54503" lon="2.92609">
        <ele>424</ele>
        <time>2019-03-03T09:35:48Z</time>
      </trkpt>
      <trkpt lat="43.54501" lon="2.92611">
        <ele>424</ele>
        <time>2019-03-03T09:35:49Z</time>
      </trkpt>
      <trkpt lat="43.545" lon="2.92614">
        <ele>425</ele>
        <time>2019-03-03T09:35:50Z</time>
      </trkpt>
      <trkpt lat="43.54498" lon="2.92616">
        <ele>425</ele>
        <time>2019-03-03T09:35:51Z</time>
      </trkpt>
      <trkpt lat="43.54497" lon="2.92619">
        <ele>425</ele>
        <time>2019-03-03T09:35:52Z</time>
      </trkpt>
      <trkpt lat="43.54495" lon="2.92622">
        <ele>425</ele>
        <time>2019-03-03T09:35:53Z</time>
      </trkpt>
      <trkpt lat="43.54494" lon="2.92625">
        <ele>425</ele>
        <time>2019-03-03T09:35:54Z</time>
      </trkpt>
      <trkpt lat="43.54492" lon="2.92627">
        <ele>426</ele>
        <time>2019-03-03T09:35:55Z</time>
      </trkpt>
      <trkpt lat="43.54491" lon="2.9263">
        <ele>426</ele>
        <time>2019-03-03T09:35:56Z</time>
      </trkpt>
      <trkpt lat="43.54489" lon="2.92633">
        <ele>426</ele>
        <time>2019-03-03T09:35:57Z</time>
      </trkpt>
      <trkpt lat="43.54488" lon="2.92636">
        <ele>426</ele>
        <time>2019-03-03T09:35:58Z</time>
      </trkpt>
      <trkpt lat="43.54486" lon="2.92638">
        <ele>426</ele>
        <time>2019-03-03T09:35:59Z</time>
      </trkpt>
      <trkpt lat="43.54484" lon="2.92641">
        <ele>426</ele>
        <time>2019-03-03T09:36:00Z</time>
      </trkpt>
      <trkpt lat="43.54483" lon="2.92643">
        <ele>427</ele>
        <time>2019-03-03T09:36:01Z</time>
      </trkpt>
      <trkpt lat="43.54482" lon="2.92646">
        <ele>427</ele>
        <time>2019-03-03T09:36:02Z</time>
      </trkpt>
      <trkpt lat="43.5448" lon="2.92648">
        <ele>427</ele>
        <time>2019-03-03T09:36:03Z</time>
      </trkpt>
      <trkpt lat="43.54479" lon="2.9265">
        <ele>427</ele>
        <time>2019-03-03T09:36:04Z</time>
      </trkpt>
      <trkpt lat="43.54477" lon="2.92651">
        <ele>428</ele>
        <time>2019-03-03T09:36:05Z</time>
      </trkpt>
      <trkpt lat="43.54476" lon="2.92653">
        <ele>428</ele>
        <time>2019-03-03T09:36:06Z</time>
      </trkpt>
      <trkpt lat="43.54474" lon="2.92654">
        <ele>428</ele>
        <time>2019-03-03T09:36:07Z</time>
      </trkpt>
      <trkpt lat="43.54473" lon="2.92657">
        <ele>428</ele>
        <time>2019-03-03T09:36:08Z</time>
      </trkpt>
      <trkpt lat="43.54471" lon="2.9266">
        <ele>428</ele>
        <time>2019-03-03T09:36:09Z</time>
      </trkpt>
      <trkpt lat="43.5447" lon="2.92663">
        <ele>428</ele>
        <time>2019-03-03T09:36:10Z</time>
      </trkpt>
      <trkpt lat="43.54468" lon="2.92666">
        <ele>428</ele>
        <time>2019-03-03T09:36:11Z</time>
      </trkpt>
      <trkpt lat="43.54467" lon="2.92669">
        <ele>429</ele>
        <time>2019-03-03T09:36:12Z</time>
      </trkpt>
      <trkpt lat="43.54466" lon="2.92672">
        <ele>429</ele>
        <time>2019-03-03T09:36:13Z</time>
      </trkpt>
      <trkpt lat="43.54465" lon="2.92676">
        <ele>429</ele>
        <time>2019-03-03T09:36:14Z</time>
      </trkpt>
      <trkpt lat="43.54464" lon="2.92679">
        <ele>429</ele>
        <time>2019-03-03T09:36:15Z</time>
      </trkpt>
      <trkpt lat="43.54463" lon="2.92682">
        <ele>429</ele>
        <time>2019-03-03T09:36:16Z</time>
      </trkpt>
      <trkpt lat="43.54463" lon="2.92686">
        <ele>429</ele>
        <time>2019-03-03T09:36:17Z</time>
      </trkpt>
      <trkpt lat="43.54462" lon="2.9269">
        <ele>429</ele>
        <time>2019-03-03T09:36:18Z</time>
      </trkpt>
      <trkpt lat="43.54462" lon="2.92693">
        <ele>429</ele>
        <time>2019-03-03T09:36:19Z</time>
      </trkpt>
      <trkpt lat="43.54461" lon="2.92697">
        <ele>429</ele>
        <time>2019-03-03T09:36:20Z</time>
      </trkpt>
      <trkpt lat="43.5446" lon="2.927">
        <ele>429</ele>
        <time>2019-03-03T09:36:21Z</time>
      </trkpt>
      <trkpt lat="43.5446" lon="2.92703">
        <ele>429</ele>
        <time>2019-03-03T09:36:22Z</time>
      </trkpt>
      <trkpt lat="43.5446" lon="2.92707">
        <ele>429</ele>
        <time>2019-03-03T09:36:23Z</time>
      </trkpt>
      <trkpt lat="43.5446" lon="2.9271">
        <ele>429</ele>
        <time>2019-03-03T09:36:24Z</time>
      </trkpt>
      <trkpt lat="43.5446" lon="2.92714">
        <ele>429</ele>
        <time>2019-03-03T09:36:25Z</time>
      </trkpt>
      <trkpt lat="43.5446" lon="2.92718">
        <ele>429</ele>
        <time>2019-03-03T09:36:26Z</time>
      </trkpt>
      <trkpt lat="43.5446" lon="2.92721">
        <ele>430</ele>
        <time>2019-03-03T09:36:27Z</time>
      </trkpt>
      <trkpt lat="43.54459" lon="2.92724">
        <ele>430</ele>
        <time>2019-03-03T09:36:28Z</time>
      </trkpt>
      <trkpt lat="43.54459" lon="2.92728">
        <ele>430</ele>
        <time>2019-03-03T09:36:29Z</time>
      </trkpt>
      <trkpt lat="43.54459" lon="2.92731">
        <ele>430</ele>
        <time>2019-03-03T09:36:30Z</time>
      </trkpt>
      <trkpt lat="43.54458" lon="2.92734">
        <ele>430</ele>
        <time>2019-03-03T09:36:31Z</time>
      </trkpt>
      <trkpt lat="43.54458" lon="2.92737">
        <ele>430</ele>
        <time>2019-03-03T09:36:32Z</time>
      </trkpt>
      <trkpt lat="43.54458" lon="2.9274">
        <ele>430</ele>
        <time>2019-03-03T09:36:33Z</time>
      </trkpt>
      <trkpt lat="43.54457" lon="2.92743">
        <ele>431</ele>
        <time>2019-03-03T09:36:34Z</time>
      </trkpt>
      <trkpt lat="43.54456" lon="2.92746">
        <ele>431</ele>
        <time>2019-03-03T09:36:35Z</time>
      </trkpt>
      <trkpt lat="43.54456" lon="2.92749">
        <ele>431</ele>
        <time>2019-03-03T09:36:36Z</time>
      </trkpt>
      <trkpt lat="43.54455" lon="2.92752">
        <ele>431</ele>
        <time>2019-03-03T09:36:37Z</time>
      </trkpt>
      <trkpt lat="43.54455" lon="2.92755">
        <ele>431</ele>
        <time>2019-03-03T09:36:38Z</time>
      </trkpt>
      <trkpt lat="43.54454" lon="2.92757">
        <ele>432</ele>
        <time>2019-03-03T09:36:39Z</time>
      </trkpt>
      <trkpt lat="43.54453" lon="2.9276">
        <ele>432</ele>
        <time>2019-03-03T09:36:40Z</time>
      </trkpt>
      <trkpt lat="43.54453" lon="2.92762">
        <ele>432</ele>
        <time>2019-03-03T09:36:41Z</time>
      </trkpt>
      <trkpt lat="43.54452" lon="2.92765">
        <ele>432</ele>
        <time>2019-03-03T09:36:42Z</time>
      </trkpt>
      <trkpt lat="43.54451" lon="2.92768">
        <ele>433</ele>
        <time>2019-03-03T09:36:43Z</time>
      </trkpt>
      <trkpt lat="43.5445" lon="2.92771">
        <ele>433</ele>
        <time>2019-03-03T09:36:44Z</time>
      </trkpt>
      <trkpt lat="43.54449" lon="2.92773">
        <ele>433</ele>
        <time>2019-03-03T09:36:45Z</time>
      </trkpt>
      <trkpt lat="43.54448" lon="2.92776">
        <ele>433</ele>
        <time>2019-03-03T09:36:46Z</time>
      </trkpt>
      <trkpt lat="43.54448" lon="2.92778">
        <ele>433</ele>
        <time>2019-03-03T09:36:47Z</time>
      </trkpt>
      <trkpt lat="43.54447" lon="2.9278">
        <ele>434</ele>
        <time>2019-03-03T09:36:48Z</time>
      </trkpt>
      <trkpt lat="43.54446" lon="2.92783">
        <ele>434</ele>
        <time>2019-03-03T09:36:49Z</time>
      </trkpt>
      <trkpt lat="43.54446" lon="2.92785">
        <ele>434</ele>
        <time>2019-03-03T09:36:50Z</time>
      </trkpt>
      <trkpt lat="43.54445" lon="2.92788">
        <ele>434</ele>
        <time>2019-03-03T09:36:51Z</time>
      </trkpt>
      <trkpt lat="43.54445" lon="2.9279">
        <ele>435</ele>
        <time>2019-03-03T09:36:52Z</time>
      </trkpt>
      <trkpt lat="43.54444" lon="2.92793">
        <ele>435</ele>
        <time>2019-03-03T09:36:53Z</time>
      </trkpt>
      <trkpt lat="43.54443" lon="2.92795">
        <ele>436</ele>
        <time>2019-03-03T09:36:54Z</time>
      </trkpt>
      <trkpt lat="43.54443" lon="2.92798">
        <ele>436</ele>
        <time>2019-03-03T09:36:55Z</time>
      </trkpt>
      <trkpt lat="43.54442" lon="2.92801">
        <ele>436</ele>
        <time>2019-03-03T09:36:56Z</time>
      </trkpt>
      <trkpt lat="43.54442" lon="2.92803">
        <ele>436</ele>
        <time>2019-03-03T09:36:57Z</time>
      </trkpt>
      <trkpt lat="43.54441" lon="2.92806">
        <ele>436</ele>
        <time>2019-03-03T09:36:58Z</time>
      </trkpt>
      <trkpt lat="43.54441" lon="2.92808">
        <ele>437</ele>
        <time>2019-03-03T09:36:59Z</time>
      </trkpt>
      <trkpt lat="43.5444" lon="2.92811">
        <ele>437</ele>
        <time>2019-03-03T09:37:00Z</time>
      </trkpt>
      <trkpt lat="43.54439" lon="2.92813">
        <ele>437</ele>
        <time>2019-03-03T09:37:01Z</time>
      </trkpt>
      <trkpt lat="43.54439" lon="2.92816">
        <ele>437</ele>
        <time>2019-03-03T09:37:02Z</time>
      </trkpt>
      <trkpt lat="43.54438" lon="2.92819">
        <ele>437</ele>
        <time>2019-03-03T09:37:03Z</time>
      </trkpt>
      <trkpt lat="43.54438" lon="2.92821">
        <ele>438</ele>
        <time>2019-03-03T09:37:04Z</time>
      </trkpt>
      <trkpt lat="43.54437" lon="2.92824">
        <ele>438</ele>
        <time>2019-03-03T09:37:05Z</time>
      </trkpt>
      <trkpt lat="43.54436" lon="2.92826">
        <ele>438</ele>
        <time>2019-03-03T09:37:06Z</time>
      </trkpt>
      <trkpt lat="43.54436" lon="2.92829">
        <ele>438</ele>
        <time>2019-03-03T09:37:07Z</time>
      </trkpt>
      <trkpt lat="43.54435" lon="2.92832">
        <ele>438</ele>
        <time>2019-03-03T09:37:08Z</time>
      </trkpt>
      <trkpt lat="43.54435" lon="2.92834">
        <ele>438</ele>
        <time>2019-03-03T09:37:09Z</time>
      </trkpt>
      <trkpt lat="43.54434" lon="2.92837">
        <ele>439</ele>
        <time>2019-03-03T09:37:10Z</time>
      </trkpt>
      <trkpt lat="43.54433" lon="2.92839">
        <ele>439</ele>
        <time>2019-03-03T09:37:11Z</time>
      </trkpt>
      <trkpt lat="43.54432" lon="2.92842">
        <ele>439</ele>
        <time>2019-03-03T09:37:12Z</time>
      </trkpt>
      <trkpt lat="43.54432" lon="2.92844">
        <ele>439</ele>
        <time>2019-03-03T09:37:13Z</time>
      </trkpt>
      <trkpt lat="43.54431" lon="2.92847">
        <ele>440</ele>
        <time>2019-03-03T09:37:14Z</time>
      </trkpt>
      <trkpt lat="43.5443" lon="2.92849">
        <ele>440</ele>
        <time>2019-03-03T09:37:15Z</time>
      </trkpt>
      <trkpt lat="43.54429" lon="2.92852">
        <ele>440</ele>
        <time>2019-03-03T09:37:16Z</time>
      </trkpt>
      <trkpt lat="43.54428" lon="2.92854">
        <ele>440</ele>
        <time>2019-03-03T09:37:17Z</time>
      </trkpt>
      <trkpt lat="43.54427" lon="2.92857">
        <ele>441</ele>
        <time>2019-03-03T09:37:18Z</time>
      </trkpt>
      <trkpt lat="43.54426" lon="2.92859">
        <ele>441</ele>
        <time>2019-03-03T09:37:19Z</time>
      </trkpt>
      <trkpt lat="43.54425" lon="2.92862">
        <ele>441</ele>
        <time>2019-03-03T09:37:20Z</time>
      </trkpt>
      <trkpt lat="43.54424" lon="2.92864">
        <ele>442</ele>
        <time>2019-03-03T09:37:21Z</time>
      </trkpt>
      <trkpt lat="43.54423" lon="2.92867">
        <ele>442</ele>
        <time>2019-03-03T09:37:22Z</time>
      </trkpt>
      <trkpt lat="43.54423" lon="2.92869">
        <ele>442</ele>
        <time>2019-03-03T09:37:23Z</time>
      </trkpt>
      <trkpt lat="43.54422" lon="2.92872">
        <ele>442</ele>
        <time>2019-03-03T09:37:24Z</time>
      </trkpt>
      <trkpt lat="43.54421" lon="2.92874">
        <ele>442</ele>
        <time>2019-03-03T09:37:25Z</time>
      </trkpt>
      <trkpt lat="43.5442" lon="2.92877">
        <ele>442</ele>
        <time>2019-03-03T09:37:26Z</time>
      </trkpt>
      <trkpt lat="43.54419" lon="2.92879">
        <ele>442</ele>
        <time>2019-03-03T09:37:27Z</time>
      </trkpt>
      <trkpt lat="43.54418" lon="2.92882">
        <ele>443</ele>
        <time>2019-03-03T09:37:28Z</time>
      </trkpt>
      <trkpt lat="43.54418" lon="2.92884">
        <ele>443</ele>
        <time>2019-03-03T09:37:29Z</time>
      </trkpt>
      <trkpt lat="43.54417" lon="2.92887">
        <ele>443</ele>
        <time>2019-03-03T09:37:30Z</time>
      </trkpt>
      <trkpt lat="43.54416" lon="2.92889">
        <ele>443</ele>
        <time>2019-03-03T09:37:31Z</time>
      </trkpt>
      <trkpt lat="43.54415" lon="2.92891">
        <ele>443</ele>
        <time>2019-03-03T09:37:32Z</time>
      </trkpt>
      <trkpt lat="43.54414" lon="2.92894">
        <ele>444</ele>
        <time>2019-03-03T09:37:33Z</time>
      </trkpt>
      <trkpt lat="43.54414" lon="2.92897">
        <ele>444</ele>
        <time>2019-03-03T09:37:34Z</time>
      </trkpt>
      <trkpt lat="43.54413" lon="2.92899">
        <ele>444</ele>
        <time>2019-03-03T09:37:35Z</time>
      </trkpt>
      <trkpt lat="43.54412" lon="2.92902">
        <ele>444</ele>
        <time>2019-03-03T09:37:36Z</time>
      </trkpt>
      <trkpt lat="43.54412" lon="2.92904">
        <ele>445</ele>
        <time>2019-03-03T09:37:37Z</time>
      </trkpt>
      <trkpt lat="43.54411" lon="2.92907">
        <ele>445</ele>
        <time>2019-03-03T09:37:38Z</time>
      </trkpt>
      <trkpt lat="43.54411" lon="2.92909">
        <ele>445</ele>
        <time>2019-03-03T09:37:39Z</time>
      </trkpt>
      <trkpt lat="43.5441" lon="2.92912">
        <ele>445</ele>
        <time>2019-03-03T09:37:40Z</time>
      </trkpt>
      <trkpt lat="43.54409" lon="2.92915">
        <ele>446</ele>
        <time>2019-03-03T09:37:41Z</time>
      </trkpt>
      <trkpt lat="43.54409" lon="2.92917">
        <ele>446</ele>
        <time>2019-03-03T09:37:42Z</time>
      </trkpt>
      <trkpt lat="43.54408" lon="2.9292">
        <ele>446</ele>
        <time>2019-03-03T09:37:43Z</time>
      </trkpt>
      <trkpt lat="43.54407" lon="2.92923">
        <ele>446</ele>
        <time>2019-03-03T09:37:44Z</time>
      </trkpt>
      <trkpt lat="43.54407" lon="2.92926">
        <ele>447</ele>
        <time>2019-03-03T09:37:45Z</time>
      </trkpt>
      <trkpt lat="43.54406" lon="2.92929">
        <ele>447</ele>
        <time>2019-03-03T09:37:46Z</time>
      </trkpt>
      <trkpt lat="43.54405" lon="2.92931">
        <ele>447</ele>
        <time>2019-03-03T09:37:47Z</time>
      </trkpt>
      <trkpt lat="43.54404" lon="2.92934">
        <ele>447</ele>
        <time>2019-03-03T09:37:48Z</time>
      </trkpt>
      <trkpt lat="43.54404" lon="2.92937">
        <ele>448</ele>
        <time>2019-03-03T09:37:49Z</time>
      </trkpt>
      <trkpt lat="43.54403" lon="2.9294">
        <ele>448</ele>
        <time>2019-03-03T09:37:50Z</time>
      </trkpt>
      <trkpt lat="43.54402" lon="2.92942">
        <ele>448</ele>
        <time>2019-03-03T09:37:51Z</time>
      </trkpt>
      <trkpt lat="43.54401" lon="2.92945">
        <ele>448</ele>
        <time>2019-03-03T09:37:52Z</time>
      </trkpt>
      <trkpt lat="43.54401" lon="2.92947">
        <ele>448</ele>
        <time>2019-03-03T09:37:53Z</time>
      </trkpt>
      <trkpt lat="43.544" lon="2.9295">
        <ele>449</ele>
        <time>2019-03-03T09:37:54Z</time>
      </trkpt>
      <trkpt lat="43.54399" lon="2.92952">
        <ele>449</ele>
        <time>2019-03-03T09:37:55Z</time>
      </trkpt>
      <trkpt lat="43.54398" lon="2.92955">
        <ele>449</ele>
        <time>2019-03-03T09:37:56Z</time>
      </trkpt>
      <trkpt lat="43.54397" lon="2.92958">
        <ele>449</ele>
        <time>2019-03-03T09:37:57Z</time>
      </trkpt>
      <trkpt lat="43.54396" lon="2.9296">
        <ele>449</ele>
        <time>2019-03-03T09:37:58Z</time>
      </trkpt>
      <trkpt lat="43.54396" lon="2.92962">
        <ele>449</ele>
        <time>2019-03-03T09:37:59Z</time>
      </trkpt>
      <trkpt lat="43.54395" lon="2.92965">
        <ele>450</ele>
        <time>2019-03-03T09:38:00Z</time>
      </trkpt>
      <trkpt lat="43.54393" lon="2.92967">
        <ele>450</ele>
        <time>2019-03-03T09:38:01Z</time>
      </trkpt>
      <trkpt lat="43.54392" lon="2.9297">
        <ele>450</ele>
        <time>2019-03-03T09:38:02Z</time>
      </trkpt>
      <trkpt lat="43.54391" lon="2.92972">
        <ele>451</ele>
        <time>2019-03-03T09:38:03Z</time>
      </trkpt>
      <trkpt lat="43.5439" lon="2.92974">
        <ele>451</ele>
        <time>2019-03-03T09:38:04Z</time>
      </trkpt>
      <trkpt lat="43.54389" lon="2.92976">
        <ele>451</ele>
        <time>2019-03-03T09:38:05Z</time>
      </trkpt>
      <trkpt lat="43.54388" lon="2.92979">
        <ele>451</ele>
        <time>2019-03-03T09:38:06Z</time>
      </trkpt>
      <trkpt lat="43.54387" lon="2.92981">
        <ele>451</ele>
        <time>2019-03-03T09:38:07Z</time>
      </trkpt>
      <trkpt lat="43.54385" lon="2.92983">
        <ele>452</ele>
        <time>2019-03-03T09:38:08Z</time>
      </trkpt>
      <trkpt lat="43.54384" lon="2.92985">
        <ele>452</ele>
        <time>2019-03-03T09:38:09Z</time>
      </trkpt>
      <trkpt lat="43.54382" lon="2.92987">
        <ele>452</ele>
        <time>2019-03-03T09:38:10Z</time>
      </trkpt>
      <trkpt lat="43.54381" lon="2.92989">
        <ele>452</ele>
        <time>2019-03-03T09:38:11Z</time>
      </trkpt>
      <trkpt lat="43.54379" lon="2.9299">
        <ele>453</ele>
        <time>2019-03-03T09:38:12Z</time>
      </trkpt>
      <trkpt lat="43.54378" lon="2.92992">
        <ele>453</ele>
        <time>2019-03-03T09:38:13Z</time>
      </trkpt>
      <trkpt lat="43.54377" lon="2.92994">
        <ele>453</ele>
        <time>2019-03-03T09:38:14Z</time>
      </trkpt>
      <trkpt lat="43.54375" lon="2.92996">
        <ele>453</ele>
        <time>2019-03-03T09:38:15Z</time>
      </trkpt>
      <trkpt lat="43.54374" lon="2.92998">
        <ele>454</ele>
        <time>2019-03-03T09:38:16Z</time>
      </trkpt>
      <trkpt lat="43.54373" lon="2.93">
        <ele>454</ele>
        <time>2019-03-03T09:38:17Z</time>
      </trkpt>
      <trkpt lat="43.54372" lon="2.93002">
        <ele>454</ele>
        <time>2019-03-03T09:38:18Z</time>
      </trkpt>
      <trkpt lat="43.5437" lon="2.93004">
        <ele>454</ele>
        <time>2019-03-03T09:38:19Z</time>
      </trkpt>
      <trkpt lat="43.54369" lon="2.93006">
        <ele>454</ele>
        <time>2019-03-03T09:38:20Z</time>
      </trkpt>
      <trkpt lat="43.54368" lon="2.93009">
        <ele>455</ele>
        <time>2019-03-03T09:38:21Z</time>
      </trkpt>
      <trkpt lat="43.54367" lon="2.93011">
        <ele>455</ele>
        <time>2019-03-03T09:38:22Z</time>
      </trkpt>
      <trkpt lat="43.54366" lon="2.93013">
        <ele>455</ele>
        <time>2019-03-03T09:38:23Z</time>
      </trkpt>
      <trkpt lat="43.54365" lon="2.93016">
        <ele>455</ele>
        <time>2019-03-03T09:38:24Z</time>
      </trkpt>
      <trkpt lat="43.54364" lon="2.93018">
        <ele>456</ele>
        <time>2019-03-03T09:38:25Z</time>
      </trkpt>
      <trkpt lat="43.54363" lon="2.93021">
        <ele>456</ele>
        <time>2019-03-03T09:38:26Z</time>
      </trkpt>
      <trkpt lat="43.54362" lon="2.93023">
        <ele>456</ele>
        <time>2019-03-03T09:38:27Z</time>
      </trkpt>
      <trkpt lat="43.54361" lon="2.93026">
        <ele>456</ele>
        <time>2019-03-03T09:38:28Z</time>
      </trkpt>
      <trkpt lat="43.54359" lon="2.93029">
        <ele>457</ele>
        <time>2019-03-03T09:38:29Z</time>
      </trkpt>
      <trkpt lat="43.54358" lon="2.93031">
        <ele>457</ele>
        <time>2019-03-03T09:38:30Z</time>
      </trkpt>
      <trkpt lat="43.54357" lon="2.93034">
        <ele>457</ele>
        <time>2019-03-03T09:38:31Z</time>
      </trkpt>
      <trkpt lat="43.54356" lon="2.93037">
        <ele>457</ele>
        <time>2019-03-03T09:38:32Z</time>
      </trkpt>
      <trkpt lat="43.54355" lon="2.93039">
        <ele>458</ele>
        <time>2019-03-03T09:38:33Z</time>
      </trkpt>
      <trkpt lat="43.54354" lon="2.93041">
        <ele>458</ele>
        <time>2019-03-03T09:38:34Z</time>
      </trkpt>
      <trkpt lat="43.54353" lon="2.93044">
        <ele>458</ele>
        <time>2019-03-03T09:38:35Z</time>
      </trkpt>
      <trkpt lat="43.54352" lon="2.93046">
        <ele>458</ele>
        <time>2019-03-03T09:38:36Z</time>
      </trkpt>
      <trkpt lat="43.54351" lon="2.93048">
        <ele>458</ele>
        <time>2019-03-03T09:38:37Z</time>
      </trkpt>
      <trkpt lat="43.5435" lon="2.9305">
        <ele>458</ele>
        <time>2019-03-03T09:38:38Z</time>
      </trkpt>
      <trkpt lat="43.54349" lon="2.93053">
        <ele>459</ele>
        <time>2019-03-03T09:38:39Z</time>
      </trkpt>
      <trkpt lat="43.54348" lon="2.93055">
        <ele>459</ele>
        <time>2019-03-03T09:38:40Z</time>
      </trkpt>
      <trkpt lat="43.54347" lon="2.93057">
        <ele>459</ele>
        <time>2019-03-03T09:38:41Z</time>
      </trkpt>
      <trkpt lat="43.54346" lon="2.9306">
        <ele>459</ele>
        <time>2019-03-03T09:38:42Z</time>
      </trkpt>
      <trkpt lat="43.54345" lon="2.93062">
        <ele>459</ele>
        <time>2019-03-03T09:38:43Z</time>
      </trkpt>
      <trkpt lat="43.54343" lon="2.93064">
        <ele>460</ele>
        <time>2019-03-03T09:38:44Z</time>
      </trkpt>
      <trkpt lat="43.54342" lon="2.93066">
        <ele>460</ele>
        <time>2019-03-03T09:38:45Z</time>
      </trkpt>
      <trkpt lat="43.54341" lon="2.93069">
        <ele>460</ele>
        <time>2019-03-03T09:38:46Z</time>
      </trkpt>
      <trkpt lat="43.5434" lon="2.93071">
        <ele>460</ele>
        <time>2019-03-03T09:38:47Z</time>
      </trkpt>
      <trkpt lat="43.54339" lon="2.93073">
        <ele>461</ele>
        <time>2019-03-03T09:38:48Z</time>
      </trkpt>
      <trkpt lat="43.54338" lon="2.93076">
        <ele>461</ele>
        <time>2019-03-03T09:38:49Z</time>
      </trkpt>
      <trkpt lat="43.54337" lon="2.93078">
        <ele>461</ele>
        <time>2019-03-03T09:38:50Z</time>
      </trkpt>
      <trkpt lat="43.54336" lon="2.93081">
        <ele>461</ele>
        <time>2019-03-03T09:38:51Z</time>
      </trkpt>
      <trkpt lat="43.54335" lon="2.93083">
        <ele>462</ele>
        <time>2019-03-03T09:38:52Z</time>
      </trkpt>
      <trkpt lat="43.54334" lon="2.93086">
        <ele>462</ele>
        <time>2019-03-03T09:38:53Z</time>
      </trkpt>
      <trkpt lat="43.54333" lon="2.93088">
        <ele>462</ele>
        <time>2019-03-03T09:38:54Z</time>
      </trkpt>
      <trkpt lat="43.54332" lon="2.93091">
        <ele>462</ele>
        <time>2019-03-03T09:38:55Z</time>
      </trkpt>
      <trkpt lat="43.54331" lon="2.93093">
        <ele>462</ele>
        <time>2019-03-03T09:38:56Z</time>
      </trkpt>
      <trkpt lat="43.5433" lon="2.93096">
        <ele>462</ele>
        <time>2019-03-03T09:38:57Z</time>
      </trkpt>
      <trkpt lat="43.54329" lon="2.93098">
        <ele>462</ele>
        <time>2019-03-03T09:38:58Z</time>
      </trkpt>
      <trkpt lat="43.54328" lon="2.931">
        <ele>462</ele>
        <time>2019-03-03T09:38:59Z</time>
      </trkpt>
      <trkpt lat="43.54327" lon="2.93103">
        <ele>463</ele>
        <time>2019-03-03T09:39:00Z</time>
      </trkpt>
      <trkpt lat="43.54326" lon="2.93105">
        <ele>463</ele>
        <time>2019-03-03T09:39:01Z</time>
      </trkpt>
      <trkpt lat="43.54325" lon="2.93108">
        <ele>463</ele>
        <time>2019-03-03T09:39:02Z</time>
      </trkpt>
      <trkpt lat="43.54324" lon="2.9311">
        <ele>463</ele>
        <time>2019-03-03T09:39:03Z</time>
      </trkpt>
      <trkpt lat="43.54324" lon="2.93113">
        <ele>463</ele>
        <time>2019-03-03T09:39:04Z</time>
      </trkpt>
      <trkpt lat="43.54323" lon="2.93115">
        <ele>463</ele>
        <time>2019-03-03T09:39:05Z</time>
      </trkpt>
      <trkpt lat="43.54322" lon="2.93118">
        <ele>464</ele>
        <time>2019-03-03T09:39:06Z</time>
      </trkpt>
      <trkpt lat="43.54322" lon="2.9312">
        <ele>464</ele>
        <time>2019-03-03T09:39:07Z</time>
      </trkpt>
      <trkpt lat="43.54321" lon="2.93123">
        <ele>464</ele>
        <time>2019-03-03T09:39:08Z</time>
      </trkpt>
      <trkpt lat="43.5432" lon="2.93125">
        <ele>464</ele>
        <time>2019-03-03T09:39:09Z</time>
      </trkpt>
      <trkpt lat="43.5432" lon="2.93128">
        <ele>465</ele>
        <time>2019-03-03T09:39:10Z</time>
      </trkpt>
      <trkpt lat="43.5432" lon="2.9313">
        <ele>465</ele>
        <time>2019-03-03T09:39:11Z</time>
      </trkpt>
      <trkpt lat="43.54319" lon="2.93133">
        <ele>465</ele>
        <time>2019-03-03T09:39:12Z</time>
      </trkpt>
      <trkpt lat="43.54319" lon="2.93136">
        <ele>466</ele>
        <time>2019-03-03T09:39:13Z</time>
      </trkpt>
      <trkpt lat="43.54318" lon="2.93139">
        <ele>466</ele>
        <time>2019-03-03T09:39:14Z</time>
      </trkpt>
      <trkpt lat="43.54318" lon="2.93141">
        <ele>466</ele>
        <time>2019-03-03T09:39:15Z</time>
      </trkpt>
      <trkpt lat="43.54317" lon="2.93144">
        <ele>467</ele>
        <time>2019-03-03T09:39:16Z</time>
      </trkpt>
      <trkpt lat="43.54317" lon="2.93147">
        <ele>467</ele>
        <time>2019-03-03T09:39:17Z</time>
      </trkpt>
      <trkpt lat="43.54317" lon="2.93149">
        <ele>467</ele>
        <time>2019-03-03T09:39:18Z</time>
      </trkpt>
      <trkpt lat="43.54316" lon="2.93152">
        <ele>467</ele>
        <time>2019-03-03T09:39:19Z</time>
      </trkpt>
      <trkpt lat="43.54316" lon="2.93154">
        <ele>467</ele>
        <time>2019-03-03T09:39:20Z</time>
      </trkpt>
      <trkpt lat="43.54316" lon="2.93157">
        <ele>467</ele>
        <time>2019-03-03T09:39:21Z</time>
      </trkpt>
      <trkpt lat="43.54316" lon="2.9316">
        <ele>468</ele>
        <time>2019-03-03T09:39:22Z</time>
      </trkpt>
      <trkpt lat="43.54316" lon="2.93163">
        <ele>468</ele>
        <time>2019-03-03T09:39:23Z</time>
      </trkpt>
      <trkpt lat="43.54316" lon="2.93166">
        <ele>468</ele>
        <time>2019-03-03T09:39:24Z</time>
      </trkpt>
      <trkpt lat="43.54316" lon="2.93168">
        <ele>468</ele>
        <time>2019-03-03T09:39:25Z</time>
      </trkpt>
      <trkpt lat="43.54315" lon="2.93171">
        <ele>469</ele>
        <time>2019-03-03T09:39:26Z</time>
      </trkpt>
      <trkpt lat="43.54315" lon="2.93174">
        <ele>469</ele>
        <time>2019-03-03T09:39:27Z</time>
      </trkpt>
      <trkpt lat="43.54315" lon="2.93177">
        <ele>469</ele>
        <time>2019-03-03T09:39:28Z</time>
      </trkpt>
      <trkpt lat="43.54315" lon="2.93179">
        <ele>469</ele>
        <time>2019-03-03T09:39:29Z</time>
      </trkpt>
      <trkpt lat="43.54315" lon="2.93182">
        <ele>469</ele>
        <time>2019-03-03T09:39:30Z</time>
      </trkpt>
      <trkpt lat="43.54315" lon="2.93185">
        <ele>470</ele>
        <time>2019-03-03T09:39:31Z</time>
      </trkpt>
      <trkpt lat="43.54315" lon="2.93188">
        <ele>470</ele>
        <time>2019-03-03T09:39:32Z</time>
      </trkpt>
      <trkpt lat="43.54315" lon="2.9319">
        <ele>470</ele>
        <time>2019-03-03T09:39:33Z</time>
      </trkpt>
      <trkpt lat="43.54315" lon="2.93193">
        <ele>470</ele>
        <time>2019-03-03T09:39:34Z</time>
      </trkpt>
      <trkpt lat="43.54315" lon="2.93196">
        <ele>471</ele>
        <time>2019-03-03T09:39:35Z</time>
      </trkpt>
      <trkpt lat="43.54315" lon="2.93198">
        <ele>471</ele>
        <time>2019-03-03T09:39:36Z</time>
      </trkpt>
      <trkpt lat="43.54315" lon="2.93201">
        <ele>471</ele>
        <time>2019-03-03T09:39:37Z</time>
      </trkpt>
      <trkpt lat="43.54315" lon="2.93204">
        <ele>471</ele>
        <time>2019-03-03T09:39:38Z</time>
      </trkpt>
      <trkpt lat="43.54315" lon="2.93207">
        <ele>471</ele>
        <time>2019-03-03T09:39:39Z</time>
      </trkpt>
      <trkpt lat="43.54315" lon="2.93209">
        <ele>472</ele>
        <time>2019-03-03T09:39:40Z</time>
      </trkpt>
      <trkpt lat="43.54314" lon="2.93212">
        <ele>472</ele>
        <time>2019-03-03T09:39:41Z</time>
      </trkpt>
      <trkpt lat="43.54314" lon="2.93215">
        <ele>472</ele>
        <time>2019-03-03T09:39:42Z</time>
      </trkpt>
      <trkpt lat="43.54315" lon="2.93217">
        <ele>472</ele>
        <time>2019-03-03T09:39:43Z</time>
      </trkpt>
      <trkpt lat="43.54315" lon="2.9322">
        <ele>472</ele>
        <time>2019-03-03T09:39:44Z</time>
      </trkpt>
      <trkpt lat="43.54314" lon="2.93223">
        <ele>473</ele>
        <time>2019-03-03T09:39:45Z</time>
      </trkpt>
      <trkpt lat="43.54314" lon="2.93225">
        <ele>473</ele>
        <time>2019-03-03T09:39:46Z</time>
      </trkpt>
      <trkpt lat="43.54314" lon="2.93228">
        <ele>473</ele>
        <time>2019-03-03T09:39:47Z</time>
      </trkpt>
      <trkpt lat="43.54314" lon="2.9323">
        <ele>473</ele>
        <time>2019-03-03T09:39:48Z</time>
      </trkpt>
      <trkpt lat="43.54314" lon="2.93233">
        <ele>473</ele>
        <time>2019-03-03T09:39:49Z</time>
      </trkpt>
      <trkpt lat="43.54314" lon="2.93236">
        <ele>474</ele>
        <time>2019-03-03T09:39:50Z</time>
      </trkpt>
      <trkpt lat="43.54314" lon="2.93239">
        <ele>474</ele>
        <time>2019-03-03T09:39:51Z</time>
      </trkpt>
      <trkpt lat="43.54314" lon="2.93241">
        <ele>474</ele>
        <time>2019-03-03T09:39:52Z</time>
      </trkpt>
      <trkpt lat="43.54314" lon="2.93244">
        <ele>474</ele>
        <time>2019-03-03T09:39:53Z</time>
      </trkpt>
      <trkpt lat="43.54314" lon="2.93247">
        <ele>475</ele>
        <time>2019-03-03T09:39:54Z</time>
      </trkpt>
      <trkpt lat="43.54313" lon="2.9325">
        <ele>475</ele>
        <time>2019-03-03T09:39:55Z</time>
      </trkpt>
      <trkpt lat="43.54313" lon="2.93253">
        <ele>475</ele>
        <time>2019-03-03T09:39:56Z</time>
      </trkpt>
      <trkpt lat="43.54312" lon="2.93255">
        <ele>475</ele>
        <time>2019-03-03T09:39:57Z</time>
      </trkpt>
      <trkpt lat="43.54312" lon="2.93258">
        <ele>476</ele>
        <time>2019-03-03T09:39:58Z</time>
      </trkpt>
      <trkpt lat="43.54312" lon="2.93261">
        <ele>476</ele>
        <time>2019-03-03T09:39:59Z</time>
      </trkpt>
      <trkpt lat="43.54311" lon="2.93263">
        <ele>476</ele>
        <time>2019-03-03T09:40:00Z</time>
      </trkpt>
      <trkpt lat="43.54311" lon="2.93266">
        <ele>477</ele>
        <time>2019-03-03T09:40:01Z</time>
      </trkpt>
      <trkpt lat="43.54311" lon="2.93269">
        <ele>477</ele>
        <time>2019-03-03T09:40:02Z</time>
      </trkpt>
      <trkpt lat="43.5431" lon="2.93271">
        <ele>477</ele>
        <time>2019-03-03T09:40:03Z</time>
      </trkpt>
      <trkpt lat="43.5431" lon="2.93274">
        <ele>477</ele>
        <time>2019-03-03T09:40:04Z</time>
      </trkpt>
      <trkpt lat="43.54309" lon="2.93277">
        <ele>477</ele>
        <time>2019-03-03T09:40:05Z</time>
      </trkpt>
      <trkpt lat="43.54309" lon="2.9328">
        <ele>477</ele>
        <time>2019-03-03T09:40:06Z</time>
      </trkpt>
      <trkpt lat="43.54308" lon="2.93282">
        <ele>477</ele>
        <time>2019-03-03T09:40:07Z</time>
      </trkpt>
      <trkpt lat="43.54308" lon="2.93285">
        <ele>478</ele>
        <time>2019-03-03T09:40:08Z</time>
      </trkpt>
      <trkpt lat="43.54307" lon="2.93288">
        <ele>478</ele>
        <time>2019-03-03T09:40:09Z</time>
      </trkpt>
      <trkpt lat="43.54307" lon="2.93291">
        <ele>478</ele>
        <time>2019-03-03T09:40:10Z</time>
      </trkpt>
      <trkpt lat="43.54307" lon="2.93293">
        <ele>478</ele>
        <time>2019-03-03T09:40:11Z</time>
      </trkpt>
      <trkpt lat="43.54306" lon="2.93296">
        <ele>479</ele>
        <time>2019-03-03T09:40:12Z</time>
      </trkpt>
      <trkpt lat="43.54306" lon="2.93299">
        <ele>479</ele>
        <time>2019-03-03T09:40:13Z</time>
      </trkpt>
      <trkpt lat="43.54305" lon="2.93302">
        <ele>479</ele>
        <time>2019-03-03T09:40:14Z</time>
      </trkpt>
      <trkpt lat="43.54305" lon="2.93305">
        <ele>479</ele>
        <time>2019-03-03T09:40:15Z</time>
      </trkpt>
      <trkpt lat="43.54304" lon="2.93307">
        <ele>479</ele>
        <time>2019-03-03T09:40:16Z</time>
      </trkpt>
      <trkpt lat="43.54304" lon="2.9331">
        <ele>480</ele>
        <time>2019-03-03T09:40:17Z</time>
      </trkpt>
      <trkpt lat="43.54303" lon="2.93313">
        <ele>480</ele>
        <time>2019-03-03T09:40:18Z</time>
      </trkpt>
      <trkpt lat="43.54303" lon="2.93315">
        <ele>480</ele>
        <time>2019-03-03T09:40:19Z</time>
      </trkpt>
      <trkpt lat="43.54302" lon="2.93318">
        <ele>480</ele>
        <time>2019-03-03T09:40:20Z</time>
      </trkpt>
      <trkpt lat="43.54302" lon="2.93321">
        <ele>481</ele>
        <time>2019-03-03T09:40:21Z</time>
      </trkpt>
      <trkpt lat="43.54301" lon="2.93324">
        <ele>481</ele>
        <time>2019-03-03T09:40:22Z</time>
      </trkpt>
      <trkpt lat="43.54301" lon="2.93327">
        <ele>481</ele>
        <time>2019-03-03T09:40:23Z</time>
      </trkpt>
      <trkpt lat="43.543" lon="2.93329">
        <ele>481</ele>
        <time>2019-03-03T09:40:24Z</time>
      </trkpt>
      <trkpt lat="43.54299" lon="2.93332">
        <ele>482</ele>
        <time>2019-03-03T09:40:25Z</time>
      </trkpt>
      <trkpt lat="43.54298" lon="2.93334">
        <ele>482</ele>
        <time>2019-03-03T09:40:26Z</time>
      </trkpt>
      <trkpt lat="43.54298" lon="2.93337">
        <ele>482</ele>
        <time>2019-03-03T09:40:27Z</time>
      </trkpt>
      <trkpt lat="43.54297" lon="2.93339">
        <ele>482</ele>
        <time>2019-03-03T09:40:28Z</time>
      </trkpt>
      <trkpt lat="43.54296" lon="2.93342">
        <ele>483</ele>
        <time>2019-03-03T09:40:29Z</time>
      </trkpt>
      <trkpt lat="43.54295" lon="2.93345">
        <ele>483</ele>
        <time>2019-03-03T09:40:30Z</time>
      </trkpt>
      <trkpt lat="43.54294" lon="2.93347">
        <ele>483</ele>
        <time>2019-03-03T09:40:31Z</time>
      </trkpt>
      <trkpt lat="43.54293" lon="2.93349">
        <ele>483</ele>
        <time>2019-03-03T09:40:32Z</time>
      </trkpt>
      <trkpt lat="43.54292" lon="2.93352">
        <ele>483</ele>
        <time>2019-03-03T09:40:33Z</time>
      </trkpt>
      <trkpt lat="43.54291" lon="2.93354">
        <ele>484</ele>
        <time>2019-03-03T09:40:34Z</time>
      </trkpt>
      <trkpt lat="43.54289" lon="2.93356">
        <ele>484</ele>
        <time>2019-03-03T09:40:35Z</time>
      </trkpt>
      <trkpt lat="43.54288" lon="2.93358">
        <ele>484</ele>
        <time>2019-03-03T09:40:36Z</time>
      </trkpt>
      <trkpt lat="43.54287" lon="2.93361">
        <ele>484</ele>
        <time>2019-03-03T09:40:37Z</time>
      </trkpt>
      <trkpt lat="43.54285" lon="2.93363">
        <ele>485</ele>
        <time>2019-03-03T09:40:38Z</time>
      </trkpt>
      <trkpt lat="43.54284" lon="2.93365">
        <ele>485</ele>
        <time>2019-03-03T09:40:39Z</time>
      </trkpt>
      <trkpt lat="43.54282" lon="2.93367">
        <ele>485</ele>
        <time>2019-03-03T09:40:40Z</time>
      </trkpt>
      <trkpt lat="43.54281" lon="2.93368">
        <ele>485</ele>
        <time>2019-03-03T09:40:41Z</time>
      </trkpt>
      <trkpt lat="43.54279" lon="2.9337">
        <ele>485</ele>
        <time>2019-03-03T09:40:42Z</time>
      </trkpt>
      <trkpt lat="43.54278" lon="2.93372">
        <ele>486</ele>
        <time>2019-03-03T09:40:43Z</time>
      </trkpt>
      <trkpt lat="43.54276" lon="2.93373">
        <ele>486</ele>
        <time>2019-03-03T09:40:44Z</time>
      </trkpt>
      <trkpt lat="43.54274" lon="2.93374">
        <ele>486</ele>
        <time>2019-03-03T09:40:45Z</time>
      </trkpt>
      <trkpt lat="43.54273" lon="2.93376">
        <ele>486</ele>
        <time>2019-03-03T09:40:46Z</time>
      </trkpt>
      <trkpt lat="43.54271" lon="2.93377">
        <ele>486</ele>
        <time>2019-03-03T09:40:47Z</time>
      </trkpt>
      <trkpt lat="43.54269" lon="2.93378">
        <ele>486</ele>
        <time>2019-03-03T09:40:48Z</time>
      </trkpt>
      <trkpt lat="43.54267" lon="2.93379">
        <ele>487</ele>
        <time>2019-03-03T09:40:49Z</time>
      </trkpt>
      <trkpt lat="43.54265" lon="2.93381">
        <ele>487</ele>
        <time>2019-03-03T09:40:50Z</time>
      </trkpt>
      <trkpt lat="43.54264" lon="2.93382">
        <ele>487</ele>
        <time>2019-03-03T09:40:51Z</time>
      </trkpt>
      <trkpt lat="43.54262" lon="2.93383">
        <ele>487</ele>
        <time>2019-03-03T09:40:52Z</time>
      </trkpt>
      <trkpt lat="43.5426" lon="2.93384">
        <ele>488</ele>
        <time>2019-03-03T09:40:53Z</time>
      </trkpt>
      <trkpt lat="43.54258" lon="2.93385">
        <ele>488</ele>
        <time>2019-03-03T09:40:54Z</time>
      </trkpt>
      <trkpt lat="43.54256" lon="2.93387">
        <ele>488</ele>
        <time>2019-03-03T09:40:55Z</time>
      </trkpt>
      <trkpt lat="43.54255" lon="2.93388">
        <ele>488</ele>
        <time>2019-03-03T09:40:56Z</time>
      </trkpt>
      <trkpt lat="43.54253" lon="2.9339">
        <ele>488</ele>
        <time>2019-03-03T09:40:57Z</time>
      </trkpt>
      <trkpt lat="43.54251" lon="2.93391">
        <ele>489</ele>
        <time>2019-03-03T09:40:58Z</time>
      </trkpt>
      <trkpt lat="43.5425" lon="2.93392">
        <ele>489</ele>
        <time>2019-03-03T09:40:59Z</time>
      </trkpt>
      <trkpt lat="43.54248" lon="2.93394">
        <ele>489</ele>
        <time>2019-03-03T09:41:00Z</time>
      </trkpt>
      <trkpt lat="43.54246" lon="2.93395">
        <ele>489</ele>
        <time>2019-03-03T09:41:01Z</time>
      </trkpt>
      <trkpt lat="43.54245" lon="2.93397">
        <ele>489</ele>
        <time>2019-03-03T09:41:02Z</time>
      </trkpt>
      <trkpt lat="43.54243" lon="2.93399">
        <ele>490</ele>
        <time>2019-03-03T09:41:03Z</time>
      </trkpt>
      <trkpt lat="43.54242" lon="2.93401">
        <ele>490</ele>
        <time>2019-03-03T09:41:04Z</time>
      </trkpt>
      <trkpt lat="43.5424" lon="2.93402">
        <ele>490</ele>
        <time>2019-03-03T09:41:05Z</time>
      </trkpt>
      <trkpt lat="43.54239" lon="2.93404">
        <ele>490</ele>
        <time>2019-03-03T09:41:06Z</time>
      </trkpt>
      <trkpt lat="43.54237" lon="2.93406">
        <ele>491</ele>
        <time>2019-03-03T09:41:07Z</time>
      </trkpt>
      <trkpt lat="43.54235" lon="2.93408">
        <ele>491</ele>
        <time>2019-03-03T09:41:08Z</time>
      </trkpt>
      <trkpt lat="43.54234" lon="2.9341">
        <ele>491</ele>
        <time>2019-03-03T09:41:09Z</time>
      </trkpt>
      <trkpt lat="43.54232" lon="2.93412">
        <ele>491</ele>
        <time>2019-03-03T09:41:10Z</time>
      </trkpt>
      <trkpt lat="43.54231" lon="2.93413">
        <ele>491</ele>
        <time>2019-03-03T09:41:11Z</time>
      </trkpt>
      <trkpt lat="43.5423" lon="2.93415">
        <ele>491</ele>
        <time>2019-03-03T09:41:12Z</time>
      </trkpt>
      <trkpt lat="43.54228" lon="2.93418">
        <ele>492</ele>
        <time>2019-03-03T09:41:13Z</time>
      </trkpt>
      <trkpt lat="43.54227" lon="2.9342">
        <ele>492</ele>
        <time>2019-03-03T09:41:14Z</time>
      </trkpt>
      <trkpt lat="43.54225" lon="2.93422">
        <ele>492</ele>
        <time>2019-03-03T09:41:15Z</time>
      </trkpt>
      <trkpt lat="43.54223" lon="2.93424">
        <ele>492</ele>
        <time>2019-03-03T09:41:16Z</time>
      </trkpt>
      <trkpt lat="43.54222" lon="2.93426">
        <ele>493</ele>
        <time>2019-03-03T09:41:17Z</time>
      </trkpt>
      <trkpt lat="43.54221" lon="2.93428">
        <ele>493</ele>
        <time>2019-03-03T09:41:18Z</time>
      </trkpt>
      <trkpt lat="43.54219" lon="2.9343">
        <ele>493</ele>
        <time>2019-03-03T09:41:19Z</time>
      </trkpt>
      <trkpt lat="43.54218" lon="2.93432">
        <ele>493</ele>
        <time>2019-03-03T09:41:20Z</time>
      </trkpt>
      <trkpt lat="43.54216" lon="2.93434">
        <ele>493</ele>
        <time>2019-03-03T09:41:21Z</time>
      </trkpt>
      <trkpt lat="43.54214" lon="2.93435">
        <ele>493</ele>
        <time>2019-03-03T09:41:22Z</time>
      </trkpt>
      <trkpt lat="43.54212" lon="2.93437">
        <ele>493</ele>
        <time>2019-03-03T09:41:23Z</time>
      </trkpt>
      <trkpt lat="43.5421" lon="2.93438">
        <ele>493</ele>
        <time>2019-03-03T09:41:24Z</time>
      </trkpt>
      <trkpt lat="43.54208" lon="2.93439">
        <ele>494</ele>
        <time>2019-03-03T09:41:25Z</time>
      </trkpt>
      <trkpt lat="43.54206" lon="2.9344">
        <ele>494</ele>
        <time>2019-03-03T09:41:26Z</time>
      </trkpt>
      <trkpt lat="43.54204" lon="2.9344">
        <ele>494</ele>
        <time>2019-03-03T09:41:27Z</time>
      </trkpt>
      <trkpt lat="43.54201" lon="2.9344">
        <ele>494</ele>
        <time>2019-03-03T09:41:28Z</time>
      </trkpt>
      <trkpt lat="43.54199" lon="2.93439">
        <ele>495</ele>
        <time>2019-03-03T09:41:29Z</time>
      </trkpt>
      <trkpt lat="43.54197" lon="2.93438">
        <ele>495</ele>
        <time>2019-03-03T09:41:30Z</time>
      </trkpt>
      <trkpt lat="43.54195" lon="2.93436">
        <ele>495</ele>
        <time>2019-03-03T09:41:31Z</time>
      </trkpt>
      <trkpt lat="43.54193" lon="2.93434">
        <ele>495</ele>
        <time>2019-03-03T09:41:32Z</time>
      </trkpt>
      <trkpt lat="43.54192" lon="2.93432">
        <ele>496</ele>
        <time>2019-03-03T09:41:33Z</time>
      </trkpt>
      <trkpt lat="43.5419" lon="2.93429">
        <ele>496</ele>
        <time>2019-03-03T09:41:34Z</time>
      </trkpt>
      <trkpt lat="43.54189" lon="2.93427">
        <ele>496</ele>
        <time>2019-03-03T09:41:35Z</time>
      </trkpt>
      <trkpt lat="43.54188" lon="2.93424">
        <ele>496</ele>
        <time>2019-03-03T09:41:36Z</time>
      </trkpt>
      <trkpt lat="43.54187" lon="2.93421">
        <ele>497</ele>
        <time>2019-03-03T09:41:37Z</time>
      </trkpt>
      <trkpt lat="43.54186" lon="2.93418">
        <ele>497</ele>
        <time>2019-03-03T09:41:38Z</time>
      </trkpt>
      <trkpt lat="43.54185" lon="2.93415">
        <ele>497</ele>
        <time>2019-03-03T09:41:39Z</time>
      </trkpt>
      <trkpt lat="43.54184" lon="2.93412">
        <ele>497</ele>
        <time>2019-03-03T09:41:40Z</time>
      </trkpt>
      <trkpt lat="43.54183" lon="2.93408">
        <ele>498</ele>
        <time>2019-03-03T09:41:41Z</time>
      </trkpt>
      <trkpt lat="43.54183" lon="2.93405">
        <ele>498</ele>
        <time>2019-03-03T09:41:42Z</time>
      </trkpt>
      <trkpt lat="43.54183" lon="2.93402">
        <ele>498</ele>
        <time>2019-03-03T09:41:43Z</time>
      </trkpt>
      <trkpt lat="43.54182" lon="2.93399">
        <ele>499</ele>
        <time>2019-03-03T09:41:44Z</time>
      </trkpt>
      <trkpt lat="43.54183" lon="2.93396">
        <ele>499</ele>
        <time>2019-03-03T09:41:45Z</time>
      </trkpt>
      <trkpt lat="43.54182" lon="2.93393">
        <ele>499</ele>
        <time>2019-03-03T09:41:46Z</time>
      </trkpt>
      <trkpt lat="43.54182" lon="2.93389">
        <ele>500</ele>
        <time>2019-03-03T09:41:47Z</time>
      </trkpt>
      <trkpt lat="43.54183" lon="2.93386">
        <ele>500</ele>
        <time>2019-03-03T09:41:48Z</time>
      </trkpt>
      <trkpt lat="43.54183" lon="2.93383">
        <ele>500</ele>
        <time>2019-03-03T09:41:49Z</time>
      </trkpt>
      <trkpt lat="43.54183" lon="2.93379">
        <ele>500</ele>
        <time>2019-03-03T09:41:50Z</time>
      </trkpt>
      <trkpt lat="43.54183" lon="2.93376">
        <ele>501</ele>
        <time>2019-03-03T09:41:51Z</time>
      </trkpt>
      <trkpt lat="43.54184" lon="2.93373">
        <ele>501</ele>
        <time>2019-03-03T09:41:52Z</time>
      </trkpt>
      <trkpt lat="43.54184" lon="2.9337">
        <ele>501</ele>
        <time>2019-03-03T09:41:53Z</time>
      </trkpt>
      <trkpt lat="43.54183" lon="2.93367">
        <ele>501</ele>
        <time>2019-03-03T09:41:54Z</time>
      </trkpt>
      <trkpt lat="43.54183" lon="2.93363">
        <ele>502</ele>
        <time>2019-03-03T09:41:55Z</time>
      </trkpt>
      <trkpt lat="43.54182" lon="2.9336">
        <ele>502</ele>
        <time>2019-03-03T09:41:56Z</time>
      </trkpt>
      <trkpt lat="43.54181" lon="2.93358">
        <ele>502</ele>
        <time>2019-03-03T09:41:57Z</time>
      </trkpt>
      <trkpt lat="43.5418" lon="2.93355">
        <ele>502</ele>
        <time>2019-03-03T09:41:58Z</time>
      </trkpt>
      <trkpt lat="43.54179" lon="2.93353">
        <ele>502</ele>
        <time>2019-03-03T09:41:59Z</time>
      </trkpt>
      <trkpt lat="43.54178" lon="2.93351">
        <ele>502</ele>
        <time>2019-03-03T09:42:00Z</time>
      </trkpt>
      <trkpt lat="43.54176" lon="2.93349">
        <ele>502</ele>
        <time>2019-03-03T09:42:01Z</time>
      </trkpt>
      <trkpt lat="43.54175" lon="2.93346">
        <ele>503</ele>
        <time>2019-03-03T09:42:02Z</time>
      </trkpt>
      <trkpt lat="43.54173" lon="2.93344">
        <ele>503</ele>
        <time>2019-03-03T09:42:03Z</time>
      </trkpt>
      <trkpt lat="43.54171" lon="2.93342">
        <ele>503</ele>
        <time>2019-03-03T09:42:04Z</time>
      </trkpt>
      <trkpt lat="43.5417" lon="2.9334">
        <ele>503</ele>
        <time>2019-03-03T09:42:05Z</time>
      </trkpt>
      <trkpt lat="43.54168" lon="2.93338">
        <ele>503</ele>
        <time>2019-03-03T09:42:06Z</time>
      </trkpt>
      <trkpt lat="43.54166" lon="2.93336">
        <ele>503</ele>
        <time>2019-03-03T09:42:07Z</time>
      </trkpt>
      <trkpt lat="43.54164" lon="2.93335">
        <ele>504</ele>
        <time>2019-03-03T09:42:08Z</time>
      </trkpt>
      <trkpt lat="43.54162" lon="2.93333">
        <ele>504</ele>
        <time>2019-03-03T09:42:09Z</time>
      </trkpt>
      <trkpt lat="43.54161" lon="2.93331">
        <ele>504</ele>
        <time>2019-03-03T09:42:10Z</time>
      </trkpt>
      <trkpt lat="43.54159" lon="2.9333">
        <ele>504</ele>
        <time>2019-03-03T09:42:11Z</time>
      </trkpt>
      <trkpt lat="43.54157" lon="2.93328">
        <ele>505</ele>
        <time>2019-03-03T09:42:12Z</time>
      </trkpt>
      <trkpt lat="43.54155" lon="2.93326">
        <ele>505</ele>
        <time>2019-03-03T09:42:13Z</time>
      </trkpt>
      <trkpt lat="43.54153" lon="2.93325">
        <ele>505</ele>
        <time>2019-03-03T09:42:14Z</time>
      </trkpt>
      <trkpt lat="43.54151" lon="2.93324">
        <ele>505</ele>
        <time>2019-03-03T09:42:15Z</time>
      </trkpt>
      <trkpt lat="43.54149" lon="2.93322">
        <ele>505</ele>
        <time>2019-03-03T09:42:16Z</time>
      </trkpt>
      <trkpt lat="43.54147" lon="2.93321">
        <ele>505</ele>
        <time>2019-03-03T09:42:17Z</time>
      </trkpt>
      <trkpt lat="43.54145" lon="2.9332">
        <ele>506</ele>
        <time>2019-03-03T09:42:18Z</time>
      </trkpt>
      <trkpt lat="43.54143" lon="2.93319">
        <ele>506</ele>
        <time>2019-03-03T09:42:19Z</time>
      </trkpt>
      <trkpt lat="43.5414" lon="2.93318">
        <ele>506</ele>
        <time>2019-03-03T09:42:20Z</time>
      </trkpt>
      <trkpt lat="43.54138" lon="2.93318">
        <ele>506</ele>
        <time>2019-03-03T09:42:21Z</time>
      </trkpt>
      <trkpt lat="43.54136" lon="2.93317">
        <ele>506</ele>
        <time>2019-03-03T09:42:22Z</time>
      </trkpt>
      <trkpt lat="43.54133" lon="2.93317">
        <ele>506</ele>
        <time>2019-03-03T09:42:23Z</time>
      </trkpt>
      <trkpt lat="43.54131" lon="2.93316">
        <ele>507</ele>
        <time>2019-03-03T09:42:24Z</time>
      </trkpt>
      <trkpt lat="43.54129" lon="2.93316">
        <ele>507</ele>
        <time>2019-03-03T09:42:25Z</time>
      </trkpt>
      <trkpt lat="43.54127" lon="2.93316">
        <ele>507</ele>
        <time>2019-03-03T09:42:26Z</time>
      </trkpt>
      <trkpt lat="43.54124" lon="2.93315">
        <ele>507</ele>
        <time>2019-03-03T09:42:27Z</time>
      </trkpt>
      <trkpt lat="43.54122" lon="2.93316">
        <ele>507</ele>
        <time>2019-03-03T09:42:28Z</time>
      </trkpt>
      <trkpt lat="43.5412" lon="2.93316">
        <ele>507</ele>
        <time>2019-03-03T09:42:29Z</time>
      </trkpt>
      <trkpt lat="43.54117" lon="2.93316">
        <ele>508</ele>
        <time>2019-03-03T09:42:30Z</time>
      </trkpt>
      <trkpt lat="43.54115" lon="2.93317">
        <ele>508</ele>
        <time>2019-03-03T09:42:31Z</time>
      </trkpt>
      <trkpt lat="43.54113" lon="2.93318">
        <ele>508</ele>
        <time>2019-03-03T09:42:32Z</time>
      </trkpt>
      <trkpt lat="43.54111" lon="2.93319">
        <ele>508</ele>
        <time>2019-03-03T09:42:33Z</time>
      </trkpt>
      <trkpt lat="43.54109" lon="2.9332">
        <ele>508</ele>
        <time>2019-03-03T09:42:34Z</time>
      </trkpt>
      <trkpt lat="43.54107" lon="2.9332">
        <ele>508</ele>
        <time>2019-03-03T09:42:35Z</time>
      </trkpt>
      <trkpt lat="43.54105" lon="2.93321">
        <ele>509</ele>
        <time>2019-03-03T09:42:36Z</time>
      </trkpt>
      <trkpt lat="43.54102" lon="2.93323">
        <ele>509</ele>
        <time>2019-03-03T09:42:37Z</time>
      </trkpt>
      <trkpt lat="43.541" lon="2.93324">
        <ele>509</ele>
        <time>2019-03-03T09:42:38Z</time>
      </trkpt>
      <trkpt lat="43.54098" lon="2.93325">
        <ele>509</ele>
        <time>2019-03-03T09:42:39Z</time>
      </trkpt>
      <trkpt lat="43.54096" lon="2.93327">
        <ele>510</ele>
        <time>2019-03-03T09:42:40Z</time>
      </trkpt>
      <trkpt lat="43.54094" lon="2.93328">
        <ele>510</ele>
        <time>2019-03-03T09:42:41Z</time>
      </trkpt>
      <trkpt lat="43.54093" lon="2.9333">
        <ele>510</ele>
        <time>2019-03-03T09:42:42Z</time>
      </trkpt>
      <trkpt lat="43.54091" lon="2.93332">
        <ele>510</ele>
        <time>2019-03-03T09:42:43Z</time>
      </trkpt>
      <trkpt lat="43.54089" lon="2.93333">
        <ele>510</ele>
        <time>2019-03-03T09:42:44Z</time>
      </trkpt>
      <trkpt lat="43.54088" lon="2.93335">
        <ele>511</ele>
        <time>2019-03-03T09:42:45Z</time>
      </trkpt>
      <trkpt lat="43.54086" lon="2.93337">
        <ele>511</ele>
        <time>2019-03-03T09:42:46Z</time>
      </trkpt>
      <trkpt lat="43.54084" lon="2.93338">
        <ele>511</ele>
        <time>2019-03-03T09:42:47Z</time>
      </trkpt>
      <trkpt lat="43.54083" lon="2.9334">
        <ele>511</ele>
        <time>2019-03-03T09:42:48Z</time>
      </trkpt>
      <trkpt lat="43.54081" lon="2.93342">
        <ele>511</ele>
        <time>2019-03-03T09:42:49Z</time>
      </trkpt>
      <trkpt lat="43.54079" lon="2.93344">
        <ele>512</ele>
        <time>2019-03-03T09:42:50Z</time>
      </trkpt>
      <trkpt lat="43.54077" lon="2.93346">
        <ele>512</ele>
        <time>2019-03-03T09:42:51Z</time>
      </trkpt>
      <trkpt lat="43.54076" lon="2.93347">
        <ele>512</ele>
        <time>2019-03-03T09:42:52Z</time>
      </trkpt>
      <trkpt lat="43.54074" lon="2.93349">
        <ele>512</ele>
        <time>2019-03-03T09:42:53Z</time>
      </trkpt>
      <trkpt lat="43.54072" lon="2.93351">
        <ele>513</ele>
        <time>2019-03-03T09:42:54Z</time>
      </trkpt>
      <trkpt lat="43.5407" lon="2.93352">
        <ele>513</ele>
        <time>2019-03-03T09:42:55Z</time>
      </trkpt>
      <trkpt lat="43.54069" lon="2.93354">
        <ele>513</ele>
        <time>2019-03-03T09:42:56Z</time>
      </trkpt>
      <trkpt lat="43.54067" lon="2.93355">
        <ele>513</ele>
        <time>2019-03-03T09:42:57Z</time>
      </trkpt>
      <trkpt lat="43.54065" lon="2.93357">
        <ele>513</ele>
        <time>2019-03-03T09:42:58Z</time>
      </trkpt>
      <trkpt lat="43.54063" lon="2.93358">
        <ele>514</ele>
        <time>2019-03-03T09:42:59Z</time>
      </trkpt>
      <trkpt lat="43.54062" lon="2.9336">
        <ele>514</ele>
        <time>2019-03-03T09:43:00Z</time>
      </trkpt>
      <trkpt lat="43.5406" lon="2.93361">
        <ele>514</ele>
        <time>2019-03-03T09:43:01Z</time>
      </trkpt>
      <trkpt lat="43.54058" lon="2.93362">
        <ele>514</ele>
        <time>2019-03-03T09:43:02Z</time>
      </trkpt>
      <trkpt lat="43.54056" lon="2.93363">
        <ele>515</ele>
        <time>2019-03-03T09:43:03Z</time>
      </trkpt>
      <trkpt lat="43.54054" lon="2.93365">
        <ele>515</ele>
        <time>2019-03-03T09:43:04Z</time>
      </trkpt>
      <trkpt lat="43.54052" lon="2.93366">
        <ele>515</ele>
        <time>2019-03-03T09:43:05Z</time>
      </trkpt>
      <trkpt lat="43.5405" lon="2.93367">
        <ele>515</ele>
        <time>2019-03-03T09:43:06Z</time>
      </trkpt>
      <trkpt lat="43.54048" lon="2.93368">
        <ele>515</ele>
        <time>2019-03-03T09:43:07Z</time>
      </trkpt>
      <trkpt lat="43.54046" lon="2.93369">
        <ele>516</ele>
        <time>2019-03-03T09:43:08Z</time>
      </trkpt>
      <trkpt lat="43.54044" lon="2.9337">
        <ele>516</ele>
        <time>2019-03-03T09:43:09Z</time>
      </trkpt>
      <trkpt lat="43.54042" lon="2.93371">
        <ele>516</ele>
        <time>2019-03-03T09:43:10Z</time>
      </trkpt>
      <trkpt lat="43.5404" lon="2.93372">
        <ele>517</ele>
        <time>2019-03-03T09:43:11Z</time>
      </trkpt>
      <trkpt lat="43.54038" lon="2.93373">
        <ele>517</ele>
        <time>2019-03-03T09:43:12Z</time>
      </trkpt>
      <trkpt lat="43.54036" lon="2.93374">
        <ele>517</ele>
        <time>2019-03-03T09:43:13Z</time>
      </trkpt>
      <trkpt lat="43.54033" lon="2.93374">
        <ele>517</ele>
        <time>2019-03-03T09:43:14Z</time>
      </trkpt>
      <trkpt lat="43.54031" lon="2.93375">
        <ele>517</ele>
        <time>2019-03-03T09:43:15Z</time>
      </trkpt>
      <trkpt lat="43.54029" lon="2.93375">
        <ele>518</ele>
        <time>2019-03-03T09:43:16Z</time>
      </trkpt>
      <trkpt lat="43.54027" lon="2.93375">
        <ele>518</ele>
        <time>2019-03-03T09:43:17Z</time>
      </trkpt>
      <trkpt lat="43.54025" lon="2.93376">
        <ele>518</ele>
        <time>2019-03-03T09:43:18Z</time>
      </trkpt>
      <trkpt lat="43.54023" lon="2.93376">
        <ele>518</ele>
        <time>2019-03-03T09:43:19Z</time>
      </trkpt>
      <trkpt lat="43.54021" lon="2.93376">
        <ele>518</ele>
        <time>2019-03-03T09:43:20Z</time>
      </trkpt>
      <trkpt lat="43.54019" lon="2.93377">
        <ele>518</ele>
        <time>2019-03-03T09:43:21Z</time>
      </trkpt>
      <trkpt lat="43.54017" lon="2.93377">
        <ele>519</ele>
        <time>2019-03-03T09:43:22Z</time>
      </trkpt>
      <trkpt lat="43.54014" lon="2.93378">
        <ele>519</ele>
        <time>2019-03-03T09:43:23Z</time>
      </trkpt>
      <trkpt lat="43.54012" lon="2.93379">
        <ele>519</ele>
        <time>2019-03-03T09:43:24Z</time>
      </trkpt>
      <trkpt lat="43.5401" lon="2.93379">
        <ele>519</ele>
        <time>2019-03-03T09:43:25Z</time>
      </trkpt>
      <trkpt lat="43.54008" lon="2.9338">
        <ele>519</ele>
        <time>2019-03-03T09:43:26Z</time>
      </trkpt>
      <trkpt lat="43.54006" lon="2.93381">
        <ele>519</ele>
        <time>2019-03-03T09:43:27Z</time>
      </trkpt>
      <trkpt lat="43.54004" lon="2.93382">
        <ele>520</ele>
        <time>2019-03-03T09:43:28Z</time>
      </trkpt>
      <trkpt lat="43.54002" lon="2.93383">
        <ele>520</ele>
        <time>2019-03-03T09:43:29Z</time>
      </trkpt>
      <trkpt lat="43.54" lon="2.93384">
        <ele>520</ele>
        <time>2019-03-03T09:43:30Z</time>
      </trkpt>
      <trkpt lat="43.53998" lon="2.93386">
        <ele>520</ele>
        <time>2019-03-03T09:43:31Z</time>
      </trkpt>
      <trkpt lat="43.53996" lon="2.93387">
        <ele>521</ele>
        <time>2019-03-03T09:43:32Z</time>
      </trkpt>
      <trkpt lat="43.53995" lon="2.93389">
        <ele>521</ele>
        <time>2019-03-03T09:43:33Z</time>
      </trkpt>
      <trkpt lat="43.53993" lon="2.9339">
        <ele>521</ele>
        <time>2019-03-03T09:43:34Z</time>
      </trkpt>
      <trkpt lat="43.53991" lon="2.93392">
        <ele>521</ele>
        <time>2019-03-03T09:43:35Z</time>
      </trkpt>
      <trkpt lat="43.5399" lon="2.93394">
        <ele>521</ele>
        <time>2019-03-03T09:43:36Z</time>
      </trkpt>
      <trkpt lat="43.53988" lon="2.93396">
        <ele>522</ele>
        <time>2019-03-03T09:43:37Z</time>
      </trkpt>
      <trkpt lat="43.53987" lon="2.93398">
        <ele>522</ele>
        <time>2019-03-03T09:43:38Z</time>
      </trkpt>
      <trkpt lat="43.53985" lon="2.934">
        <ele>522</ele>
        <time>2019-03-03T09:43:39Z</time>
      </trkpt>
      <trkpt lat="43.53984" lon="2.93402">
        <ele>523</ele>
        <time>2019-03-03T09:43:40Z</time>
      </trkpt>
      <trkpt lat="43.53982" lon="2.93404">
        <ele>523</ele>
        <time>2019-03-03T09:43:41Z</time>
      </trkpt>
      <trkpt lat="43.53981" lon="2.93406">
        <ele>523</ele>
        <time>2019-03-03T09:43:42Z</time>
      </trkpt>
      <trkpt lat="43.5398" lon="2.93408">
        <ele>523</ele>
        <time>2019-03-03T09:43:43Z</time>
      </trkpt>
      <trkpt lat="43.53978" lon="2.93411">
        <ele>523</ele>
        <time>2019-03-03T09:43:44Z</time>
      </trkpt>
      <trkpt lat="43.53977" lon="2.93413">
        <ele>524</ele>
        <time>2019-03-03T09:43:45Z</time>
      </trkpt>
      <trkpt lat="43.53976" lon="2.93415">
        <ele>524</ele>
        <time>2019-03-03T09:43:46Z</time>
      </trkpt>
      <trkpt lat="43.53974" lon="2.93417">
        <ele>524</ele>
        <time>2019-03-03T09:43:47Z</time>
      </trkpt>
      <trkpt lat="43.53973" lon="2.9342">
        <ele>524</ele>
        <time>2019-03-03T09:43:48Z</time>
      </trkpt>
      <trkpt lat="43.53972" lon="2.93422">
        <ele>525</ele>
        <time>2019-03-03T09:43:49Z</time>
      </trkpt>
      <trkpt lat="43.53971" lon="2.93424">
        <ele>525</ele>
        <time>2019-03-03T09:43:50Z</time>
      </trkpt>
      <trkpt lat="43.5397" lon="2.93427">
        <ele>525</ele>
        <time>2019-03-03T09:43:51Z</time>
      </trkpt>
      <trkpt lat="43.53968" lon="2.93429">
        <ele>525</ele>
        <time>2019-03-03T09:43:52Z</time>
      </trkpt>
      <trkpt lat="43.53967" lon="2.93432">
        <ele>525</ele>
        <time>2019-03-03T09:43:53Z</time>
      </trkpt>
      <trkpt lat="43.53966" lon="2.93434">
        <ele>526</ele>
        <time>2019-03-03T09:43:54Z</time>
      </trkpt>
      <trkpt lat="43.53965" lon="2.93436">
        <ele>526</ele>
        <time>2019-03-03T09:43:55Z</time>
      </trkpt>
      <trkpt lat="43.53964" lon="2.93439">
        <ele>526</ele>
        <time>2019-03-03T09:43:56Z</time>
      </trkpt>
      <trkpt lat="43.53963" lon="2.93441">
        <ele>526</ele>
        <time>2019-03-03T09:43:57Z</time>
      </trkpt>
      <trkpt lat="43.53962" lon="2.93443">
        <ele>526</ele>
        <time>2019-03-03T09:43:58Z</time>
      </trkpt>
      <trkpt lat="43.53961" lon="2.93445">
        <ele>526</ele>
        <time>2019-03-03T09:43:59Z</time>
      </trkpt>
      <trkpt lat="43.5396" lon="2.93448">
        <ele>527</ele>
        <time>2019-03-03T09:44:00Z</time>
      </trkpt>
      <trkpt lat="43.53959" lon="2.9345">
        <ele>527</ele>
        <time>2019-03-03T09:44:01Z</time>
      </trkpt>
      <trkpt lat="43.53958" lon="2.93452">
        <ele>527</ele>
        <time>2019-03-03T09:44:02Z</time>
      </trkpt>
      <trkpt lat="43.53957" lon="2.93455">
        <ele>527</ele>
        <time>2019-03-03T09:44:03Z</time>
      </trkpt>
      <trkpt lat="43.53956" lon="2.93457">
        <ele>527</ele>
        <time>2019-03-03T09:44:04Z</time>
      </trkpt>
      <trkpt lat="43.53955" lon="2.9346">
        <ele>527</ele>
        <time>2019-03-03T09:44:05Z</time>
      </trkpt>
      <trkpt lat="43.53953" lon="2.93462">
        <ele>528</ele>
        <time>2019-03-03T09:44:06Z</time>
      </trkpt>
      <trkpt lat="43.53952" lon="2.93465">
        <ele>528</ele>
        <time>2019-03-03T09:44:07Z</time>
      </trkpt>
      <trkpt lat="43.53951" lon="2.93467">
        <ele>528</ele>
        <time>2019-03-03T09:44:08Z</time>
      </trkpt>
      <trkpt lat="43.5395" lon="2.93469">
        <ele>528</ele>
        <time>2019-03-03T09:44:09Z</time>
      </trkpt>
      <trkpt lat="43.53949" lon="2.93471">
        <ele>528</ele>
        <time>2019-03-03T09:44:10Z</time>
      </trkpt>
      <trkpt lat="43.53947" lon="2.93474">
        <ele>529</ele>
        <time>2019-03-03T09:44:11Z</time>
      </trkpt>
      <trkpt lat="43.53946" lon="2.93476">
        <ele>529</ele>
        <time>2019-03-03T09:44:12Z</time>
      </trkpt>
      <trkpt lat="43.53945" lon="2.93478">
        <ele>529</ele>
        <time>2019-03-03T09:44:13Z</time>
      </trkpt>
      <trkpt lat="43.53944" lon="2.9348">
        <ele>529</ele>
        <time>2019-03-03T09:44:14Z</time>
      </trkpt>
      <trkpt lat="43.53942" lon="2.93483">
        <ele>529</ele>
        <time>2019-03-03T09:44:15Z</time>
      </trkpt>
      <trkpt lat="43.53941" lon="2.93485">
        <ele>530</ele>
        <time>2019-03-03T09:44:16Z</time>
      </trkpt>
      <trkpt lat="43.5394" lon="2.93487">
        <ele>530</ele>
        <time>2019-03-03T09:44:17Z</time>
      </trkpt>
      <trkpt lat="43.53939" lon="2.93489">
        <ele>530</ele>
        <time>2019-03-03T09:44:18Z</time>
      </trkpt>
      <trkpt lat="43.53937" lon="2.93491">
        <ele>530</ele>
        <time>2019-03-03T09:44:19Z</time>
      </trkpt>
      <trkpt lat="43.53936" lon="2.93493">
        <ele>530</ele>
        <time>2019-03-03T09:44:20Z</time>
      </trkpt>
      <trkpt lat="43.53935" lon="2.93495">
        <ele>531</ele>
        <time>2019-03-03T09:44:21Z</time>
      </trkpt>
      <trkpt lat="43.53933" lon="2.93497">
        <ele>531</ele>
        <time>2019-03-03T09:44:22Z</time>
      </trkpt>
      <trkpt lat="43.53932" lon="2.93499">
        <ele>531</ele>
        <time>2019-03-03T09:44:23Z</time>
      </trkpt>
      <trkpt lat="43.53931" lon="2.93501">
        <ele>531</ele>
        <time>2019-03-03T09:44:24Z</time>
      </trkpt>
      <trkpt lat="43.53929" lon="2.93504">
        <ele>532</ele>
        <time>2019-03-03T09:44:25Z</time>
      </trkpt>
      <trkpt lat="43.53928" lon="2.93506">
        <ele>532</ele>
        <time>2019-03-03T09:44:26Z</time>
      </trkpt>
      <trkpt lat="43.53926" lon="2.93508">
        <ele>532</ele>
        <time>2019-03-03T09:44:27Z</time>
      </trkpt>
      <trkpt lat="43.53925" lon="2.9351">
        <ele>532</ele>
        <time>2019-03-03T09:44:28Z</time>
      </trkpt>
      <trkpt lat="43.53924" lon="2.93513">
        <ele>532</ele>
        <time>2019-03-03T09:44:29Z</time>
      </trkpt>
      <trkpt lat="43.53922" lon="2.93515">
        <ele>533</ele>
        <time>2019-03-03T09:44:30Z</time>
      </trkpt>
      <trkpt lat="43.53921" lon="2.93517">
        <ele>533</ele>
        <time>2019-03-03T09:44:31Z</time>
      </trkpt>
      <trkpt lat="43.53919" lon="2.9352">
        <ele>533</ele>
        <time>2019-03-03T09:44:32Z</time>
      </trkpt>
      <trkpt lat="43.53918" lon="2.93522">
        <ele>533</ele>
        <time>2019-03-03T09:44:33Z</time>
      </trkpt>
      <trkpt lat="43.53917" lon="2.93524">
        <ele>534</ele>
        <time>2019-03-03T09:44:34Z</time>
      </trkpt>
      <trkpt lat="43.53915" lon="2.93527">
        <ele>534</ele>
        <time>2019-03-03T09:44:35Z</time>
      </trkpt>
      <trkpt lat="43.53914" lon="2.93529">
        <ele>534</ele>
        <time>2019-03-03T09:44:36Z</time>
      </trkpt>
      <trkpt lat="43.53913" lon="2.93531">
        <ele>534</ele>
        <time>2019-03-03T09:44:37Z</time>
      </trkpt>
      <trkpt lat="43.53912" lon="2.93534">
        <ele>534</ele>
        <time>2019-03-03T09:44:38Z</time>
      </trkpt>
      <trkpt lat="43.53911" lon="2.93536">
        <ele>534</ele>
        <time>2019-03-03T09:44:39Z</time>
      </trkpt>
      <trkpt lat="43.53909" lon="2.93539">
        <ele>535</ele>
        <time>2019-03-03T09:44:40Z</time>
      </trkpt>
      <trkpt lat="43.53908" lon="2.93541">
        <ele>535</ele>
        <time>2019-03-03T09:44:41Z</time>
      </trkpt>
      <trkpt lat="43.53907" lon="2.93544">
        <ele>535</ele>
        <time>2019-03-03T09:44:42Z</time>
      </trkpt>
      <trkpt lat="43.53906" lon="2.93546">
        <ele>535</ele>
        <time>2019-03-03T09:44:43Z</time>
      </trkpt>
      <trkpt lat="43.53905" lon="2.93549">
        <ele>535</ele>
        <time>2019-03-03T09:44:44Z</time>
      </trkpt>
      <trkpt lat="43.53903" lon="2.93552">
        <ele>535</ele>
        <time>2019-03-03T09:44:45Z</time>
      </trkpt>
      <trkpt lat="43.53902" lon="2.93554">
        <ele>536</ele>
        <time>2019-03-03T09:44:46Z</time>
      </trkpt>
      <trkpt lat="43.53901" lon="2.93557">
        <ele>536</ele>
        <time>2019-03-03T09:44:47Z</time>
      </trkpt>
      <trkpt lat="43.539" lon="2.93559">
        <ele>536</ele>
        <time>2019-03-03T09:44:48Z</time>
      </trkpt>
      <trkpt lat="43.53899" lon="2.93562">
        <ele>537</ele>
        <time>2019-03-03T09:44:49Z</time>
      </trkpt>
      <trkpt lat="43.53898" lon="2.93564">
        <ele>537</ele>
        <time>2019-03-03T09:44:50Z</time>
      </trkpt>
      <trkpt lat="43.53897" lon="2.93567">
        <ele>537</ele>
        <time>2019-03-03T09:44:51Z</time>
      </trkpt>
      <trkpt lat="43.53896" lon="2.9357">
        <ele>537</ele>
        <time>2019-03-03T09:44:52Z</time>
      </trkpt>
      <trkpt lat="43.53896" lon="2.93572">
        <ele>537</ele>
        <time>2019-03-03T09:44:53Z</time>
      </trkpt>
      <trkpt lat="43.53895" lon="2.93575">
        <ele>537</ele>
        <time>2019-03-03T09:44:54Z</time>
      </trkpt>
      <trkpt lat="43.53894" lon="2.93578">
        <ele>537</ele>
        <time>2019-03-03T09:44:55Z</time>
      </trkpt>
      <trkpt lat="43.53893" lon="2.9358">
        <ele>538</ele>
        <time>2019-03-03T09:44:56Z</time>
      </trkpt>
      <trkpt lat="43.53892" lon="2.93583">
        <ele>538</ele>
        <time>2019-03-03T09:44:57Z</time>
      </trkpt>
      <trkpt lat="43.53891" lon="2.93586">
        <ele>538</ele>
        <time>2019-03-03T09:44:58Z</time>
      </trkpt>
      <trkpt lat="43.5389" lon="2.93588">
        <ele>539</ele>
        <time>2019-03-03T09:44:59Z</time>
      </trkpt>
      <trkpt lat="43.53889" lon="2.93591">
        <ele>539</ele>
        <time>2019-03-03T09:45:00Z</time>
      </trkpt>
      <trkpt lat="43.53889" lon="2.93593">
        <ele>539</ele>
        <time>2019-03-03T09:45:01Z</time>
      </trkpt>
      <trkpt lat="43.53888" lon="2.93596">
        <ele>539</ele>
        <time>2019-03-03T09:45:02Z</time>
      </trkpt>
      <trkpt lat="43.53887" lon="2.93599">
        <ele>540</ele>
        <time>2019-03-03T09:45:03Z</time>
      </trkpt>
      <trkpt lat="43.53886" lon="2.93602">
        <ele>540</ele>
        <time>2019-03-03T09:45:04Z</time>
      </trkpt>
      <trkpt lat="43.53886" lon="2.93604">
        <ele>540</ele>
        <time>2019-03-03T09:45:05Z</time>
      </trkpt>
      <trkpt lat="43.53885" lon="2.93607">
        <ele>540</ele>
        <time>2019-03-03T09:45:06Z</time>
      </trkpt>
      <trkpt lat="43.53884" lon="2.9361">
        <ele>541</ele>
        <time>2019-03-03T09:45:07Z</time>
      </trkpt>
      <trkpt lat="43.53884" lon="2.93613">
        <ele>541</ele>
        <time>2019-03-03T09:45:08Z</time>
      </trkpt>
      <trkpt lat="43.53883" lon="2.93616">
        <ele>541</ele>
        <time>2019-03-03T09:45:09Z</time>
      </trkpt>
      <trkpt lat="43.53883" lon="2.93618">
        <ele>541</ele>
        <time>2019-03-03T09:45:10Z</time>
      </trkpt>
      <trkpt lat="43.53883" lon="2.93621">
        <ele>541</ele>
        <time>2019-03-03T09:45:11Z</time>
      </trkpt>
      <trkpt lat="43.53882" lon="2.93623">
        <ele>542</ele>
        <time>2019-03-03T09:45:12Z</time>
      </trkpt>
      <trkpt lat="43.53882" lon="2.93626">
        <ele>542</ele>
        <time>2019-03-03T09:45:13Z</time>
      </trkpt>
      <trkpt lat="43.53882" lon="2.93629">
        <ele>542</ele>
        <time>2019-03-03T09:45:14Z</time>
      </trkpt>
      <trkpt lat="43.53882" lon="2.93632">
        <ele>542</ele>
        <time>2019-03-03T09:45:15Z</time>
      </trkpt>
      <trkpt lat="43.53881" lon="2.93634">
        <ele>542</ele>
        <time>2019-03-03T09:45:16Z</time>
      </trkpt>
      <trkpt lat="43.53881" lon="2.93637">
        <ele>542</ele>
        <time>2019-03-03T09:45:17Z</time>
      </trkpt>
      <trkpt lat="43.53881" lon="2.9364">
        <ele>542</ele>
        <time>2019-03-03T09:45:18Z</time>
      </trkpt>
      <trkpt lat="43.5388" lon="2.93643">
        <ele>543</ele>
        <time>2019-03-03T09:45:19Z</time>
      </trkpt>
      <trkpt lat="43.5388" lon="2.93646">
        <ele>543</ele>
        <time>2019-03-03T09:45:20Z</time>
      </trkpt>
      <trkpt lat="43.5388" lon="2.93649">
        <ele>543</ele>
        <time>2019-03-03T09:45:21Z</time>
      </trkpt>
      <trkpt lat="43.53879" lon="2.93651">
        <ele>543</ele>
        <time>2019-03-03T09:45:22Z</time>
      </trkpt>
      <trkpt lat="43.53879" lon="2.93654">
        <ele>543</ele>
        <time>2019-03-03T09:45:23Z</time>
      </trkpt>
      <trkpt lat="43.53878" lon="2.93657">
        <ele>544</ele>
        <time>2019-03-03T09:45:24Z</time>
      </trkpt>
      <trkpt lat="43.53878" lon="2.9366">
        <ele>544</ele>
        <time>2019-03-03T09:45:25Z</time>
      </trkpt>
      <trkpt lat="43.53877" lon="2.93663">
        <ele>544</ele>
        <time>2019-03-03T09:45:26Z</time>
      </trkpt>
      <trkpt lat="43.53877" lon="2.93665">
        <ele>544</ele>
        <time>2019-03-03T09:45:27Z</time>
      </trkpt>
      <trkpt lat="43.53876" lon="2.93668">
        <ele>544</ele>
        <time>2019-03-03T09:45:28Z</time>
      </trkpt>
      <trkpt lat="43.53875" lon="2.93671">
        <ele>545</ele>
        <time>2019-03-03T09:45:29Z</time>
      </trkpt>
      <trkpt lat="43.53875" lon="2.93673">
        <ele>545</ele>
        <time>2019-03-03T09:45:30Z</time>
      </trkpt>
      <trkpt lat="43.53874" lon="2.93676">
        <ele>545</ele>
        <time>2019-03-03T09:45:31Z</time>
      </trkpt>
      <trkpt lat="43.53873" lon="2.93679">
        <ele>545</ele>
        <time>2019-03-03T09:45:32Z</time>
      </trkpt>
      <trkpt lat="43.53873" lon="2.93682">
        <ele>546</ele>
        <time>2019-03-03T09:45:33Z</time>
      </trkpt>
      <trkpt lat="43.53873" lon="2.93684">
        <ele>546</ele>
        <time>2019-03-03T09:45:34Z</time>
      </trkpt>
      <trkpt lat="43.53872" lon="2.93687">
        <ele>546</ele>
        <time>2019-03-03T09:45:35Z</time>
      </trkpt>
      <trkpt lat="43.53871" lon="2.9369">
        <ele>546</ele>
        <time>2019-03-03T09:45:36Z</time>
      </trkpt>
      <trkpt lat="43.53871" lon="2.93692">
        <ele>547</ele>
        <time>2019-03-03T09:45:37Z</time>
      </trkpt>
      <trkpt lat="43.5387" lon="2.93695">
        <ele>547</ele>
        <time>2019-03-03T09:45:38Z</time>
      </trkpt>
      <trkpt lat="43.53869" lon="2.93698">
        <ele>547</ele>
        <time>2019-03-03T09:45:39Z</time>
      </trkpt>
      <trkpt lat="43.53869" lon="2.937">
        <ele>547</ele>
        <time>2019-03-03T09:45:40Z</time>
      </trkpt>
      <trkpt lat="43.53868" lon="2.93703">
        <ele>548</ele>
        <time>2019-03-03T09:45:41Z</time>
      </trkpt>
      <trkpt lat="43.53867" lon="2.93706">
        <ele>548</ele>
        <time>2019-03-03T09:45:42Z</time>
      </trkpt>
      <trkpt lat="43.53867" lon="2.93709">
        <ele>548</ele>
        <time>2019-03-03T09:45:43Z</time>
      </trkpt>
      <trkpt lat="43.53866" lon="2.93711">
        <ele>548</ele>
        <time>2019-03-03T09:45:44Z</time>
      </trkpt>
      <trkpt lat="43.53866" lon="2.93714">
        <ele>548</ele>
        <time>2019-03-03T09:45:45Z</time>
      </trkpt>
      <trkpt lat="43.53865" lon="2.93717">
        <ele>548</ele>
        <time>2019-03-03T09:45:46Z</time>
      </trkpt>
      <trkpt lat="43.53864" lon="2.9372">
        <ele>549</ele>
        <time>2019-03-03T09:45:47Z</time>
      </trkpt>
      <trkpt lat="43.53864" lon="2.93723">
        <ele>549</ele>
        <time>2019-03-03T09:45:48Z</time>
      </trkpt>
      <trkpt lat="43.53863" lon="2.93726">
        <ele>549</ele>
        <time>2019-03-03T09:45:49Z</time>
      </trkpt>
      <trkpt lat="43.53863" lon="2.93729">
        <ele>549</ele>
        <time>2019-03-03T09:45:50Z</time>
      </trkpt>
      <trkpt lat="43.53862" lon="2.93732">
        <ele>549</ele>
        <time>2019-03-03T09:45:51Z</time>
      </trkpt>
      <trkpt lat="43.53862" lon="2.93735">
        <ele>550</ele>
        <time>2019-03-03T09:45:52Z</time>
      </trkpt>
      <trkpt lat="43.53861" lon="2.93737">
        <ele>550</ele>
        <time>2019-03-03T09:45:53Z</time>
      </trkpt>
      <trkpt lat="43.53861" lon="2.9374">
        <ele>550</ele>
        <time>2019-03-03T09:45:54Z</time>
      </trkpt>
      <trkpt lat="43.5386" lon="2.93743">
        <ele>550</ele>
        <time>2019-03-03T09:45:55Z</time>
      </trkpt>
      <trkpt lat="43.5386" lon="2.93746">
        <ele>550</ele>
        <time>2019-03-03T09:45:56Z</time>
      </trkpt>
      <trkpt lat="43.53859" lon="2.93748">
        <ele>550</ele>
        <time>2019-03-03T09:45:57Z</time>
      </trkpt>
      <trkpt lat="43.53859" lon="2.93751">
        <ele>551</ele>
        <time>2019-03-03T09:45:58Z</time>
      </trkpt>
      <trkpt lat="43.53858" lon="2.93754">
        <ele>551</ele>
        <time>2019-03-03T09:45:59Z</time>
      </trkpt>
      <trkpt lat="43.53858" lon="2.93757">
        <ele>551</ele>
        <time>2019-03-03T09:46:00Z</time>
      </trkpt>
      <trkpt lat="43.53857" lon="2.93759">
        <ele>551</ele>
        <time>2019-03-03T09:46:01Z</time>
      </trkpt>
      <trkpt lat="43.53857" lon="2.93761">
        <ele>551</ele>
        <time>2019-03-03T09:46:02Z</time>
      </trkpt>
      <trkpt lat="43.53856" lon="2.93764">
        <ele>552</ele>
        <time>2019-03-03T09:46:03Z</time>
      </trkpt>
      <trkpt lat="43.53855" lon="2.93766">
        <ele>552</ele>
        <time>2019-03-03T09:46:04Z</time>
      </trkpt>
      <trkpt lat="43.53855" lon="2.93768">
        <ele>552</ele>
        <time>2019-03-03T09:46:05Z</time>
      </trkpt>
      <trkpt lat="43.53854" lon="2.9377">
        <ele>552</ele>
        <time>2019-03-03T09:46:06Z</time>
      </trkpt>
      <trkpt lat="43.53854" lon="2.93772">
        <ele>552</ele>
        <time>2019-03-03T09:46:07Z</time>
      </trkpt>
      <trkpt lat="43.53854" lon="2.93775">
        <ele>553</ele>
        <time>2019-03-03T09:46:08Z</time>
      </trkpt>
      <trkpt lat="43.53854" lon="2.93777">
        <ele>553</ele>
        <time>2019-03-03T09:46:09Z</time>
      </trkpt>
      <trkpt lat="43.53853" lon="2.93779">
        <ele>553</ele>
        <time>2019-03-03T09:46:10Z</time>
      </trkpt>
      <trkpt lat="43.53853" lon="2.93781">
        <ele>553</ele>
        <time>2019-03-03T09:46:11Z</time>
      </trkpt>
      <trkpt lat="43.53853" lon="2.93782">
        <ele>553</ele>
        <time>2019-03-03T09:46:12Z</time>
      </trkpt>
      <trkpt lat="43.53854" lon="2.93782">
        <ele>554</ele>
        <time>2019-03-03T09:46:13Z</time>
      </trkpt>
      <trkpt lat="43.53853" lon="2.93785">
        <ele>555</ele>
        <time>2019-03-03T09:49:39Z</time>
      </trkpt>
      <trkpt lat="43.53854" lon="2.93787">
        <ele>555</ele>
        <time>2019-03-03T09:49:40Z</time>
      </trkpt>
      <trkpt lat="43.53854" lon="2.93789">
        <ele>555</ele>
        <time>2019-03-03T09:49:41Z</time>
      </trkpt>
      <trkpt lat="43.53853" lon="2.93792">
        <ele>555</ele>
        <time>2019-03-03T09:49:42Z</time>
      </trkpt>
      <trkpt lat="43.53853" lon="2.93794">
        <ele>555</ele>
        <time>2019-03-03T09:49:43Z</time>
      </trkpt>
      <trkpt lat="43.53853" lon="2.93796">
        <ele>555</ele>
        <time>2019-03-03T09:49:44Z</time>
      </trkpt>
      <trkpt lat="43.53853" lon="2.93799">
        <ele>555</ele>
        <time>2019-03-03T09:49:45Z</time>
      </trkpt>
      <trkpt lat="43.53853" lon="2.93802">
        <ele>555</ele>
        <time>2019-03-03T09:49:46Z</time>
      </trkpt>
      <trkpt lat="43.53853" lon="2.93805">
        <ele>555</ele>
        <time>2019-03-03T09:49:47Z</time>
      </trkpt>
      <trkpt lat="43.53852" lon="2.93807">
        <ele>555</ele>
        <time>2019-03-03T09:49:48Z</time>
      </trkpt>
      <trkpt lat="43.53852" lon="2.9381">
        <ele>555</ele>
        <time>2019-03-03T09:49:49Z</time>
      </trkpt>
      <trkpt lat="43.53852" lon="2.93813">
        <ele>555</ele>
        <time>2019-03-03T09:49:50Z</time>
      </trkpt>
      <trkpt lat="43.53852" lon="2.93816">
        <ele>555</ele>
        <time>2019-03-03T09:49:51Z</time>
      </trkpt>
      <trkpt lat="43.53853" lon="2.93819">
        <ele>556</ele>
        <time>2019-03-03T09:49:52Z</time>
      </trkpt>
      <trkpt lat="43.53853" lon="2.93821">
        <ele>556</ele>
        <time>2019-03-03T09:49:53Z</time>
      </trkpt>
      <trkpt lat="43.53853" lon="2.93824">
        <ele>556</ele>
        <time>2019-03-03T09:49:54Z</time>
      </trkpt>
      <trkpt lat="43.53853" lon="2.93827">
        <ele>556</ele>
        <time>2019-03-03T09:49:55Z</time>
      </trkpt>
      <trkpt lat="43.53853" lon="2.9383">
        <ele>556</ele>
        <time>2019-03-03T09:49:56Z</time>
      </trkpt>
      <trkpt lat="43.53853" lon="2.93832">
        <ele>556</ele>
        <time>2019-03-03T09:49:57Z</time>
      </trkpt>
      <trkpt lat="43.53853" lon="2.93835">
        <ele>557</ele>
        <time>2019-03-03T09:49:58Z</time>
      </trkpt>
      <trkpt lat="43.53853" lon="2.93838">
        <ele>557</ele>
        <time>2019-03-03T09:49:59Z</time>
      </trkpt>
      <trkpt lat="43.53854" lon="2.93841">
        <ele>557</ele>
        <time>2019-03-03T09:50:00Z</time>
      </trkpt>
      <trkpt lat="43.53854" lon="2.93845">
        <ele>557</ele>
        <time>2019-03-03T09:50:01Z</time>
      </trkpt>
      <trkpt lat="43.53854" lon="2.93848">
        <ele>558</ele>
        <time>2019-03-03T09:50:02Z</time>
      </trkpt>
      <trkpt lat="43.53854" lon="2.9385">
        <ele>558</ele>
        <time>2019-03-03T09:50:03Z</time>
      </trkpt>
      <trkpt lat="43.53855" lon="2.93853">
        <ele>558</ele>
        <time>2019-03-03T09:50:04Z</time>
      </trkpt>
      <trkpt lat="43.53855" lon="2.93856">
        <ele>558</ele>
        <time>2019-03-03T09:50:05Z</time>
      </trkpt>
      <trkpt lat="43.53856" lon="2.93859">
        <ele>559</ele>
        <time>2019-03-03T09:50:06Z</time>
      </trkpt>
      <trkpt lat="43.53856" lon="2.93862">
        <ele>559</ele>
        <time>2019-03-03T09:50:07Z</time>
      </trkpt>
      <trkpt lat="43.53857" lon="2.93864">
        <ele>559</ele>
        <time>2019-03-03T09:50:08Z</time>
      </trkpt>
      <trkpt lat="43.53858" lon="2.93867">
        <ele>559</ele>
        <time>2019-03-03T09:50:09Z</time>
      </trkpt>
      <trkpt lat="43.53858" lon="2.9387">
        <ele>559</ele>
        <time>2019-03-03T09:50:10Z</time>
      </trkpt>
      <trkpt lat="43.53859" lon="2.93873">
        <ele>560</ele>
        <time>2019-03-03T09:50:11Z</time>
      </trkpt>
      <trkpt lat="43.53859" lon="2.93876">
        <ele>560</ele>
        <time>2019-03-03T09:50:12Z</time>
      </trkpt>
      <trkpt lat="43.5386" lon="2.93879">
        <ele>560</ele>
        <time>2019-03-03T09:50:13Z</time>
      </trkpt>
      <trkpt lat="43.5386" lon="2.93882">
        <ele>560</ele>
        <time>2019-03-03T09:50:14Z</time>
      </trkpt>
      <trkpt lat="43.53861" lon="2.93885">
        <ele>561</ele>
        <time>2019-03-03T09:50:15Z</time>
      </trkpt>
      <trkpt lat="43.53862" lon="2.93887">
        <ele>561</ele>
        <time>2019-03-03T09:50:16Z</time>
      </trkpt>
      <trkpt lat="43.53862" lon="2.9389">
        <ele>561</ele>
        <time>2019-03-03T09:50:17Z</time>
      </trkpt>
      <trkpt lat="43.53863" lon="2.93893">
        <ele>561</ele>
        <time>2019-03-03T09:50:18Z</time>
      </trkpt>
      <trkpt lat="43.53863" lon="2.93896">
        <ele>561</ele>
        <time>2019-03-03T09:50:19Z</time>
      </trkpt>
      <trkpt lat="43.53864" lon="2.93899">
        <ele>562</ele>
        <time>2019-03-03T09:50:20Z</time>
      </trkpt>
      <trkpt lat="43.53864" lon="2.93902">
        <ele>562</ele>
        <time>2019-03-03T09:50:21Z</time>
      </trkpt>
      <trkpt lat="43.53865" lon="2.93905">
        <ele>562</ele>
        <time>2019-03-03T09:50:22Z</time>
      </trkpt>
      <trkpt lat="43.53865" lon="2.93908">
        <ele>562</ele>
        <time>2019-03-03T09:50:23Z</time>
      </trkpt>
      <trkpt lat="43.53866" lon="2.93911">
        <ele>563</ele>
        <time>2019-03-03T09:50:24Z</time>
      </trkpt>
      <trkpt lat="43.53866" lon="2.93914">
        <ele>563</ele>
        <time>2019-03-03T09:50:25Z</time>
      </trkpt>
      <trkpt lat="43.53866" lon="2.93916">
        <ele>563</ele>
        <time>2019-03-03T09:50:26Z</time>
      </trkpt>
      <trkpt lat="43.53867" lon="2.93919">
        <ele>563</ele>
        <time>2019-03-03T09:50:27Z</time>
      </trkpt>
      <trkpt lat="43.53867" lon="2.93922">
        <ele>563</ele>
        <time>2019-03-03T09:50:28Z</time>
      </trkpt>
      <trkpt lat="43.53868" lon="2.93925">
        <ele>563</ele>
        <time>2019-03-03T09:50:29Z</time>
      </trkpt>
      <trkpt lat="43.53868" lon="2.93928">
        <ele>564</ele>
        <time>2019-03-03T09:50:30Z</time>
      </trkpt>
      <trkpt lat="43.53868" lon="2.93931">
        <ele>564</ele>
        <time>2019-03-03T09:50:31Z</time>
      </trkpt>
      <trkpt lat="43.53868" lon="2.93934">
        <ele>564</ele>
        <time>2019-03-03T09:50:32Z</time>
      </trkpt>
      <trkpt lat="43.53869" lon="2.93937">
        <ele>564</ele>
        <time>2019-03-03T09:50:33Z</time>
      </trkpt>
      <trkpt lat="43.53869" lon="2.93939">
        <ele>564</ele>
        <time>2019-03-03T09:50:34Z</time>
      </trkpt>
      <trkpt lat="43.53869" lon="2.93942">
        <ele>564</ele>
        <time>2019-03-03T09:50:35Z</time>
      </trkpt>
      <trkpt lat="43.53869" lon="2.93945">
        <ele>564</ele>
        <time>2019-03-03T09:50:36Z</time>
      </trkpt>
      <trkpt lat="43.53869" lon="2.93948">
        <ele>565</ele>
        <time>2019-03-03T09:50:37Z</time>
      </trkpt>
      <trkpt lat="43.53869" lon="2.93951">
        <ele>565</ele>
        <time>2019-03-03T09:50:38Z</time>
      </trkpt>
      <trkpt lat="43.53868" lon="2.93955">
        <ele>565</ele>
        <time>2019-03-03T09:50:39Z</time>
      </trkpt>
      <trkpt lat="43.53868" lon="2.93958">
        <ele>565</ele>
        <time>2019-03-03T09:50:40Z</time>
      </trkpt>
      <trkpt lat="43.53868" lon="2.93962">
        <ele>565</ele>
        <time>2019-03-03T09:50:41Z</time>
      </trkpt>
      <trkpt lat="43.53868" lon="2.93965">
        <ele>565</ele>
        <time>2019-03-03T09:50:42Z</time>
      </trkpt>
      <trkpt lat="43.53868" lon="2.93968">
        <ele>566</ele>
        <time>2019-03-03T09:50:43Z</time>
      </trkpt>
      <trkpt lat="43.53868" lon="2.93971">
        <ele>566</ele>
        <time>2019-03-03T09:50:44Z</time>
      </trkpt>
      <trkpt lat="43.53867" lon="2.93975">
        <ele>566</ele>
        <time>2019-03-03T09:50:45Z</time>
      </trkpt>
      <trkpt lat="43.53867" lon="2.93978">
        <ele>566</ele>
        <time>2019-03-03T09:50:46Z</time>
      </trkpt>
      <trkpt lat="43.53866" lon="2.93981">
        <ele>566</ele>
        <time>2019-03-03T09:50:47Z</time>
      </trkpt>
      <trkpt lat="43.53866" lon="2.93984">
        <ele>566</ele>
        <time>2019-03-03T09:50:48Z</time>
      </trkpt>
      <trkpt lat="43.53865" lon="2.93986">
        <ele>566</ele>
        <time>2019-03-03T09:50:49Z</time>
      </trkpt>
      <trkpt lat="43.53865" lon="2.93989">
        <ele>567</ele>
        <time>2019-03-03T09:50:50Z</time>
      </trkpt>
      <trkpt lat="43.53864" lon="2.93992">
        <ele>567</ele>
        <time>2019-03-03T09:50:51Z</time>
      </trkpt>
      <trkpt lat="43.53863" lon="2.93994">
        <ele>567</ele>
        <time>2019-03-03T09:50:52Z</time>
      </trkpt>
      <trkpt lat="43.53862" lon="2.93997">
        <ele>568</ele>
        <time>2019-03-03T09:50:53Z</time>
      </trkpt>
      <trkpt lat="43.53861" lon="2.93999">
        <ele>568</ele>
        <time>2019-03-03T09:50:54Z</time>
      </trkpt>
      <trkpt lat="43.5386" lon="2.94002">
        <ele>568</ele>
        <time>2019-03-03T09:50:55Z</time>
      </trkpt>
      <trkpt lat="43.53858" lon="2.94004">
        <ele>569</ele>
        <time>2019-03-03T09:50:56Z</time>
      </trkpt>
      <trkpt lat="43.53857" lon="2.94006">
        <ele>569</ele>
        <time>2019-03-03T09:50:57Z</time>
      </trkpt>
      <trkpt lat="43.53855" lon="2.94008">
        <ele>569</ele>
        <time>2019-03-03T09:50:58Z</time>
      </trkpt>
      <trkpt lat="43.53853" lon="2.9401">
        <ele>569</ele>
        <time>2019-03-03T09:50:59Z</time>
      </trkpt>
      <trkpt lat="43.53852" lon="2.94012">
        <ele>570</ele>
        <time>2019-03-03T09:51:00Z</time>
      </trkpt>
      <trkpt lat="43.5385" lon="2.94014">
        <ele>570</ele>
        <time>2019-03-03T09:51:01Z</time>
      </trkpt>
      <trkpt lat="43.53848" lon="2.94016">
        <ele>570</ele>
        <time>2019-03-03T09:51:02Z</time>
      </trkpt>
      <trkpt lat="43.53846" lon="2.94018">
        <ele>570</ele>
        <time>2019-03-03T09:51:03Z</time>
      </trkpt>
      <trkpt lat="43.53844" lon="2.94019">
        <ele>570</ele>
        <time>2019-03-03T09:51:04Z</time>
      </trkpt>
      <trkpt lat="43.53842" lon="2.94021">
        <ele>570</ele>
        <time>2019-03-03T09:51:05Z</time>
      </trkpt>
      <trkpt lat="43.5384" lon="2.94022">
        <ele>571</ele>
        <time>2019-03-03T09:51:06Z</time>
      </trkpt>
      <trkpt lat="43.53838" lon="2.94024">
        <ele>571</ele>
        <time>2019-03-03T09:51:07Z</time>
      </trkpt>
      <trkpt lat="43.53836" lon="2.94026">
        <ele>571</ele>
        <time>2019-03-03T09:51:08Z</time>
      </trkpt>
      <trkpt lat="43.53834" lon="2.94027">
        <ele>571</ele>
        <time>2019-03-03T09:51:09Z</time>
      </trkpt>
      <trkpt lat="43.53832" lon="2.94029">
        <ele>571</ele>
        <time>2019-03-03T09:51:10Z</time>
      </trkpt>
      <trkpt lat="43.5383" lon="2.9403">
        <ele>571</ele>
        <time>2019-03-03T09:51:11Z</time>
      </trkpt>
      <trkpt lat="43.53828" lon="2.94032">
        <ele>572</ele>
        <time>2019-03-03T09:51:12Z</time>
      </trkpt>
      <trkpt lat="43.53826" lon="2.94033">
        <ele>572</ele>
        <time>2019-03-03T09:51:13Z</time>
      </trkpt>
      <trkpt lat="43.53825" lon="2.94035">
        <ele>572</ele>
        <time>2019-03-03T09:51:14Z</time>
      </trkpt>
      <trkpt lat="43.53823" lon="2.94037">
        <ele>573</ele>
        <time>2019-03-03T09:51:15Z</time>
      </trkpt>
      <trkpt lat="43.53821" lon="2.94038">
        <ele>573</ele>
        <time>2019-03-03T09:51:16Z</time>
      </trkpt>
      <trkpt lat="43.53819" lon="2.9404">
        <ele>573</ele>
        <time>2019-03-03T09:51:17Z</time>
      </trkpt>
      <trkpt lat="43.53817" lon="2.94041">
        <ele>573</ele>
        <time>2019-03-03T09:51:18Z</time>
      </trkpt>
      <trkpt lat="43.53815" lon="2.94042">
        <ele>574</ele>
        <time>2019-03-03T09:51:19Z</time>
      </trkpt>
      <trkpt lat="43.53813" lon="2.94043">
        <ele>574</ele>
        <time>2019-03-03T09:51:20Z</time>
      </trkpt>
      <trkpt lat="43.53811" lon="2.94045">
        <ele>574</ele>
        <time>2019-03-03T09:51:21Z</time>
      </trkpt>
      <trkpt lat="43.53809" lon="2.94046">
        <ele>574</ele>
        <time>2019-03-03T09:51:22Z</time>
      </trkpt>
      <trkpt lat="43.53807" lon="2.94047">
        <ele>574</ele>
        <time>2019-03-03T09:51:23Z</time>
      </trkpt>
      <trkpt lat="43.53804" lon="2.94048">
        <ele>575</ele>
        <time>2019-03-03T09:51:24Z</time>
      </trkpt>
      <trkpt lat="43.53802" lon="2.94048">
        <ele>575</ele>
        <time>2019-03-03T09:51:25Z</time>
      </trkpt>
      <trkpt lat="43.53801" lon="2.94049">
        <ele>575</ele>
        <time>2019-03-03T09:51:26Z</time>
      </trkpt>
      <trkpt lat="43.53799" lon="2.94051">
        <ele>575</ele>
        <time>2019-03-03T09:51:27Z</time>
      </trkpt>
      <trkpt lat="43.53797" lon="2.94052">
        <ele>576</ele>
        <time>2019-03-03T09:51:28Z</time>
      </trkpt>
      <trkpt lat="43.53795" lon="2.94053">
        <ele>576</ele>
        <time>2019-03-03T09:51:29Z</time>
      </trkpt>
      <trkpt lat="43.53793" lon="2.94054">
        <ele>576</ele>
        <time>2019-03-03T09:51:30Z</time>
      </trkpt>
      <trkpt lat="43.53791" lon="2.94055">
        <ele>576</ele>
        <time>2019-03-03T09:51:31Z</time>
      </trkpt>
      <trkpt lat="43.53789" lon="2.94055">
        <ele>576</ele>
        <time>2019-03-03T09:51:32Z</time>
      </trkpt>
      <trkpt lat="43.53787" lon="2.94056">
        <ele>576</ele>
        <time>2019-03-03T09:51:33Z</time>
      </trkpt>
      <trkpt lat="43.53785" lon="2.94057">
        <ele>577</ele>
        <time>2019-03-03T09:51:34Z</time>
      </trkpt>
      <trkpt lat="43.53783" lon="2.94058">
        <ele>577</ele>
        <time>2019-03-03T09:51:35Z</time>
      </trkpt>
      <trkpt lat="43.53781" lon="2.94059">
        <ele>577</ele>
        <time>2019-03-03T09:51:36Z</time>
      </trkpt>
      <trkpt lat="43.53779" lon="2.9406">
        <ele>578</ele>
        <time>2019-03-03T09:51:37Z</time>
      </trkpt>
      <trkpt lat="43.53777" lon="2.94061">
        <ele>578</ele>
        <time>2019-03-03T09:51:38Z</time>
      </trkpt>
      <trkpt lat="43.53775" lon="2.94062">
        <ele>578</ele>
        <time>2019-03-03T09:51:39Z</time>
      </trkpt>
      <trkpt lat="43.53773" lon="2.94063">
        <ele>578</ele>
        <time>2019-03-03T09:51:40Z</time>
      </trkpt>
      <trkpt lat="43.53771" lon="2.94064">
        <ele>579</ele>
        <time>2019-03-03T09:51:41Z</time>
      </trkpt>
      <trkpt lat="43.53769" lon="2.94065">
        <ele>579</ele>
        <time>2019-03-03T09:51:42Z</time>
      </trkpt>
      <trkpt lat="43.53767" lon="2.94066">
        <ele>579</ele>
        <time>2019-03-03T09:51:43Z</time>
      </trkpt>
      <trkpt lat="43.53764" lon="2.94067">
        <ele>579</ele>
        <time>2019-03-03T09:51:44Z</time>
      </trkpt>
      <trkpt lat="43.53762" lon="2.94068">
        <ele>579</ele>
        <time>2019-03-03T09:51:45Z</time>
      </trkpt>
      <trkpt lat="43.5376" lon="2.9407">
        <ele>580</ele>
        <time>2019-03-03T09:51:46Z</time>
      </trkpt>
      <trkpt lat="43.53759" lon="2.94071">
        <ele>580</ele>
        <time>2019-03-03T09:51:47Z</time>
      </trkpt>
      <trkpt lat="43.53757" lon="2.94073">
        <ele>580</ele>
        <time>2019-03-03T09:51:48Z</time>
      </trkpt>
      <trkpt lat="43.53755" lon="2.94074">
        <ele>580</ele>
        <time>2019-03-03T09:51:49Z</time>
      </trkpt>
      <trkpt lat="43.53753" lon="2.94076">
        <ele>581</ele>
        <time>2019-03-03T09:51:50Z</time>
      </trkpt>
      <trkpt lat="43.53752" lon="2.94078">
        <ele>581</ele>
        <time>2019-03-03T09:51:51Z</time>
      </trkpt>
      <trkpt lat="43.5375" lon="2.94081">
        <ele>581</ele>
        <time>2019-03-03T09:51:52Z</time>
      </trkpt>
      <trkpt lat="43.53749" lon="2.94083">
        <ele>581</ele>
        <time>2019-03-03T09:51:53Z</time>
      </trkpt>
      <trkpt lat="43.53748" lon="2.94085">
        <ele>582</ele>
        <time>2019-03-03T09:51:54Z</time>
      </trkpt>
      <trkpt lat="43.53747" lon="2.94088">
        <ele>582</ele>
        <time>2019-03-03T09:51:55Z</time>
      </trkpt>
      <trkpt lat="43.53745" lon="2.9409">
        <ele>582</ele>
        <time>2019-03-03T09:51:56Z</time>
      </trkpt>
      <trkpt lat="43.53744" lon="2.94093">
        <ele>582</ele>
        <time>2019-03-03T09:51:57Z</time>
      </trkpt>
      <trkpt lat="43.53743" lon="2.94095">
        <ele>583</ele>
        <time>2019-03-03T09:51:58Z</time>
      </trkpt>
      <trkpt lat="43.53743" lon="2.94098">
        <ele>583</ele>
        <time>2019-03-03T09:51:59Z</time>
      </trkpt>
      <trkpt lat="43.53742" lon="2.94101">
        <ele>583</ele>
        <time>2019-03-03T09:52:00Z</time>
      </trkpt>
      <trkpt lat="43.53742" lon="2.94104">
        <ele>583</ele>
        <time>2019-03-03T09:52:01Z</time>
      </trkpt>
      <trkpt lat="43.53741" lon="2.94106">
        <ele>583</ele>
        <time>2019-03-03T09:52:02Z</time>
      </trkpt>
      <trkpt lat="43.53741" lon="2.94109">
        <ele>583</ele>
        <time>2019-03-03T09:52:03Z</time>
      </trkpt>
      <trkpt lat="43.53741" lon="2.94112">
        <ele>584</ele>
        <time>2019-03-03T09:52:04Z</time>
      </trkpt>
      <trkpt lat="43.53741" lon="2.94115">
        <ele>584</ele>
        <time>2019-03-03T09:52:05Z</time>
      </trkpt>
      <trkpt lat="43.53741" lon="2.94118">
        <ele>584</ele>
        <time>2019-03-03T09:52:06Z</time>
      </trkpt>
      <trkpt lat="43.53741" lon="2.9412">
        <ele>584</ele>
        <time>2019-03-03T09:52:07Z</time>
      </trkpt>
      <trkpt lat="43.5374" lon="2.94123">
        <ele>584</ele>
        <time>2019-03-03T09:52:08Z</time>
      </trkpt>
      <trkpt lat="43.5374" lon="2.94126">
        <ele>585</ele>
        <time>2019-03-03T09:52:09Z</time>
      </trkpt>
      <trkpt lat="43.5374" lon="2.94129">
        <ele>585</ele>
        <time>2019-03-03T09:52:10Z</time>
      </trkpt>
      <trkpt lat="43.53739" lon="2.94132">
        <ele>585</ele>
        <time>2019-03-03T09:52:11Z</time>
      </trkpt>
      <trkpt lat="43.53739" lon="2.94135">
        <ele>585</ele>
        <time>2019-03-03T09:52:12Z</time>
      </trkpt>
      <trkpt lat="43.53738" lon="2.94137">
        <ele>586</ele>
        <time>2019-03-03T09:52:13Z</time>
      </trkpt>
      <trkpt lat="43.53736" lon="2.9414">
        <ele>586</ele>
        <time>2019-03-03T09:52:14Z</time>
      </trkpt>
      <trkpt lat="43.53735" lon="2.94142">
        <ele>586</ele>
        <time>2019-03-03T09:52:15Z</time>
      </trkpt>
      <trkpt lat="43.53733" lon="2.94144">
        <ele>586</ele>
        <time>2019-03-03T09:52:16Z</time>
      </trkpt>
      <trkpt lat="43.53731" lon="2.94145">
        <ele>587</ele>
        <time>2019-03-03T09:52:17Z</time>
      </trkpt>
      <trkpt lat="43.53729" lon="2.94145">
        <ele>587</ele>
        <time>2019-03-03T09:52:18Z</time>
      </trkpt>
      <trkpt lat="43.53726" lon="2.94146">
        <ele>587</ele>
        <time>2019-03-03T09:52:19Z</time>
      </trkpt>
      <trkpt lat="43.53724" lon="2.94145">
        <ele>588</ele>
        <time>2019-03-03T09:52:20Z</time>
      </trkpt>
      <trkpt lat="43.53722" lon="2.94145">
        <ele>588</ele>
        <time>2019-03-03T09:52:21Z</time>
      </trkpt>
      <trkpt lat="43.5372" lon="2.94144">
        <ele>588</ele>
        <time>2019-03-03T09:52:22Z</time>
      </trkpt>
      <trkpt lat="43.53717" lon="2.94143">
        <ele>588</ele>
        <time>2019-03-03T09:52:23Z</time>
      </trkpt>
      <trkpt lat="43.53715" lon="2.94143">
        <ele>588</ele>
        <time>2019-03-03T09:52:24Z</time>
      </trkpt>
      <trkpt lat="43.53713" lon="2.94142">
        <ele>589</ele>
        <time>2019-03-03T09:52:25Z</time>
      </trkpt>
      <trkpt lat="43.53711" lon="2.94142">
        <ele>589</ele>
        <time>2019-03-03T09:52:26Z</time>
      </trkpt>
      <trkpt lat="43.53709" lon="2.94141">
        <ele>589</ele>
        <time>2019-03-03T09:52:27Z</time>
      </trkpt>
      <trkpt lat="43.53707" lon="2.94141">
        <ele>590</ele>
        <time>2019-03-03T09:52:28Z</time>
      </trkpt>
      <trkpt lat="43.53704" lon="2.94141">
        <ele>590</ele>
        <time>2019-03-03T09:52:29Z</time>
      </trkpt>
      <trkpt lat="43.53702" lon="2.94141">
        <ele>590</ele>
        <time>2019-03-03T09:52:30Z</time>
      </trkpt>
      <trkpt lat="43.537" lon="2.94141">
        <ele>590</ele>
        <time>2019-03-03T09:52:31Z</time>
      </trkpt>
      <trkpt lat="43.53698" lon="2.94141">
        <ele>591</ele>
        <time>2019-03-03T09:52:32Z</time>
      </trkpt>
      <trkpt lat="43.53696" lon="2.94142">
        <ele>591</ele>
        <time>2019-03-03T09:52:33Z</time>
      </trkpt>
      <trkpt lat="43.53694" lon="2.94142">
        <ele>591</ele>
        <time>2019-03-03T09:52:34Z</time>
      </trkpt>
      <trkpt lat="43.53692" lon="2.94142">
        <ele>591</ele>
        <time>2019-03-03T09:52:35Z</time>
      </trkpt>
      <trkpt lat="43.5369" lon="2.94142">
        <ele>592</ele>
        <time>2019-03-03T09:52:36Z</time>
      </trkpt>
      <trkpt lat="43.53687" lon="2.94142">
        <ele>592</ele>
        <time>2019-03-03T09:52:37Z</time>
      </trkpt>
      <trkpt lat="43.53685" lon="2.94142">
        <ele>592</ele>
        <time>2019-03-03T09:52:38Z</time>
      </trkpt>
      <trkpt lat="43.53683" lon="2.94141">
        <ele>592</ele>
        <time>2019-03-03T09:52:39Z</time>
      </trkpt>
      <trkpt lat="43.53681" lon="2.94139">
        <ele>593</ele>
        <time>2019-03-03T09:52:40Z</time>
      </trkpt>
      <trkpt lat="43.53679" lon="2.94138">
        <ele>593</ele>
        <time>2019-03-03T09:52:41Z</time>
      </trkpt>
      <trkpt lat="43.53677" lon="2.94136">
        <ele>593</ele>
        <time>2019-03-03T09:52:42Z</time>
      </trkpt>
      <trkpt lat="43.53675" lon="2.94134">
        <ele>593</ele>
        <time>2019-03-03T09:52:43Z</time>
      </trkpt>
      <trkpt lat="43.53674" lon="2.94131">
        <ele>593</ele>
        <time>2019-03-03T09:52:44Z</time>
      </trkpt>
      <trkpt lat="43.53672" lon="2.94129">
        <ele>594</ele>
        <time>2019-03-03T09:52:45Z</time>
      </trkpt>
      <trkpt lat="43.53671" lon="2.94126">
        <ele>594</ele>
        <time>2019-03-03T09:52:46Z</time>
      </trkpt>
      <trkpt lat="43.5367" lon="2.94124">
        <ele>594</ele>
        <time>2019-03-03T09:52:47Z</time>
      </trkpt>
      <trkpt lat="43.53668" lon="2.94121">
        <ele>594</ele>
        <time>2019-03-03T09:52:48Z</time>
      </trkpt>
      <trkpt lat="43.53667" lon="2.94119">
        <ele>594</ele>
        <time>2019-03-03T09:52:49Z</time>
      </trkpt>
      <trkpt lat="43.53666" lon="2.94116">
        <ele>594</ele>
        <time>2019-03-03T09:52:50Z</time>
      </trkpt>
      <trkpt lat="43.53664" lon="2.94114">
        <ele>595</ele>
        <time>2019-03-03T09:52:51Z</time>
      </trkpt>
      <trkpt lat="43.53663" lon="2.94111">
        <ele>595</ele>
        <time>2019-03-03T09:52:52Z</time>
      </trkpt>
      <trkpt lat="43.53661" lon="2.94109">
        <ele>595</ele>
        <time>2019-03-03T09:52:53Z</time>
      </trkpt>
      <trkpt lat="43.53659" lon="2.94107">
        <ele>595</ele>
        <time>2019-03-03T09:52:54Z</time>
      </trkpt>
      <trkpt lat="43.53658" lon="2.94104">
        <ele>595</ele>
        <time>2019-03-03T09:52:55Z</time>
      </trkpt>
      <trkpt lat="43.53657" lon="2.94102">
        <ele>596</ele>
        <time>2019-03-03T09:52:56Z</time>
      </trkpt>
      <trkpt lat="43.53655" lon="2.94099">
        <ele>596</ele>
        <time>2019-03-03T09:52:57Z</time>
      </trkpt>
      <trkpt lat="43.53653" lon="2.94097">
        <ele>596</ele>
        <time>2019-03-03T09:52:58Z</time>
      </trkpt>
      <trkpt lat="43.53652" lon="2.94095">
        <ele>596</ele>
        <time>2019-03-03T09:52:59Z</time>
      </trkpt>
      <trkpt lat="43.5365" lon="2.94093">
        <ele>597</ele>
        <time>2019-03-03T09:53:00Z</time>
      </trkpt>
      <trkpt lat="43.53648" lon="2.94091">
        <ele>597</ele>
        <time>2019-03-03T09:53:01Z</time>
      </trkpt>
      <trkpt lat="43.53646" lon="2.9409">
        <ele>597</ele>
        <time>2019-03-03T09:53:02Z</time>
      </trkpt>
      <trkpt lat="43.53645" lon="2.94088">
        <ele>597</ele>
        <time>2019-03-03T09:53:03Z</time>
      </trkpt>
      <trkpt lat="43.53643" lon="2.94086">
        <ele>597</ele>
        <time>2019-03-03T09:53:04Z</time>
      </trkpt>
      <trkpt lat="43.53641" lon="2.94084">
        <ele>598</ele>
        <time>2019-03-03T09:53:05Z</time>
      </trkpt>
      <trkpt lat="43.53639" lon="2.94083">
        <ele>598</ele>
        <time>2019-03-03T09:53:06Z</time>
      </trkpt>
      <trkpt lat="43.53637" lon="2.94081">
        <ele>598</ele>
        <time>2019-03-03T09:53:07Z</time>
      </trkpt>
      <trkpt lat="43.53635" lon="2.94079">
        <ele>598</ele>
        <time>2019-03-03T09:53:08Z</time>
      </trkpt>
      <trkpt lat="43.53634" lon="2.94077">
        <ele>598</ele>
        <time>2019-03-03T09:53:09Z</time>
      </trkpt>
      <trkpt lat="43.53632" lon="2.94075">
        <ele>599</ele>
        <time>2019-03-03T09:53:10Z</time>
      </trkpt>
      <trkpt lat="43.5363" lon="2.94074">
        <ele>599</ele>
        <time>2019-03-03T09:53:11Z</time>
      </trkpt>
      <trkpt lat="43.53628" lon="2.94073">
        <ele>599</ele>
        <time>2019-03-03T09:53:12Z</time>
      </trkpt>
      <trkpt lat="43.53626" lon="2.94071">
        <ele>599</ele>
        <time>2019-03-03T09:53:13Z</time>
      </trkpt>
      <trkpt lat="43.53624" lon="2.9407">
        <ele>599</ele>
        <time>2019-03-03T09:53:14Z</time>
      </trkpt>
      <trkpt lat="43.53622" lon="2.94068">
        <ele>600</ele>
        <time>2019-03-03T09:53:15Z</time>
      </trkpt>
      <trkpt lat="43.5362" lon="2.94067">
        <ele>600</ele>
        <time>2019-03-03T09:53:16Z</time>
      </trkpt>
      <trkpt lat="43.53619" lon="2.94065">
        <ele>600</ele>
        <time>2019-03-03T09:53:17Z</time>
      </trkpt>
      <trkpt lat="43.53617" lon="2.94064">
        <ele>601</ele>
        <time>2019-03-03T09:53:18Z</time>
      </trkpt>
      <trkpt lat="43.53614" lon="2.94063">
        <ele>601</ele>
        <time>2019-03-03T09:53:19Z</time>
      </trkpt>
      <trkpt lat="43.53612" lon="2.94062">
        <ele>601</ele>
        <time>2019-03-03T09:53:20Z</time>
      </trkpt>
      <trkpt lat="43.5361" lon="2.94061">
        <ele>601</ele>
        <time>2019-03-03T09:53:21Z</time>
      </trkpt>
      <trkpt lat="43.53608" lon="2.94059">
        <ele>601</ele>
        <time>2019-03-03T09:53:22Z</time>
      </trkpt>
      <trkpt lat="43.53607" lon="2.94058">
        <ele>602</ele>
        <time>2019-03-03T09:53:23Z</time>
      </trkpt>
      <trkpt lat="43.53605" lon="2.94057">
        <ele>602</ele>
        <time>2019-03-03T09:53:24Z</time>
      </trkpt>
      <trkpt lat="43.53603" lon="2.94055">
        <ele>602</ele>
        <time>2019-03-03T09:53:25Z</time>
      </trkpt>
      <trkpt lat="43.53602" lon="2.94054">
        <ele>602</ele>
        <time>2019-03-03T09:53:26Z</time>
      </trkpt>
      <trkpt lat="43.536" lon="2.94053">
        <ele>602</ele>
        <time>2019-03-03T09:53:27Z</time>
      </trkpt>
      <trkpt lat="43.53598" lon="2.94052">
        <ele>603</ele>
        <time>2019-03-03T09:53:28Z</time>
      </trkpt>
      <trkpt lat="43.53596" lon="2.94051">
        <ele>603</ele>
        <time>2019-03-03T09:53:29Z</time>
      </trkpt>
      <trkpt lat="43.53594" lon="2.9405">
        <ele>603</ele>
        <time>2019-03-03T09:53:30Z</time>
      </trkpt>
      <trkpt lat="43.53592" lon="2.94048">
        <ele>603</ele>
        <time>2019-03-03T09:53:31Z</time>
      </trkpt>
      <trkpt lat="43.5359" lon="2.94047">
        <ele>603</ele>
        <time>2019-03-03T09:53:32Z</time>
      </trkpt>
      <trkpt lat="43.53588" lon="2.94046">
        <ele>604</ele>
        <time>2019-03-03T09:53:33Z</time>
      </trkpt>
      <trkpt lat="43.53586" lon="2.94045">
        <ele>604</ele>
        <time>2019-03-03T09:53:34Z</time>
      </trkpt>
      <trkpt lat="43.53584" lon="2.94043">
        <ele>604</ele>
        <time>2019-03-03T09:53:35Z</time>
      </trkpt>
      <trkpt lat="43.53582" lon="2.94042">
        <ele>604</ele>
        <time>2019-03-03T09:53:36Z</time>
      </trkpt>
      <trkpt lat="43.5358" lon="2.94041">
        <ele>605</ele>
        <time>2019-03-03T09:53:37Z</time>
      </trkpt>
      <trkpt lat="43.53578" lon="2.9404">
        <ele>605</ele>
        <time>2019-03-03T09:53:38Z</time>
      </trkpt>
      <trkpt lat="43.53576" lon="2.94039">
        <ele>605</ele>
        <time>2019-03-03T09:53:39Z</time>
      </trkpt>
      <trkpt lat="43.53574" lon="2.94037">
        <ele>605</ele>
        <time>2019-03-03T09:53:40Z</time>
      </trkpt>
      <trkpt lat="43.53572" lon="2.94036">
        <ele>605</ele>
        <time>2019-03-03T09:53:41Z</time>
      </trkpt>
      <trkpt lat="43.5357" lon="2.94034">
        <ele>606</ele>
        <time>2019-03-03T09:53:42Z</time>
      </trkpt>
      <trkpt lat="43.53569" lon="2.94033">
        <ele>606</ele>
        <time>2019-03-03T09:53:43Z</time>
      </trkpt>
      <trkpt lat="43.53567" lon="2.94032">
        <ele>606</ele>
        <time>2019-03-03T09:53:44Z</time>
      </trkpt>
      <trkpt lat="43.53565" lon="2.9403">
        <ele>606</ele>
        <time>2019-03-03T09:53:45Z</time>
      </trkpt>
      <trkpt lat="43.53563" lon="2.94029">
        <ele>607</ele>
        <time>2019-03-03T09:53:46Z</time>
      </trkpt>
      <trkpt lat="43.53562" lon="2.94028">
        <ele>607</ele>
        <time>2019-03-03T09:53:47Z</time>
      </trkpt>
      <trkpt lat="43.5356" lon="2.94027">
        <ele>607</ele>
        <time>2019-03-03T09:53:48Z</time>
      </trkpt>
      <trkpt lat="43.53558" lon="2.94026">
        <ele>607</ele>
        <time>2019-03-03T09:53:49Z</time>
      </trkpt>
      <trkpt lat="43.53555" lon="2.94025">
        <ele>607</ele>
        <time>2019-03-03T09:53:50Z</time>
      </trkpt>
      <trkpt lat="43.53553" lon="2.94023">
        <ele>608</ele>
        <time>2019-03-03T09:53:51Z</time>
      </trkpt>
      <trkpt lat="43.53551" lon="2.94022">
        <ele>608</ele>
        <time>2019-03-03T09:53:52Z</time>
      </trkpt>
      <trkpt lat="43.5355" lon="2.94021">
        <ele>608</ele>
        <time>2019-03-03T09:53:53Z</time>
      </trkpt>
      <trkpt lat="43.53548" lon="2.94019">
        <ele>608</ele>
        <time>2019-03-03T09:53:54Z</time>
      </trkpt>
      <trkpt lat="43.53546" lon="2.94018">
        <ele>608</ele>
        <time>2019-03-03T09:53:55Z</time>
      </trkpt>
      <trkpt lat="43.53544" lon="2.94018">
        <ele>609</ele>
        <time>2019-03-03T09:53:56Z</time>
      </trkpt>
      <trkpt lat="43.53542" lon="2.94017">
        <ele>609</ele>
        <time>2019-03-03T09:53:57Z</time>
      </trkpt>
      <trkpt lat="43.5354" lon="2.94017">
        <ele>609</ele>
        <time>2019-03-03T09:53:58Z</time>
      </trkpt>
      <trkpt lat="43.53538" lon="2.94016">
        <ele>609</ele>
        <time>2019-03-03T09:53:59Z</time>
      </trkpt>
      <trkpt lat="43.53536" lon="2.94017">
        <ele>609</ele>
        <time>2019-03-03T09:54:00Z</time>
      </trkpt>
      <trkpt lat="43.53534" lon="2.94017">
        <ele>610</ele>
        <time>2019-03-03T09:54:01Z</time>
      </trkpt>
      <trkpt lat="43.53532" lon="2.94016">
        <ele>610</ele>
        <time>2019-03-03T09:54:02Z</time>
      </trkpt>
      <trkpt lat="43.5353" lon="2.94015">
        <ele>610</ele>
        <time>2019-03-03T09:54:03Z</time>
      </trkpt>
      <trkpt lat="43.53527" lon="2.94015">
        <ele>610</ele>
        <time>2019-03-03T09:54:04Z</time>
      </trkpt>
      <trkpt lat="43.53525" lon="2.94014">
        <ele>610</ele>
        <time>2019-03-03T09:54:05Z</time>
      </trkpt>
      <trkpt lat="43.53524" lon="2.94012">
        <ele>610</ele>
        <time>2019-03-03T09:54:06Z</time>
      </trkpt>
      <trkpt lat="43.53522" lon="2.9401">
        <ele>611</ele>
        <time>2019-03-03T09:54:07Z</time>
      </trkpt>
      <trkpt lat="43.53521" lon="2.94008">
        <ele>611</ele>
        <time>2019-03-03T09:54:08Z</time>
      </trkpt>
      <trkpt lat="43.53519" lon="2.94006">
        <ele>611</ele>
        <time>2019-03-03T09:54:09Z</time>
      </trkpt>
      <trkpt lat="43.53517" lon="2.94004">
        <ele>611</ele>
        <time>2019-03-03T09:54:10Z</time>
      </trkpt>
      <trkpt lat="43.53516" lon="2.94002">
        <ele>611</ele>
        <time>2019-03-03T09:54:11Z</time>
      </trkpt>
      <trkpt lat="43.53514" lon="2.94">
        <ele>612</ele>
        <time>2019-03-03T09:54:12Z</time>
      </trkpt>
      <trkpt lat="43.53512" lon="2.93998">
        <ele>612</ele>
        <time>2019-03-03T09:54:13Z</time>
      </trkpt>
      <trkpt lat="43.53511" lon="2.93996">
        <ele>612</ele>
        <time>2019-03-03T09:54:14Z</time>
      </trkpt>
      <trkpt lat="43.53509" lon="2.93993">
        <ele>613</ele>
        <time>2019-03-03T09:54:15Z</time>
      </trkpt>
      <trkpt lat="43.53507" lon="2.93991">
        <ele>613</ele>
        <time>2019-03-03T09:54:16Z</time>
      </trkpt>
      <trkpt lat="43.53506" lon="2.93989">
        <ele>613</ele>
        <time>2019-03-03T09:54:17Z</time>
      </trkpt>
      <trkpt lat="43.53504" lon="2.93987">
        <ele>613</ele>
        <time>2019-03-03T09:54:18Z</time>
      </trkpt>
      <trkpt lat="43.53503" lon="2.93985">
        <ele>613</ele>
        <time>2019-03-03T09:54:19Z</time>
      </trkpt>
      <trkpt lat="43.53501" lon="2.93983">
        <ele>613</ele>
        <time>2019-03-03T09:54:20Z</time>
      </trkpt>
      <trkpt lat="43.535" lon="2.93981">
        <ele>613</ele>
        <time>2019-03-03T09:54:21Z</time>
      </trkpt>
      <trkpt lat="43.53498" lon="2.93979">
        <ele>614</ele>
        <time>2019-03-03T09:54:22Z</time>
      </trkpt>
      <trkpt lat="43.53497" lon="2.93977">
        <ele>614</ele>
        <time>2019-03-03T09:54:23Z</time>
      </trkpt>
      <trkpt lat="43.53495" lon="2.93976">
        <ele>614</ele>
        <time>2019-03-03T09:54:24Z</time>
      </trkpt>
      <trkpt lat="43.53494" lon="2.93974">
        <ele>614</ele>
        <time>2019-03-03T09:54:25Z</time>
      </trkpt>
      <trkpt lat="43.53492" lon="2.93973">
        <ele>614</ele>
        <time>2019-03-03T09:54:26Z</time>
      </trkpt>
      <trkpt lat="43.5349" lon="2.93973">
        <ele>614</ele>
        <time>2019-03-03T09:54:27Z</time>
      </trkpt>
      <trkpt lat="43.53488" lon="2.93974">
        <ele>614</ele>
        <time>2019-03-03T09:54:28Z</time>
      </trkpt>
      <trkpt lat="43.53486" lon="2.93974">
        <ele>614</ele>
        <time>2019-03-03T09:54:29Z</time>
      </trkpt>
      <trkpt lat="43.53484" lon="2.93975">
        <ele>615</ele>
        <time>2019-03-03T09:54:30Z</time>
      </trkpt>
      <trkpt lat="43.53481" lon="2.93976">
        <ele>615</ele>
        <time>2019-03-03T09:54:31Z</time>
      </trkpt>
      <trkpt lat="43.53479" lon="2.93977">
        <ele>615</ele>
        <time>2019-03-03T09:54:32Z</time>
      </trkpt>
      <trkpt lat="43.53478" lon="2.93979">
        <ele>615</ele>
        <time>2019-03-03T09:54:33Z</time>
      </trkpt>
      <trkpt lat="43.53476" lon="2.93981">
        <ele>615</ele>
        <time>2019-03-03T09:54:34Z</time>
      </trkpt>
      <trkpt lat="43.53474" lon="2.93984">
        <ele>615</ele>
        <time>2019-03-03T09:54:35Z</time>
      </trkpt>
      <trkpt lat="43.53473" lon="2.93986">
        <ele>615</ele>
        <time>2019-03-03T09:54:36Z</time>
      </trkpt>
      <trkpt lat="43.53472" lon="2.93989">
        <ele>615</ele>
        <time>2019-03-03T09:54:37Z</time>
      </trkpt>
      <trkpt lat="43.53472" lon="2.93993">
        <ele>615</ele>
        <time>2019-03-03T09:54:38Z</time>
      </trkpt>
      <trkpt lat="43.53473" lon="2.93996">
        <ele>615</ele>
        <time>2019-03-03T09:54:39Z</time>
      </trkpt>
      <trkpt lat="43.53473" lon="2.93999">
        <ele>615</ele>
        <time>2019-03-03T09:54:40Z</time>
      </trkpt>
      <trkpt lat="43.53474" lon="2.94002">
        <ele>616</ele>
        <time>2019-03-03T09:54:41Z</time>
      </trkpt>
      <trkpt lat="43.53474" lon="2.94005">
        <ele>616</ele>
        <time>2019-03-03T09:54:42Z</time>
      </trkpt>
      <trkpt lat="43.53475" lon="2.94007">
        <ele>616</ele>
        <time>2019-03-03T09:54:43Z</time>
      </trkpt>
      <trkpt lat="43.53476" lon="2.9401">
        <ele>616</ele>
        <time>2019-03-03T09:54:44Z</time>
      </trkpt>
      <trkpt lat="43.53477" lon="2.94013">
        <ele>616</ele>
        <time>2019-03-03T09:54:45Z</time>
      </trkpt>
      <trkpt lat="43.53478" lon="2.94016">
        <ele>616</ele>
        <time>2019-03-03T09:54:46Z</time>
      </trkpt>
      <trkpt lat="43.53479" lon="2.94018">
        <ele>616</ele>
        <time>2019-03-03T09:54:47Z</time>
      </trkpt>
      <trkpt lat="43.5348" lon="2.94021">
        <ele>616</ele>
        <time>2019-03-03T09:54:48Z</time>
      </trkpt>
      <trkpt lat="43.53481" lon="2.94023">
        <ele>616</ele>
        <time>2019-03-03T09:54:49Z</time>
      </trkpt>
      <trkpt lat="43.53482" lon="2.94026">
        <ele>617</ele>
        <time>2019-03-03T09:54:50Z</time>
      </trkpt>
      <trkpt lat="43.53483" lon="2.94028">
        <ele>617</ele>
        <time>2019-03-03T09:54:51Z</time>
      </trkpt>
      <trkpt lat="43.53484" lon="2.9403">
        <ele>617</ele>
        <time>2019-03-03T09:54:52Z</time>
      </trkpt>
      <trkpt lat="43.53486" lon="2.94033">
        <ele>617</ele>
        <time>2019-03-03T09:54:53Z</time>
      </trkpt>
      <trkpt lat="43.53487" lon="2.94036">
        <ele>617</ele>
        <time>2019-03-03T09:54:54Z</time>
      </trkpt>
      <trkpt lat="43.53488" lon="2.94038">
        <ele>618</ele>
        <time>2019-03-03T09:54:55Z</time>
      </trkpt>
      <trkpt lat="43.53489" lon="2.94041">
        <ele>618</ele>
        <time>2019-03-03T09:54:56Z</time>
      </trkpt>
      <trkpt lat="43.5349" lon="2.94043">
        <ele>618</ele>
        <time>2019-03-03T09:54:57Z</time>
      </trkpt>
      <trkpt lat="43.53491" lon="2.94045">
        <ele>619</ele>
        <time>2019-03-03T09:54:58Z</time>
      </trkpt>
      <trkpt lat="43.53492" lon="2.94048">
        <ele>619</ele>
        <time>2019-03-03T09:54:59Z</time>
      </trkpt>
      <trkpt lat="43.53493" lon="2.9405">
        <ele>619</ele>
        <time>2019-03-03T09:55:00Z</time>
      </trkpt>
      <trkpt lat="43.53494" lon="2.94052">
        <ele>619</ele>
        <time>2019-03-03T09:55:01Z</time>
      </trkpt>
      <trkpt lat="43.53496" lon="2.94054">
        <ele>619</ele>
        <time>2019-03-03T09:55:02Z</time>
      </trkpt>
      <trkpt lat="43.53497" lon="2.94056">
        <ele>620</ele>
        <time>2019-03-03T09:55:03Z</time>
      </trkpt>
      <trkpt lat="43.53499" lon="2.94058">
        <ele>620</ele>
        <time>2019-03-03T09:55:04Z</time>
      </trkpt>
      <trkpt lat="43.535" lon="2.9406">
        <ele>620</ele>
        <time>2019-03-03T09:55:05Z</time>
      </trkpt>
      <trkpt lat="43.53501" lon="2.94062">
        <ele>620</ele>
        <time>2019-03-03T09:55:06Z</time>
      </trkpt>
      <trkpt lat="43.53503" lon="2.94064">
        <ele>621</ele>
        <time>2019-03-03T09:55:07Z</time>
      </trkpt>
      <trkpt lat="43.53504" lon="2.94066">
        <ele>621</ele>
        <time>2019-03-03T09:55:08Z</time>
      </trkpt>
      <trkpt lat="43.53506" lon="2.94067">
        <ele>621</ele>
        <time>2019-03-03T09:55:09Z</time>
      </trkpt>
      <trkpt lat="43.53507" lon="2.94069">
        <ele>622</ele>
        <time>2019-03-03T09:55:10Z</time>
      </trkpt>
      <trkpt lat="43.53509" lon="2.94071">
        <ele>622</ele>
        <time>2019-03-03T09:55:11Z</time>
      </trkpt>
      <trkpt lat="43.5351" lon="2.94073">
        <ele>622</ele>
        <time>2019-03-03T09:55:12Z</time>
      </trkpt>
      <trkpt lat="43.53511" lon="2.94074">
        <ele>623</ele>
        <time>2019-03-03T09:55:13Z</time>
      </trkpt>
      <trkpt lat="43.53513" lon="2.94076">
        <ele>623</ele>
        <time>2019-03-03T09:55:14Z</time>
      </trkpt>
      <trkpt lat="43.53514" lon="2.94078">
        <ele>623</ele>
        <time>2019-03-03T09:55:15Z</time>
      </trkpt>
      <trkpt lat="43.53516" lon="2.94079">
        <ele>624</ele>
        <time>2019-03-03T09:55:16Z</time>
      </trkpt>
      <trkpt lat="43.53517" lon="2.94081">
        <ele>624</ele>
        <time>2019-03-03T09:55:17Z</time>
      </trkpt>
      <trkpt lat="43.53519" lon="2.94083">
        <ele>624</ele>
        <time>2019-03-03T09:55:18Z</time>
      </trkpt>
      <trkpt lat="43.5352" lon="2.94085">
        <ele>624</ele>
        <time>2019-03-03T09:55:19Z</time>
      </trkpt>
      <trkpt lat="43.53521" lon="2.94086">
        <ele>625</ele>
        <time>2019-03-03T09:55:20Z</time>
      </trkpt>
      <trkpt lat="43.53523" lon="2.94088">
        <ele>625</ele>
        <time>2019-03-03T09:55:21Z</time>
      </trkpt>
      <trkpt lat="43.53524" lon="2.9409">
        <ele>625</ele>
        <time>2019-03-03T09:55:22Z</time>
      </trkpt>
      <trkpt lat="43.53526" lon="2.94091">
        <ele>626</ele>
        <time>2019-03-03T09:55:23Z</time>
      </trkpt>
      <trkpt lat="43.53527" lon="2.94093">
        <ele>626</ele>
        <time>2019-03-03T09:55:24Z</time>
      </trkpt>
      <trkpt lat="43.53529" lon="2.94095">
        <ele>626</ele>
        <time>2019-03-03T09:55:25Z</time>
      </trkpt>
      <trkpt lat="43.5353" lon="2.94097">
        <ele>627</ele>
        <time>2019-03-03T09:55:26Z</time>
      </trkpt>
      <trkpt lat="43.53532" lon="2.94099">
        <ele>627</ele>
        <time>2019-03-03T09:55:27Z</time>
      </trkpt>
      <trkpt lat="43.53533" lon="2.94101">
        <ele>627</ele>
        <time>2019-03-03T09:55:28Z</time>
      </trkpt>
      <trkpt lat="43.53534" lon="2.94103">
        <ele>627</ele>
        <time>2019-03-03T09:55:29Z</time>
      </trkpt>
      <trkpt lat="43.53535" lon="2.94104">
        <ele>628</ele>
        <time>2019-03-03T09:55:30Z</time>
      </trkpt>
      <trkpt lat="43.53537" lon="2.94106">
        <ele>628</ele>
        <time>2019-03-03T09:55:31Z</time>
      </trkpt>
      <trkpt lat="43.53538" lon="2.94108">
        <ele>628</ele>
        <time>2019-03-03T09:55:32Z</time>
      </trkpt>
      <trkpt lat="43.53539" lon="2.9411">
        <ele>628</ele>
        <time>2019-03-03T09:55:33Z</time>
      </trkpt>
      <trkpt lat="43.53541" lon="2.94112">
        <ele>628</ele>
        <time>2019-03-03T09:55:34Z</time>
      </trkpt>
      <trkpt lat="43.53542" lon="2.94114">
        <ele>629</ele>
        <time>2019-03-03T09:55:35Z</time>
      </trkpt>
      <trkpt lat="43.53543" lon="2.94116">
        <ele>629</ele>
        <time>2019-03-03T09:55:36Z</time>
      </trkpt>
      <trkpt lat="43.53545" lon="2.94117">
        <ele>629</ele>
        <time>2019-03-03T09:55:37Z</time>
      </trkpt>
      <trkpt lat="43.53546" lon="2.9412">
        <ele>629</ele>
        <time>2019-03-03T09:55:38Z</time>
      </trkpt>
      <trkpt lat="43.53547" lon="2.94122">
        <ele>630</ele>
        <time>2019-03-03T09:55:39Z</time>
      </trkpt>
      <trkpt lat="43.53548" lon="2.94124">
        <ele>630</ele>
        <time>2019-03-03T09:55:40Z</time>
      </trkpt>
      <trkpt lat="43.53549" lon="2.94126">
        <ele>630</ele>
        <time>2019-03-03T09:55:41Z</time>
      </trkpt>
      <trkpt lat="43.5355" lon="2.94128">
        <ele>631</ele>
        <time>2019-03-03T09:55:42Z</time>
      </trkpt>
      <trkpt lat="43.53552" lon="2.9413">
        <ele>631</ele>
        <time>2019-03-03T09:55:43Z</time>
      </trkpt>
      <trkpt lat="43.53553" lon="2.94132">
        <ele>631</ele>
        <time>2019-03-03T09:55:44Z</time>
      </trkpt>
      <trkpt lat="43.53554" lon="2.94134">
        <ele>631</ele>
        <time>2019-03-03T09:55:45Z</time>
      </trkpt>
      <trkpt lat="43.53555" lon="2.94136">
        <ele>632</ele>
        <time>2019-03-03T09:55:46Z</time>
      </trkpt>
      <trkpt lat="43.53556" lon="2.94138">
        <ele>632</ele>
        <time>2019-03-03T09:55:47Z</time>
      </trkpt>
      <trkpt lat="43.53557" lon="2.9414">
        <ele>632</ele>
        <time>2019-03-03T09:55:48Z</time>
      </trkpt>
      <trkpt lat="43.53558" lon="2.94142">
        <ele>632</ele>
        <time>2019-03-03T09:55:49Z</time>
      </trkpt>
      <trkpt lat="43.53559" lon="2.94144">
        <ele>632</ele>
        <time>2019-03-03T09:55:50Z</time>
      </trkpt>
      <trkpt lat="43.5356" lon="2.94146">
        <ele>633</ele>
        <time>2019-03-03T09:55:51Z</time>
      </trkpt>
      <trkpt lat="43.53561" lon="2.94148">
        <ele>633</ele>
        <time>2019-03-03T09:55:52Z</time>
      </trkpt>
      <trkpt lat="43.53562" lon="2.9415">
        <ele>633</ele>
        <time>2019-03-03T09:55:53Z</time>
      </trkpt>
      <trkpt lat="43.53563" lon="2.94152">
        <ele>633</ele>
        <time>2019-03-03T09:55:54Z</time>
      </trkpt>
      <trkpt lat="43.53564" lon="2.94154">
        <ele>634</ele>
        <time>2019-03-03T09:55:55Z</time>
      </trkpt>
      <trkpt lat="43.53565" lon="2.94156">
        <ele>634</ele>
        <time>2019-03-03T09:55:56Z</time>
      </trkpt>
      <trkpt lat="43.53566" lon="2.94158">
        <ele>634</ele>
        <time>2019-03-03T09:55:57Z</time>
      </trkpt>
      <trkpt lat="43.53567" lon="2.9416">
        <ele>634</ele>
        <time>2019-03-03T09:55:58Z</time>
      </trkpt>
      <trkpt lat="43.53568" lon="2.94162">
        <ele>635</ele>
        <time>2019-03-03T09:55:59Z</time>
      </trkpt>
      <trkpt lat="43.53569" lon="2.94165">
        <ele>635</ele>
        <time>2019-03-03T09:56:00Z</time>
      </trkpt>
      <trkpt lat="43.53571" lon="2.94167">
        <ele>635</ele>
        <time>2019-03-03T09:56:01Z</time>
      </trkpt>
      <trkpt lat="43.53572" lon="2.94169">
        <ele>635</ele>
        <time>2019-03-03T09:56:02Z</time>
      </trkpt>
      <trkpt lat="43.53573" lon="2.94171">
        <ele>636</ele>
        <time>2019-03-03T09:56:03Z</time>
      </trkpt>
      <trkpt lat="43.53574" lon="2.94173">
        <ele>636</ele>
        <time>2019-03-03T09:56:04Z</time>
      </trkpt>
      <trkpt lat="43.53575" lon="2.94175">
        <ele>636</ele>
        <time>2019-03-03T09:56:05Z</time>
      </trkpt>
      <trkpt lat="43.53576" lon="2.94177">
        <ele>636</ele>
        <time>2019-03-03T09:56:06Z</time>
      </trkpt>
      <trkpt lat="43.53577" lon="2.94179">
        <ele>637</ele>
        <time>2019-03-03T09:56:07Z</time>
      </trkpt>
      <trkpt lat="43.53578" lon="2.94181">
        <ele>637</ele>
        <time>2019-03-03T09:56:08Z</time>
      </trkpt>
      <trkpt lat="43.53579" lon="2.94183">
        <ele>637</ele>
        <time>2019-03-03T09:56:09Z</time>
      </trkpt>
      <trkpt lat="43.5358" lon="2.94185">
        <ele>637</ele>
        <time>2019-03-03T09:56:10Z</time>
      </trkpt>
      <trkpt lat="43.5358" lon="2.94188">
        <ele>638</ele>
        <time>2019-03-03T09:56:11Z</time>
      </trkpt>
      <trkpt lat="43.53581" lon="2.9419">
        <ele>638</ele>
        <time>2019-03-03T09:56:12Z</time>
      </trkpt>
      <trkpt lat="43.53582" lon="2.94192">
        <ele>638</ele>
        <time>2019-03-03T09:56:13Z</time>
      </trkpt>
      <trkpt lat="43.53583" lon="2.94194">
        <ele>638</ele>
        <time>2019-03-03T09:56:14Z</time>
      </trkpt>
      <trkpt lat="43.53584" lon="2.94195">
        <ele>638</ele>
        <time>2019-03-03T09:56:15Z</time>
      </trkpt>
      <trkpt lat="43.53585" lon="2.94198">
        <ele>639</ele>
        <time>2019-03-03T09:56:16Z</time>
      </trkpt>
      <trkpt lat="43.53586" lon="2.942">
        <ele>639</ele>
        <time>2019-03-03T09:56:17Z</time>
      </trkpt>
      <trkpt lat="43.53586" lon="2.94202">
        <ele>639</ele>
        <time>2019-03-03T09:56:18Z</time>
      </trkpt>
      <trkpt lat="43.53587" lon="2.94204">
        <ele>640</ele>
        <time>2019-03-03T09:56:19Z</time>
      </trkpt>
      <trkpt lat="43.53587" lon="2.94207">
        <ele>640</ele>
        <time>2019-03-03T09:56:20Z</time>
      </trkpt>
      <trkpt lat="43.53588" lon="2.94209">
        <ele>640</ele>
        <time>2019-03-03T09:56:21Z</time>
      </trkpt>
      <trkpt lat="43.53588" lon="2.94211">
        <ele>640</ele>
        <time>2019-03-03T09:56:22Z</time>
      </trkpt>
      <trkpt lat="43.53589" lon="2.94214">
        <ele>641</ele>
        <time>2019-03-03T09:56:23Z</time>
      </trkpt>
      <trkpt lat="43.53589" lon="2.94216">
        <ele>641</ele>
        <time>2019-03-03T09:56:24Z</time>
      </trkpt>
      <trkpt lat="43.5359" lon="2.94217">
        <ele>641</ele>
        <time>2019-03-03T09:56:25Z</time>
      </trkpt>
      <trkpt lat="43.5359" lon="2.94219">
        <ele>642</ele>
        <time>2019-03-03T09:56:26Z</time>
      </trkpt>
      <trkpt lat="43.53591" lon="2.94222">
        <ele>642</ele>
        <time>2019-03-03T09:56:27Z</time>
      </trkpt>
      <trkpt lat="43.53592" lon="2.94224">
        <ele>642</ele>
        <time>2019-03-03T09:56:28Z</time>
      </trkpt>
      <trkpt lat="43.53593" lon="2.94226">
        <ele>643</ele>
        <time>2019-03-03T09:56:29Z</time>
      </trkpt>
      <trkpt lat="43.53593" lon="2.94228">
        <ele>643</ele>
        <time>2019-03-03T09:56:30Z</time>
      </trkpt>
      <trkpt lat="43.53594" lon="2.94231">
        <ele>643</ele>
        <time>2019-03-03T09:56:31Z</time>
      </trkpt>
      <trkpt lat="43.53594" lon="2.94233">
        <ele>643</ele>
        <time>2019-03-03T09:56:32Z</time>
      </trkpt>
      <trkpt lat="43.53595" lon="2.94235">
        <ele>643</ele>
        <time>2019-03-03T09:56:33Z</time>
      </trkpt>
      <trkpt lat="43.53596" lon="2.94237">
        <ele>644</ele>
        <time>2019-03-03T09:56:34Z</time>
      </trkpt>
      <trkpt lat="43.53596" lon="2.94239">
        <ele>644</ele>
        <time>2019-03-03T09:56:35Z</time>
      </trkpt>
      <trkpt lat="43.53597" lon="2.94241">
        <ele>644</ele>
        <time>2019-03-03T09:56:36Z</time>
      </trkpt>
      <trkpt lat="43.53598" lon="2.94244">
        <ele>644</ele>
        <time>2019-03-03T09:56:37Z</time>
      </trkpt>
      <trkpt lat="43.53598" lon="2.94246">
        <ele>645</ele>
        <time>2019-03-03T09:56:38Z</time>
      </trkpt>
      <trkpt lat="43.53599" lon="2.94248">
        <ele>645</ele>
        <time>2019-03-03T09:56:39Z</time>
      </trkpt>
      <trkpt lat="43.536" lon="2.9425">
        <ele>645</ele>
        <time>2019-03-03T09:56:40Z</time>
      </trkpt>
      <trkpt lat="43.53601" lon="2.94252">
        <ele>646</ele>
        <time>2019-03-03T09:56:41Z</time>
      </trkpt>
      <trkpt lat="43.53602" lon="2.94254">
        <ele>646</ele>
        <time>2019-03-03T09:56:42Z</time>
      </trkpt>
      <trkpt lat="43.53604" lon="2.94256">
        <ele>646</ele>
        <time>2019-03-03T09:56:43Z</time>
      </trkpt>
      <trkpt lat="43.53604" lon="2.94258">
        <ele>646</ele>
        <time>2019-03-03T09:56:44Z</time>
      </trkpt>
      <trkpt lat="43.53605" lon="2.9426">
        <ele>647</ele>
        <time>2019-03-03T09:56:45Z</time>
      </trkpt>
      <trkpt lat="43.53607" lon="2.94261">
        <ele>647</ele>
        <time>2019-03-03T09:56:46Z</time>
      </trkpt>
      <trkpt lat="43.53608" lon="2.94263">
        <ele>647</ele>
        <time>2019-03-03T09:56:47Z</time>
      </trkpt>
      <trkpt lat="43.53609" lon="2.94265">
        <ele>647</ele>
        <time>2019-03-03T09:56:48Z</time>
      </trkpt>
      <trkpt lat="43.5361" lon="2.94266">
        <ele>647</ele>
        <time>2019-03-03T09:56:49Z</time>
      </trkpt>
      <trkpt lat="43.53611" lon="2.94268">
        <ele>648</ele>
        <time>2019-03-03T09:56:50Z</time>
      </trkpt>
      <trkpt lat="43.53613" lon="2.9427">
        <ele>648</ele>
        <time>2019-03-03T09:56:51Z</time>
      </trkpt>
      <trkpt lat="43.53614" lon="2.94272">
        <ele>648</ele>
        <time>2019-03-03T09:56:52Z</time>
      </trkpt>
      <trkpt lat="43.53616" lon="2.94273">
        <ele>649</ele>
        <time>2019-03-03T09:56:53Z</time>
      </trkpt>
      <trkpt lat="43.53617" lon="2.94275">
        <ele>649</ele>
        <time>2019-03-03T09:56:54Z</time>
      </trkpt>
      <trkpt lat="43.53619" lon="2.94277">
        <ele>649</ele>
        <time>2019-03-03T09:56:55Z</time>
      </trkpt>
      <trkpt lat="43.5362" lon="2.94278">
        <ele>649</ele>
        <time>2019-03-03T09:56:56Z</time>
      </trkpt>
      <trkpt lat="43.53621" lon="2.9428">
        <ele>649</ele>
        <time>2019-03-03T09:56:57Z</time>
      </trkpt>
      <trkpt lat="43.53623" lon="2.94282">
        <ele>650</ele>
        <time>2019-03-03T09:56:58Z</time>
      </trkpt>
      <trkpt lat="43.53624" lon="2.94283">
        <ele>650</ele>
        <time>2019-03-03T09:56:59Z</time>
      </trkpt>
      <trkpt lat="43.53626" lon="2.94285">
        <ele>650</ele>
        <time>2019-03-03T09:57:00Z</time>
      </trkpt>
      <trkpt lat="43.53627" lon="2.94286">
        <ele>650</ele>
        <time>2019-03-03T09:57:01Z</time>
      </trkpt>
      <trkpt lat="43.53628" lon="2.94288">
        <ele>651</ele>
        <time>2019-03-03T09:57:02Z</time>
      </trkpt>
      <trkpt lat="43.53629" lon="2.9429">
        <ele>651</ele>
        <time>2019-03-03T09:57:03Z</time>
      </trkpt>
      <trkpt lat="43.53631" lon="2.94292">
        <ele>651</ele>
        <time>2019-03-03T09:57:04Z</time>
      </trkpt>
      <trkpt lat="43.53632" lon="2.94293">
        <ele>651</ele>
        <time>2019-03-03T09:57:05Z</time>
      </trkpt>
      <trkpt lat="43.53633" lon="2.94295">
        <ele>652</ele>
        <time>2019-03-03T09:57:06Z</time>
      </trkpt>
      <trkpt lat="43.53635" lon="2.94296">
        <ele>652</ele>
        <time>2019-03-03T09:57:07Z</time>
      </trkpt>
      <trkpt lat="43.53636" lon="2.94298">
        <ele>652</ele>
        <time>2019-03-03T09:57:08Z</time>
      </trkpt>
      <trkpt lat="43.53637" lon="2.94299">
        <ele>653</ele>
        <time>2019-03-03T09:57:09Z</time>
      </trkpt>
      <trkpt lat="43.53639" lon="2.94301">
        <ele>653</ele>
        <time>2019-03-03T09:57:10Z</time>
      </trkpt>
      <trkpt lat="43.5364" lon="2.94303">
        <ele>653</ele>
        <time>2019-03-03T09:57:11Z</time>
      </trkpt>
      <trkpt lat="43.53641" lon="2.94305">
        <ele>653</ele>
        <time>2019-03-03T09:57:12Z</time>
      </trkpt>
      <trkpt lat="43.53643" lon="2.94307">
        <ele>654</ele>
        <time>2019-03-03T09:57:13Z</time>
      </trkpt>
      <trkpt lat="43.53644" lon="2.94308">
        <ele>654</ele>
        <time>2019-03-03T09:57:14Z</time>
      </trkpt>
      <trkpt lat="43.53646" lon="2.9431">
        <ele>654</ele>
        <time>2019-03-03T09:57:15Z</time>
      </trkpt>
      <trkpt lat="43.53647" lon="2.94312">
        <ele>654</ele>
        <time>2019-03-03T09:57:16Z</time>
      </trkpt>
      <trkpt lat="43.53649" lon="2.94313">
        <ele>655</ele>
        <time>2019-03-03T09:57:17Z</time>
      </trkpt>
      <trkpt lat="43.5365" lon="2.94315">
        <ele>655</ele>
        <time>2019-03-03T09:57:18Z</time>
      </trkpt>
      <trkpt lat="43.53651" lon="2.94317">
        <ele>655</ele>
        <time>2019-03-03T09:57:19Z</time>
      </trkpt>
      <trkpt lat="43.53653" lon="2.94319">
        <ele>656</ele>
        <time>2019-03-03T09:57:20Z</time>
      </trkpt>
      <trkpt lat="43.53654" lon="2.94321">
        <ele>656</ele>
        <time>2019-03-03T09:57:21Z</time>
      </trkpt>
      <trkpt lat="43.53655" lon="2.94322">
        <ele>656</ele>
        <time>2019-03-03T09:57:22Z</time>
      </trkpt>
      <trkpt lat="43.53657" lon="2.94324">
        <ele>656</ele>
        <time>2019-03-03T09:57:23Z</time>
      </trkpt>
      <trkpt lat="43.53658" lon="2.94326">
        <ele>657</ele>
        <time>2019-03-03T09:57:24Z</time>
      </trkpt>
      <trkpt lat="43.53659" lon="2.94327">
        <ele>657</ele>
        <time>2019-03-03T09:57:25Z</time>
      </trkpt>
      <trkpt lat="43.53661" lon="2.94329">
        <ele>657</ele>
        <time>2019-03-03T09:57:26Z</time>
      </trkpt>
      <trkpt lat="43.53662" lon="2.94331">
        <ele>657</ele>
        <time>2019-03-03T09:57:27Z</time>
      </trkpt>
      <trkpt lat="43.53663" lon="2.94332">
        <ele>658</ele>
        <time>2019-03-03T09:57:28Z</time>
      </trkpt>
      <trkpt lat="43.53664" lon="2.94334">
        <ele>658</ele>
        <time>2019-03-03T09:57:29Z</time>
      </trkpt>
      <trkpt lat="43.53665" lon="2.94336">
        <ele>658</ele>
        <time>2019-03-03T09:57:30Z</time>
      </trkpt>
      <trkpt lat="43.53666" lon="2.94338">
        <ele>658</ele>
        <time>2019-03-03T09:57:31Z</time>
      </trkpt>
      <trkpt lat="43.53668" lon="2.94339">
        <ele>658</ele>
        <time>2019-03-03T09:57:32Z</time>
      </trkpt>
      <trkpt lat="43.53669" lon="2.94341">
        <ele>659</ele>
        <time>2019-03-03T09:57:33Z</time>
      </trkpt>
      <trkpt lat="43.5367" lon="2.94342">
        <ele>659</ele>
        <time>2019-03-03T09:57:34Z</time>
      </trkpt>
      <trkpt lat="43.53672" lon="2.94344">
        <ele>660</ele>
        <time>2019-03-03T09:57:35Z</time>
      </trkpt>
      <trkpt lat="43.53673" lon="2.94345">
        <ele>660</ele>
        <time>2019-03-03T09:57:36Z</time>
      </trkpt>
      <trkpt lat="43.53675" lon="2.94347">
        <ele>660</ele>
        <time>2019-03-03T09:57:37Z</time>
      </trkpt>
      <trkpt lat="43.53676" lon="2.94349">
        <ele>661</ele>
        <time>2019-03-03T09:57:38Z</time>
      </trkpt>
      <trkpt lat="43.53677" lon="2.9435">
        <ele>661</ele>
        <time>2019-03-03T09:57:39Z</time>
      </trkpt>
      <trkpt lat="43.53679" lon="2.94352">
        <ele>661</ele>
        <time>2019-03-03T09:57:40Z</time>
      </trkpt>
      <trkpt lat="43.5368" lon="2.94353">
        <ele>661</ele>
        <time>2019-03-03T09:57:41Z</time>
      </trkpt>
      <trkpt lat="43.53681" lon="2.94355">
        <ele>662</ele>
        <time>2019-03-03T09:57:42Z</time>
      </trkpt>
      <trkpt lat="43.53682" lon="2.94357">
        <ele>662</ele>
        <time>2019-03-03T09:57:43Z</time>
      </trkpt>
      <trkpt lat="43.53683" lon="2.94359">
        <ele>662</ele>
        <time>2019-03-03T09:57:44Z</time>
      </trkpt>
      <trkpt lat="43.53685" lon="2.9436">
        <ele>662</ele>
        <time>2019-03-03T09:57:45Z</time>
      </trkpt>
      <trkpt lat="43.53686" lon="2.94362">
        <ele>663</ele>
        <time>2019-03-03T09:57:46Z</time>
      </trkpt>
      <trkpt lat="43.53687" lon="2.94364">
        <ele>663</ele>
        <time>2019-03-03T09:57:47Z</time>
      </trkpt>
      <trkpt lat="43.53688" lon="2.94365">
        <ele>663</ele>
        <time>2019-03-03T09:57:48Z</time>
      </trkpt>
      <trkpt lat="43.53689" lon="2.94367">
        <ele>663</ele>
        <time>2019-03-03T09:57:49Z</time>
      </trkpt>
      <trkpt lat="43.53691" lon="2.94369">
        <ele>664</ele>
        <time>2019-03-03T09:57:50Z</time>
      </trkpt>
      <trkpt lat="43.53692" lon="2.94371">
        <ele>664</ele>
        <time>2019-03-03T09:57:51Z</time>
      </trkpt>
      <trkpt lat="43.53693" lon="2.94372">
        <ele>664</ele>
        <time>2019-03-03T09:57:52Z</time>
      </trkpt>
      <trkpt lat="43.53694" lon="2.94374">
        <ele>664</ele>
        <time>2019-03-03T09:57:53Z</time>
      </trkpt>
      <trkpt lat="43.53695" lon="2.94376">
        <ele>665</ele>
        <time>2019-03-03T09:57:54Z</time>
      </trkpt>
      <trkpt lat="43.53696" lon="2.94378">
        <ele>665</ele>
        <time>2019-03-03T09:57:55Z</time>
      </trkpt>
      <trkpt lat="43.53697" lon="2.94379">
        <ele>665</ele>
        <time>2019-03-03T09:57:56Z</time>
      </trkpt>
      <trkpt lat="43.53699" lon="2.94381">
        <ele>665</ele>
        <time>2019-03-03T09:57:57Z</time>
      </trkpt>
      <trkpt lat="43.537" lon="2.94383">
        <ele>666</ele>
        <time>2019-03-03T09:57:58Z</time>
      </trkpt>
      <trkpt lat="43.53701" lon="2.94385">
        <ele>666</ele>
        <time>2019-03-03T09:57:59Z</time>
      </trkpt>
      <trkpt lat="43.53702" lon="2.94387">
        <ele>666</ele>
        <time>2019-03-03T09:58:00Z</time>
      </trkpt>
      <trkpt lat="43.53703" lon="2.94388">
        <ele>666</ele>
        <time>2019-03-03T09:58:01Z</time>
      </trkpt>
      <trkpt lat="43.53704" lon="2.9439">
        <ele>667</ele>
        <time>2019-03-03T09:58:02Z</time>
      </trkpt>
      <trkpt lat="43.53705" lon="2.94391">
        <ele>667</ele>
        <time>2019-03-03T09:58:03Z</time>
      </trkpt>
      <trkpt lat="43.53706" lon="2.94393">
        <ele>667</ele>
        <time>2019-03-03T09:58:04Z</time>
      </trkpt>
      <trkpt lat="43.53708" lon="2.94395">
        <ele>668</ele>
        <time>2019-03-03T09:58:05Z</time>
      </trkpt>
      <trkpt lat="43.53709" lon="2.94396">
        <ele>668</ele>
        <time>2019-03-03T09:58:06Z</time>
      </trkpt>
      <trkpt lat="43.5371" lon="2.94398">
        <ele>668</ele>
        <time>2019-03-03T09:58:07Z</time>
      </trkpt>
      <trkpt lat="43.53712" lon="2.94399">
        <ele>668</ele>
        <time>2019-03-03T09:58:08Z</time>
      </trkpt>
      <trkpt lat="43.53713" lon="2.94401">
        <ele>668</ele>
        <time>2019-03-03T09:58:09Z</time>
      </trkpt>
      <trkpt lat="43.53714" lon="2.94403">
        <ele>669</ele>
        <time>2019-03-03T09:58:10Z</time>
      </trkpt>
      <trkpt lat="43.53716" lon="2.94404">
        <ele>669</ele>
        <time>2019-03-03T09:58:11Z</time>
      </trkpt>
      <trkpt lat="43.53717" lon="2.94406">
        <ele>669</ele>
        <time>2019-03-03T09:58:12Z</time>
      </trkpt>
      <trkpt lat="43.53718" lon="2.94407">
        <ele>669</ele>
        <time>2019-03-03T09:58:13Z</time>
      </trkpt>
      <trkpt lat="43.53719" lon="2.94409">
        <ele>670</ele>
        <time>2019-03-03T09:58:14Z</time>
      </trkpt>
      <trkpt lat="43.5372" lon="2.9441">
        <ele>670</ele>
        <time>2019-03-03T09:58:15Z</time>
      </trkpt>
      <trkpt lat="43.53722" lon="2.94412">
        <ele>670</ele>
        <time>2019-03-03T09:58:16Z</time>
      </trkpt>
      <trkpt lat="43.53723" lon="2.94413">
        <ele>671</ele>
        <time>2019-03-03T09:58:17Z</time>
      </trkpt>
      <trkpt lat="43.53725" lon="2.94415">
        <ele>671</ele>
        <time>2019-03-03T09:58:18Z</time>
      </trkpt>
      <trkpt lat="43.53726" lon="2.94417">
        <ele>671</ele>
        <time>2019-03-03T09:58:19Z</time>
      </trkpt>
      <trkpt lat="43.53727" lon="2.94418">
        <ele>671</ele>
        <time>2019-03-03T09:58:20Z</time>
      </trkpt>
      <trkpt lat="43.53728" lon="2.9442">
        <ele>671</ele>
        <time>2019-03-03T09:58:21Z</time>
      </trkpt>
      <trkpt lat="43.5373" lon="2.94422">
        <ele>672</ele>
        <time>2019-03-03T09:58:22Z</time>
      </trkpt>
      <trkpt lat="43.53731" lon="2.94423">
        <ele>672</ele>
        <time>2019-03-03T09:58:23Z</time>
      </trkpt>
      <trkpt lat="43.53733" lon="2.94425">
        <ele>672</ele>
        <time>2019-03-03T09:58:24Z</time>
      </trkpt>
      <trkpt lat="43.53734" lon="2.94426">
        <ele>672</ele>
        <time>2019-03-03T09:58:25Z</time>
      </trkpt>
      <trkpt lat="43.53735" lon="2.94428">
        <ele>673</ele>
        <time>2019-03-03T09:58:26Z</time>
      </trkpt>
      <trkpt lat="43.53736" lon="2.9443">
        <ele>673</ele>
        <time>2019-03-03T09:58:27Z</time>
      </trkpt>
      <trkpt lat="43.53738" lon="2.94431">
        <ele>673</ele>
        <time>2019-03-03T09:58:28Z</time>
      </trkpt>
      <trkpt lat="43.53739" lon="2.94433">
        <ele>673</ele>
        <time>2019-03-03T09:58:29Z</time>
      </trkpt>
      <trkpt lat="43.5374" lon="2.94434">
        <ele>674</ele>
        <time>2019-03-03T09:58:30Z</time>
      </trkpt>
      <trkpt lat="43.53741" lon="2.94436">
        <ele>674</ele>
        <time>2019-03-03T09:58:31Z</time>
      </trkpt>
      <trkpt lat="43.53742" lon="2.94438">
        <ele>674</ele>
        <time>2019-03-03T09:58:32Z</time>
      </trkpt>
      <trkpt lat="43.53744" lon="2.94439">
        <ele>674</ele>
        <time>2019-03-03T09:58:33Z</time>
      </trkpt>
      <trkpt lat="43.53745" lon="2.94441">
        <ele>674</ele>
        <time>2019-03-03T09:58:34Z</time>
      </trkpt>
      <trkpt lat="43.53745" lon="2.94443">
        <ele>675</ele>
        <time>2019-03-03T09:58:35Z</time>
      </trkpt>
      <trkpt lat="43.53746" lon="2.94445">
        <ele>675</ele>
        <time>2019-03-03T09:58:36Z</time>
      </trkpt>
      <trkpt lat="43.53747" lon="2.94447">
        <ele>675</ele>
        <time>2019-03-03T09:58:37Z</time>
      </trkpt>
      <trkpt lat="43.53748" lon="2.94449">
        <ele>675</ele>
        <time>2019-03-03T09:58:38Z</time>
      </trkpt>
      <trkpt lat="43.5375" lon="2.9445">
        <ele>675</ele>
        <time>2019-03-03T09:58:39Z</time>
      </trkpt>
      <trkpt lat="43.53751" lon="2.94451">
        <ele>676</ele>
        <time>2019-03-03T09:58:40Z</time>
      </trkpt>
      <trkpt lat="43.53752" lon="2.94453">
        <ele>676</ele>
        <time>2019-03-03T09:58:41Z</time>
      </trkpt>
      <trkpt lat="43.53753" lon="2.94455">
        <ele>676</ele>
        <time>2019-03-03T09:58:42Z</time>
      </trkpt>
      <trkpt lat="43.53754" lon="2.94456">
        <ele>676</ele>
        <time>2019-03-03T09:58:43Z</time>
      </trkpt>
      <trkpt lat="43.53756" lon="2.94458">
        <ele>677</ele>
        <time>2019-03-03T09:58:44Z</time>
      </trkpt>
      <trkpt lat="43.53757" lon="2.9446">
        <ele>677</ele>
        <time>2019-03-03T09:58:45Z</time>
      </trkpt>
      <trkpt lat="43.53759" lon="2.94461">
        <ele>677</ele>
        <time>2019-03-03T09:58:46Z</time>
      </trkpt>
      <trkpt lat="43.5376" lon="2.94463">
        <ele>677</ele>
        <time>2019-03-03T09:58:47Z</time>
      </trkpt>
      <trkpt lat="43.53762" lon="2.94464">
        <ele>678</ele>
        <time>2019-03-03T09:58:48Z</time>
      </trkpt>
      <trkpt lat="43.53763" lon="2.94466">
        <ele>678</ele>
        <time>2019-03-03T09:58:49Z</time>
      </trkpt>
      <trkpt lat="43.53764" lon="2.94468">
        <ele>678</ele>
        <time>2019-03-03T09:58:50Z</time>
      </trkpt>
      <trkpt lat="43.53766" lon="2.94469">
        <ele>679</ele>
        <time>2019-03-03T09:58:51Z</time>
      </trkpt>
      <trkpt lat="43.53767" lon="2.94471">
        <ele>679</ele>
        <time>2019-03-03T09:58:52Z</time>
      </trkpt>
      <trkpt lat="43.53768" lon="2.94472">
        <ele>679</ele>
        <time>2019-03-03T09:58:53Z</time>
      </trkpt>
      <trkpt lat="43.5377" lon="2.94474">
        <ele>679</ele>
        <time>2019-03-03T09:58:54Z</time>
      </trkpt>
      <trkpt lat="43.53771" lon="2.94475">
        <ele>679</ele>
        <time>2019-03-03T09:58:55Z</time>
      </trkpt>
      <trkpt lat="43.53772" lon="2.94477">
        <ele>680</ele>
        <time>2019-03-03T09:58:56Z</time>
      </trkpt>
      <trkpt lat="43.53774" lon="2.94479">
        <ele>680</ele>
        <time>2019-03-03T09:58:57Z</time>
      </trkpt>
      <trkpt lat="43.53775" lon="2.9448">
        <ele>680</ele>
        <time>2019-03-03T09:58:58Z</time>
      </trkpt>
      <trkpt lat="43.53777" lon="2.94482">
        <ele>680</ele>
        <time>2019-03-03T09:58:59Z</time>
      </trkpt>
      <trkpt lat="43.53778" lon="2.94483">
        <ele>680</ele>
        <time>2019-03-03T09:59:00Z</time>
      </trkpt>
      <trkpt lat="43.53779" lon="2.94485">
        <ele>681</ele>
        <time>2019-03-03T09:59:01Z</time>
      </trkpt>
      <trkpt lat="43.53781" lon="2.94487">
        <ele>681</ele>
        <time>2019-03-03T09:59:02Z</time>
      </trkpt>
      <trkpt lat="43.53782" lon="2.94488">
        <ele>681</ele>
        <time>2019-03-03T09:59:03Z</time>
      </trkpt>
      <trkpt lat="43.53783" lon="2.9449">
        <ele>682</ele>
        <time>2019-03-03T09:59:04Z</time>
      </trkpt>
      <trkpt lat="43.53785" lon="2.94492">
        <ele>682</ele>
        <time>2019-03-03T09:59:05Z</time>
      </trkpt>
      <trkpt lat="43.53786" lon="2.94494">
        <ele>682</ele>
        <time>2019-03-03T09:59:06Z</time>
      </trkpt>
      <trkpt lat="43.53787" lon="2.94495">
        <ele>682</ele>
        <time>2019-03-03T09:59:07Z</time>
      </trkpt>
      <trkpt lat="43.53789" lon="2.94497">
        <ele>683</ele>
        <time>2019-03-03T09:59:08Z</time>
      </trkpt>
      <trkpt lat="43.5379" lon="2.94499">
        <ele>683</ele>
        <time>2019-03-03T09:59:09Z</time>
      </trkpt>
      <trkpt lat="43.53791" lon="2.945">
        <ele>683</ele>
        <time>2019-03-03T09:59:10Z</time>
      </trkpt>
      <trkpt lat="43.53793" lon="2.94502">
        <ele>683</ele>
        <time>2019-03-03T09:59:11Z</time>
      </trkpt>
      <trkpt lat="43.53794" lon="2.94504">
        <ele>683</ele>
        <time>2019-03-03T09:59:12Z</time>
      </trkpt>
      <trkpt lat="43.53795" lon="2.94505">
        <ele>684</ele>
        <time>2019-03-03T09:59:13Z</time>
      </trkpt>
      <trkpt lat="43.53797" lon="2.94507">
        <ele>684</ele>
        <time>2019-03-03T09:59:14Z</time>
      </trkpt>
      <trkpt lat="43.53798" lon="2.94509">
        <ele>684</ele>
        <time>2019-03-03T09:59:15Z</time>
      </trkpt>
      <trkpt lat="43.53799" lon="2.94511">
        <ele>684</ele>
        <time>2019-03-03T09:59:16Z</time>
      </trkpt>
      <trkpt lat="43.53801" lon="2.94513">
        <ele>684</ele>
        <time>2019-03-03T09:59:17Z</time>
      </trkpt>
      <trkpt lat="43.53802" lon="2.94514">
        <ele>685</ele>
        <time>2019-03-03T09:59:18Z</time>
      </trkpt>
      <trkpt lat="43.53803" lon="2.94516">
        <ele>685</ele>
        <time>2019-03-03T09:59:19Z</time>
      </trkpt>
      <trkpt lat="43.53804" lon="2.94518">
        <ele>685</ele>
        <time>2019-03-03T09:59:20Z</time>
      </trkpt>
      <trkpt lat="43.53806" lon="2.9452">
        <ele>685</ele>
        <time>2019-03-03T09:59:21Z</time>
      </trkpt>
      <trkpt lat="43.53807" lon="2.94522">
        <ele>686</ele>
        <time>2019-03-03T09:59:22Z</time>
      </trkpt>
      <trkpt lat="43.53809" lon="2.94524">
        <ele>686</ele>
        <time>2019-03-03T09:59:23Z</time>
      </trkpt>
      <trkpt lat="43.5381" lon="2.94526">
        <ele>686</ele>
        <time>2019-03-03T09:59:24Z</time>
      </trkpt>
      <trkpt lat="43.53811" lon="2.94527">
        <ele>686</ele>
        <time>2019-03-03T09:59:25Z</time>
      </trkpt>
      <trkpt lat="43.53813" lon="2.94529">
        <ele>686</ele>
        <time>2019-03-03T09:59:26Z</time>
      </trkpt>
      <trkpt lat="43.53814" lon="2.94531">
        <ele>687</ele>
        <time>2019-03-03T09:59:27Z</time>
      </trkpt>
      <trkpt lat="43.53815" lon="2.94533">
        <ele>687</ele>
        <time>2019-03-03T09:59:28Z</time>
      </trkpt>
      <trkpt lat="43.53817" lon="2.94534">
        <ele>687</ele>
        <time>2019-03-03T09:59:29Z</time>
      </trkpt>
      <trkpt lat="43.53818" lon="2.94536">
        <ele>687</ele>
        <time>2019-03-03T09:59:30Z</time>
      </trkpt>
      <trkpt lat="43.53819" lon="2.94538">
        <ele>688</ele>
        <time>2019-03-03T09:59:31Z</time>
      </trkpt>
      <trkpt lat="43.5382" lon="2.9454">
        <ele>688</ele>
        <time>2019-03-03T09:59:32Z</time>
      </trkpt>
      <trkpt lat="43.53822" lon="2.94542">
        <ele>688</ele>
        <time>2019-03-03T09:59:33Z</time>
      </trkpt>
      <trkpt lat="43.53823" lon="2.94544">
        <ele>688</ele>
        <time>2019-03-03T09:59:34Z</time>
      </trkpt>
      <trkpt lat="43.53824" lon="2.94545">
        <ele>689</ele>
        <time>2019-03-03T09:59:35Z</time>
      </trkpt>
      <trkpt lat="43.53826" lon="2.94547">
        <ele>689</ele>
        <time>2019-03-03T09:59:36Z</time>
      </trkpt>
      <trkpt lat="43.53827" lon="2.94549">
        <ele>689</ele>
        <time>2019-03-03T09:59:37Z</time>
      </trkpt>
      <trkpt lat="43.53829" lon="2.94551">
        <ele>689</ele>
        <time>2019-03-03T09:59:38Z</time>
      </trkpt>
      <trkpt lat="43.5383" lon="2.94552">
        <ele>690</ele>
        <time>2019-03-03T09:59:39Z</time>
      </trkpt>
      <trkpt lat="43.53831" lon="2.94554">
        <ele>690</ele>
        <time>2019-03-03T09:59:40Z</time>
      </trkpt>
      <trkpt lat="43.53833" lon="2.94556">
        <ele>690</ele>
        <time>2019-03-03T09:59:41Z</time>
      </trkpt>
      <trkpt lat="43.53834" lon="2.94558">
        <ele>690</ele>
        <time>2019-03-03T09:59:42Z</time>
      </trkpt>
      <trkpt lat="43.53836" lon="2.94559">
        <ele>690</ele>
        <time>2019-03-03T09:59:43Z</time>
      </trkpt>
      <trkpt lat="43.53837" lon="2.94561">
        <ele>691</ele>
        <time>2019-03-03T09:59:44Z</time>
      </trkpt>
      <trkpt lat="43.53839" lon="2.94562">
        <ele>691</ele>
        <time>2019-03-03T09:59:45Z</time>
      </trkpt>
      <trkpt lat="43.53841" lon="2.94564">
        <ele>691</ele>
        <time>2019-03-03T09:59:46Z</time>
      </trkpt>
      <trkpt lat="43.53842" lon="2.94565">
        <ele>691</ele>
        <time>2019-03-03T09:59:47Z</time>
      </trkpt>
      <trkpt lat="43.53844" lon="2.94567">
        <ele>691</ele>
        <time>2019-03-03T09:59:48Z</time>
      </trkpt>
      <trkpt lat="43.53846" lon="2.94568">
        <ele>692</ele>
        <time>2019-03-03T09:59:49Z</time>
      </trkpt>
      <trkpt lat="43.53847" lon="2.9457">
        <ele>692</ele>
        <time>2019-03-03T09:59:50Z</time>
      </trkpt>
      <trkpt lat="43.53849" lon="2.94571">
        <ele>692</ele>
        <time>2019-03-03T09:59:51Z</time>
      </trkpt>
      <trkpt lat="43.53851" lon="2.94573">
        <ele>692</ele>
        <time>2019-03-03T09:59:52Z</time>
      </trkpt>
      <trkpt lat="43.53852" lon="2.94574">
        <ele>692</ele>
        <time>2019-03-03T09:59:53Z</time>
      </trkpt>
      <trkpt lat="43.53854" lon="2.94575">
        <ele>692</ele>
        <time>2019-03-03T09:59:54Z</time>
      </trkpt>
      <trkpt lat="43.53856" lon="2.94576">
        <ele>692</ele>
        <time>2019-03-03T09:59:55Z</time>
      </trkpt>
      <trkpt lat="43.53858" lon="2.94577">
        <ele>693</ele>
        <time>2019-03-03T09:59:56Z</time>
      </trkpt>
      <trkpt lat="43.5386" lon="2.94578">
        <ele>693</ele>
        <time>2019-03-03T09:59:57Z</time>
      </trkpt>
      <trkpt lat="43.53862" lon="2.94578">
        <ele>693</ele>
        <time>2019-03-03T09:59:58Z</time>
      </trkpt>
      <trkpt lat="43.53865" lon="2.94579">
        <ele>693</ele>
        <time>2019-03-03T09:59:59Z</time>
      </trkpt>
      <trkpt lat="43.53867" lon="2.94581">
        <ele>693</ele>
        <time>2019-03-03T10:00:00Z</time>
      </trkpt>
      <trkpt lat="43.53869" lon="2.94583">
        <ele>693</ele>
        <time>2019-03-03T10:00:01Z</time>
      </trkpt>
      <trkpt lat="43.53871" lon="2.94585">
        <ele>693</ele>
        <time>2019-03-03T10:00:02Z</time>
      </trkpt>
      <trkpt lat="43.53873" lon="2.94587">
        <ele>693</ele>
        <time>2019-03-03T10:00:03Z</time>
      </trkpt>
      <trkpt lat="43.53875" lon="2.94589">
        <ele>693</ele>
        <time>2019-03-03T10:00:04Z</time>
      </trkpt>
      <trkpt lat="43.53876" lon="2.94592">
        <ele>693</ele>
        <time>2019-03-03T10:00:05Z</time>
      </trkpt>
      <trkpt lat="43.53877" lon="2.94594">
        <ele>693</ele>
        <time>2019-03-03T10:00:06Z</time>
      </trkpt>
      <trkpt lat="43.53879" lon="2.94598">
        <ele>693</ele>
        <time>2019-03-03T10:00:07Z</time>
      </trkpt>
      <trkpt lat="43.53879" lon="2.94601">
        <ele>693</ele>
        <time>2019-03-03T10:00:08Z</time>
      </trkpt>
      <trkpt lat="43.53879" lon="2.94604">
        <ele>693</ele>
        <time>2019-03-03T10:00:09Z</time>
      </trkpt>
      <trkpt lat="43.53878" lon="2.94607">
        <ele>693</ele>
        <time>2019-03-03T10:00:10Z</time>
      </trkpt>
      <trkpt lat="43.53876" lon="2.94609">
        <ele>693</ele>
        <time>2019-03-03T10:00:11Z</time>
      </trkpt>
      <trkpt lat="43.53873" lon="2.9461">
        <ele>693</ele>
        <time>2019-03-03T10:00:12Z</time>
      </trkpt>
      <trkpt lat="43.53871" lon="2.9461">
        <ele>694</ele>
        <time>2019-03-03T10:00:13Z</time>
      </trkpt>
      <trkpt lat="43.53868" lon="2.9461">
        <ele>694</ele>
        <time>2019-03-03T10:00:14Z</time>
      </trkpt>
      <trkpt lat="43.53866" lon="2.94609">
        <ele>694</ele>
        <time>2019-03-03T10:00:15Z</time>
      </trkpt>
      <trkpt lat="43.53864" lon="2.94607">
        <ele>694</ele>
        <time>2019-03-03T10:00:16Z</time>
      </trkpt>
      <trkpt lat="43.53862" lon="2.94606">
        <ele>694</ele>
        <time>2019-03-03T10:00:17Z</time>
      </trkpt>
      <trkpt lat="43.5386" lon="2.94605">
        <ele>694</ele>
        <time>2019-03-03T10:00:18Z</time>
      </trkpt>
      <trkpt lat="43.53858" lon="2.94603">
        <ele>694</ele>
        <time>2019-03-03T10:00:19Z</time>
      </trkpt>
      <trkpt lat="43.53856" lon="2.94602">
        <ele>694</ele>
        <time>2019-03-03T10:00:20Z</time>
      </trkpt>
      <trkpt lat="43.53854" lon="2.94601">
        <ele>695</ele>
        <time>2019-03-03T10:00:21Z</time>
      </trkpt>
      <trkpt lat="43.53852" lon="2.946">
        <ele>695</ele>
        <time>2019-03-03T10:00:22Z</time>
      </trkpt>
      <trkpt lat="43.5385" lon="2.94598">
        <ele>695</ele>
        <time>2019-03-03T10:00:23Z</time>
      </trkpt>
      <trkpt lat="43.53848" lon="2.94597">
        <ele>695</ele>
        <time>2019-03-03T10:00:24Z</time>
      </trkpt>
      <trkpt lat="43.53846" lon="2.94596">
        <ele>695</ele>
        <time>2019-03-03T10:00:25Z</time>
      </trkpt>
      <trkpt lat="43.53844" lon="2.94595">
        <ele>695</ele>
        <time>2019-03-03T10:00:26Z</time>
      </trkpt>
      <trkpt lat="43.53842" lon="2.94594">
        <ele>696</ele>
        <time>2019-03-03T10:00:27Z</time>
      </trkpt>
      <trkpt lat="43.5384" lon="2.94593">
        <ele>696</ele>
        <time>2019-03-03T10:00:28Z</time>
      </trkpt>
      <trkpt lat="43.53838" lon="2.94591">
        <ele>696</ele>
        <time>2019-03-03T10:00:29Z</time>
      </trkpt>
      <trkpt lat="43.53836" lon="2.9459">
        <ele>696</ele>
        <time>2019-03-03T10:00:30Z</time>
      </trkpt>
      <trkpt lat="43.53834" lon="2.94589">
        <ele>696</ele>
        <time>2019-03-03T10:00:31Z</time>
      </trkpt>
      <trkpt lat="43.53832" lon="2.94588">
        <ele>696</ele>
        <time>2019-03-03T10:00:32Z</time>
      </trkpt>
      <trkpt lat="43.5383" lon="2.94587">
        <ele>697</ele>
        <time>2019-03-03T10:00:33Z</time>
      </trkpt>
      <trkpt lat="43.53828" lon="2.94585">
        <ele>697</ele>
        <time>2019-03-03T10:00:34Z</time>
      </trkpt>
      <trkpt lat="43.53826" lon="2.94584">
        <ele>697</ele>
        <time>2019-03-03T10:00:35Z</time>
      </trkpt>
      <trkpt lat="43.53824" lon="2.94583">
        <ele>697</ele>
        <time>2019-03-03T10:00:36Z</time>
      </trkpt>
      <trkpt lat="43.53823" lon="2.94582">
        <ele>697</ele>
        <time>2019-03-03T10:00:37Z</time>
      </trkpt>
      <trkpt lat="43.53821" lon="2.94581">
        <ele>698</ele>
        <time>2019-03-03T10:00:38Z</time>
      </trkpt>
      <trkpt lat="43.53819" lon="2.9458">
        <ele>698</ele>
        <time>2019-03-03T10:00:39Z</time>
      </trkpt>
      <trkpt lat="43.53817" lon="2.94579">
        <ele>698</ele>
        <time>2019-03-03T10:00:40Z</time>
      </trkpt>
      <trkpt lat="43.53815" lon="2.94578">
        <ele>698</ele>
        <time>2019-03-03T10:00:41Z</time>
      </trkpt>
      <trkpt lat="43.53813" lon="2.94577">
        <ele>699</ele>
        <time>2019-03-03T10:00:42Z</time>
      </trkpt>
      <trkpt lat="43.53811" lon="2.94576">
        <ele>699</ele>
        <time>2019-03-03T10:00:43Z</time>
      </trkpt>
      <trkpt lat="43.53809" lon="2.94575">
        <ele>699</ele>
        <time>2019-03-03T10:00:44Z</time>
      </trkpt>
      <trkpt lat="43.53807" lon="2.94574">
        <ele>699</ele>
        <time>2019-03-03T10:00:45Z</time>
      </trkpt>
      <trkpt lat="43.53805" lon="2.94573">
        <ele>699</ele>
        <time>2019-03-03T10:00:46Z</time>
      </trkpt>
      <trkpt lat="43.53803" lon="2.94572">
        <ele>700</ele>
        <time>2019-03-03T10:00:47Z</time>
      </trkpt>
      <trkpt lat="43.53801" lon="2.94571">
        <ele>700</ele>
        <time>2019-03-03T10:00:48Z</time>
      </trkpt>
      <trkpt lat="43.53799" lon="2.9457">
        <ele>700</ele>
        <time>2019-03-03T10:00:49Z</time>
      </trkpt>
      <trkpt lat="43.53797" lon="2.94569">
        <ele>700</ele>
        <time>2019-03-03T10:00:50Z</time>
      </trkpt>
      <trkpt lat="43.53795" lon="2.94568">
        <ele>701</ele>
        <time>2019-03-03T10:00:51Z</time>
      </trkpt>
      <trkpt lat="43.53793" lon="2.94567">
        <ele>701</ele>
        <time>2019-03-03T10:00:52Z</time>
      </trkpt>
      <trkpt lat="43.53791" lon="2.94566">
        <ele>701</ele>
        <time>2019-03-03T10:00:53Z</time>
      </trkpt>
      <trkpt lat="43.53789" lon="2.94565">
        <ele>701</ele>
        <time>2019-03-03T10:00:54Z</time>
      </trkpt>
      <trkpt lat="43.53787" lon="2.94564">
        <ele>701</ele>
        <time>2019-03-03T10:00:55Z</time>
      </trkpt>
      <trkpt lat="43.53785" lon="2.94563">
        <ele>701</ele>
        <time>2019-03-03T10:00:56Z</time>
      </trkpt>
      <trkpt lat="43.53783" lon="2.94563">
        <ele>702</ele>
        <time>2019-03-03T10:00:57Z</time>
      </trkpt>
      <trkpt lat="43.5378" lon="2.94562">
        <ele>702</ele>
        <time>2019-03-03T10:00:58Z</time>
      </trkpt>
      <trkpt lat="43.53778" lon="2.94561">
        <ele>702</ele>
        <time>2019-03-03T10:00:59Z</time>
      </trkpt>
      <trkpt lat="43.53776" lon="2.9456">
        <ele>702</ele>
        <time>2019-03-03T10:01:00Z</time>
      </trkpt>
      <trkpt lat="43.53774" lon="2.9456">
        <ele>703</ele>
        <time>2019-03-03T10:01:01Z</time>
      </trkpt>
      <trkpt lat="43.53772" lon="2.94559">
        <ele>703</ele>
        <time>2019-03-03T10:01:02Z</time>
      </trkpt>
      <trkpt lat="43.5377" lon="2.94558">
        <ele>703</ele>
        <time>2019-03-03T10:01:03Z</time>
      </trkpt>
      <trkpt lat="43.53768" lon="2.94558">
        <ele>703</ele>
        <time>2019-03-03T10:01:04Z</time>
      </trkpt>
      <trkpt lat="43.53766" lon="2.94557">
        <ele>703</ele>
        <time>2019-03-03T10:01:05Z</time>
      </trkpt>
      <trkpt lat="43.53764" lon="2.94556">
        <ele>704</ele>
        <time>2019-03-03T10:01:06Z</time>
      </trkpt>
      <trkpt lat="43.53762" lon="2.94556">
        <ele>704</ele>
        <time>2019-03-03T10:01:07Z</time>
      </trkpt>
      <trkpt lat="43.5376" lon="2.94555">
        <ele>704</ele>
        <time>2019-03-03T10:01:08Z</time>
      </trkpt>
      <trkpt lat="43.53758" lon="2.94554">
        <ele>704</ele>
        <time>2019-03-03T10:01:09Z</time>
      </trkpt>
      <trkpt lat="43.53756" lon="2.94554">
        <ele>704</ele>
        <time>2019-03-03T10:01:10Z</time>
      </trkpt>
      <trkpt lat="43.53754" lon="2.94553">
        <ele>704</ele>
        <time>2019-03-03T10:01:11Z</time>
      </trkpt>
      <trkpt lat="43.53752" lon="2.94552">
        <ele>705</ele>
        <time>2019-03-03T10:01:12Z</time>
      </trkpt>
      <trkpt lat="43.5375" lon="2.9455">
        <ele>705</ele>
        <time>2019-03-03T10:01:13Z</time>
      </trkpt>
      <trkpt lat="43.53748" lon="2.94549">
        <ele>705</ele>
        <time>2019-03-03T10:01:14Z</time>
      </trkpt>
      <trkpt lat="43.53746" lon="2.94548">
        <ele>706</ele>
        <time>2019-03-03T10:01:15Z</time>
      </trkpt>
      <trkpt lat="43.53744" lon="2.94547">
        <ele>706</ele>
        <time>2019-03-03T10:01:16Z</time>
      </trkpt>
      <trkpt lat="43.53742" lon="2.94546">
        <ele>706</ele>
        <time>2019-03-03T10:01:17Z</time>
      </trkpt>
      <trkpt lat="43.5374" lon="2.94545">
        <ele>706</ele>
        <time>2019-03-03T10:01:18Z</time>
      </trkpt>
      <trkpt lat="43.53738" lon="2.94544">
        <ele>706</ele>
        <time>2019-03-03T10:01:19Z</time>
      </trkpt>
      <trkpt lat="43.53736" lon="2.94543">
        <ele>706</ele>
        <time>2019-03-03T10:01:20Z</time>
      </trkpt>
      <trkpt lat="43.53734" lon="2.94542">
        <ele>707</ele>
        <time>2019-03-03T10:01:21Z</time>
      </trkpt>
      <trkpt lat="43.53732" lon="2.94541">
        <ele>707</ele>
        <time>2019-03-03T10:01:22Z</time>
      </trkpt>
      <trkpt lat="43.5373" lon="2.9454">
        <ele>707</ele>
        <time>2019-03-03T10:01:23Z</time>
      </trkpt>
      <trkpt lat="43.53729" lon="2.94539">
        <ele>707</ele>
        <time>2019-03-03T10:01:24Z</time>
      </trkpt>
      <trkpt lat="43.53727" lon="2.94538">
        <ele>707</ele>
        <time>2019-03-03T10:01:25Z</time>
      </trkpt>
      <trkpt lat="43.53725" lon="2.94537">
        <ele>707</ele>
        <time>2019-03-03T10:01:26Z</time>
      </trkpt>
      <trkpt lat="43.53724" lon="2.94536">
        <ele>707</ele>
        <time>2019-03-03T10:01:27Z</time>
      </trkpt>
      <trkpt lat="43.53722" lon="2.94535">
        <ele>708</ele>
        <time>2019-03-03T10:01:28Z</time>
      </trkpt>
      <trkpt lat="43.5372" lon="2.94534">
        <ele>708</ele>
        <time>2019-03-03T10:01:29Z</time>
      </trkpt>
      <trkpt lat="43.53719" lon="2.94533">
        <ele>708</ele>
        <time>2019-03-03T10:01:30Z</time>
      </trkpt>
      <trkpt lat="43.53717" lon="2.94532">
        <ele>709</ele>
        <time>2019-03-03T10:01:31Z</time>
      </trkpt>
      <trkpt lat="43.53715" lon="2.94531">
        <ele>709</ele>
        <time>2019-03-03T10:01:32Z</time>
      </trkpt>
      <trkpt lat="43.53714" lon="2.9453">
        <ele>709</ele>
        <time>2019-03-03T10:01:33Z</time>
      </trkpt>
      <trkpt lat="43.53712" lon="2.94529">
        <ele>709</ele>
        <time>2019-03-03T10:01:34Z</time>
      </trkpt>
      <trkpt lat="43.5371" lon="2.94528">
        <ele>709</ele>
        <time>2019-03-03T10:01:35Z</time>
      </trkpt>
      <trkpt lat="43.53708" lon="2.94527">
        <ele>710</ele>
        <time>2019-03-03T10:01:36Z</time>
      </trkpt>
      <trkpt lat="43.53706" lon="2.94525">
        <ele>710</ele>
        <time>2019-03-03T10:01:37Z</time>
      </trkpt>
      <trkpt lat="43.53704" lon="2.94524">
        <ele>710</ele>
        <time>2019-03-03T10:01:38Z</time>
      </trkpt>
      <trkpt lat="43.53703" lon="2.94522">
        <ele>710</ele>
        <time>2019-03-03T10:01:39Z</time>
      </trkpt>
      <trkpt lat="43.53701" lon="2.9452">
        <ele>710</ele>
        <time>2019-03-03T10:01:40Z</time>
      </trkpt>
      <trkpt lat="43.53699" lon="2.94518">
        <ele>710</ele>
        <time>2019-03-03T10:01:41Z</time>
      </trkpt>
      <trkpt lat="43.53697" lon="2.94517">
        <ele>710</ele>
        <time>2019-03-03T10:01:42Z</time>
      </trkpt>
      <trkpt lat="43.53695" lon="2.94516">
        <ele>711</ele>
        <time>2019-03-03T10:01:43Z</time>
      </trkpt>
      <trkpt lat="43.53693" lon="2.94514">
        <ele>711</ele>
        <time>2019-03-03T10:01:44Z</time>
      </trkpt>
      <trkpt lat="43.53691" lon="2.94513">
        <ele>711</ele>
        <time>2019-03-03T10:01:45Z</time>
      </trkpt>
      <trkpt lat="43.53689" lon="2.94511">
        <ele>711</ele>
        <time>2019-03-03T10:01:46Z</time>
      </trkpt>
      <trkpt lat="43.53687" lon="2.94509">
        <ele>711</ele>
        <time>2019-03-03T10:01:47Z</time>
      </trkpt>
      <trkpt lat="43.53685" lon="2.94507">
        <ele>711</ele>
        <time>2019-03-03T10:01:48Z</time>
      </trkpt>
      <trkpt lat="43.53683" lon="2.94506">
        <ele>712</ele>
        <time>2019-03-03T10:01:49Z</time>
      </trkpt>
      <trkpt lat="43.53681" lon="2.94504">
        <ele>712</ele>
        <time>2019-03-03T10:01:50Z</time>
      </trkpt>
      <trkpt lat="43.53679" lon="2.94503">
        <ele>712</ele>
        <time>2019-03-03T10:01:51Z</time>
      </trkpt>
      <trkpt lat="43.53677" lon="2.94501">
        <ele>712</ele>
        <time>2019-03-03T10:01:52Z</time>
      </trkpt>
      <trkpt lat="43.53675" lon="2.945">
        <ele>712</ele>
        <time>2019-03-03T10:01:53Z</time>
      </trkpt>
      <trkpt lat="43.53673" lon="2.94499">
        <ele>712</ele>
        <time>2019-03-03T10:01:54Z</time>
      </trkpt>
      <trkpt lat="43.5367" lon="2.94499">
        <ele>713</ele>
        <time>2019-03-03T10:01:55Z</time>
      </trkpt>
      <trkpt lat="43.53668" lon="2.94498">
        <ele>713</ele>
        <time>2019-03-03T10:01:56Z</time>
      </trkpt>
      <trkpt lat="43.53666" lon="2.94498">
        <ele>713</ele>
        <time>2019-03-03T10:01:57Z</time>
      </trkpt>
      <trkpt lat="43.53664" lon="2.94497">
        <ele>713</ele>
        <time>2019-03-03T10:01:58Z</time>
      </trkpt>
      <trkpt lat="43.53662" lon="2.94496">
        <ele>714</ele>
        <time>2019-03-03T10:01:59Z</time>
      </trkpt>
      <trkpt lat="43.5366" lon="2.94496">
        <ele>714</ele>
        <time>2019-03-03T10:02:00Z</time>
      </trkpt>
      <trkpt lat="43.53658" lon="2.94496">
        <ele>714</ele>
        <time>2019-03-03T10:02:01Z</time>
      </trkpt>
      <trkpt lat="43.53655" lon="2.94495">
        <ele>714</ele>
        <time>2019-03-03T10:02:02Z</time>
      </trkpt>
      <trkpt lat="43.53653" lon="2.94494">
        <ele>714</ele>
        <time>2019-03-03T10:02:03Z</time>
      </trkpt>
      <trkpt lat="43.53651" lon="2.94493">
        <ele>714</ele>
        <time>2019-03-03T10:02:04Z</time>
      </trkpt>
      <trkpt lat="43.53649" lon="2.94493">
        <ele>715</ele>
        <time>2019-03-03T10:02:05Z</time>
      </trkpt>
      <trkpt lat="43.53647" lon="2.94492">
        <ele>715</ele>
        <time>2019-03-03T10:02:06Z</time>
      </trkpt>
      <trkpt lat="43.53645" lon="2.94492">
        <ele>715</ele>
        <time>2019-03-03T10:02:07Z</time>
      </trkpt>
      <trkpt lat="43.53642" lon="2.94491">
        <ele>715</ele>
        <time>2019-03-03T10:02:08Z</time>
      </trkpt>
      <trkpt lat="43.5364" lon="2.94491">
        <ele>715</ele>
        <time>2019-03-03T10:02:09Z</time>
      </trkpt>
      <trkpt lat="43.53638" lon="2.9449">
        <ele>715</ele>
        <time>2019-03-03T10:02:10Z</time>
      </trkpt>
      <trkpt lat="43.53636" lon="2.9449">
        <ele>716</ele>
        <time>2019-03-03T10:02:11Z</time>
      </trkpt>
      <trkpt lat="43.53634" lon="2.9449">
        <ele>716</ele>
        <time>2019-03-03T10:02:12Z</time>
      </trkpt>
      <trkpt lat="43.53632" lon="2.94489">
        <ele>716</ele>
        <time>2019-03-03T10:02:13Z</time>
      </trkpt>
      <trkpt lat="43.53629" lon="2.94489">
        <ele>716</ele>
        <time>2019-03-03T10:02:14Z</time>
      </trkpt>
      <trkpt lat="43.53627" lon="2.94489">
        <ele>716</ele>
        <time>2019-03-03T10:02:15Z</time>
      </trkpt>
      <trkpt lat="43.53625" lon="2.94489">
        <ele>717</ele>
        <time>2019-03-03T10:02:16Z</time>
      </trkpt>
      <trkpt lat="43.53623" lon="2.94489">
        <ele>717</ele>
        <time>2019-03-03T10:02:17Z</time>
      </trkpt>
      <trkpt lat="43.53621" lon="2.94489">
        <ele>717</ele>
        <time>2019-03-03T10:02:18Z</time>
      </trkpt>
      <trkpt lat="43.53619" lon="2.94489">
        <ele>717</ele>
        <time>2019-03-03T10:02:19Z</time>
      </trkpt>
      <trkpt lat="43.53617" lon="2.9449">
        <ele>717</ele>
        <time>2019-03-03T10:02:20Z</time>
      </trkpt>
      <trkpt lat="43.53615" lon="2.9449">
        <ele>717</ele>
        <time>2019-03-03T10:02:21Z</time>
      </trkpt>
      <trkpt lat="43.53613" lon="2.9449">
        <ele>717</ele>
        <time>2019-03-03T10:02:22Z</time>
      </trkpt>
      <trkpt lat="43.53611" lon="2.94491">
        <ele>718</ele>
        <time>2019-03-03T10:02:23Z</time>
      </trkpt>
      <trkpt lat="43.53609" lon="2.94491">
        <ele>718</ele>
        <time>2019-03-03T10:02:24Z</time>
      </trkpt>
      <trkpt lat="43.53607" lon="2.94492">
        <ele>718</ele>
        <time>2019-03-03T10:02:25Z</time>
      </trkpt>
      <trkpt lat="43.53606" lon="2.94492">
        <ele>718</ele>
        <time>2019-03-03T10:02:26Z</time>
      </trkpt>
      <trkpt lat="43.53604" lon="2.94493">
        <ele>718</ele>
        <time>2019-03-03T10:02:27Z</time>
      </trkpt>
      <trkpt lat="43.53602" lon="2.94494">
        <ele>718</ele>
        <time>2019-03-03T10:02:28Z</time>
      </trkpt>
      <trkpt lat="43.536" lon="2.94495">
        <ele>719</ele>
        <time>2019-03-03T10:02:29Z</time>
      </trkpt>
      <trkpt lat="43.53599" lon="2.94496">
        <ele>719</ele>
        <time>2019-03-03T10:02:30Z</time>
      </trkpt>
      <trkpt lat="43.53597" lon="2.94497">
        <ele>719</ele>
        <time>2019-03-03T10:02:31Z</time>
      </trkpt>
      <trkpt lat="43.53595" lon="2.94498">
        <ele>719</ele>
        <time>2019-03-03T10:02:32Z</time>
      </trkpt>
      <trkpt lat="43.53593" lon="2.945">
        <ele>720</ele>
        <time>2019-03-03T10:02:33Z</time>
      </trkpt>
      <trkpt lat="43.53591" lon="2.94501">
        <ele>720</ele>
        <time>2019-03-03T10:02:34Z</time>
      </trkpt>
      <trkpt lat="43.53589" lon="2.94503">
        <ele>720</ele>
        <time>2019-03-03T10:02:35Z</time>
      </trkpt>
      <trkpt lat="43.53587" lon="2.94505">
        <ele>721</ele>
        <time>2019-03-03T10:02:36Z</time>
      </trkpt>
      <trkpt lat="43.53585" lon="2.94507">
        <ele>721</ele>
        <time>2019-03-03T10:02:37Z</time>
      </trkpt>
      <trkpt lat="43.53584" lon="2.94509">
        <ele>721</ele>
        <time>2019-03-03T10:02:38Z</time>
      </trkpt>
      <trkpt lat="43.53582" lon="2.94511">
        <ele>721</ele>
        <time>2019-03-03T10:02:39Z</time>
      </trkpt>
      <trkpt lat="43.5358" lon="2.94513">
        <ele>721</ele>
        <time>2019-03-03T10:02:40Z</time>
      </trkpt>
      <trkpt lat="43.53579" lon="2.94515">
        <ele>722</ele>
        <time>2019-03-03T10:02:41Z</time>
      </trkpt>
      <trkpt lat="43.53577" lon="2.94517">
        <ele>722</ele>
        <time>2019-03-03T10:02:42Z</time>
      </trkpt>
      <trkpt lat="43.53577" lon="2.94519">
        <ele>722</ele>
        <time>2019-03-03T10:02:43Z</time>
      </trkpt>
      <trkpt lat="43.53577" lon="2.94521">
        <ele>722</ele>
        <time>2019-03-03T10:02:44Z</time>
      </trkpt>
      <trkpt lat="43.53578" lon="2.94523">
        <ele>723</ele>
        <time>2019-03-03T10:02:45Z</time>
      </trkpt>
      <trkpt lat="43.53579" lon="2.94524">
        <ele>723</ele>
        <time>2019-03-03T10:02:46Z</time>
      </trkpt>
      <trkpt lat="43.53581" lon="2.94525">
        <ele>723</ele>
        <time>2019-03-03T10:02:47Z</time>
      </trkpt>
      <trkpt lat="43.53583" lon="2.94525">
        <ele>724</ele>
        <time>2019-03-03T10:02:48Z</time>
      </trkpt>
      <trkpt lat="43.53585" lon="2.94525">
        <ele>724</ele>
        <time>2019-03-03T10:02:49Z</time>
      </trkpt>
      <trkpt lat="43.53587" lon="2.94526">
        <ele>724</ele>
        <time>2019-03-03T10:02:50Z</time>
      </trkpt>
      <trkpt lat="43.53589" lon="2.94525">
        <ele>724</ele>
        <time>2019-03-03T10:02:51Z</time>
      </trkpt>
      <trkpt lat="43.53591" lon="2.94525">
        <ele>724</ele>
        <time>2019-03-03T10:02:52Z</time>
      </trkpt>
      <trkpt lat="43.53593" lon="2.94524">
        <ele>725</ele>
        <time>2019-03-03T10:02:53Z</time>
      </trkpt>
      <trkpt lat="43.53594" lon="2.94524">
        <ele>725</ele>
        <time>2019-03-03T10:02:54Z</time>
      </trkpt>
      <trkpt lat="43.53596" lon="2.94524">
        <ele>725</ele>
        <time>2019-03-03T10:02:55Z</time>
      </trkpt>
      <trkpt lat="43.53598" lon="2.94524">
        <ele>725</ele>
        <time>2019-03-03T10:02:56Z</time>
      </trkpt>
      <trkpt lat="43.536" lon="2.94523">
        <ele>726</ele>
        <time>2019-03-03T10:02:57Z</time>
      </trkpt>
      <trkpt lat="43.53602" lon="2.94523">
        <ele>726</ele>
        <time>2019-03-03T10:02:58Z</time>
      </trkpt>
      <trkpt lat="43.53604" lon="2.94523">
        <ele>726</ele>
        <time>2019-03-03T10:02:59Z</time>
      </trkpt>
      <trkpt lat="43.53606" lon="2.94523">
        <ele>726</ele>
        <time>2019-03-03T10:03:00Z</time>
      </trkpt>
      <trkpt lat="43.53608" lon="2.94523">
        <ele>727</ele>
        <time>2019-03-03T10:03:01Z</time>
      </trkpt>
      <trkpt lat="43.5361" lon="2.94523">
        <ele>727</ele>
        <time>2019-03-03T10:03:02Z</time>
      </trkpt>
      <trkpt lat="43.53612" lon="2.94524">
        <ele>727</ele>
        <time>2019-03-03T10:03:03Z</time>
      </trkpt>
      <trkpt lat="43.53614" lon="2.94524">
        <ele>728</ele>
        <time>2019-03-03T10:03:04Z</time>
      </trkpt>
      <trkpt lat="43.53616" lon="2.94526">
        <ele>728</ele>
        <time>2019-03-03T10:03:05Z</time>
      </trkpt>
      <trkpt lat="43.53618" lon="2.94527">
        <ele>728</ele>
        <time>2019-03-03T10:03:06Z</time>
      </trkpt>
      <trkpt lat="43.5362" lon="2.94528">
        <ele>728</ele>
        <time>2019-03-03T10:03:07Z</time>
      </trkpt>
      <trkpt lat="43.53622" lon="2.94529">
        <ele>728</ele>
        <time>2019-03-03T10:03:08Z</time>
      </trkpt>
      <trkpt lat="43.53624" lon="2.94531">
        <ele>728</ele>
        <time>2019-03-03T10:03:09Z</time>
      </trkpt>
      <trkpt lat="43.53626" lon="2.94532">
        <ele>728</ele>
        <time>2019-03-03T10:03:10Z</time>
      </trkpt>
      <trkpt lat="43.53628" lon="2.94533">
        <ele>728</ele>
        <time>2019-03-03T10:03:11Z</time>
      </trkpt>
      <trkpt lat="43.5363" lon="2.94534">
        <ele>729</ele>
        <time>2019-03-03T10:03:12Z</time>
      </trkpt>
      <trkpt lat="43.53632" lon="2.94536">
        <ele>729</ele>
        <time>2019-03-03T10:03:13Z</time>
      </trkpt>
      <trkpt lat="43.53634" lon="2.94537">
        <ele>729</ele>
        <time>2019-03-03T10:03:14Z</time>
      </trkpt>
      <trkpt lat="43.53636" lon="2.94539">
        <ele>729</ele>
        <time>2019-03-03T10:03:15Z</time>
      </trkpt>
      <trkpt lat="43.53638" lon="2.94541">
        <ele>729</ele>
        <time>2019-03-03T10:03:16Z</time>
      </trkpt>
      <trkpt lat="43.5364" lon="2.94542">
        <ele>729</ele>
        <time>2019-03-03T10:03:17Z</time>
      </trkpt>
      <trkpt lat="43.53642" lon="2.94544">
        <ele>730</ele>
        <time>2019-03-03T10:03:18Z</time>
      </trkpt>
      <trkpt lat="43.53644" lon="2.94545">
        <ele>730</ele>
        <time>2019-03-03T10:03:19Z</time>
      </trkpt>
      <trkpt lat="43.53646" lon="2.94547">
        <ele>730</ele>
        <time>2019-03-03T10:03:20Z</time>
      </trkpt>
      <trkpt lat="43.53648" lon="2.94548">
        <ele>730</ele>
        <time>2019-03-03T10:03:21Z</time>
      </trkpt>
      <trkpt lat="43.5365" lon="2.9455">
        <ele>730</ele>
        <time>2019-03-03T10:03:22Z</time>
      </trkpt>
      <trkpt lat="43.53652" lon="2.94552">
        <ele>731</ele>
        <time>2019-03-03T10:03:23Z</time>
      </trkpt>
      <trkpt lat="43.53653" lon="2.94553">
        <ele>731</ele>
        <time>2019-03-03T10:03:24Z</time>
      </trkpt>
      <trkpt lat="43.53655" lon="2.94555">
        <ele>731</ele>
        <time>2019-03-03T10:03:25Z</time>
      </trkpt>
      <trkpt lat="43.53657" lon="2.94556">
        <ele>731</ele>
        <time>2019-03-03T10:03:26Z</time>
      </trkpt>
      <trkpt lat="43.53659" lon="2.94558">
        <ele>731</ele>
        <time>2019-03-03T10:03:27Z</time>
      </trkpt>
      <trkpt lat="43.53661" lon="2.9456">
        <ele>731</ele>
        <time>2019-03-03T10:03:28Z</time>
      </trkpt>
      <trkpt lat="43.53663" lon="2.94562">
        <ele>732</ele>
        <time>2019-03-03T10:03:29Z</time>
      </trkpt>
      <trkpt lat="43.53665" lon="2.94563">
        <ele>732</ele>
        <time>2019-03-03T10:03:30Z</time>
      </trkpt>
      <trkpt lat="43.53666" lon="2.94565">
        <ele>732</ele>
        <time>2019-03-03T10:03:31Z</time>
      </trkpt>
      <trkpt lat="43.53668" lon="2.94567">
        <ele>732</ele>
        <time>2019-03-03T10:03:32Z</time>
      </trkpt>
      <trkpt lat="43.5367" lon="2.94569">
        <ele>732</ele>
        <time>2019-03-03T10:03:33Z</time>
      </trkpt>
      <trkpt lat="43.53671" lon="2.94572">
        <ele>733</ele>
        <time>2019-03-03T10:03:34Z</time>
      </trkpt>
      <trkpt lat="43.53672" lon="2.94574">
        <ele>733</ele>
        <time>2019-03-03T10:03:35Z</time>
      </trkpt>
      <trkpt lat="43.53674" lon="2.94576">
        <ele>733</ele>
        <time>2019-03-03T10:03:36Z</time>
      </trkpt>
      <trkpt lat="43.53675" lon="2.94578">
        <ele>733</ele>
        <time>2019-03-03T10:03:37Z</time>
      </trkpt>
      <trkpt lat="43.53677" lon="2.94581">
        <ele>734</ele>
        <time>2019-03-03T10:03:38Z</time>
      </trkpt>
      <trkpt lat="43.53678" lon="2.94583">
        <ele>734</ele>
        <time>2019-03-03T10:03:39Z</time>
      </trkpt>
      <trkpt lat="43.53679" lon="2.94586">
        <ele>734</ele>
        <time>2019-03-03T10:03:40Z</time>
      </trkpt>
      <trkpt lat="43.5368" lon="2.94588">
        <ele>734</ele>
        <time>2019-03-03T10:03:41Z</time>
      </trkpt>
      <trkpt lat="43.53681" lon="2.94591">
        <ele>734</ele>
        <time>2019-03-03T10:03:42Z</time>
      </trkpt>
      <trkpt lat="43.53682" lon="2.94593">
        <ele>734</ele>
        <time>2019-03-03T10:03:43Z</time>
      </trkpt>
      <trkpt lat="43.53683" lon="2.94596">
        <ele>735</ele>
        <time>2019-03-03T10:03:44Z</time>
      </trkpt>
      <trkpt lat="43.53684" lon="2.94598">
        <ele>735</ele>
        <time>2019-03-03T10:03:45Z</time>
      </trkpt>
      <trkpt lat="43.53686" lon="2.94601">
        <ele>735</ele>
        <time>2019-03-03T10:03:46Z</time>
      </trkpt>
      <trkpt lat="43.53687" lon="2.94603">
        <ele>735</ele>
        <time>2019-03-03T10:03:47Z</time>
      </trkpt>
      <trkpt lat="43.53689" lon="2.94606">
        <ele>735</ele>
        <time>2019-03-03T10:03:48Z</time>
      </trkpt>
      <trkpt lat="43.5369" lon="2.94608">
        <ele>736</ele>
        <time>2019-03-03T10:03:49Z</time>
      </trkpt>
      <trkpt lat="43.53691" lon="2.94611">
        <ele>736</ele>
        <time>2019-03-03T10:03:50Z</time>
      </trkpt>
      <trkpt lat="43.53692" lon="2.94613">
        <ele>736</ele>
        <time>2019-03-03T10:03:51Z</time>
      </trkpt>
      <trkpt lat="43.53694" lon="2.94615">
        <ele>736</ele>
        <time>2019-03-03T10:03:52Z</time>
      </trkpt>
      <trkpt lat="43.53695" lon="2.94618">
        <ele>736</ele>
        <time>2019-03-03T10:03:53Z</time>
      </trkpt>
      <trkpt lat="43.53696" lon="2.9462">
        <ele>737</ele>
        <time>2019-03-03T10:03:54Z</time>
      </trkpt>
      <trkpt lat="43.53698" lon="2.94622">
        <ele>737</ele>
        <time>2019-03-03T10:03:55Z</time>
      </trkpt>
      <trkpt lat="43.53699" lon="2.94625">
        <ele>737</ele>
        <time>2019-03-03T10:03:56Z</time>
      </trkpt>
      <trkpt lat="43.537" lon="2.94627">
        <ele>737</ele>
        <time>2019-03-03T10:03:57Z</time>
      </trkpt>
      <trkpt lat="43.53701" lon="2.94629">
        <ele>737</ele>
        <time>2019-03-03T10:03:58Z</time>
      </trkpt>
      <trkpt lat="43.53703" lon="2.94632">
        <ele>737</ele>
        <time>2019-03-03T10:03:59Z</time>
      </trkpt>
      <trkpt lat="43.53704" lon="2.94634">
        <ele>738</ele>
        <time>2019-03-03T10:04:00Z</time>
      </trkpt>
      <trkpt lat="43.53705" lon="2.94637">
        <ele>738</ele>
        <time>2019-03-03T10:04:01Z</time>
      </trkpt>
      <trkpt lat="43.53706" lon="2.9464">
        <ele>738</ele>
        <time>2019-03-03T10:04:02Z</time>
      </trkpt>
      <trkpt lat="43.53707" lon="2.94642">
        <ele>738</ele>
        <time>2019-03-03T10:04:03Z</time>
      </trkpt>
      <trkpt lat="43.53708" lon="2.94645">
        <ele>738</ele>
        <time>2019-03-03T10:04:04Z</time>
      </trkpt>
      <trkpt lat="43.53708" lon="2.94648">
        <ele>738</ele>
        <time>2019-03-03T10:04:05Z</time>
      </trkpt>
      <trkpt lat="43.53709" lon="2.94651">
        <ele>738</ele>
        <time>2019-03-03T10:04:06Z</time>
      </trkpt>
      <trkpt lat="43.5371" lon="2.94655">
        <ele>739</ele>
        <time>2019-03-03T10:04:07Z</time>
      </trkpt>
      <trkpt lat="43.53711" lon="2.94659">
        <ele>739</ele>
        <time>2019-03-03T10:04:08Z</time>
      </trkpt>
      <trkpt lat="43.53711" lon="2.94664">
        <ele>739</ele>
        <time>2019-03-03T10:04:09Z</time>
      </trkpt>
      <trkpt lat="43.53711" lon="2.94669">
        <ele>739</ele>
        <time>2019-03-03T10:04:10Z</time>
      </trkpt>
      <trkpt lat="43.53712" lon="2.94674">
        <ele>739</ele>
        <time>2019-03-03T10:04:11Z</time>
      </trkpt>
      <trkpt lat="43.53712" lon="2.94679">
        <ele>739</ele>
        <time>2019-03-03T10:04:12Z</time>
      </trkpt>
      <trkpt lat="43.53712" lon="2.94684">
        <ele>739</ele>
        <time>2019-03-03T10:04:13Z</time>
      </trkpt>
      <trkpt lat="43.53712" lon="2.94689">
        <ele>739</ele>
        <time>2019-03-03T10:04:14Z</time>
      </trkpt>
      <trkpt lat="43.53712" lon="2.94693">
        <ele>739</ele>
        <time>2019-03-03T10:04:15Z</time>
      </trkpt>
      <trkpt lat="43.53712" lon="2.94697">
        <ele>739</ele>
        <time>2019-03-03T10:04:16Z</time>
      </trkpt>
      <trkpt lat="43.53712" lon="2.94701">
        <ele>739</ele>
        <time>2019-03-03T10:04:17Z</time>
      </trkpt>
      <trkpt lat="43.53711" lon="2.94704">
        <ele>738</ele>
        <time>2019-03-03T10:04:18Z</time>
      </trkpt>
      <trkpt lat="43.53711" lon="2.94708">
        <ele>738</ele>
        <time>2019-03-03T10:04:19Z</time>
      </trkpt>
      <trkpt lat="43.53711" lon="2.94711">
        <ele>738</ele>
        <time>2019-03-03T10:04:20Z</time>
      </trkpt>
      <trkpt lat="43.5371" lon="2.94715">
        <ele>738</ele>
        <time>2019-03-03T10:04:21Z</time>
      </trkpt>
      <trkpt lat="43.53709" lon="2.94718">
        <ele>738</ele>
        <time>2019-03-03T10:04:22Z</time>
      </trkpt>
      <trkpt lat="43.53709" lon="2.9472">
        <ele>738</ele>
        <time>2019-03-03T10:04:23Z</time>
      </trkpt>
      <trkpt lat="43.53709" lon="2.94723">
        <ele>738</ele>
        <time>2019-03-03T10:04:24Z</time>
      </trkpt>
      <trkpt lat="43.53708" lon="2.94726">
        <ele>738</ele>
        <time>2019-03-03T10:04:25Z</time>
      </trkpt>
      <trkpt lat="43.53708" lon="2.94729">
        <ele>738</ele>
        <time>2019-03-03T10:04:26Z</time>
      </trkpt>
      <trkpt lat="43.53708" lon="2.94732">
        <ele>738</ele>
        <time>2019-03-03T10:04:27Z</time>
      </trkpt>
      <trkpt lat="43.53708" lon="2.94735">
        <ele>738</ele>
        <time>2019-03-03T10:04:28Z</time>
      </trkpt>
      <trkpt lat="43.53707" lon="2.94738">
        <ele>739</ele>
        <time>2019-03-03T10:04:29Z</time>
      </trkpt>
      <trkpt lat="43.53707" lon="2.94741">
        <ele>739</ele>
        <time>2019-03-03T10:04:30Z</time>
      </trkpt>
      <trkpt lat="43.53707" lon="2.94744">
        <ele>739</ele>
        <time>2019-03-03T10:04:31Z</time>
      </trkpt>
      <trkpt lat="43.53707" lon="2.94747">
        <ele>740</ele>
        <time>2019-03-03T10:04:32Z</time>
      </trkpt>
      <trkpt lat="43.53706" lon="2.9475">
        <ele>740</ele>
        <time>2019-03-03T10:04:33Z</time>
      </trkpt>
      <trkpt lat="43.53706" lon="2.94753">
        <ele>740</ele>
        <time>2019-03-03T10:04:34Z</time>
      </trkpt>
      <trkpt lat="43.53706" lon="2.94756">
        <ele>740</ele>
        <time>2019-03-03T10:04:35Z</time>
      </trkpt>
      <trkpt lat="43.53706" lon="2.94758">
        <ele>741</ele>
        <time>2019-03-03T10:04:36Z</time>
      </trkpt>
      <trkpt lat="43.53706" lon="2.94761">
        <ele>741</ele>
        <time>2019-03-03T10:04:37Z</time>
      </trkpt>
      <trkpt lat="43.53705" lon="2.94764">
        <ele>741</ele>
        <time>2019-03-03T10:04:38Z</time>
      </trkpt>
      <trkpt lat="43.53705" lon="2.94767">
        <ele>741</ele>
        <time>2019-03-03T10:04:39Z</time>
      </trkpt>
      <trkpt lat="43.53704" lon="2.9477">
        <ele>741</ele>
        <time>2019-03-03T10:04:40Z</time>
      </trkpt>
      <trkpt lat="43.53703" lon="2.94773">
        <ele>742</ele>
        <time>2019-03-03T10:04:41Z</time>
      </trkpt>
      <trkpt lat="43.53702" lon="2.94775">
        <ele>742</ele>
        <time>2019-03-03T10:04:42Z</time>
      </trkpt>
      <trkpt lat="43.53701" lon="2.94778">
        <ele>742</ele>
        <time>2019-03-03T10:04:43Z</time>
      </trkpt>
      <trkpt lat="43.537" lon="2.94781">
        <ele>742</ele>
        <time>2019-03-03T10:04:44Z</time>
      </trkpt>
      <trkpt lat="43.53699" lon="2.94783">
        <ele>743</ele>
        <time>2019-03-03T10:04:45Z</time>
      </trkpt>
      <trkpt lat="43.53698" lon="2.94785">
        <ele>743</ele>
        <time>2019-03-03T10:04:46Z</time>
      </trkpt>
      <trkpt lat="43.53697" lon="2.94788">
        <ele>743</ele>
        <time>2019-03-03T10:04:47Z</time>
      </trkpt>
      <trkpt lat="43.53696" lon="2.94791">
        <ele>743</ele>
        <time>2019-03-03T10:04:48Z</time>
      </trkpt>
      <trkpt lat="43.53696" lon="2.94793">
        <ele>743</ele>
        <time>2019-03-03T10:04:49Z</time>
      </trkpt>
      <trkpt lat="43.53695" lon="2.94796">
        <ele>743</ele>
        <time>2019-03-03T10:04:50Z</time>
      </trkpt>
      <trkpt lat="43.53695" lon="2.94799">
        <ele>744</ele>
        <time>2019-03-03T10:04:51Z</time>
      </trkpt>
      <trkpt lat="43.53694" lon="2.94803">
        <ele>744</ele>
        <time>2019-03-03T10:04:52Z</time>
      </trkpt>
      <trkpt lat="43.53694" lon="2.94806">
        <ele>744</ele>
        <time>2019-03-03T10:04:53Z</time>
      </trkpt>
      <trkpt lat="43.53695" lon="2.94809">
        <ele>744</ele>
        <time>2019-03-03T10:04:54Z</time>
      </trkpt>
      <trkpt lat="43.53696" lon="2.94811">
        <ele>745</ele>
        <time>2019-03-03T10:04:55Z</time>
      </trkpt>
      <trkpt lat="43.53696" lon="2.94811">
        <ele>745</ele>
        <time>2019-03-03T10:04:56Z</time>
      </trkpt>
      <trkpt lat="43.53696" lon="2.94811">
        <ele>745</ele>
        <time>2019-03-03T10:04:57Z</time>
      </trkpt>
      <trkpt lat="43.53696" lon="2.94811">
        <ele>745</ele>
        <time>2019-03-03T10:04:58Z</time>
      </trkpt>
      <trkpt lat="43.53699" lon="2.94803">
        <ele>746</ele>
        <time>2019-03-03T10:08:22Z</time>
      </trkpt>
      <trkpt lat="43.537" lon="2.94802">
        <ele>746</ele>
        <time>2019-03-03T10:08:23Z</time>
      </trkpt>
      <trkpt lat="43.537" lon="2.94802">
        <ele>746</ele>
        <time>2019-03-03T10:08:24Z</time>
      </trkpt>
      <trkpt lat="43.53701" lon="2.94801">
        <ele>746</ele>
        <time>2019-03-03T10:08:25Z</time>
      </trkpt>
      <trkpt lat="43.53702" lon="2.948">
        <ele>746</ele>
        <time>2019-03-03T10:08:26Z</time>
      </trkpt>
      <trkpt lat="43.53702" lon="2.94799">
        <ele>746</ele>
        <time>2019-03-03T10:08:27Z</time>
      </trkpt>
      <trkpt lat="43.53703" lon="2.94798">
        <ele>746</ele>
        <time>2019-03-03T10:08:28Z</time>
      </trkpt>
      <trkpt lat="43.53704" lon="2.94797">
        <ele>746</ele>
        <time>2019-03-03T10:08:29Z</time>
      </trkpt>
      <trkpt lat="43.53704" lon="2.94796">
        <ele>746</ele>
        <time>2019-03-03T10:08:30Z</time>
      </trkpt>
      <trkpt lat="43.53704" lon="2.94796">
        <ele>746</ele>
        <time>2019-03-03T10:08:31Z</time>
      </trkpt>
      <trkpt lat="43.53708" lon="2.94791">
        <ele>747</ele>
        <time>2019-03-03T10:08:56Z</time>
      </trkpt>
      <trkpt lat="43.5371" lon="2.94789">
        <ele>747</ele>
        <time>2019-03-03T10:08:57Z</time>
      </trkpt>
      <trkpt lat="43.53712" lon="2.94787">
        <ele>747</ele>
        <time>2019-03-03T10:08:58Z</time>
      </trkpt>
      <trkpt lat="43.53715" lon="2.94787">
        <ele>747</ele>
        <time>2019-03-03T10:08:59Z</time>
      </trkpt>
      <trkpt lat="43.53717" lon="2.94788">
        <ele>747</ele>
        <time>2019-03-03T10:09:00Z</time>
      </trkpt>
      <trkpt lat="43.53718" lon="2.94788">
        <ele>747</ele>
        <time>2019-03-03T10:09:01Z</time>
      </trkpt>
      <trkpt lat="43.5372" lon="2.94786">
        <ele>747</ele>
        <time>2019-03-03T10:09:02Z</time>
      </trkpt>
      <trkpt lat="43.53722" lon="2.94785">
        <ele>747</ele>
        <time>2019-03-03T10:09:03Z</time>
      </trkpt>
      <trkpt lat="43.53725" lon="2.94782">
        <ele>747</ele>
        <time>2019-03-03T10:09:04Z</time>
      </trkpt>
      <trkpt lat="43.53727" lon="2.9478">
        <ele>746</ele>
        <time>2019-03-03T10:09:05Z</time>
      </trkpt>
      <trkpt lat="43.53728" lon="2.94778">
        <ele>746</ele>
        <time>2019-03-03T10:09:06Z</time>
      </trkpt>
      <trkpt lat="43.53729" lon="2.94778">
        <ele>746</ele>
        <time>2019-03-03T10:09:07Z</time>
      </trkpt>
      <trkpt lat="43.5373" lon="2.94778">
        <ele>745</ele>
        <time>2019-03-03T10:09:08Z</time>
      </trkpt>
      <trkpt lat="43.53731" lon="2.94778">
        <ele>745</ele>
        <time>2019-03-03T10:09:09Z</time>
      </trkpt>
      <trkpt lat="43.53732" lon="2.94777">
        <ele>745</ele>
        <time>2019-03-03T10:09:10Z</time>
      </trkpt>
      <trkpt lat="43.53734" lon="2.94776">
        <ele>744</ele>
        <time>2019-03-03T10:09:11Z</time>
      </trkpt>
      <trkpt lat="43.53736" lon="2.94775">
        <ele>743</ele>
        <time>2019-03-03T10:09:12Z</time>
      </trkpt>
      <trkpt lat="43.53737" lon="2.94776">
        <ele>742</ele>
        <time>2019-03-03T10:09:13Z</time>
      </trkpt>
      <trkpt lat="43.53739" lon="2.94778">
        <ele>742</ele>
        <time>2019-03-03T10:09:14Z</time>
      </trkpt>
      <trkpt lat="43.53741" lon="2.94779">
        <ele>741</ele>
        <time>2019-03-03T10:09:15Z</time>
      </trkpt>
      <trkpt lat="43.53743" lon="2.94781">
        <ele>741</ele>
        <time>2019-03-03T10:09:16Z</time>
      </trkpt>
    </trkseg>
  </trk>
</gpx>